<?xml version="1.0" encoding="UTF-8" standalone="no" ?>
<gpx xmlns="http://www.topografix.com/GPX/1/1" xmlns:xsi="http://www.w3.org/2001/XMLSchema-instance" xsi:schemaLocation="http://www.topografix.com/GPX/1/1 http://www.topografix.com/GPX/1/1/gpx.xsd" version="1.1" creator="VisuGPX - https://www.visugpx.com">
  <metadata>
    <name>2025 09- Les 3 randos St Sulpice des Rivoired</name>
    <desc><![CDATA[Belle organisation par le sous des Écoles.
Départ au parking des vans au dessus du village.
Itinéraire sans difficulté avec bon terrain, juste la fin retour par route.
]]></desc>
  </metadata>
  <trk>
    <name><![CDATA[SityTrail - vs se Sulpice ]]></name>
    <trkseg>
      <trkpt lat="45.47294" lon="5.61124">
        <ele>604</ele>
        <time>2025-09-07T08:22:56.239Z</time>
      </trkpt>
      <trkpt lat="45.47299" lon="5.61115">
        <ele>604</ele>
        <time>2025-09-07T08:30:57.418Z</time>
      </trkpt>
      <trkpt lat="45.47296" lon="5.61112">
        <ele>604</ele>
        <time>2025-09-07T08:31:01.520Z</time>
      </trkpt>
      <trkpt lat="45.47292" lon="5.6111">
        <ele>605</ele>
        <time>2025-09-07T08:31:05.622Z</time>
      </trkpt>
      <trkpt lat="45.47286" lon="5.61112">
        <ele>605</ele>
        <time>2025-09-07T08:31:10.110Z</time>
      </trkpt>
      <trkpt lat="45.47281" lon="5.61115">
        <ele>605</ele>
        <time>2025-09-07T08:31:15.070Z</time>
      </trkpt>
      <trkpt lat="45.47278" lon="5.61116">
        <ele>605</ele>
        <time>2025-09-07T08:31:19.479Z</time>
      </trkpt>
      <trkpt lat="45.47274" lon="5.61117">
        <ele>605</ele>
        <time>2025-09-07T08:31:23.860Z</time>
      </trkpt>
      <trkpt lat="45.4727" lon="5.61117">
        <ele>605</ele>
        <time>2025-09-07T08:31:28.096Z</time>
      </trkpt>
      <trkpt lat="45.47265" lon="5.61114">
        <ele>605</ele>
        <time>2025-09-07T08:31:32.340Z</time>
      </trkpt>
      <trkpt lat="45.47261" lon="5.61108">
        <ele>607</ele>
        <time>2025-09-07T08:31:36.362Z</time>
      </trkpt>
      <trkpt lat="45.47258" lon="5.61102">
        <ele>607</ele>
        <time>2025-09-07T08:31:40.398Z</time>
      </trkpt>
      <trkpt lat="45.47255" lon="5.61097">
        <ele>606</ele>
        <time>2025-09-07T08:31:44.482Z</time>
      </trkpt>
      <trkpt lat="45.47252" lon="5.61091">
        <ele>606</ele>
        <time>2025-09-07T08:31:49.070Z</time>
      </trkpt>
      <trkpt lat="45.47248" lon="5.61085">
        <ele>606</ele>
        <time>2025-09-07T08:31:53.072Z</time>
      </trkpt>
      <trkpt lat="45.47246" lon="5.61077">
        <ele>606</ele>
        <time>2025-09-07T08:31:57.819Z</time>
      </trkpt>
      <trkpt lat="45.47243" lon="5.6107">
        <ele>606</ele>
        <time>2025-09-07T08:32:02.401Z</time>
      </trkpt>
      <trkpt lat="45.47242" lon="5.61063">
        <ele>605</ele>
        <time>2025-09-07T08:32:06.405Z</time>
      </trkpt>
      <trkpt lat="45.47241" lon="5.61057">
        <ele>605</ele>
        <time>2025-09-07T08:32:10.544Z</time>
      </trkpt>
      <trkpt lat="45.4724" lon="5.61053">
        <ele>605</ele>
        <time>2025-09-07T08:32:14.900Z</time>
      </trkpt>
      <trkpt lat="45.47238" lon="5.61049">
        <ele>605</ele>
        <time>2025-09-07T08:32:18.978Z</time>
      </trkpt>
      <trkpt lat="45.47234" lon="5.61043">
        <ele>606</ele>
        <time>2025-09-07T08:32:23.762Z</time>
      </trkpt>
      <trkpt lat="45.47231" lon="5.61035">
        <ele>604</ele>
        <time>2025-09-07T08:32:28.682Z</time>
      </trkpt>
      <trkpt lat="45.47228" lon="5.61026">
        <ele>604</ele>
        <time>2025-09-07T08:32:33.070Z</time>
      </trkpt>
      <trkpt lat="45.47226" lon="5.61018">
        <ele>604</ele>
        <time>2025-09-07T08:32:37.540Z</time>
      </trkpt>
      <trkpt lat="45.47224" lon="5.61011">
        <ele>602</ele>
        <time>2025-09-07T08:32:42.070Z</time>
      </trkpt>
      <trkpt lat="45.4722" lon="5.61005">
        <ele>602</ele>
        <time>2025-09-07T08:32:46.106Z</time>
      </trkpt>
      <trkpt lat="45.47216" lon="5.60998">
        <ele>602</ele>
        <time>2025-09-07T08:32:50.279Z</time>
      </trkpt>
      <trkpt lat="45.47212" lon="5.60994">
        <ele>602</ele>
        <time>2025-09-07T08:32:54.321Z</time>
      </trkpt>
      <trkpt lat="45.47209" lon="5.60991">
        <ele>602</ele>
        <time>2025-09-07T08:32:59.056Z</time>
      </trkpt>
      <trkpt lat="45.47205" lon="5.60988">
        <ele>601</ele>
        <time>2025-09-07T08:33:03.959Z</time>
      </trkpt>
      <trkpt lat="45.472" lon="5.60983">
        <ele>600</ele>
        <time>2025-09-07T08:33:08.860Z</time>
      </trkpt>
      <trkpt lat="45.47196" lon="5.60979">
        <ele>600</ele>
        <time>2025-09-07T08:33:12.919Z</time>
      </trkpt>
      <trkpt lat="45.47193" lon="5.60973">
        <ele>600</ele>
        <time>2025-09-07T08:33:16.979Z</time>
      </trkpt>
      <trkpt lat="45.47189" lon="5.60965">
        <ele>600</ele>
        <time>2025-09-07T08:33:22.020Z</time>
      </trkpt>
      <trkpt lat="45.47188" lon="5.60958">
        <ele>599</ele>
        <time>2025-09-07T08:33:26.038Z</time>
      </trkpt>
      <trkpt lat="45.47185" lon="5.60951">
        <ele>599</ele>
        <time>2025-09-07T08:33:30.079Z</time>
      </trkpt>
      <trkpt lat="45.47182" lon="5.60944">
        <ele>599</ele>
        <time>2025-09-07T08:33:34.144Z</time>
      </trkpt>
      <trkpt lat="45.47178" lon="5.60937">
        <ele>598</ele>
        <time>2025-09-07T08:33:38.113Z</time>
      </trkpt>
      <trkpt lat="45.47173" lon="5.6093">
        <ele>597</ele>
        <time>2025-09-07T08:33:42.581Z</time>
      </trkpt>
      <trkpt lat="45.4717" lon="5.60923">
        <ele>597</ele>
        <time>2025-09-07T08:33:47.070Z</time>
      </trkpt>
      <trkpt lat="45.47169" lon="5.60915">
        <ele>597</ele>
        <time>2025-09-07T08:33:51.070Z</time>
      </trkpt>
      <trkpt lat="45.47167" lon="5.60908">
        <ele>597</ele>
        <time>2025-09-07T08:33:55.620Z</time>
      </trkpt>
      <trkpt lat="45.47164" lon="5.60902">
        <ele>597</ele>
        <time>2025-09-07T08:34:00.108Z</time>
      </trkpt>
      <trkpt lat="45.47161" lon="5.60895">
        <ele>597</ele>
        <time>2025-09-07T08:34:04.117Z</time>
      </trkpt>
      <trkpt lat="45.47157" lon="5.6089">
        <ele>597</ele>
        <time>2025-09-07T08:34:08.598Z</time>
      </trkpt>
      <trkpt lat="45.47154" lon="5.60884">
        <ele>597</ele>
        <time>2025-09-07T08:34:12.719Z</time>
      </trkpt>
      <trkpt lat="45.47151" lon="5.60876">
        <ele>594</ele>
        <time>2025-09-07T08:34:17.661Z</time>
      </trkpt>
      <trkpt lat="45.47149" lon="5.6087">
        <ele>593</ele>
        <time>2025-09-07T08:34:21.691Z</time>
      </trkpt>
      <trkpt lat="45.47147" lon="5.60863">
        <ele>593</ele>
        <time>2025-09-07T08:34:26.599Z</time>
      </trkpt>
      <trkpt lat="45.47145" lon="5.60856">
        <ele>593</ele>
        <time>2025-09-07T08:34:30.720Z</time>
      </trkpt>
      <trkpt lat="45.47144" lon="5.60849">
        <ele>593</ele>
        <time>2025-09-07T08:34:34.877Z</time>
      </trkpt>
      <trkpt lat="45.47142" lon="5.60844">
        <ele>591</ele>
        <time>2025-09-07T08:34:38.960Z</time>
      </trkpt>
      <trkpt lat="45.47139" lon="5.60836">
        <ele>591</ele>
        <time>2025-09-07T08:34:43.740Z</time>
      </trkpt>
      <trkpt lat="45.47136" lon="5.6083">
        <ele>591</ele>
        <time>2025-09-07T08:34:47.861Z</time>
      </trkpt>
      <trkpt lat="45.47133" lon="5.60824">
        <ele>591</ele>
        <time>2025-09-07T08:34:52.682Z</time>
      </trkpt>
      <trkpt lat="45.4713" lon="5.6082">
        <ele>591</ele>
        <time>2025-09-07T08:34:56.877Z</time>
      </trkpt>
      <trkpt lat="45.47128" lon="5.60816">
        <ele>586</ele>
        <time>2025-09-07T08:35:00.961Z</time>
      </trkpt>
      <trkpt lat="45.47125" lon="5.60811">
        <ele>586</ele>
        <time>2025-09-07T08:35:05.144Z</time>
      </trkpt>
      <trkpt lat="45.47123" lon="5.60807">
        <ele>587</ele>
        <time>2025-09-07T08:35:09.075Z</time>
      </trkpt>
      <trkpt lat="45.4712" lon="5.608">
        <ele>587</ele>
        <time>2025-09-07T08:35:13.537Z</time>
      </trkpt>
      <trkpt lat="45.47118" lon="5.60794">
        <ele>587</ele>
        <time>2025-09-07T08:35:17.719Z</time>
      </trkpt>
      <trkpt lat="45.47117" lon="5.60787">
        <ele>584</ele>
        <time>2025-09-07T08:35:21.961Z</time>
      </trkpt>
      <trkpt lat="45.47115" lon="5.60781">
        <ele>584</ele>
        <time>2025-09-07T08:35:26.070Z</time>
      </trkpt>
      <trkpt lat="45.47112" lon="5.60775">
        <ele>584</ele>
        <time>2025-09-07T08:35:30.070Z</time>
      </trkpt>
      <trkpt lat="45.47109" lon="5.60768">
        <ele>584</ele>
        <time>2025-09-07T08:35:34.070Z</time>
      </trkpt>
      <trkpt lat="45.47104" lon="5.60762">
        <ele>581</ele>
        <time>2025-09-07T08:35:38.640Z</time>
      </trkpt>
      <trkpt lat="45.471" lon="5.60758">
        <ele>581</ele>
        <time>2025-09-07T08:35:42.798Z</time>
      </trkpt>
      <trkpt lat="45.47095" lon="5.60756">
        <ele>581</ele>
        <time>2025-09-07T08:35:46.961Z</time>
      </trkpt>
      <trkpt lat="45.47089" lon="5.60754">
        <ele>581</ele>
        <time>2025-09-07T08:35:51.070Z</time>
      </trkpt>
      <trkpt lat="45.47084" lon="5.60748">
        <ele>581</ele>
        <time>2025-09-07T08:35:55.398Z</time>
      </trkpt>
      <trkpt lat="45.47079" lon="5.60746">
        <ele>581</ele>
        <time>2025-09-07T08:35:59.701Z</time>
      </trkpt>
      <trkpt lat="45.47075" lon="5.60745">
        <ele>581</ele>
        <time>2025-09-07T08:36:04.078Z</time>
      </trkpt>
      <trkpt lat="45.47074" lon="5.60742">
        <ele>581</ele>
        <time>2025-09-07T08:36:08.820Z</time>
      </trkpt>
      <trkpt lat="45.47072" lon="5.60737">
        <ele>581</ele>
        <time>2025-09-07T08:36:13.819Z</time>
      </trkpt>
      <trkpt lat="45.47072" lon="5.60731">
        <ele>579</ele>
        <time>2025-09-07T08:36:18.038Z</time>
      </trkpt>
      <trkpt lat="45.47073" lon="5.60724">
        <ele>579</ele>
        <time>2025-09-07T08:36:22.145Z</time>
      </trkpt>
      <trkpt lat="45.47076" lon="5.60717">
        <ele>579</ele>
        <time>2025-09-07T08:36:26.522Z</time>
      </trkpt>
      <trkpt lat="45.47079" lon="5.60712">
        <ele>579</ele>
        <time>2025-09-07T08:36:30.760Z</time>
      </trkpt>
      <trkpt lat="45.47083" lon="5.6071">
        <ele>579</ele>
        <time>2025-09-07T08:36:35Z</time>
      </trkpt>
      <trkpt lat="45.47088" lon="5.6071">
        <ele>579</ele>
        <time>2025-09-07T08:36:39.879Z</time>
      </trkpt>
      <trkpt lat="45.4709" lon="5.60712">
        <ele>579</ele>
        <time>2025-09-07T08:36:43.981Z</time>
      </trkpt>
      <trkpt lat="45.47091" lon="5.60715">
        <ele>579</ele>
        <time>2025-09-07T08:36:48.242Z</time>
      </trkpt>
      <trkpt lat="45.47093" lon="5.60717">
        <ele>579</ele>
        <time>2025-09-07T08:36:52.782Z</time>
      </trkpt>
      <trkpt lat="45.47096" lon="5.6072">
        <ele>579</ele>
        <time>2025-09-07T08:36:57.098Z</time>
      </trkpt>
      <trkpt lat="45.47099" lon="5.6072">
        <ele>578</ele>
        <time>2025-09-07T08:37:01.220Z</time>
      </trkpt>
      <trkpt lat="45.47101" lon="5.60725">
        <ele>578</ele>
        <time>2025-09-07T08:37:05.939Z</time>
      </trkpt>
      <trkpt lat="45.47098" lon="5.60721">
        <ele>578</ele>
        <time>2025-09-07T08:37:35.858Z</time>
      </trkpt>
      <trkpt lat="45.47096" lon="5.60721">
        <ele>579</ele>
        <time>2025-09-07T08:37:40.070Z</time>
      </trkpt>
      <trkpt lat="45.47091" lon="5.60719">
        <ele>579</ele>
        <time>2025-09-07T08:37:45.098Z</time>
      </trkpt>
      <trkpt lat="45.47091" lon="5.60718">
        <ele>579</ele>
        <time>2025-09-07T08:37:50.134Z</time>
      </trkpt>
      <trkpt lat="45.47093" lon="5.60714">
        <ele>579</ele>
        <time>2025-09-07T08:37:54.840Z</time>
      </trkpt>
      <trkpt lat="45.47099" lon="5.60709">
        <ele>578</ele>
        <time>2025-09-07T08:38:27.070Z</time>
      </trkpt>
      <trkpt lat="45.471" lon="5.60711">
        <ele>578</ele>
        <time>2025-09-07T08:38:31.070Z</time>
      </trkpt>
      <trkpt lat="45.47102" lon="5.60715">
        <ele>578</ele>
        <time>2025-09-07T08:38:35.439Z</time>
      </trkpt>
      <trkpt lat="45.47106" lon="5.60718">
        <ele>578</ele>
        <time>2025-09-07T08:38:39.639Z</time>
      </trkpt>
      <trkpt lat="45.47109" lon="5.60721">
        <ele>578</ele>
        <time>2025-09-07T08:38:44.094Z</time>
      </trkpt>
      <trkpt lat="45.4711" lon="5.60722">
        <ele>578</ele>
        <time>2025-09-07T08:38:48.618Z</time>
      </trkpt>
      <trkpt lat="45.47114" lon="5.60721">
        <ele>578</ele>
        <time>2025-09-07T08:38:52.992Z</time>
      </trkpt>
      <trkpt lat="45.47119" lon="5.60726">
        <ele>578</ele>
        <time>2025-09-07T08:38:56.992Z</time>
      </trkpt>
      <trkpt lat="45.47128" lon="5.60736">
        <ele>579</ele>
        <time>2025-09-07T08:39:01.992Z</time>
      </trkpt>
      <trkpt lat="45.47137" lon="5.6074">
        <ele>579</ele>
        <time>2025-09-07T08:39:06.992Z</time>
      </trkpt>
      <trkpt lat="45.47144" lon="5.60737">
        <ele>579</ele>
        <time>2025-09-07T08:39:11.992Z</time>
      </trkpt>
      <trkpt lat="45.4715" lon="5.60731">
        <ele>577</ele>
        <time>2025-09-07T08:39:16.992Z</time>
      </trkpt>
      <trkpt lat="45.47151" lon="5.60728">
        <ele>577</ele>
        <time>2025-09-07T08:39:20.992Z</time>
      </trkpt>
      <trkpt lat="45.47151" lon="5.60725">
        <ele>577</ele>
        <time>2025-09-07T08:39:25.992Z</time>
      </trkpt>
      <trkpt lat="45.47154" lon="5.60724">
        <ele>576</ele>
        <time>2025-09-07T08:39:30.991Z</time>
      </trkpt>
      <trkpt lat="45.47157" lon="5.60725">
        <ele>576</ele>
        <time>2025-09-07T08:39:34.991Z</time>
      </trkpt>
      <trkpt lat="45.47161" lon="5.60726">
        <ele>576</ele>
        <time>2025-09-07T08:39:39.991Z</time>
      </trkpt>
      <trkpt lat="45.47166" lon="5.60728">
        <ele>576</ele>
        <time>2025-09-07T08:39:44.991Z</time>
      </trkpt>
      <trkpt lat="45.47172" lon="5.60729">
        <ele>576</ele>
        <time>2025-09-07T08:39:48.991Z</time>
      </trkpt>
      <trkpt lat="45.47179" lon="5.6073">
        <ele>576</ele>
        <time>2025-09-07T08:39:53.991Z</time>
      </trkpt>
      <trkpt lat="45.47185" lon="5.60733">
        <ele>578</ele>
        <time>2025-09-07T08:39:57.991Z</time>
      </trkpt>
      <trkpt lat="45.47192" lon="5.60736">
        <ele>578</ele>
        <time>2025-09-07T08:40:02.991Z</time>
      </trkpt>
      <trkpt lat="45.472" lon="5.6074">
        <ele>578</ele>
        <time>2025-09-07T08:40:06.991Z</time>
      </trkpt>
      <trkpt lat="45.47206" lon="5.60742">
        <ele>578</ele>
        <time>2025-09-07T08:40:11.991Z</time>
      </trkpt>
      <trkpt lat="45.47211" lon="5.60744">
        <ele>582</ele>
        <time>2025-09-07T08:40:17.099Z</time>
      </trkpt>
      <trkpt lat="45.47217" lon="5.60744">
        <ele>582</ele>
        <time>2025-09-07T08:40:20.991Z</time>
      </trkpt>
      <trkpt lat="45.47224" lon="5.60747">
        <ele>582</ele>
        <time>2025-09-07T08:40:25.991Z</time>
      </trkpt>
      <trkpt lat="45.47231" lon="5.60749">
        <ele>582</ele>
        <time>2025-09-07T08:40:30.991Z</time>
      </trkpt>
      <trkpt lat="45.47237" lon="5.6075">
        <ele>585</ele>
        <time>2025-09-07T08:40:34.991Z</time>
      </trkpt>
      <trkpt lat="45.47243" lon="5.60755">
        <ele>585</ele>
        <time>2025-09-07T08:40:39.991Z</time>
      </trkpt>
      <trkpt lat="45.4725" lon="5.60758">
        <ele>585</ele>
        <time>2025-09-07T08:40:44.991Z</time>
      </trkpt>
      <trkpt lat="45.47257" lon="5.60762">
        <ele>585</ele>
        <time>2025-09-07T08:40:49.991Z</time>
      </trkpt>
      <trkpt lat="45.47264" lon="5.60766">
        <ele>582</ele>
        <time>2025-09-07T08:40:54.991Z</time>
      </trkpt>
      <trkpt lat="45.4727" lon="5.60767">
        <ele>584</ele>
        <time>2025-09-07T08:40:59.991Z</time>
      </trkpt>
      <trkpt lat="45.47277" lon="5.60766">
        <ele>584</ele>
        <time>2025-09-07T08:41:04.991Z</time>
      </trkpt>
      <trkpt lat="45.47285" lon="5.60763">
        <ele>587</ele>
        <time>2025-09-07T08:41:09.991Z</time>
      </trkpt>
      <trkpt lat="45.47292" lon="5.6076">
        <ele>590</ele>
        <time>2025-09-07T08:41:14.991Z</time>
      </trkpt>
      <trkpt lat="45.47297" lon="5.60759">
        <ele>590</ele>
        <time>2025-09-07T08:41:18.991Z</time>
      </trkpt>
      <trkpt lat="45.47303" lon="5.6076">
        <ele>590</ele>
        <time>2025-09-07T08:41:23.991Z</time>
      </trkpt>
      <trkpt lat="45.47309" lon="5.60761">
        <ele>590</ele>
        <time>2025-09-07T08:41:28.991Z</time>
      </trkpt>
      <trkpt lat="45.47315" lon="5.60762">
        <ele>590</ele>
        <time>2025-09-07T08:41:33.991Z</time>
      </trkpt>
      <trkpt lat="45.47322" lon="5.60762">
        <ele>595</ele>
        <time>2025-09-07T08:41:38.991Z</time>
      </trkpt>
      <trkpt lat="45.47328" lon="5.6076">
        <ele>595</ele>
        <time>2025-09-07T08:41:43.991Z</time>
      </trkpt>
      <trkpt lat="45.47333" lon="5.60752">
        <ele>595</ele>
        <time>2025-09-07T08:41:48.991Z</time>
      </trkpt>
      <trkpt lat="45.47337" lon="5.60746">
        <ele>595</ele>
        <time>2025-09-07T08:41:53.991Z</time>
      </trkpt>
      <trkpt lat="45.47338" lon="5.60739">
        <ele>595</ele>
        <time>2025-09-07T08:41:57.991Z</time>
      </trkpt>
      <trkpt lat="45.47341" lon="5.60727">
        <ele>598</ele>
        <time>2025-09-07T08:42:02.991Z</time>
      </trkpt>
      <trkpt lat="45.47341" lon="5.60718">
        <ele>598</ele>
        <time>2025-09-07T08:42:07.991Z</time>
      </trkpt>
      <trkpt lat="45.47342" lon="5.60708">
        <ele>601</ele>
        <time>2025-09-07T08:42:12.991Z</time>
      </trkpt>
      <trkpt lat="45.47343" lon="5.60702">
        <ele>601</ele>
        <time>2025-09-07T08:42:16.991Z</time>
      </trkpt>
      <trkpt lat="45.47344" lon="5.60694">
        <ele>601</ele>
        <time>2025-09-07T08:42:21.991Z</time>
      </trkpt>
      <trkpt lat="45.47344" lon="5.60687">
        <ele>601</ele>
        <time>2025-09-07T08:42:25.991Z</time>
      </trkpt>
      <trkpt lat="45.47345" lon="5.60679">
        <ele>604</ele>
        <time>2025-09-07T08:42:29.991Z</time>
      </trkpt>
      <trkpt lat="45.47346" lon="5.60669">
        <ele>604</ele>
        <time>2025-09-07T08:42:34.991Z</time>
      </trkpt>
      <trkpt lat="45.47346" lon="5.60664">
        <ele>604</ele>
        <time>2025-09-07T08:42:38.991Z</time>
      </trkpt>
      <trkpt lat="45.47346" lon="5.60658">
        <ele>604</ele>
        <time>2025-09-07T08:42:42.991Z</time>
      </trkpt>
      <trkpt lat="45.47349" lon="5.6065">
        <ele>610</ele>
        <time>2025-09-07T08:42:46.991Z</time>
      </trkpt>
      <trkpt lat="45.47353" lon="5.60643">
        <ele>610</ele>
        <time>2025-09-07T08:42:51.991Z</time>
      </trkpt>
      <trkpt lat="45.47356" lon="5.60637">
        <ele>610</ele>
        <time>2025-09-07T08:42:55.991Z</time>
      </trkpt>
      <trkpt lat="45.47361" lon="5.60633">
        <ele>610</ele>
        <time>2025-09-07T08:43:00.991Z</time>
      </trkpt>
      <trkpt lat="45.47364" lon="5.60636">
        <ele>610</ele>
        <time>2025-09-07T08:43:04.991Z</time>
      </trkpt>
      <trkpt lat="45.47368" lon="5.60641">
        <ele>610</ele>
        <time>2025-09-07T08:43:09.991Z</time>
      </trkpt>
      <trkpt lat="45.47372" lon="5.60645">
        <ele>610</ele>
        <time>2025-09-07T08:43:14.991Z</time>
      </trkpt>
      <trkpt lat="45.47377" lon="5.60649">
        <ele>614</ele>
        <time>2025-09-07T08:43:19.991Z</time>
      </trkpt>
      <trkpt lat="45.47381" lon="5.60654">
        <ele>612</ele>
        <time>2025-09-07T08:43:24.991Z</time>
      </trkpt>
      <trkpt lat="45.47383" lon="5.60657">
        <ele>612</ele>
        <time>2025-09-07T08:43:28.991Z</time>
      </trkpt>
      <trkpt lat="45.47386" lon="5.60661">
        <ele>612</ele>
        <time>2025-09-07T08:43:33.991Z</time>
      </trkpt>
      <trkpt lat="45.47392" lon="5.60666">
        <ele>612</ele>
        <time>2025-09-07T08:43:37.991Z</time>
      </trkpt>
      <trkpt lat="45.47397" lon="5.60672">
        <ele>612</ele>
        <time>2025-09-07T08:43:42.991Z</time>
      </trkpt>
      <trkpt lat="45.47403" lon="5.60673">
        <ele>612</ele>
        <time>2025-09-07T08:43:46.991Z</time>
      </trkpt>
      <trkpt lat="45.47411" lon="5.60674">
        <ele>613</ele>
        <time>2025-09-07T08:43:51.991Z</time>
      </trkpt>
      <trkpt lat="45.47419" lon="5.60672">
        <ele>613</ele>
        <time>2025-09-07T08:43:55.991Z</time>
      </trkpt>
      <trkpt lat="45.47425" lon="5.60669">
        <ele>613</ele>
        <time>2025-09-07T08:44:00.991Z</time>
      </trkpt>
      <trkpt lat="45.47431" lon="5.60665">
        <ele>615</ele>
        <time>2025-09-07T08:44:05.991Z</time>
      </trkpt>
      <trkpt lat="45.47438" lon="5.6066">
        <ele>615</ele>
        <time>2025-09-07T08:44:10.991Z</time>
      </trkpt>
      <trkpt lat="45.47444" lon="5.60654">
        <ele>615</ele>
        <time>2025-09-07T08:44:15.991Z</time>
      </trkpt>
      <trkpt lat="45.47448" lon="5.60651">
        <ele>620</ele>
        <time>2025-09-07T08:44:19.991Z</time>
      </trkpt>
      <trkpt lat="45.47453" lon="5.60647">
        <ele>620</ele>
        <time>2025-09-07T08:44:24.991Z</time>
      </trkpt>
      <trkpt lat="45.47457" lon="5.60645">
        <ele>620</ele>
        <time>2025-09-07T08:44:28.991Z</time>
      </trkpt>
      <trkpt lat="45.47462" lon="5.60643">
        <ele>625</ele>
        <time>2025-09-07T08:44:33.991Z</time>
      </trkpt>
      <trkpt lat="45.47467" lon="5.60642">
        <ele>625</ele>
        <time>2025-09-07T08:44:37.991Z</time>
      </trkpt>
      <trkpt lat="45.47472" lon="5.6064">
        <ele>625</ele>
        <time>2025-09-07T08:44:42.991Z</time>
      </trkpt>
      <trkpt lat="45.47476" lon="5.60638">
        <ele>625</ele>
        <time>2025-09-07T08:44:46.991Z</time>
      </trkpt>
      <trkpt lat="45.4748" lon="5.60636">
        <ele>625</ele>
        <time>2025-09-07T08:44:51.991Z</time>
      </trkpt>
      <trkpt lat="45.47481" lon="5.60635">
        <ele>625</ele>
        <time>2025-09-07T08:44:56.991Z</time>
      </trkpt>
      <trkpt lat="45.47482" lon="5.60633">
        <ele>625</ele>
        <time>2025-09-07T08:45:02.991Z</time>
      </trkpt>
      <trkpt lat="45.47483" lon="5.60632">
        <ele>625</ele>
        <time>2025-09-07T08:45:06.991Z</time>
      </trkpt>
      <trkpt lat="45.47488" lon="5.60633">
        <ele>631</ele>
        <time>2025-09-07T08:45:12.991Z</time>
      </trkpt>
      <trkpt lat="45.4749" lon="5.60634">
        <ele>631</ele>
        <time>2025-09-07T08:45:16.991Z</time>
      </trkpt>
      <trkpt lat="45.47495" lon="5.60638">
        <ele>631</ele>
        <time>2025-09-07T08:45:21.991Z</time>
      </trkpt>
      <trkpt lat="45.47499" lon="5.6064">
        <ele>631</ele>
        <time>2025-09-07T08:45:25.991Z</time>
      </trkpt>
      <trkpt lat="45.47505" lon="5.6064">
        <ele>631</ele>
        <time>2025-09-07T08:45:29.991Z</time>
      </trkpt>
      <trkpt lat="45.47514" lon="5.60639">
        <ele>635</ele>
        <time>2025-09-07T08:45:35.991Z</time>
      </trkpt>
      <trkpt lat="45.47522" lon="5.60637">
        <ele>635</ele>
        <time>2025-09-07T08:45:40.991Z</time>
      </trkpt>
      <trkpt lat="45.47528" lon="5.6063">
        <ele>635</ele>
        <time>2025-09-07T08:45:44.991Z</time>
      </trkpt>
      <trkpt lat="45.47533" lon="5.6062">
        <ele>638</ele>
        <time>2025-09-07T08:45:49.991Z</time>
      </trkpt>
      <trkpt lat="45.4754" lon="5.60609">
        <ele>638</ele>
        <time>2025-09-07T08:45:53.991Z</time>
      </trkpt>
      <trkpt lat="45.4755" lon="5.60588">
        <ele>644</ele>
        <time>2025-09-07T08:45:58.991Z</time>
      </trkpt>
      <trkpt lat="45.47557" lon="5.60576">
        <ele>644</ele>
        <time>2025-09-07T08:46:03.820Z</time>
      </trkpt>
      <trkpt lat="45.47561" lon="5.60567">
        <ele>646</ele>
        <time>2025-09-07T08:46:08.161Z</time>
      </trkpt>
      <trkpt lat="45.47562" lon="5.6056">
        <ele>646</ele>
        <time>2025-09-07T08:46:12.599Z</time>
      </trkpt>
      <trkpt lat="45.47564" lon="5.60554">
        <ele>646</ele>
        <time>2025-09-07T08:46:16.614Z</time>
      </trkpt>
      <trkpt lat="45.47567" lon="5.60546">
        <ele>646</ele>
        <time>2025-09-07T08:46:20.991Z</time>
      </trkpt>
      <trkpt lat="45.47571" lon="5.60539">
        <ele>651</ele>
        <time>2025-09-07T08:46:25.991Z</time>
      </trkpt>
      <trkpt lat="45.47574" lon="5.60534">
        <ele>651</ele>
        <time>2025-09-07T08:46:29.991Z</time>
      </trkpt>
      <trkpt lat="45.47576" lon="5.60528">
        <ele>651</ele>
        <time>2025-09-07T08:46:33.991Z</time>
      </trkpt>
      <trkpt lat="45.47578" lon="5.60522">
        <ele>651</ele>
        <time>2025-09-07T08:46:37.991Z</time>
      </trkpt>
      <trkpt lat="45.4758" lon="5.60516">
        <ele>651</ele>
        <time>2025-09-07T08:46:41.991Z</time>
      </trkpt>
      <trkpt lat="45.47582" lon="5.60511">
        <ele>655</ele>
        <time>2025-09-07T08:46:46.590Z</time>
      </trkpt>
      <trkpt lat="45.47585" lon="5.60506">
        <ele>655</ele>
        <time>2025-09-07T08:46:50.991Z</time>
      </trkpt>
      <trkpt lat="45.47589" lon="5.60503">
        <ele>655</ele>
        <time>2025-09-07T08:46:55.990Z</time>
      </trkpt>
      <trkpt lat="45.47593" lon="5.60501">
        <ele>655</ele>
        <time>2025-09-07T08:46:59.990Z</time>
      </trkpt>
      <trkpt lat="45.47596" lon="5.60496">
        <ele>655</ele>
        <time>2025-09-07T08:47:03.990Z</time>
      </trkpt>
      <trkpt lat="45.476" lon="5.60487">
        <ele>658</ele>
        <time>2025-09-07T08:47:08.990Z</time>
      </trkpt>
      <trkpt lat="45.47603" lon="5.60479">
        <ele>662</ele>
        <time>2025-09-07T08:47:13.990Z</time>
      </trkpt>
      <trkpt lat="45.47606" lon="5.6047">
        <ele>662</ele>
        <time>2025-09-07T08:47:17.990Z</time>
      </trkpt>
      <trkpt lat="45.47607" lon="5.60462">
        <ele>662</ele>
        <time>2025-09-07T08:47:21.990Z</time>
      </trkpt>
      <trkpt lat="45.47608" lon="5.60456">
        <ele>666</ele>
        <time>2025-09-07T08:47:25.990Z</time>
      </trkpt>
      <trkpt lat="45.47609" lon="5.60447">
        <ele>666</ele>
        <time>2025-09-07T08:47:30.990Z</time>
      </trkpt>
      <trkpt lat="45.47609" lon="5.60437">
        <ele>666</ele>
        <time>2025-09-07T08:47:34.990Z</time>
      </trkpt>
      <trkpt lat="45.4761" lon="5.60428">
        <ele>670</ele>
        <time>2025-09-07T08:47:39.990Z</time>
      </trkpt>
      <trkpt lat="45.47609" lon="5.6042">
        <ele>670</ele>
        <time>2025-09-07T08:47:44.990Z</time>
      </trkpt>
      <trkpt lat="45.47609" lon="5.60411">
        <ele>670</ele>
        <time>2025-09-07T08:47:49.990Z</time>
      </trkpt>
      <trkpt lat="45.47608" lon="5.60405">
        <ele>670</ele>
        <time>2025-09-07T08:47:54.990Z</time>
      </trkpt>
      <trkpt lat="45.47608" lon="5.60397">
        <ele>673</ele>
        <time>2025-09-07T08:47:59.990Z</time>
      </trkpt>
      <trkpt lat="45.4761" lon="5.6039">
        <ele>673</ele>
        <time>2025-09-07T08:48:04.990Z</time>
      </trkpt>
      <trkpt lat="45.47612" lon="5.60386">
        <ele>673</ele>
        <time>2025-09-07T08:48:09.990Z</time>
      </trkpt>
      <trkpt lat="45.47616" lon="5.60386">
        <ele>673</ele>
        <time>2025-09-07T08:48:14.990Z</time>
      </trkpt>
      <trkpt lat="45.4762" lon="5.60387">
        <ele>673</ele>
        <time>2025-09-07T08:48:18.990Z</time>
      </trkpt>
      <trkpt lat="45.47623" lon="5.60388">
        <ele>673</ele>
        <time>2025-09-07T08:48:23.990Z</time>
      </trkpt>
      <trkpt lat="45.47626" lon="5.60392">
        <ele>673</ele>
        <time>2025-09-07T08:48:27.990Z</time>
      </trkpt>
      <trkpt lat="45.47632" lon="5.60397">
        <ele>673</ele>
        <time>2025-09-07T08:48:32.990Z</time>
      </trkpt>
      <trkpt lat="45.47637" lon="5.60402">
        <ele>673</ele>
        <time>2025-09-07T08:48:36.990Z</time>
      </trkpt>
      <trkpt lat="45.47646" lon="5.60405">
        <ele>671</ele>
        <time>2025-09-07T08:48:42.990Z</time>
      </trkpt>
      <trkpt lat="45.4765" lon="5.60409">
        <ele>671</ele>
        <time>2025-09-07T08:48:47.520Z</time>
      </trkpt>
      <trkpt lat="45.47655" lon="5.60411">
        <ele>673</ele>
        <time>2025-09-07T08:48:51.519Z</time>
      </trkpt>
      <trkpt lat="45.4766" lon="5.60412">
        <ele>673</ele>
        <time>2025-09-07T08:48:55.962Z</time>
      </trkpt>
      <trkpt lat="45.47665" lon="5.60413">
        <ele>673</ele>
        <time>2025-09-07T08:49:00.340Z</time>
      </trkpt>
      <trkpt lat="45.4767" lon="5.60415">
        <ele>673</ele>
        <time>2025-09-07T08:49:04.400Z</time>
      </trkpt>
      <trkpt lat="45.47674" lon="5.60418">
        <ele>673</ele>
        <time>2025-09-07T08:49:08.460Z</time>
      </trkpt>
      <trkpt lat="45.4768" lon="5.60421">
        <ele>673</ele>
        <time>2025-09-07T08:49:12.520Z</time>
      </trkpt>
      <trkpt lat="45.47685" lon="5.60425">
        <ele>675</ele>
        <time>2025-09-07T08:49:16.566Z</time>
      </trkpt>
      <trkpt lat="45.47689" lon="5.6043">
        <ele>675</ele>
        <time>2025-09-07T08:49:21.042Z</time>
      </trkpt>
      <trkpt lat="45.47693" lon="5.60434">
        <ele>674</ele>
        <time>2025-09-07T08:49:25.518Z</time>
      </trkpt>
      <trkpt lat="45.47697" lon="5.60438">
        <ele>674</ele>
        <time>2025-09-07T08:49:29.522Z</time>
      </trkpt>
      <trkpt lat="45.47701" lon="5.60442">
        <ele>674</ele>
        <time>2025-09-07T08:49:34.021Z</time>
      </trkpt>
      <trkpt lat="45.47706" lon="5.60448">
        <ele>674</ele>
        <time>2025-09-07T08:49:38.459Z</time>
      </trkpt>
      <trkpt lat="45.47711" lon="5.60453">
        <ele>675</ele>
        <time>2025-09-07T08:49:42.599Z</time>
      </trkpt>
      <trkpt lat="45.47718" lon="5.60454">
        <ele>675</ele>
        <time>2025-09-07T08:49:46.640Z</time>
      </trkpt>
      <trkpt lat="45.47723" lon="5.60458">
        <ele>675</ele>
        <time>2025-09-07T08:49:50.579Z</time>
      </trkpt>
      <trkpt lat="45.47729" lon="5.60464">
        <ele>674</ele>
        <time>2025-09-07T08:49:54.990Z</time>
      </trkpt>
      <trkpt lat="45.47734" lon="5.60467">
        <ele>674</ele>
        <time>2025-09-07T08:49:59.763Z</time>
      </trkpt>
      <trkpt lat="45.47739" lon="5.6047">
        <ele>676</ele>
        <time>2025-09-07T08:50:03.921Z</time>
      </trkpt>
      <trkpt lat="45.47741" lon="5.60477">
        <ele>676</ele>
        <time>2025-09-07T08:50:08.070Z</time>
      </trkpt>
      <trkpt lat="45.47749" lon="5.60483">
        <ele>676</ele>
        <time>2025-09-07T08:50:12.686Z</time>
      </trkpt>
      <trkpt lat="45.47753" lon="5.60486">
        <ele>676</ele>
        <time>2025-09-07T08:50:17.066Z</time>
      </trkpt>
      <trkpt lat="45.47759" lon="5.60489">
        <ele>676</ele>
        <time>2025-09-07T08:50:22.001Z</time>
      </trkpt>
      <trkpt lat="45.47762" lon="5.60483">
        <ele>676</ele>
        <time>2025-09-07T08:50:26.269Z</time>
      </trkpt>
      <trkpt lat="45.47761" lon="5.60481">
        <ele>676</ele>
        <time>2025-09-07T08:50:31.070Z</time>
      </trkpt>
      <trkpt lat="45.47762" lon="5.60481">
        <ele>676</ele>
        <time>2025-09-07T08:50:35.070Z</time>
      </trkpt>
      <trkpt lat="45.47763" lon="5.60481">
        <ele>676</ele>
        <time>2025-09-07T08:50:39.828Z</time>
      </trkpt>
      <trkpt lat="45.47765" lon="5.60476">
        <ele>677</ele>
        <time>2025-09-07T08:50:45.070Z</time>
      </trkpt>
      <trkpt lat="45.47767" lon="5.60466">
        <ele>677</ele>
        <time>2025-09-07T08:50:49.486Z</time>
      </trkpt>
      <trkpt lat="45.47773" lon="5.6046">
        <ele>677</ele>
        <time>2025-09-07T08:50:53.944Z</time>
      </trkpt>
      <trkpt lat="45.47775" lon="5.60453">
        <ele>677</ele>
        <time>2025-09-07T08:50:57.984Z</time>
      </trkpt>
      <trkpt lat="45.47777" lon="5.60446">
        <ele>677</ele>
        <time>2025-09-07T08:51:02.268Z</time>
      </trkpt>
      <trkpt lat="45.47778" lon="5.6044">
        <ele>677</ele>
        <time>2025-09-07T08:51:07.084Z</time>
      </trkpt>
      <trkpt lat="45.47782" lon="5.60435">
        <ele>677</ele>
        <time>2025-09-07T08:51:11.542Z</time>
      </trkpt>
      <trkpt lat="45.47783" lon="5.60422">
        <ele>677</ele>
        <time>2025-09-07T08:51:16.134Z</time>
      </trkpt>
      <trkpt lat="45.47786" lon="5.60415">
        <ele>677</ele>
        <time>2025-09-07T08:51:20.419Z</time>
      </trkpt>
      <trkpt lat="45.47788" lon="5.60407">
        <ele>677</ele>
        <time>2025-09-07T08:51:24.461Z</time>
      </trkpt>
      <trkpt lat="45.47791" lon="5.604">
        <ele>679</ele>
        <time>2025-09-07T08:51:28.656Z</time>
      </trkpt>
      <trkpt lat="45.47792" lon="5.60392">
        <ele>680</ele>
        <time>2025-09-07T08:51:32.708Z</time>
      </trkpt>
      <trkpt lat="45.47795" lon="5.60386">
        <ele>680</ele>
        <time>2025-09-07T08:51:36.745Z</time>
      </trkpt>
      <trkpt lat="45.47797" lon="5.6038">
        <ele>680</ele>
        <time>2025-09-07T08:51:40.946Z</time>
      </trkpt>
      <trkpt lat="45.47798" lon="5.60374">
        <ele>683</ele>
        <time>2025-09-07T08:51:45.021Z</time>
      </trkpt>
      <trkpt lat="45.47801" lon="5.60366">
        <ele>683</ele>
        <time>2025-09-07T08:51:49.600Z</time>
      </trkpt>
      <trkpt lat="45.47805" lon="5.60359">
        <ele>683</ele>
        <time>2025-09-07T08:51:54.010Z</time>
      </trkpt>
      <trkpt lat="45.47808" lon="5.60354">
        <ele>683</ele>
        <time>2025-09-07T08:51:58.019Z</time>
      </trkpt>
      <trkpt lat="45.47812" lon="5.60349">
        <ele>683</ele>
        <time>2025-09-07T08:52:02.440Z</time>
      </trkpt>
      <trkpt lat="45.47818" lon="5.60345">
        <ele>687</ele>
        <time>2025-09-07T08:52:06.939Z</time>
      </trkpt>
      <trkpt lat="45.47823" lon="5.60342">
        <ele>685</ele>
        <time>2025-09-07T08:52:10.990Z</time>
      </trkpt>
      <trkpt lat="45.47827" lon="5.60338">
        <ele>685</ele>
        <time>2025-09-07T08:52:15.456Z</time>
      </trkpt>
      <trkpt lat="45.4783" lon="5.60333">
        <ele>685</ele>
        <time>2025-09-07T08:52:19.485Z</time>
      </trkpt>
      <trkpt lat="45.47833" lon="5.60326">
        <ele>685</ele>
        <time>2025-09-07T08:52:23.503Z</time>
      </trkpt>
      <trkpt lat="45.47835" lon="5.60318">
        <ele>686</ele>
        <time>2025-09-07T08:52:27.545Z</time>
      </trkpt>
      <trkpt lat="45.47835" lon="5.60311">
        <ele>686</ele>
        <time>2025-09-07T08:52:31.713Z</time>
      </trkpt>
      <trkpt lat="45.4783" lon="5.60306">
        <ele>686</ele>
        <time>2025-09-07T08:52:36.058Z</time>
      </trkpt>
      <trkpt lat="45.47824" lon="5.60301">
        <ele>686</ele>
        <time>2025-09-07T08:52:40.543Z</time>
      </trkpt>
      <trkpt lat="45.47819" lon="5.60296">
        <ele>689</ele>
        <time>2025-09-07T08:52:45.080Z</time>
      </trkpt>
      <trkpt lat="45.47815" lon="5.60291">
        <ele>688</ele>
        <time>2025-09-07T08:52:49.561Z</time>
      </trkpt>
      <trkpt lat="45.4781" lon="5.60287">
        <ele>688</ele>
        <time>2025-09-07T08:52:54.004Z</time>
      </trkpt>
      <trkpt lat="45.47806" lon="5.60281">
        <ele>688</ele>
        <time>2025-09-07T08:52:58.579Z</time>
      </trkpt>
      <trkpt lat="45.47802" lon="5.60275">
        <ele>688</ele>
        <time>2025-09-07T08:53:03.111Z</time>
      </trkpt>
      <trkpt lat="45.47798" lon="5.6027">
        <ele>688</ele>
        <time>2025-09-07T08:53:07.204Z</time>
      </trkpt>
      <trkpt lat="45.47793" lon="5.60265">
        <ele>688</ele>
        <time>2025-09-07T08:53:11.222Z</time>
      </trkpt>
      <trkpt lat="45.47788" lon="5.60259">
        <ele>688</ele>
        <time>2025-09-07T08:53:15.734Z</time>
      </trkpt>
      <trkpt lat="45.47784" lon="5.60255">
        <ele>688</ele>
        <time>2025-09-07T08:53:20.070Z</time>
      </trkpt>
      <trkpt lat="45.47779" lon="5.6025">
        <ele>688</ele>
        <time>2025-09-07T08:53:24.177Z</time>
      </trkpt>
      <trkpt lat="45.47776" lon="5.60245">
        <ele>688</ele>
        <time>2025-09-07T08:53:28.729Z</time>
      </trkpt>
      <trkpt lat="45.47772" lon="5.6024">
        <ele>688</ele>
        <time>2025-09-07T08:53:32.893Z</time>
      </trkpt>
      <trkpt lat="45.47767" lon="5.60237">
        <ele>688</ele>
        <time>2025-09-07T08:53:37.303Z</time>
      </trkpt>
      <trkpt lat="45.47764" lon="5.60233">
        <ele>688</ele>
        <time>2025-09-07T08:53:41.508Z</time>
      </trkpt>
      <trkpt lat="45.4776" lon="5.60228">
        <ele>688</ele>
        <time>2025-09-07T08:53:45.608Z</time>
      </trkpt>
      <trkpt lat="45.47759" lon="5.60221">
        <ele>688</ele>
        <time>2025-09-07T08:53:49.679Z</time>
      </trkpt>
      <trkpt lat="45.47761" lon="5.60213">
        <ele>688</ele>
        <time>2025-09-07T08:53:53.924Z</time>
      </trkpt>
      <trkpt lat="45.47765" lon="5.60204">
        <ele>688</ele>
        <time>2025-09-07T08:53:58.441Z</time>
      </trkpt>
      <trkpt lat="45.47768" lon="5.60199">
        <ele>688</ele>
        <time>2025-09-07T08:54:23.989Z</time>
      </trkpt>
      <trkpt lat="45.47769" lon="5.60196">
        <ele>688</ele>
        <time>2025-09-07T08:54:29.070Z</time>
      </trkpt>
      <trkpt lat="45.47771" lon="5.60192">
        <ele>688</ele>
        <time>2025-09-07T08:54:33.376Z</time>
      </trkpt>
      <trkpt lat="45.47781" lon="5.60179">
        <ele>689</ele>
        <time>2025-09-07T08:54:37.791Z</time>
      </trkpt>
      <trkpt lat="45.47795" lon="5.60156">
        <ele>690</ele>
        <time>2025-09-07T08:54:42.263Z</time>
      </trkpt>
      <trkpt lat="45.47818" lon="5.60117">
        <ele>694</ele>
        <time>2025-09-07T08:54:46.989Z</time>
      </trkpt>
      <trkpt lat="45.47829" lon="5.60099">
        <ele>695</ele>
        <time>2025-09-07T08:54:50.989Z</time>
      </trkpt>
      <trkpt lat="45.47835" lon="5.60092">
        <ele>698</ele>
        <time>2025-09-07T08:54:55.989Z</time>
      </trkpt>
      <trkpt lat="45.47838" lon="5.60088">
        <ele>698</ele>
        <time>2025-09-07T08:55:00.989Z</time>
      </trkpt>
      <trkpt lat="45.47842" lon="5.60081">
        <ele>698</ele>
        <time>2025-09-07T08:55:04.989Z</time>
      </trkpt>
      <trkpt lat="45.47847" lon="5.60075">
        <ele>698</ele>
        <time>2025-09-07T08:55:09.989Z</time>
      </trkpt>
      <trkpt lat="45.47851" lon="5.60071">
        <ele>699</ele>
        <time>2025-09-07T08:55:15.002Z</time>
      </trkpt>
      <trkpt lat="45.47857" lon="5.60063">
        <ele>700</ele>
        <time>2025-09-07T08:55:19.411Z</time>
      </trkpt>
      <trkpt lat="45.47864" lon="5.60056">
        <ele>700</ele>
        <time>2025-09-07T08:55:32.209Z</time>
      </trkpt>
      <trkpt lat="45.47866" lon="5.60053">
        <ele>700</ele>
        <time>2025-09-07T08:55:36.605Z</time>
      </trkpt>
      <trkpt lat="45.47869" lon="5.60044">
        <ele>700</ele>
        <time>2025-09-07T08:55:41.036Z</time>
      </trkpt>
      <trkpt lat="45.4787" lon="5.60034">
        <ele>702</ele>
        <time>2025-09-07T08:55:45.847Z</time>
      </trkpt>
      <trkpt lat="45.47865" lon="5.60021">
        <ele>702</ele>
        <time>2025-09-07T08:55:50.042Z</time>
      </trkpt>
      <trkpt lat="45.47858" lon="5.60015">
        <ele>702</ele>
        <time>2025-09-07T08:55:54.054Z</time>
      </trkpt>
      <trkpt lat="45.47851" lon="5.6001">
        <ele>704</ele>
        <time>2025-09-07T08:55:58.354Z</time>
      </trkpt>
      <trkpt lat="45.47844" lon="5.60009">
        <ele>705</ele>
        <time>2025-09-07T08:56:02.793Z</time>
      </trkpt>
      <trkpt lat="45.47838" lon="5.6001">
        <ele>705</ele>
        <time>2025-09-07T08:56:07.157Z</time>
      </trkpt>
      <trkpt lat="45.47832" lon="5.60007">
        <ele>705</ele>
        <time>2025-09-07T08:56:11.609Z</time>
      </trkpt>
      <trkpt lat="45.47827" lon="5.60004">
        <ele>705</ele>
        <time>2025-09-07T08:56:15.635Z</time>
      </trkpt>
      <trkpt lat="45.47822" lon="5.59999">
        <ele>705</ele>
        <time>2025-09-07T08:56:19.938Z</time>
      </trkpt>
      <trkpt lat="45.47816" lon="5.59997">
        <ele>703</ele>
        <time>2025-09-07T08:56:24.261Z</time>
      </trkpt>
      <trkpt lat="45.47811" lon="5.59997">
        <ele>703</ele>
        <time>2025-09-07T08:56:28.434Z</time>
      </trkpt>
      <trkpt lat="45.47804" lon="5.59995">
        <ele>703</ele>
        <time>2025-09-07T08:56:32.820Z</time>
      </trkpt>
      <trkpt lat="45.47798" lon="5.59993">
        <ele>703</ele>
        <time>2025-09-07T08:56:37.018Z</time>
      </trkpt>
      <trkpt lat="45.4779" lon="5.59989">
        <ele>701</ele>
        <time>2025-09-07T08:56:41.627Z</time>
      </trkpt>
      <trkpt lat="45.47783" lon="5.59985">
        <ele>703</ele>
        <time>2025-09-07T08:56:46.041Z</time>
      </trkpt>
      <trkpt lat="45.47777" lon="5.59983">
        <ele>703</ele>
        <time>2025-09-07T08:56:50.426Z</time>
      </trkpt>
      <trkpt lat="45.47772" lon="5.59981">
        <ele>703</ele>
        <time>2025-09-07T08:56:54.868Z</time>
      </trkpt>
      <trkpt lat="45.47767" lon="5.59977">
        <ele>703</ele>
        <time>2025-09-07T08:56:59.015Z</time>
      </trkpt>
      <trkpt lat="45.47763" lon="5.59972">
        <ele>700</ele>
        <time>2025-09-07T08:57:03.211Z</time>
      </trkpt>
      <trkpt lat="45.47757" lon="5.59968">
        <ele>700</ele>
        <time>2025-09-07T08:57:07.582Z</time>
      </trkpt>
      <trkpt lat="45.47752" lon="5.59966">
        <ele>700</ele>
        <time>2025-09-07T08:57:11.888Z</time>
      </trkpt>
      <trkpt lat="45.47746" lon="5.59962">
        <ele>700</ele>
        <time>2025-09-07T08:57:16.186Z</time>
      </trkpt>
      <trkpt lat="45.4774" lon="5.59961">
        <ele>700</ele>
        <time>2025-09-07T08:57:20.517Z</time>
      </trkpt>
      <trkpt lat="45.47735" lon="5.59957">
        <ele>700</ele>
        <time>2025-09-07T08:57:24.769Z</time>
      </trkpt>
      <trkpt lat="45.47729" lon="5.59954">
        <ele>700</ele>
        <time>2025-09-07T08:57:29.028Z</time>
      </trkpt>
      <trkpt lat="45.47722" lon="5.59951">
        <ele>700</ele>
        <time>2025-09-07T08:57:33.688Z</time>
      </trkpt>
      <trkpt lat="45.47711" lon="5.59946">
        <ele>700</ele>
        <time>2025-09-07T08:57:38.073Z</time>
      </trkpt>
      <trkpt lat="45.477" lon="5.59941">
        <ele>699</ele>
        <time>2025-09-07T08:57:42.414Z</time>
      </trkpt>
      <trkpt lat="45.47691" lon="5.59934">
        <ele>699</ele>
        <time>2025-09-07T08:57:46.436Z</time>
      </trkpt>
      <trkpt lat="45.47677" lon="5.59926">
        <ele>706</ele>
        <time>2025-09-07T08:57:51.096Z</time>
      </trkpt>
      <trkpt lat="45.47663" lon="5.59919">
        <ele>706</ele>
        <time>2025-09-07T08:57:59.833Z</time>
      </trkpt>
      <trkpt lat="45.47662" lon="5.59917">
        <ele>706</ele>
        <time>2025-09-07T08:58:04.078Z</time>
      </trkpt>
      <trkpt lat="45.47661" lon="5.59915">
        <ele>706</ele>
        <time>2025-09-07T08:58:08.621Z</time>
      </trkpt>
      <trkpt lat="45.4766" lon="5.59913">
        <ele>706</ele>
        <time>2025-09-07T08:58:12.665Z</time>
      </trkpt>
      <trkpt lat="45.47657" lon="5.5991">
        <ele>706</ele>
        <time>2025-09-07T08:58:16.779Z</time>
      </trkpt>
      <trkpt lat="45.47653" lon="5.59908">
        <ele>706</ele>
        <time>2025-09-07T08:58:20.789Z</time>
      </trkpt>
      <trkpt lat="45.4765" lon="5.59906">
        <ele>710</ele>
        <time>2025-09-07T08:58:25.256Z</time>
      </trkpt>
      <trkpt lat="45.47646" lon="5.59903">
        <ele>715</ele>
        <time>2025-09-07T08:58:29.732Z</time>
      </trkpt>
      <trkpt lat="45.47643" lon="5.59899">
        <ele>715</ele>
        <time>2025-09-07T08:58:34.091Z</time>
      </trkpt>
      <trkpt lat="45.47639" lon="5.59894">
        <ele>715</ele>
        <time>2025-09-07T08:58:38.262Z</time>
      </trkpt>
      <trkpt lat="45.47634" lon="5.5989">
        <ele>715</ele>
        <time>2025-09-07T08:58:42.332Z</time>
      </trkpt>
      <trkpt lat="45.4763" lon="5.59886">
        <ele>715</ele>
        <time>2025-09-07T08:58:46.417Z</time>
      </trkpt>
      <trkpt lat="45.47626" lon="5.59884">
        <ele>715</ele>
        <time>2025-09-07T08:58:50.536Z</time>
      </trkpt>
      <trkpt lat="45.47623" lon="5.59883">
        <ele>714</ele>
        <time>2025-09-07T08:58:55.059Z</time>
      </trkpt>
      <trkpt lat="45.47619" lon="5.59879">
        <ele>714</ele>
        <time>2025-09-07T08:58:59.672Z</time>
      </trkpt>
      <trkpt lat="45.47614" lon="5.59874">
        <ele>715</ele>
        <time>2025-09-07T08:59:03.986Z</time>
      </trkpt>
      <trkpt lat="45.47608" lon="5.59867">
        <ele>715</ele>
        <time>2025-09-07T08:59:08.439Z</time>
      </trkpt>
      <trkpt lat="45.47602" lon="5.59859">
        <ele>715</ele>
        <time>2025-09-07T08:59:12.570Z</time>
      </trkpt>
      <trkpt lat="45.47596" lon="5.5985">
        <ele>712</ele>
        <time>2025-09-07T08:59:17.054Z</time>
      </trkpt>
      <trkpt lat="45.47592" lon="5.59843">
        <ele>713</ele>
        <time>2025-09-07T08:59:21.225Z</time>
      </trkpt>
      <trkpt lat="45.47586" lon="5.59834">
        <ele>713</ele>
        <time>2025-09-07T08:59:25.685Z</time>
      </trkpt>
      <trkpt lat="45.47583" lon="5.59824">
        <ele>713</ele>
        <time>2025-09-07T08:59:29.715Z</time>
      </trkpt>
      <trkpt lat="45.47582" lon="5.59815">
        <ele>712</ele>
        <time>2025-09-07T08:59:34.141Z</time>
      </trkpt>
      <trkpt lat="45.47581" lon="5.59809">
        <ele>712</ele>
        <time>2025-09-07T08:59:38.631Z</time>
      </trkpt>
      <trkpt lat="45.47578" lon="5.59803">
        <ele>712</ele>
        <time>2025-09-07T08:59:43.064Z</time>
      </trkpt>
      <trkpt lat="45.47577" lon="5.59796">
        <ele>712</ele>
        <time>2025-09-07T08:59:48.109Z</time>
      </trkpt>
      <trkpt lat="45.47576" lon="5.59791">
        <ele>711</ele>
        <time>2025-09-07T08:59:52.758Z</time>
      </trkpt>
      <trkpt lat="45.47575" lon="5.59784">
        <ele>711</ele>
        <time>2025-09-07T08:59:57.283Z</time>
      </trkpt>
      <trkpt lat="45.47574" lon="5.59776">
        <ele>711</ele>
        <time>2025-09-07T09:00:01.336Z</time>
      </trkpt>
      <trkpt lat="45.47573" lon="5.59767">
        <ele>711</ele>
        <time>2025-09-07T09:00:05.591Z</time>
      </trkpt>
      <trkpt lat="45.47573" lon="5.59758">
        <ele>711</ele>
        <time>2025-09-07T09:00:09.953Z</time>
      </trkpt>
      <trkpt lat="45.47574" lon="5.59749">
        <ele>711</ele>
        <time>2025-09-07T09:00:14.567Z</time>
      </trkpt>
      <trkpt lat="45.47574" lon="5.59744">
        <ele>711</ele>
        <time>2025-09-07T09:00:19.031Z</time>
      </trkpt>
      <trkpt lat="45.47574" lon="5.59745">
        <ele>711</ele>
        <time>2025-09-07T09:00:23.040Z</time>
      </trkpt>
      <trkpt lat="45.47573" lon="5.59744">
        <ele>711</ele>
        <time>2025-09-07T09:00:28.076Z</time>
      </trkpt>
      <trkpt lat="45.47571" lon="5.59741">
        <ele>711</ele>
        <time>2025-09-07T09:00:32.736Z</time>
      </trkpt>
      <trkpt lat="45.47573" lon="5.59734">
        <ele>710</ele>
        <time>2025-09-07T09:00:37.375Z</time>
      </trkpt>
      <trkpt lat="45.47575" lon="5.59727">
        <ele>710</ele>
        <time>2025-09-07T09:00:41.573Z</time>
      </trkpt>
      <trkpt lat="45.47576" lon="5.59719">
        <ele>710</ele>
        <time>2025-09-07T09:00:45.579Z</time>
      </trkpt>
      <trkpt lat="45.47576" lon="5.59712">
        <ele>710</ele>
        <time>2025-09-07T09:00:49.557Z</time>
      </trkpt>
      <trkpt lat="45.47576" lon="5.59704">
        <ele>709</ele>
        <time>2025-09-07T09:00:54.058Z</time>
      </trkpt>
      <trkpt lat="45.47576" lon="5.59698">
        <ele>709</ele>
        <time>2025-09-07T09:00:58.524Z</time>
      </trkpt>
      <trkpt lat="45.47576" lon="5.59692">
        <ele>709</ele>
        <time>2025-09-07T09:01:03.133Z</time>
      </trkpt>
      <trkpt lat="45.47575" lon="5.59683">
        <ele>709</ele>
        <time>2025-09-07T09:01:07.775Z</time>
      </trkpt>
      <trkpt lat="45.47575" lon="5.59674">
        <ele>708</ele>
        <time>2025-09-07T09:01:12.416Z</time>
      </trkpt>
      <trkpt lat="45.47574" lon="5.59667">
        <ele>708</ele>
        <time>2025-09-07T09:01:16.992Z</time>
      </trkpt>
      <trkpt lat="45.47573" lon="5.59659">
        <ele>708</ele>
        <time>2025-09-07T09:01:21.070Z</time>
      </trkpt>
      <trkpt lat="45.47573" lon="5.5965">
        <ele>707</ele>
        <time>2025-09-07T09:01:25.551Z</time>
      </trkpt>
      <trkpt lat="45.47574" lon="5.59642">
        <ele>707</ele>
        <time>2025-09-07T09:01:29.962Z</time>
      </trkpt>
      <trkpt lat="45.47574" lon="5.59633">
        <ele>707</ele>
        <time>2025-09-07T09:01:34.431Z</time>
      </trkpt>
      <trkpt lat="45.47576" lon="5.59624">
        <ele>707</ele>
        <time>2025-09-07T09:01:38.809Z</time>
      </trkpt>
      <trkpt lat="45.47576" lon="5.59615">
        <ele>707</ele>
        <time>2025-09-07T09:01:43.144Z</time>
      </trkpt>
      <trkpt lat="45.47576" lon="5.59607">
        <ele>707</ele>
        <time>2025-09-07T09:01:47.604Z</time>
      </trkpt>
      <trkpt lat="45.47578" lon="5.59597">
        <ele>708</ele>
        <time>2025-09-07T09:01:51.784Z</time>
      </trkpt>
      <trkpt lat="45.4758" lon="5.59581">
        <ele>708</ele>
        <time>2025-09-07T09:01:56.057Z</time>
      </trkpt>
      <trkpt lat="45.47583" lon="5.59572">
        <ele>708</ele>
        <time>2025-09-07T09:02:00.586Z</time>
      </trkpt>
      <trkpt lat="45.47585" lon="5.59564">
        <ele>708</ele>
        <time>2025-09-07T09:02:04.794Z</time>
      </trkpt>
      <trkpt lat="45.47588" lon="5.59557">
        <ele>708</ele>
        <time>2025-09-07T09:02:09.112Z</time>
      </trkpt>
      <trkpt lat="45.47592" lon="5.59551">
        <ele>708</ele>
        <time>2025-09-07T09:02:14.043Z</time>
      </trkpt>
      <trkpt lat="45.47597" lon="5.59545">
        <ele>708</ele>
        <time>2025-09-07T09:02:18.565Z</time>
      </trkpt>
      <trkpt lat="45.47603" lon="5.59543">
        <ele>705</ele>
        <time>2025-09-07T09:02:23.046Z</time>
      </trkpt>
      <trkpt lat="45.47608" lon="5.59543">
        <ele>705</ele>
        <time>2025-09-07T09:02:27.097Z</time>
      </trkpt>
      <trkpt lat="45.47614" lon="5.59543">
        <ele>705</ele>
        <time>2025-09-07T09:02:31.517Z</time>
      </trkpt>
      <trkpt lat="45.4762" lon="5.59543">
        <ele>705</ele>
        <time>2025-09-07T09:02:35.981Z</time>
      </trkpt>
      <trkpt lat="45.47627" lon="5.59544">
        <ele>703</ele>
        <time>2025-09-07T09:02:40.434Z</time>
      </trkpt>
      <trkpt lat="45.47634" lon="5.59545">
        <ele>703</ele>
        <time>2025-09-07T09:02:44.748Z</time>
      </trkpt>
      <trkpt lat="45.4764" lon="5.59546">
        <ele>703</ele>
        <time>2025-09-07T09:02:49.009Z</time>
      </trkpt>
      <trkpt lat="45.47645" lon="5.59544">
        <ele>703</ele>
        <time>2025-09-07T09:02:52.997Z</time>
      </trkpt>
      <trkpt lat="45.47649" lon="5.59542">
        <ele>703</ele>
        <time>2025-09-07T09:02:57.676Z</time>
      </trkpt>
      <trkpt lat="45.47654" lon="5.59538">
        <ele>699</ele>
        <time>2025-09-07T09:03:02.042Z</time>
      </trkpt>
      <trkpt lat="45.47659" lon="5.59533">
        <ele>699</ele>
        <time>2025-09-07T09:03:06.616Z</time>
      </trkpt>
      <trkpt lat="45.47664" lon="5.59529">
        <ele>699</ele>
        <time>2025-09-07T09:03:10.979Z</time>
      </trkpt>
      <trkpt lat="45.47671" lon="5.59525">
        <ele>699</ele>
        <time>2025-09-07T09:03:14.992Z</time>
      </trkpt>
      <trkpt lat="45.47676" lon="5.59527">
        <ele>699</ele>
        <time>2025-09-07T09:03:19Z</time>
      </trkpt>
      <trkpt lat="45.47679" lon="5.59539">
        <ele>699</ele>
        <time>2025-09-07T09:03:23.386Z</time>
      </trkpt>
      <trkpt lat="45.47686" lon="5.59548">
        <ele>697</ele>
        <time>2025-09-07T09:03:28.045Z</time>
      </trkpt>
      <trkpt lat="45.47691" lon="5.59553">
        <ele>697</ele>
        <time>2025-09-07T09:03:32.053Z</time>
      </trkpt>
      <trkpt lat="45.477" lon="5.59563">
        <ele>697</ele>
        <time>2025-09-07T09:03:36.872Z</time>
      </trkpt>
      <trkpt lat="45.47707" lon="5.59572">
        <ele>698</ele>
        <time>2025-09-07T09:03:41.098Z</time>
      </trkpt>
      <trkpt lat="45.47713" lon="5.59583">
        <ele>697</ele>
        <time>2025-09-07T09:03:45.650Z</time>
      </trkpt>
      <trkpt lat="45.4772" lon="5.59598">
        <ele>698</ele>
        <time>2025-09-07T09:03:49.950Z</time>
      </trkpt>
      <trkpt lat="45.47727" lon="5.59612">
        <ele>698</ele>
        <time>2025-09-07T09:03:53.966Z</time>
      </trkpt>
      <trkpt lat="45.47744" lon="5.59635">
        <ele>699</ele>
        <time>2025-09-07T09:03:58.410Z</time>
      </trkpt>
      <trkpt lat="45.47755" lon="5.59647">
        <ele>699</ele>
        <time>2025-09-07T09:04:02.476Z</time>
      </trkpt>
      <trkpt lat="45.47766" lon="5.59649">
        <ele>701</ele>
        <time>2025-09-07T09:04:06.563Z</time>
      </trkpt>
      <trkpt lat="45.47771" lon="5.59644">
        <ele>701</ele>
        <time>2025-09-07T09:04:11.113Z</time>
      </trkpt>
      <trkpt lat="45.47773" lon="5.59637">
        <ele>701</ele>
        <time>2025-09-07T09:04:15.496Z</time>
      </trkpt>
      <trkpt lat="45.47777" lon="5.59629">
        <ele>701</ele>
        <time>2025-09-07T09:04:20.018Z</time>
      </trkpt>
      <trkpt lat="45.47779" lon="5.59622">
        <ele>700</ele>
        <time>2025-09-07T09:04:24.317Z</time>
      </trkpt>
      <trkpt lat="45.47782" lon="5.59615">
        <ele>700</ele>
        <time>2025-09-07T09:04:28.868Z</time>
      </trkpt>
      <trkpt lat="45.47785" lon="5.59609">
        <ele>700</ele>
        <time>2025-09-07T09:04:33.105Z</time>
      </trkpt>
      <trkpt lat="45.47788" lon="5.59603">
        <ele>700</ele>
        <time>2025-09-07T09:04:37.676Z</time>
      </trkpt>
      <trkpt lat="45.47791" lon="5.59597">
        <ele>698</ele>
        <time>2025-09-07T09:04:42.160Z</time>
      </trkpt>
      <trkpt lat="45.47795" lon="5.59591">
        <ele>699</ele>
        <time>2025-09-07T09:04:46.405Z</time>
      </trkpt>
      <trkpt lat="45.47799" lon="5.59587">
        <ele>699</ele>
        <time>2025-09-07T09:04:50.731Z</time>
      </trkpt>
      <trkpt lat="45.47803" lon="5.59584">
        <ele>699</ele>
        <time>2025-09-07T09:04:55.100Z</time>
      </trkpt>
      <trkpt lat="45.47808" lon="5.59582">
        <ele>699</ele>
        <time>2025-09-07T09:04:59.272Z</time>
      </trkpt>
      <trkpt lat="45.47814" lon="5.5958">
        <ele>699</ele>
        <time>2025-09-07T09:05:03.877Z</time>
      </trkpt>
      <trkpt lat="45.47818" lon="5.59576">
        <ele>699</ele>
        <time>2025-09-07T09:05:08.050Z</time>
      </trkpt>
      <trkpt lat="45.47823" lon="5.59574">
        <ele>698</ele>
        <time>2025-09-07T09:05:12.479Z</time>
      </trkpt>
      <trkpt lat="45.47827" lon="5.59571">
        <ele>698</ele>
        <time>2025-09-07T09:05:16.852Z</time>
      </trkpt>
      <trkpt lat="45.47832" lon="5.59567">
        <ele>695</ele>
        <time>2025-09-07T09:05:20.944Z</time>
      </trkpt>
      <trkpt lat="45.47835" lon="5.59565">
        <ele>695</ele>
        <time>2025-09-07T09:05:25.008Z</time>
      </trkpt>
      <trkpt lat="45.47839" lon="5.59562">
        <ele>695</ele>
        <time>2025-09-07T09:05:29.187Z</time>
      </trkpt>
      <trkpt lat="45.47843" lon="5.59561">
        <ele>695</ele>
        <time>2025-09-07T09:05:33.340Z</time>
      </trkpt>
      <trkpt lat="45.47846" lon="5.59561">
        <ele>695</ele>
        <time>2025-09-07T09:05:37.901Z</time>
      </trkpt>
      <trkpt lat="45.47851" lon="5.59562">
        <ele>693</ele>
        <time>2025-09-07T09:05:42.289Z</time>
      </trkpt>
      <trkpt lat="45.47855" lon="5.59561">
        <ele>693</ele>
        <time>2025-09-07T09:05:46.413Z</time>
      </trkpt>
      <trkpt lat="45.47858" lon="5.59563">
        <ele>693</ele>
        <time>2025-09-07T09:05:50.877Z</time>
      </trkpt>
      <trkpt lat="45.47862" lon="5.59565">
        <ele>693</ele>
        <time>2025-09-07T09:05:54.917Z</time>
      </trkpt>
      <trkpt lat="45.47866" lon="5.59565">
        <ele>693</ele>
        <time>2025-09-07T09:05:59.029Z</time>
      </trkpt>
      <trkpt lat="45.47871" lon="5.59566">
        <ele>693</ele>
        <time>2025-09-07T09:06:03.415Z</time>
      </trkpt>
      <trkpt lat="45.47876" lon="5.59565">
        <ele>690</ele>
        <time>2025-09-07T09:06:08.073Z</time>
      </trkpt>
      <trkpt lat="45.47881" lon="5.59564">
        <ele>690</ele>
        <time>2025-09-07T09:06:12.082Z</time>
      </trkpt>
      <trkpt lat="45.47885" lon="5.59565">
        <ele>690</ele>
        <time>2025-09-07T09:06:16.773Z</time>
      </trkpt>
      <trkpt lat="45.47889" lon="5.59565">
        <ele>690</ele>
        <time>2025-09-07T09:06:21.226Z</time>
      </trkpt>
      <trkpt lat="45.47894" lon="5.59566">
        <ele>690</ele>
        <time>2025-09-07T09:06:25.718Z</time>
      </trkpt>
      <trkpt lat="45.47899" lon="5.59566">
        <ele>690</ele>
        <time>2025-09-07T09:06:30.068Z</time>
      </trkpt>
      <trkpt lat="45.47904" lon="5.59568">
        <ele>683</ele>
        <time>2025-09-07T09:06:34.277Z</time>
      </trkpt>
      <trkpt lat="45.47909" lon="5.59568">
        <ele>683</ele>
        <time>2025-09-07T09:06:38.390Z</time>
      </trkpt>
      <trkpt lat="45.47916" lon="5.59569">
        <ele>683</ele>
        <time>2025-09-07T09:06:42.917Z</time>
      </trkpt>
      <trkpt lat="45.47922" lon="5.59569">
        <ele>688</ele>
        <time>2025-09-07T09:06:47.411Z</time>
      </trkpt>
      <trkpt lat="45.47927" lon="5.5957">
        <ele>688</ele>
        <time>2025-09-07T09:06:51.446Z</time>
      </trkpt>
      <trkpt lat="45.47932" lon="5.59571">
        <ele>683</ele>
        <time>2025-09-07T09:06:55.901Z</time>
      </trkpt>
      <trkpt lat="45.47939" lon="5.59572">
        <ele>683</ele>
        <time>2025-09-07T09:07:00.259Z</time>
      </trkpt>
      <trkpt lat="45.47945" lon="5.59575">
        <ele>683</ele>
        <time>2025-09-07T09:07:04.554Z</time>
      </trkpt>
      <trkpt lat="45.47951" lon="5.59579">
        <ele>683</ele>
        <time>2025-09-07T09:07:08.996Z</time>
      </trkpt>
      <trkpt lat="45.47955" lon="5.59585">
        <ele>683</ele>
        <time>2025-09-07T09:07:13.497Z</time>
      </trkpt>
      <trkpt lat="45.47959" lon="5.5959">
        <ele>677</ele>
        <time>2025-09-07T09:07:17.987Z</time>
      </trkpt>
      <trkpt lat="45.47962" lon="5.59595">
        <ele>677</ele>
        <time>2025-09-07T09:07:22.987Z</time>
      </trkpt>
      <trkpt lat="45.47966" lon="5.59599">
        <ele>680</ele>
        <time>2025-09-07T09:07:27.987Z</time>
      </trkpt>
      <trkpt lat="45.47969" lon="5.59603">
        <ele>680</ele>
        <time>2025-09-07T09:07:31.987Z</time>
      </trkpt>
      <trkpt lat="45.47972" lon="5.59609">
        <ele>680</ele>
        <time>2025-09-07T09:07:36.987Z</time>
      </trkpt>
      <trkpt lat="45.47976" lon="5.59616">
        <ele>680</ele>
        <time>2025-09-07T09:07:41.987Z</time>
      </trkpt>
      <trkpt lat="45.4798" lon="5.59623">
        <ele>680</ele>
        <time>2025-09-07T09:07:46.987Z</time>
      </trkpt>
      <trkpt lat="45.47983" lon="5.59631">
        <ele>684</ele>
        <time>2025-09-07T09:07:50.987Z</time>
      </trkpt>
      <trkpt lat="45.4799" lon="5.59643">
        <ele>676</ele>
        <time>2025-09-07T09:07:55.987Z</time>
      </trkpt>
      <trkpt lat="45.47997" lon="5.59657">
        <ele>682</ele>
        <time>2025-09-07T09:07:59.987Z</time>
      </trkpt>
      <trkpt lat="45.48005" lon="5.59672">
        <ele>682</ele>
        <time>2025-09-07T09:08:05.036Z</time>
      </trkpt>
      <trkpt lat="45.48014" lon="5.59684">
        <ele>685</ele>
        <time>2025-09-07T09:08:09.209Z</time>
      </trkpt>
      <trkpt lat="45.48021" lon="5.59695">
        <ele>683</ele>
        <time>2025-09-07T09:08:13.476Z</time>
      </trkpt>
      <trkpt lat="45.48026" lon="5.59703">
        <ele>683</ele>
        <time>2025-09-07T09:08:17.995Z</time>
      </trkpt>
      <trkpt lat="45.4803" lon="5.59709">
        <ele>687</ele>
        <time>2025-09-07T09:08:22.098Z</time>
      </trkpt>
      <trkpt lat="45.48036" lon="5.59716">
        <ele>687</ele>
        <time>2025-09-07T09:08:26.433Z</time>
      </trkpt>
      <trkpt lat="45.48042" lon="5.59722">
        <ele>681</ele>
        <time>2025-09-07T09:08:30.854Z</time>
      </trkpt>
      <trkpt lat="45.48047" lon="5.59726">
        <ele>681</ele>
        <time>2025-09-07T09:08:35.414Z</time>
      </trkpt>
      <trkpt lat="45.48051" lon="5.5973">
        <ele>681</ele>
        <time>2025-09-07T09:08:39.832Z</time>
      </trkpt>
      <trkpt lat="45.48055" lon="5.59736">
        <ele>681</ele>
        <time>2025-09-07T09:08:44.294Z</time>
      </trkpt>
      <trkpt lat="45.4806" lon="5.59742">
        <ele>686</ele>
        <time>2025-09-07T09:08:48.808Z</time>
      </trkpt>
      <trkpt lat="45.48063" lon="5.59749">
        <ele>686</ele>
        <time>2025-09-07T09:08:53.181Z</time>
      </trkpt>
      <trkpt lat="45.48065" lon="5.59755">
        <ele>686</ele>
        <time>2025-09-07T09:08:57.204Z</time>
      </trkpt>
      <trkpt lat="45.48069" lon="5.59761">
        <ele>679</ele>
        <time>2025-09-07T09:09:01.767Z</time>
      </trkpt>
      <trkpt lat="45.48073" lon="5.59768">
        <ele>683</ele>
        <time>2025-09-07T09:09:06.264Z</time>
      </trkpt>
      <trkpt lat="45.48078" lon="5.59774">
        <ele>683</ele>
        <time>2025-09-07T09:09:10.830Z</time>
      </trkpt>
      <trkpt lat="45.48081" lon="5.59779">
        <ele>683</ele>
        <time>2025-09-07T09:09:14.852Z</time>
      </trkpt>
      <trkpt lat="45.48084" lon="5.59785">
        <ele>683</ele>
        <time>2025-09-07T09:09:19.331Z</time>
      </trkpt>
      <trkpt lat="45.48087" lon="5.59792">
        <ele>683</ele>
        <time>2025-09-07T09:09:23.876Z</time>
      </trkpt>
      <trkpt lat="45.4809" lon="5.59798">
        <ele>687</ele>
        <time>2025-09-07T09:09:28.429Z</time>
      </trkpt>
      <trkpt lat="45.48094" lon="5.59803">
        <ele>687</ele>
        <time>2025-09-07T09:09:32.900Z</time>
      </trkpt>
      <trkpt lat="45.481" lon="5.5981">
        <ele>678</ele>
        <time>2025-09-07T09:09:37.257Z</time>
      </trkpt>
      <trkpt lat="45.48104" lon="5.59816">
        <ele>678</ele>
        <time>2025-09-07T09:09:41.454Z</time>
      </trkpt>
      <trkpt lat="45.48106" lon="5.59824">
        <ele>684</ele>
        <time>2025-09-07T09:09:45.761Z</time>
      </trkpt>
      <trkpt lat="45.48108" lon="5.59833">
        <ele>684</ele>
        <time>2025-09-07T09:09:49.994Z</time>
      </trkpt>
      <trkpt lat="45.48112" lon="5.59841">
        <ele>684</ele>
        <time>2025-09-07T09:09:54.396Z</time>
      </trkpt>
      <trkpt lat="45.48116" lon="5.59847">
        <ele>689</ele>
        <time>2025-09-07T09:09:58.769Z</time>
      </trkpt>
      <trkpt lat="45.48121" lon="5.59852">
        <ele>689</ele>
        <time>2025-09-07T09:10:03.098Z</time>
      </trkpt>
      <trkpt lat="45.48126" lon="5.59858">
        <ele>681</ele>
        <time>2025-09-07T09:10:07.628Z</time>
      </trkpt>
      <trkpt lat="45.4813" lon="5.59863">
        <ele>681</ele>
        <time>2025-09-07T09:10:11.686Z</time>
      </trkpt>
      <trkpt lat="45.48135" lon="5.59872">
        <ele>681</ele>
        <time>2025-09-07T09:10:15.954Z</time>
      </trkpt>
      <trkpt lat="45.48137" lon="5.59879">
        <ele>686</ele>
        <time>2025-09-07T09:10:20.508Z</time>
      </trkpt>
      <trkpt lat="45.48138" lon="5.59887">
        <ele>686</ele>
        <time>2025-09-07T09:10:25.092Z</time>
      </trkpt>
      <trkpt lat="45.48141" lon="5.59895">
        <ele>686</ele>
        <time>2025-09-07T09:10:29.406Z</time>
      </trkpt>
      <trkpt lat="45.48144" lon="5.59902">
        <ele>686</ele>
        <time>2025-09-07T09:10:33.684Z</time>
      </trkpt>
      <trkpt lat="45.48147" lon="5.59908">
        <ele>690</ele>
        <time>2025-09-07T09:10:38.073Z</time>
      </trkpt>
      <trkpt lat="45.4815" lon="5.59916">
        <ele>690</ele>
        <time>2025-09-07T09:10:42.606Z</time>
      </trkpt>
      <trkpt lat="45.48152" lon="5.59923">
        <ele>690</ele>
        <time>2025-09-07T09:10:46.957Z</time>
      </trkpt>
      <trkpt lat="45.48155" lon="5.59929">
        <ele>682</ele>
        <time>2025-09-07T09:10:51.023Z</time>
      </trkpt>
      <trkpt lat="45.48158" lon="5.59939">
        <ele>682</ele>
        <time>2025-09-07T09:10:55.229Z</time>
      </trkpt>
      <trkpt lat="45.48161" lon="5.59948">
        <ele>682</ele>
        <time>2025-09-07T09:10:59.534Z</time>
      </trkpt>
      <trkpt lat="45.48163" lon="5.59957">
        <ele>682</ele>
        <time>2025-09-07T09:11:03.859Z</time>
      </trkpt>
      <trkpt lat="45.48167" lon="5.59966">
        <ele>682</ele>
        <time>2025-09-07T09:11:08.232Z</time>
      </trkpt>
      <trkpt lat="45.4817" lon="5.59975">
        <ele>682</ele>
        <time>2025-09-07T09:11:12.422Z</time>
      </trkpt>
      <trkpt lat="45.48174" lon="5.59984">
        <ele>682</ele>
        <time>2025-09-07T09:11:16.512Z</time>
      </trkpt>
      <trkpt lat="45.4818" lon="5.59996">
        <ele>684</ele>
        <time>2025-09-07T09:11:21.034Z</time>
      </trkpt>
      <trkpt lat="45.48183" lon="5.60006">
        <ele>680</ele>
        <time>2025-09-07T09:11:25.448Z</time>
      </trkpt>
      <trkpt lat="45.48186" lon="5.60014">
        <ele>682</ele>
        <time>2025-09-07T09:11:30.076Z</time>
      </trkpt>
      <trkpt lat="45.48191" lon="5.60023">
        <ele>682</ele>
        <time>2025-09-07T09:11:34.087Z</time>
      </trkpt>
      <trkpt lat="45.48194" lon="5.60031">
        <ele>682</ele>
        <time>2025-09-07T09:11:38.693Z</time>
      </trkpt>
      <trkpt lat="45.48197" lon="5.60038">
        <ele>682</ele>
        <time>2025-09-07T09:11:43.210Z</time>
      </trkpt>
      <trkpt lat="45.482" lon="5.60046">
        <ele>683</ele>
        <time>2025-09-07T09:11:47.471Z</time>
      </trkpt>
      <trkpt lat="45.48203" lon="5.60053">
        <ele>683</ele>
        <time>2025-09-07T09:11:51.925Z</time>
      </trkpt>
      <trkpt lat="45.48208" lon="5.60061">
        <ele>683</ele>
        <time>2025-09-07T09:11:56.424Z</time>
      </trkpt>
      <trkpt lat="45.4821" lon="5.60069">
        <ele>683</ele>
        <time>2025-09-07T09:12:00.978Z</time>
      </trkpt>
      <trkpt lat="45.48213" lon="5.60078">
        <ele>682</ele>
        <time>2025-09-07T09:12:05.435Z</time>
      </trkpt>
      <trkpt lat="45.48215" lon="5.60086">
        <ele>682</ele>
        <time>2025-09-07T09:12:09.490Z</time>
      </trkpt>
      <trkpt lat="45.48217" lon="5.60094">
        <ele>682</ele>
        <time>2025-09-07T09:12:13.771Z</time>
      </trkpt>
      <trkpt lat="45.48219" lon="5.60101">
        <ele>681</ele>
        <time>2025-09-07T09:12:18.075Z</time>
      </trkpt>
      <trkpt lat="45.4822" lon="5.60112">
        <ele>681</ele>
        <time>2025-09-07T09:12:22.955Z</time>
      </trkpt>
      <trkpt lat="45.48218" lon="5.6012">
        <ele>681</ele>
        <time>2025-09-07T09:12:27.508Z</time>
      </trkpt>
      <trkpt lat="45.48217" lon="5.60127">
        <ele>681</ele>
        <time>2025-09-07T09:12:31.603Z</time>
      </trkpt>
      <trkpt lat="45.48216" lon="5.60136">
        <ele>681</ele>
        <time>2025-09-07T09:12:36.060Z</time>
      </trkpt>
      <trkpt lat="45.48216" lon="5.60146">
        <ele>681</ele>
        <time>2025-09-07T09:12:40.536Z</time>
      </trkpt>
      <trkpt lat="45.48217" lon="5.60155">
        <ele>678</ele>
        <time>2025-09-07T09:12:44.939Z</time>
      </trkpt>
      <trkpt lat="45.48218" lon="5.60164">
        <ele>678</ele>
        <time>2025-09-07T09:12:49.488Z</time>
      </trkpt>
      <trkpt lat="45.4822" lon="5.60171">
        <ele>678</ele>
        <time>2025-09-07T09:12:53.884Z</time>
      </trkpt>
      <trkpt lat="45.48223" lon="5.60179">
        <ele>678</ele>
        <time>2025-09-07T09:12:58.334Z</time>
      </trkpt>
      <trkpt lat="45.48226" lon="5.60185">
        <ele>673</ele>
        <time>2025-09-07T09:13:02.434Z</time>
      </trkpt>
      <trkpt lat="45.4823" lon="5.60193">
        <ele>673</ele>
        <time>2025-09-07T09:13:06.547Z</time>
      </trkpt>
      <trkpt lat="45.48239" lon="5.60192">
        <ele>666</ele>
        <time>2025-09-07T09:13:11.041Z</time>
      </trkpt>
      <trkpt lat="45.48249" lon="5.6019">
        <ele>666</ele>
        <time>2025-09-07T09:13:15.273Z</time>
      </trkpt>
      <trkpt lat="45.48254" lon="5.60189">
        <ele>666</ele>
        <time>2025-09-07T09:13:19.685Z</time>
      </trkpt>
      <trkpt lat="45.48259" lon="5.60186">
        <ele>666</ele>
        <time>2025-09-07T09:13:24.056Z</time>
      </trkpt>
      <trkpt lat="45.48265" lon="5.60183">
        <ele>661</ele>
        <time>2025-09-07T09:13:28.619Z</time>
      </trkpt>
      <trkpt lat="45.48272" lon="5.60179">
        <ele>666</ele>
        <time>2025-09-07T09:13:32.973Z</time>
      </trkpt>
      <trkpt lat="45.48279" lon="5.60174">
        <ele>666</ele>
        <time>2025-09-07T09:13:37.108Z</time>
      </trkpt>
      <trkpt lat="45.48289" lon="5.60171">
        <ele>666</ele>
        <time>2025-09-07T09:13:41.530Z</time>
      </trkpt>
      <trkpt lat="45.48296" lon="5.60171">
        <ele>662</ele>
        <time>2025-09-07T09:13:45.759Z</time>
      </trkpt>
      <trkpt lat="45.483" lon="5.6017">
        <ele>662</ele>
        <time>2025-09-07T09:13:50.058Z</time>
      </trkpt>
      <trkpt lat="45.48305" lon="5.60168">
        <ele>662</ele>
        <time>2025-09-07T09:13:54.601Z</time>
      </trkpt>
      <trkpt lat="45.4831" lon="5.6016">
        <ele>662</ele>
        <time>2025-09-07T09:13:58.793Z</time>
      </trkpt>
      <trkpt lat="45.48315" lon="5.6015">
        <ele>663</ele>
        <time>2025-09-07T09:14:02.953Z</time>
      </trkpt>
      <trkpt lat="45.4832" lon="5.60141">
        <ele>658</ele>
        <time>2025-09-07T09:14:07.454Z</time>
      </trkpt>
      <trkpt lat="45.48323" lon="5.60131">
        <ele>658</ele>
        <time>2025-09-07T09:14:11.676Z</time>
      </trkpt>
      <trkpt lat="45.48325" lon="5.60116">
        <ele>657</ele>
        <time>2025-09-07T09:14:16.159Z</time>
      </trkpt>
      <trkpt lat="45.48327" lon="5.60102">
        <ele>657</ele>
        <time>2025-09-07T09:14:20.553Z</time>
      </trkpt>
      <trkpt lat="45.48326" lon="5.6009">
        <ele>657</ele>
        <time>2025-09-07T09:14:24.611Z</time>
      </trkpt>
      <trkpt lat="45.48324" lon="5.60079">
        <ele>657</ele>
        <time>2025-09-07T09:14:28.715Z</time>
      </trkpt>
      <trkpt lat="45.48322" lon="5.60068">
        <ele>656</ele>
        <time>2025-09-07T09:14:32.876Z</time>
      </trkpt>
      <trkpt lat="45.48321" lon="5.60059">
        <ele>656</ele>
        <time>2025-09-07T09:14:37.026Z</time>
      </trkpt>
      <trkpt lat="45.48321" lon="5.60045">
        <ele>656</ele>
        <time>2025-09-07T09:14:41.812Z</time>
      </trkpt>
      <trkpt lat="45.48322" lon="5.60036">
        <ele>655</ele>
        <time>2025-09-07T09:14:46.315Z</time>
      </trkpt>
      <trkpt lat="45.48319" lon="5.60027">
        <ele>658</ele>
        <time>2025-09-07T09:14:50.917Z</time>
      </trkpt>
      <trkpt lat="45.48313" lon="5.60018">
        <ele>658</ele>
        <time>2025-09-07T09:14:55.392Z</time>
      </trkpt>
      <trkpt lat="45.48307" lon="5.6001">
        <ele>657</ele>
        <time>2025-09-07T09:14:59.732Z</time>
      </trkpt>
      <trkpt lat="45.48303" lon="5.60002">
        <ele>657</ele>
        <time>2025-09-07T09:15:03.903Z</time>
      </trkpt>
      <trkpt lat="45.48301" lon="5.59987">
        <ele>657</ele>
        <time>2025-09-07T09:15:08.481Z</time>
      </trkpt>
      <trkpt lat="45.48296" lon="5.59973">
        <ele>659</ele>
        <time>2025-09-07T09:15:12.545Z</time>
      </trkpt>
      <trkpt lat="45.48293" lon="5.59965">
        <ele>659</ele>
        <time>2025-09-07T09:15:16.724Z</time>
      </trkpt>
      <trkpt lat="45.48293" lon="5.59958">
        <ele>660</ele>
        <time>2025-09-07T09:15:21.067Z</time>
      </trkpt>
      <trkpt lat="45.48293" lon="5.59951">
        <ele>660</ele>
        <time>2025-09-07T09:15:25.021Z</time>
      </trkpt>
      <trkpt lat="45.48293" lon="5.59942">
        <ele>660</ele>
        <time>2025-09-07T09:15:29.816Z</time>
      </trkpt>
      <trkpt lat="45.48294" lon="5.59931">
        <ele>660</ele>
        <time>2025-09-07T09:15:34.689Z</time>
      </trkpt>
      <trkpt lat="45.48293" lon="5.59922">
        <ele>659</ele>
        <time>2025-09-07T09:15:39.101Z</time>
      </trkpt>
      <trkpt lat="45.48291" lon="5.59915">
        <ele>659</ele>
        <time>2025-09-07T09:15:43.543Z</time>
      </trkpt>
      <trkpt lat="45.4829" lon="5.59909">
        <ele>659</ele>
        <time>2025-09-07T09:15:47.918Z</time>
      </trkpt>
      <trkpt lat="45.48292" lon="5.59902">
        <ele>659</ele>
        <time>2025-09-07T09:15:52.051Z</time>
      </trkpt>
      <trkpt lat="45.48289" lon="5.59895">
        <ele>658</ele>
        <time>2025-09-07T09:15:56.414Z</time>
      </trkpt>
      <trkpt lat="45.48286" lon="5.59888">
        <ele>658</ele>
        <time>2025-09-07T09:16:00.992Z</time>
      </trkpt>
      <trkpt lat="45.48287" lon="5.59882">
        <ele>658</ele>
        <time>2025-09-07T09:16:05.733Z</time>
      </trkpt>
      <trkpt lat="45.4829" lon="5.5988">
        <ele>658</ele>
        <time>2025-09-07T09:16:10.036Z</time>
      </trkpt>
      <trkpt lat="45.48292" lon="5.5988">
        <ele>658</ele>
        <time>2025-09-07T09:16:14.991Z</time>
      </trkpt>
      <trkpt lat="45.48295" lon="5.59878">
        <ele>659</ele>
        <time>2025-09-07T09:16:19.080Z</time>
      </trkpt>
      <trkpt lat="45.48285" lon="5.59869">
        <ele>657</ele>
        <time>2025-09-07T09:16:24.014Z</time>
      </trkpt>
      <trkpt lat="45.48284" lon="5.59859">
        <ele>657</ele>
        <time>2025-09-07T09:16:28.778Z</time>
      </trkpt>
      <trkpt lat="45.48283" lon="5.5985">
        <ele>657</ele>
        <time>2025-09-07T09:16:33.058Z</time>
      </trkpt>
      <trkpt lat="45.48283" lon="5.5984">
        <ele>654</ele>
        <time>2025-09-07T09:16:38.094Z</time>
      </trkpt>
      <trkpt lat="45.48282" lon="5.59831">
        <ele>654</ele>
        <time>2025-09-07T09:16:42.893Z</time>
      </trkpt>
      <trkpt lat="45.48283" lon="5.59824">
        <ele>654</ele>
        <time>2025-09-07T09:16:48.063Z</time>
      </trkpt>
      <trkpt lat="45.48285" lon="5.59818">
        <ele>650</ele>
        <time>2025-09-07T09:16:52.591Z</time>
      </trkpt>
      <trkpt lat="45.48289" lon="5.59812">
        <ele>650</ele>
        <time>2025-09-07T09:16:56.966Z</time>
      </trkpt>
      <trkpt lat="45.48292" lon="5.59805">
        <ele>650</ele>
        <time>2025-09-07T09:17:01.423Z</time>
      </trkpt>
      <trkpt lat="45.48291" lon="5.59798">
        <ele>650</ele>
        <time>2025-09-07T09:17:05.554Z</time>
      </trkpt>
      <trkpt lat="45.48291" lon="5.5979">
        <ele>645</ele>
        <time>2025-09-07T09:17:09.658Z</time>
      </trkpt>
      <trkpt lat="45.48288" lon="5.59782">
        <ele>645</ele>
        <time>2025-09-07T09:17:14.064Z</time>
      </trkpt>
      <trkpt lat="45.48283" lon="5.59775">
        <ele>645</ele>
        <time>2025-09-07T09:17:19.134Z</time>
      </trkpt>
      <trkpt lat="45.4828" lon="5.5977">
        <ele>645</ele>
        <time>2025-09-07T09:17:23.574Z</time>
      </trkpt>
      <trkpt lat="45.48276" lon="5.59765">
        <ele>645</ele>
        <time>2025-09-07T09:17:27.604Z</time>
      </trkpt>
      <trkpt lat="45.48272" lon="5.59758">
        <ele>637</ele>
        <time>2025-09-07T09:17:31.771Z</time>
      </trkpt>
      <trkpt lat="45.48268" lon="5.59753">
        <ele>637</ele>
        <time>2025-09-07T09:17:36.058Z</time>
      </trkpt>
      <trkpt lat="45.48263" lon="5.59747">
        <ele>644</ele>
        <time>2025-09-07T09:17:41.050Z</time>
      </trkpt>
      <trkpt lat="45.48257" lon="5.59741">
        <ele>644</ele>
        <time>2025-09-07T09:17:46.027Z</time>
      </trkpt>
      <trkpt lat="45.48255" lon="5.59736">
        <ele>635</ele>
        <time>2025-09-07T09:17:50.761Z</time>
      </trkpt>
      <trkpt lat="45.48259" lon="5.59733">
        <ele>635</ele>
        <time>2025-09-07T09:17:55.468Z</time>
      </trkpt>
      <trkpt lat="45.48259" lon="5.5973">
        <ele>635</ele>
        <time>2025-09-07T09:17:59.469Z</time>
      </trkpt>
      <trkpt lat="45.4826" lon="5.59729">
        <ele>635</ele>
        <time>2025-09-07T09:18:04.012Z</time>
      </trkpt>
      <trkpt lat="45.48267" lon="5.59728">
        <ele>631</ele>
        <time>2025-09-07T09:18:21.611Z</time>
      </trkpt>
      <trkpt lat="45.48266" lon="5.59732">
        <ele>631</ele>
        <time>2025-09-07T09:18:26.108Z</time>
      </trkpt>
      <trkpt lat="45.48265" lon="5.59734">
        <ele>631</ele>
        <time>2025-09-07T09:18:30.014Z</time>
      </trkpt>
      <trkpt lat="45.48264" lon="5.59734">
        <ele>631</ele>
        <time>2025-09-07T09:18:37.002Z</time>
      </trkpt>
      <trkpt lat="45.4827" lon="5.59741">
        <ele>637</ele>
        <time>2025-09-07T09:18:41.680Z</time>
      </trkpt>
      <trkpt lat="45.48276" lon="5.59745">
        <ele>637</ele>
        <time>2025-09-07T09:18:46.431Z</time>
      </trkpt>
      <trkpt lat="45.4828" lon="5.59744">
        <ele>637</ele>
        <time>2025-09-07T09:18:50.514Z</time>
      </trkpt>
      <trkpt lat="45.48287" lon="5.59744">
        <ele>637</ele>
        <time>2025-09-07T09:18:54.779Z</time>
      </trkpt>
      <trkpt lat="45.48294" lon="5.59737">
        <ele>632</ele>
        <time>2025-09-07T09:18:59.098Z</time>
      </trkpt>
      <trkpt lat="45.48301" lon="5.59732">
        <ele>624</ele>
        <time>2025-09-07T09:19:03.631Z</time>
      </trkpt>
      <trkpt lat="45.48306" lon="5.59728">
        <ele>624</ele>
        <time>2025-09-07T09:19:07.747Z</time>
      </trkpt>
      <trkpt lat="45.48311" lon="5.59725">
        <ele>624</ele>
        <time>2025-09-07T09:19:12.768Z</time>
      </trkpt>
      <trkpt lat="45.48315" lon="5.59724">
        <ele>624</ele>
        <time>2025-09-07T09:19:17.064Z</time>
      </trkpt>
      <trkpt lat="45.48325" lon="5.59733">
        <ele>619</ele>
        <time>2025-09-07T09:19:21.860Z</time>
      </trkpt>
      <trkpt lat="45.48332" lon="5.59738">
        <ele>625</ele>
        <time>2025-09-07T09:19:26.024Z</time>
      </trkpt>
      <trkpt lat="45.48341" lon="5.59742">
        <ele>625</ele>
        <time>2025-09-07T09:19:30.632Z</time>
      </trkpt>
      <trkpt lat="45.48349" lon="5.59747">
        <ele>623</ele>
        <time>2025-09-07T09:19:34.877Z</time>
      </trkpt>
      <trkpt lat="45.48355" lon="5.59745">
        <ele>623</ele>
        <time>2025-09-07T09:19:38.871Z</time>
      </trkpt>
      <trkpt lat="45.48364" lon="5.59739">
        <ele>623</ele>
        <time>2025-09-07T09:19:43.084Z</time>
      </trkpt>
      <trkpt lat="45.48374" lon="5.59735">
        <ele>618</ele>
        <time>2025-09-07T09:19:47.986Z</time>
      </trkpt>
      <trkpt lat="45.4838" lon="5.59732">
        <ele>617</ele>
        <time>2025-09-07T09:19:52.986Z</time>
      </trkpt>
      <trkpt lat="45.48387" lon="5.5973">
        <ele>617</ele>
        <time>2025-09-07T09:19:57.986Z</time>
      </trkpt>
      <trkpt lat="45.4839" lon="5.59722">
        <ele>617</ele>
        <time>2025-09-07T09:20:02.576Z</time>
      </trkpt>
      <trkpt lat="45.48388" lon="5.59698">
        <ele>615</ele>
        <time>2025-09-07T09:20:06.852Z</time>
      </trkpt>
      <trkpt lat="45.48377" lon="5.59674">
        <ele>612</ele>
        <time>2025-09-07T09:20:10.886Z</time>
      </trkpt>
      <trkpt lat="45.48369" lon="5.59651">
        <ele>609</ele>
        <time>2025-09-07T09:20:15.257Z</time>
      </trkpt>
      <trkpt lat="45.48359" lon="5.59623">
        <ele>607</ele>
        <time>2025-09-07T09:20:19.568Z</time>
      </trkpt>
      <trkpt lat="45.48351" lon="5.59585">
        <ele>607</ele>
        <time>2025-09-07T09:20:23.986Z</time>
      </trkpt>
      <trkpt lat="45.48338" lon="5.5955">
        <ele>608</ele>
        <time>2025-09-07T09:20:28.986Z</time>
      </trkpt>
      <trkpt lat="45.48328" lon="5.59523">
        <ele>607</ele>
        <time>2025-09-07T09:20:32.986Z</time>
      </trkpt>
      <trkpt lat="45.48318" lon="5.595">
        <ele>607</ele>
        <time>2025-09-07T09:20:37.986Z</time>
      </trkpt>
      <trkpt lat="45.48314" lon="5.59491">
        <ele>607</ele>
        <time>2025-09-07T09:20:42.986Z</time>
      </trkpt>
      <trkpt lat="45.48312" lon="5.59485">
        <ele>606</ele>
        <time>2025-09-07T09:20:46.986Z</time>
      </trkpt>
      <trkpt lat="45.48309" lon="5.59477">
        <ele>606</ele>
        <time>2025-09-07T09:20:51.986Z</time>
      </trkpt>
      <trkpt lat="45.48305" lon="5.59468">
        <ele>606</ele>
        <time>2025-09-07T09:20:56.986Z</time>
      </trkpt>
      <trkpt lat="45.48302" lon="5.5946">
        <ele>606</ele>
        <time>2025-09-07T09:21:01.986Z</time>
      </trkpt>
      <trkpt lat="45.483" lon="5.59452">
        <ele>606</ele>
        <time>2025-09-07T09:21:05.986Z</time>
      </trkpt>
      <trkpt lat="45.48298" lon="5.59443">
        <ele>606</ele>
        <time>2025-09-07T09:21:10.643Z</time>
      </trkpt>
      <trkpt lat="45.48295" lon="5.59436">
        <ele>606</ele>
        <time>2025-09-07T09:21:15.044Z</time>
      </trkpt>
      <trkpt lat="45.48291" lon="5.59426">
        <ele>605</ele>
        <time>2025-09-07T09:21:19.078Z</time>
      </trkpt>
      <trkpt lat="45.48287" lon="5.59416">
        <ele>605</ele>
        <time>2025-09-07T09:21:23.702Z</time>
      </trkpt>
      <trkpt lat="45.48286" lon="5.59408">
        <ele>605</ele>
        <time>2025-09-07T09:21:27.906Z</time>
      </trkpt>
      <trkpt lat="45.48286" lon="5.594">
        <ele>604</ele>
        <time>2025-09-07T09:21:32.398Z</time>
      </trkpt>
      <trkpt lat="45.48284" lon="5.59391">
        <ele>604</ele>
        <time>2025-09-07T09:21:36.727Z</time>
      </trkpt>
      <trkpt lat="45.48282" lon="5.59383">
        <ele>604</ele>
        <time>2025-09-07T09:21:41.216Z</time>
      </trkpt>
      <trkpt lat="45.48279" lon="5.59375">
        <ele>604</ele>
        <time>2025-09-07T09:21:45.733Z</time>
      </trkpt>
      <trkpt lat="45.48278" lon="5.59367">
        <ele>604</ele>
        <time>2025-09-07T09:21:50.196Z</time>
      </trkpt>
      <trkpt lat="45.48276" lon="5.59358">
        <ele>604</ele>
        <time>2025-09-07T09:21:54.709Z</time>
      </trkpt>
      <trkpt lat="45.48273" lon="5.5935">
        <ele>604</ele>
        <time>2025-09-07T09:21:59.212Z</time>
      </trkpt>
      <trkpt lat="45.48271" lon="5.59341">
        <ele>603</ele>
        <time>2025-09-07T09:22:03.653Z</time>
      </trkpt>
      <trkpt lat="45.48269" lon="5.59333">
        <ele>603</ele>
        <time>2025-09-07T09:22:08.116Z</time>
      </trkpt>
      <trkpt lat="45.48267" lon="5.59326">
        <ele>603</ele>
        <time>2025-09-07T09:22:12.143Z</time>
      </trkpt>
      <trkpt lat="45.48266" lon="5.59318">
        <ele>601</ele>
        <time>2025-09-07T09:22:16.494Z</time>
      </trkpt>
      <trkpt lat="45.48264" lon="5.59309">
        <ele>601</ele>
        <time>2025-09-07T09:22:21.037Z</time>
      </trkpt>
      <trkpt lat="45.48263" lon="5.593">
        <ele>603</ele>
        <time>2025-09-07T09:22:25.469Z</time>
      </trkpt>
      <trkpt lat="45.48259" lon="5.59292">
        <ele>603</ele>
        <time>2025-09-07T09:22:30.093Z</time>
      </trkpt>
      <trkpt lat="45.48257" lon="5.59284">
        <ele>602</ele>
        <time>2025-09-07T09:22:35.026Z</time>
      </trkpt>
      <trkpt lat="45.48255" lon="5.59276">
        <ele>602</ele>
        <time>2025-09-07T09:22:39.793Z</time>
      </trkpt>
      <trkpt lat="45.48252" lon="5.5927">
        <ele>602</ele>
        <time>2025-09-07T09:22:44.070Z</time>
      </trkpt>
      <trkpt lat="45.48253" lon="5.59262">
        <ele>601</ele>
        <time>2025-09-07T09:22:48.986Z</time>
      </trkpt>
      <trkpt lat="45.4825" lon="5.59252">
        <ele>601</ele>
        <time>2025-09-07T09:22:53.986Z</time>
      </trkpt>
      <trkpt lat="45.48248" lon="5.59243">
        <ele>601</ele>
        <time>2025-09-07T09:22:58.986Z</time>
      </trkpt>
      <trkpt lat="45.48247" lon="5.59236">
        <ele>599</ele>
        <time>2025-09-07T09:23:02.986Z</time>
      </trkpt>
      <trkpt lat="45.48244" lon="5.59227">
        <ele>599</ele>
        <time>2025-09-07T09:23:07.986Z</time>
      </trkpt>
      <trkpt lat="45.48242" lon="5.59219">
        <ele>599</ele>
        <time>2025-09-07T09:23:12.986Z</time>
      </trkpt>
      <trkpt lat="45.48241" lon="5.59212">
        <ele>599</ele>
        <time>2025-09-07T09:23:16.986Z</time>
      </trkpt>
      <trkpt lat="45.48239" lon="5.59202">
        <ele>598</ele>
        <time>2025-09-07T09:23:21.986Z</time>
      </trkpt>
      <trkpt lat="45.48236" lon="5.59194">
        <ele>598</ele>
        <time>2025-09-07T09:23:26.986Z</time>
      </trkpt>
      <trkpt lat="45.48235" lon="5.59187">
        <ele>599</ele>
        <time>2025-09-07T09:23:30.986Z</time>
      </trkpt>
      <trkpt lat="45.48235" lon="5.59178">
        <ele>597</ele>
        <time>2025-09-07T09:23:35.986Z</time>
      </trkpt>
      <trkpt lat="45.48232" lon="5.59169">
        <ele>597</ele>
        <time>2025-09-07T09:23:40.986Z</time>
      </trkpt>
      <trkpt lat="45.48231" lon="5.59159">
        <ele>597</ele>
        <time>2025-09-07T09:23:45.986Z</time>
      </trkpt>
      <trkpt lat="45.48228" lon="5.59153">
        <ele>597</ele>
        <time>2025-09-07T09:23:49.986Z</time>
      </trkpt>
      <trkpt lat="45.48225" lon="5.59146">
        <ele>596</ele>
        <time>2025-09-07T09:23:53.986Z</time>
      </trkpt>
      <trkpt lat="45.48221" lon="5.59138">
        <ele>596</ele>
        <time>2025-09-07T09:23:58.986Z</time>
      </trkpt>
      <trkpt lat="45.48216" lon="5.59132">
        <ele>596</ele>
        <time>2025-09-07T09:24:03.986Z</time>
      </trkpt>
      <trkpt lat="45.48211" lon="5.59123">
        <ele>595</ele>
        <time>2025-09-07T09:24:09.986Z</time>
      </trkpt>
      <trkpt lat="45.48202" lon="5.59121">
        <ele>596</ele>
        <time>2025-09-07T09:24:15.986Z</time>
      </trkpt>
      <trkpt lat="45.48196" lon="5.5912">
        <ele>596</ele>
        <time>2025-09-07T09:24:19.986Z</time>
      </trkpt>
      <trkpt lat="45.48188" lon="5.59119">
        <ele>596</ele>
        <time>2025-09-07T09:24:24.986Z</time>
      </trkpt>
      <trkpt lat="45.48181" lon="5.5912">
        <ele>595</ele>
        <time>2025-09-07T09:24:29.986Z</time>
      </trkpt>
      <trkpt lat="45.48174" lon="5.59121">
        <ele>595</ele>
        <time>2025-09-07T09:24:34.986Z</time>
      </trkpt>
      <trkpt lat="45.48167" lon="5.59124">
        <ele>595</ele>
        <time>2025-09-07T09:24:39.986Z</time>
      </trkpt>
      <trkpt lat="45.48161" lon="5.59125">
        <ele>595</ele>
        <time>2025-09-07T09:24:43.986Z</time>
      </trkpt>
      <trkpt lat="45.48156" lon="5.59127">
        <ele>596</ele>
        <time>2025-09-07T09:24:48.569Z</time>
      </trkpt>
      <trkpt lat="45.48151" lon="5.59132">
        <ele>596</ele>
        <time>2025-09-07T09:24:53.047Z</time>
      </trkpt>
      <trkpt lat="45.48146" lon="5.59135">
        <ele>596</ele>
        <time>2025-09-07T09:24:57.690Z</time>
      </trkpt>
      <trkpt lat="45.48143" lon="5.59139">
        <ele>596</ele>
        <time>2025-09-07T09:25:02.091Z</time>
      </trkpt>
      <trkpt lat="45.4814" lon="5.59142">
        <ele>596</ele>
        <time>2025-09-07T09:25:05.986Z</time>
      </trkpt>
      <trkpt lat="45.48134" lon="5.59148">
        <ele>596</ele>
        <time>2025-09-07T09:25:10.986Z</time>
      </trkpt>
      <trkpt lat="45.4813" lon="5.59154">
        <ele>597</ele>
        <time>2025-09-07T09:25:14.986Z</time>
      </trkpt>
      <trkpt lat="45.48124" lon="5.59161">
        <ele>597</ele>
        <time>2025-09-07T09:25:19.986Z</time>
      </trkpt>
      <trkpt lat="45.48119" lon="5.59166">
        <ele>597</ele>
        <time>2025-09-07T09:25:24.636Z</time>
      </trkpt>
      <trkpt lat="45.48114" lon="5.59171">
        <ele>597</ele>
        <time>2025-09-07T09:25:29.017Z</time>
      </trkpt>
      <trkpt lat="45.48109" lon="5.59177">
        <ele>597</ele>
        <time>2025-09-07T09:25:33.541Z</time>
      </trkpt>
      <trkpt lat="45.48104" lon="5.59183">
        <ele>599</ele>
        <time>2025-09-07T09:25:38.061Z</time>
      </trkpt>
      <trkpt lat="45.48099" lon="5.59186">
        <ele>599</ele>
        <time>2025-09-07T09:25:42.492Z</time>
      </trkpt>
      <trkpt lat="45.48093" lon="5.59189">
        <ele>600</ele>
        <time>2025-09-07T09:25:46.779Z</time>
      </trkpt>
      <trkpt lat="45.48088" lon="5.59192">
        <ele>600</ele>
        <time>2025-09-07T09:25:51.232Z</time>
      </trkpt>
      <trkpt lat="45.48082" lon="5.59194">
        <ele>600</ele>
        <time>2025-09-07T09:25:55.693Z</time>
      </trkpt>
      <trkpt lat="45.48077" lon="5.59196">
        <ele>600</ele>
        <time>2025-09-07T09:26:00.097Z</time>
      </trkpt>
      <trkpt lat="45.48071" lon="5.592">
        <ele>600</ele>
        <time>2025-09-07T09:26:04.522Z</time>
      </trkpt>
      <trkpt lat="45.48066" lon="5.59203">
        <ele>604</ele>
        <time>2025-09-07T09:26:08.908Z</time>
      </trkpt>
      <trkpt lat="45.4806" lon="5.59206">
        <ele>604</ele>
        <time>2025-09-07T09:26:13.106Z</time>
      </trkpt>
      <trkpt lat="45.48055" lon="5.5921">
        <ele>607</ele>
        <time>2025-09-07T09:26:17.540Z</time>
      </trkpt>
      <trkpt lat="45.48049" lon="5.59213">
        <ele>607</ele>
        <time>2025-09-07T09:26:21.843Z</time>
      </trkpt>
      <trkpt lat="45.48044" lon="5.59215">
        <ele>607</ele>
        <time>2025-09-07T09:26:25.968Z</time>
      </trkpt>
      <trkpt lat="45.48039" lon="5.59212">
        <ele>614</ele>
        <time>2025-09-07T09:26:30.237Z</time>
      </trkpt>
      <trkpt lat="45.48039" lon="5.59204">
        <ele>611</ele>
        <time>2025-09-07T09:26:34.251Z</time>
      </trkpt>
      <trkpt lat="45.48038" lon="5.59196">
        <ele>611</ele>
        <time>2025-09-07T09:26:38.718Z</time>
      </trkpt>
      <trkpt lat="45.48037" lon="5.59188">
        <ele>611</ele>
        <time>2025-09-07T09:26:43.126Z</time>
      </trkpt>
      <trkpt lat="45.48035" lon="5.59181">
        <ele>611</ele>
        <time>2025-09-07T09:26:47.020Z</time>
      </trkpt>
      <trkpt lat="45.48035" lon="5.59171">
        <ele>610</ele>
        <time>2025-09-07T09:26:52.056Z</time>
      </trkpt>
      <trkpt lat="45.48035" lon="5.59162">
        <ele>610</ele>
        <time>2025-09-07T09:26:56.697Z</time>
      </trkpt>
      <trkpt lat="45.48033" lon="5.59154">
        <ele>610</ele>
        <time>2025-09-07T09:27:01.100Z</time>
      </trkpt>
      <trkpt lat="45.48033" lon="5.59145">
        <ele>610</ele>
        <time>2025-09-07T09:27:05.745Z</time>
      </trkpt>
      <trkpt lat="45.48033" lon="5.59137">
        <ele>610</ele>
        <time>2025-09-07T09:27:10.251Z</time>
      </trkpt>
      <trkpt lat="45.4803" lon="5.59129">
        <ele>610</ele>
        <time>2025-09-07T09:27:14.686Z</time>
      </trkpt>
      <trkpt lat="45.48028" lon="5.59123">
        <ele>609</ele>
        <time>2025-09-07T09:27:19.085Z</time>
      </trkpt>
      <trkpt lat="45.48027" lon="5.59115">
        <ele>609</ele>
        <time>2025-09-07T09:27:23.676Z</time>
      </trkpt>
      <trkpt lat="45.48027" lon="5.59108">
        <ele>609</ele>
        <time>2025-09-07T09:27:28.084Z</time>
      </trkpt>
      <trkpt lat="45.48026" lon="5.591">
        <ele>609</ele>
        <time>2025-09-07T09:27:32.470Z</time>
      </trkpt>
      <trkpt lat="45.48023" lon="5.59094">
        <ele>608</ele>
        <time>2025-09-07T09:27:36.492Z</time>
      </trkpt>
      <trkpt lat="45.48022" lon="5.59089">
        <ele>608</ele>
        <time>2025-09-07T09:27:40.506Z</time>
      </trkpt>
      <trkpt lat="45.48021" lon="5.59081">
        <ele>608</ele>
        <time>2025-09-07T09:27:45.050Z</time>
      </trkpt>
      <trkpt lat="45.48019" lon="5.59074">
        <ele>608</ele>
        <time>2025-09-07T09:27:49.577Z</time>
      </trkpt>
      <trkpt lat="45.48017" lon="5.59067">
        <ele>606</ele>
        <time>2025-09-07T09:27:54.069Z</time>
      </trkpt>
      <trkpt lat="45.48015" lon="5.5906">
        <ele>606</ele>
        <time>2025-09-07T09:27:58.074Z</time>
      </trkpt>
      <trkpt lat="45.48012" lon="5.59054">
        <ele>610</ele>
        <time>2025-09-07T09:28:02.508Z</time>
      </trkpt>
      <trkpt lat="45.48007" lon="5.59048">
        <ele>610</ele>
        <time>2025-09-07T09:28:06.956Z</time>
      </trkpt>
      <trkpt lat="45.48002" lon="5.59041">
        <ele>607</ele>
        <time>2025-09-07T09:28:11.704Z</time>
      </trkpt>
      <trkpt lat="45.47997" lon="5.59035">
        <ele>607</ele>
        <time>2025-09-07T09:28:15.768Z</time>
      </trkpt>
      <trkpt lat="45.47991" lon="5.59029">
        <ele>607</ele>
        <time>2025-09-07T09:28:20.203Z</time>
      </trkpt>
      <trkpt lat="45.47986" lon="5.59023">
        <ele>610</ele>
        <time>2025-09-07T09:28:24.708Z</time>
      </trkpt>
      <trkpt lat="45.47982" lon="5.59016">
        <ele>610</ele>
        <time>2025-09-07T09:28:29.126Z</time>
      </trkpt>
      <trkpt lat="45.4798" lon="5.59008">
        <ele>607</ele>
        <time>2025-09-07T09:28:33.521Z</time>
      </trkpt>
      <trkpt lat="45.4798" lon="5.59">
        <ele>607</ele>
        <time>2025-09-07T09:28:38.013Z</time>
      </trkpt>
      <trkpt lat="45.47977" lon="5.58992">
        <ele>607</ele>
        <time>2025-09-07T09:28:42.491Z</time>
      </trkpt>
      <trkpt lat="45.47973" lon="5.58985">
        <ele>603</ele>
        <time>2025-09-07T09:28:46.891Z</time>
      </trkpt>
      <trkpt lat="45.47969" lon="5.58978">
        <ele>603</ele>
        <time>2025-09-07T09:28:51.291Z</time>
      </trkpt>
      <trkpt lat="45.47965" lon="5.58972">
        <ele>603</ele>
        <time>2025-09-07T09:28:55.540Z</time>
      </trkpt>
      <trkpt lat="45.47962" lon="5.58965">
        <ele>603</ele>
        <time>2025-09-07T09:28:59.913Z</time>
      </trkpt>
      <trkpt lat="45.47958" lon="5.58958">
        <ele>600</ele>
        <time>2025-09-07T09:29:04.316Z</time>
      </trkpt>
      <trkpt lat="45.47955" lon="5.5895">
        <ele>602</ele>
        <time>2025-09-07T09:29:08.636Z</time>
      </trkpt>
      <trkpt lat="45.47953" lon="5.58942">
        <ele>602</ele>
        <time>2025-09-07T09:29:12.850Z</time>
      </trkpt>
      <trkpt lat="45.4795" lon="5.58935">
        <ele>602</ele>
        <time>2025-09-07T09:29:17.294Z</time>
      </trkpt>
      <trkpt lat="45.47949" lon="5.58927">
        <ele>601</ele>
        <time>2025-09-07T09:29:21.693Z</time>
      </trkpt>
      <trkpt lat="45.4795" lon="5.5892">
        <ele>601</ele>
        <time>2025-09-07T09:29:25.869Z</time>
      </trkpt>
      <trkpt lat="45.4795" lon="5.58913">
        <ele>601</ele>
        <time>2025-09-07T09:29:30.016Z</time>
      </trkpt>
      <trkpt lat="45.4795" lon="5.58905">
        <ele>601</ele>
        <time>2025-09-07T09:29:34.416Z</time>
      </trkpt>
      <trkpt lat="45.47949" lon="5.58898">
        <ele>601</ele>
        <time>2025-09-07T09:29:38.826Z</time>
      </trkpt>
      <trkpt lat="45.47948" lon="5.58891">
        <ele>601</ele>
        <time>2025-09-07T09:29:43.068Z</time>
      </trkpt>
      <trkpt lat="45.47947" lon="5.58883">
        <ele>601</ele>
        <time>2025-09-07T09:29:47.223Z</time>
      </trkpt>
      <trkpt lat="45.47944" lon="5.58874">
        <ele>599</ele>
        <time>2025-09-07T09:29:51.598Z</time>
      </trkpt>
      <trkpt lat="45.4794" lon="5.58867">
        <ele>599</ele>
        <time>2025-09-07T09:29:56.131Z</time>
      </trkpt>
      <trkpt lat="45.47936" lon="5.58857">
        <ele>599</ele>
        <time>2025-09-07T09:30:00.587Z</time>
      </trkpt>
      <trkpt lat="45.47932" lon="5.58848">
        <ele>599</ele>
        <time>2025-09-07T09:30:05.090Z</time>
      </trkpt>
      <trkpt lat="45.47928" lon="5.5884">
        <ele>600</ele>
        <time>2025-09-07T09:30:09.548Z</time>
      </trkpt>
      <trkpt lat="45.47924" lon="5.58833">
        <ele>600</ele>
        <time>2025-09-07T09:30:14.031Z</time>
      </trkpt>
      <trkpt lat="45.4792" lon="5.58827">
        <ele>600</ele>
        <time>2025-09-07T09:30:18.536Z</time>
      </trkpt>
      <trkpt lat="45.47918" lon="5.58819">
        <ele>598</ele>
        <time>2025-09-07T09:30:22.912Z</time>
      </trkpt>
      <trkpt lat="45.47915" lon="5.5881">
        <ele>598</ele>
        <time>2025-09-07T09:30:27.410Z</time>
      </trkpt>
      <trkpt lat="45.47911" lon="5.58803">
        <ele>598</ele>
        <time>2025-09-07T09:30:31.940Z</time>
      </trkpt>
      <trkpt lat="45.47906" lon="5.58798">
        <ele>598</ele>
        <time>2025-09-07T09:30:36.293Z</time>
      </trkpt>
      <trkpt lat="45.47901" lon="5.58788">
        <ele>600</ele>
        <time>2025-09-07T09:30:40.331Z</time>
      </trkpt>
      <trkpt lat="45.47893" lon="5.58769">
        <ele>600</ele>
        <time>2025-09-07T09:30:44.522Z</time>
      </trkpt>
      <trkpt lat="45.47887" lon="5.58749">
        <ele>597</ele>
        <time>2025-09-07T09:30:48.870Z</time>
      </trkpt>
      <trkpt lat="45.47882" lon="5.58732">
        <ele>594</ele>
        <time>2025-09-07T09:30:53.567Z</time>
      </trkpt>
      <trkpt lat="45.47867" lon="5.58708">
        <ele>596</ele>
        <time>2025-09-07T09:30:58.008Z</time>
      </trkpt>
      <trkpt lat="45.47859" lon="5.58696">
        <ele>596</ele>
        <time>2025-09-07T09:31:02.284Z</time>
      </trkpt>
      <trkpt lat="45.47853" lon="5.58686">
        <ele>596</ele>
        <time>2025-09-07T09:31:06.625Z</time>
      </trkpt>
      <trkpt lat="45.47848" lon="5.58676">
        <ele>595</ele>
        <time>2025-09-07T09:31:11.039Z</time>
      </trkpt>
      <trkpt lat="45.47842" lon="5.58662">
        <ele>599</ele>
        <time>2025-09-07T09:31:15.495Z</time>
      </trkpt>
      <trkpt lat="45.47831" lon="5.58642">
        <ele>596</ele>
        <time>2025-09-07T09:31:19.538Z</time>
      </trkpt>
      <trkpt lat="45.47821" lon="5.58621">
        <ele>593</ele>
        <time>2025-09-07T09:31:23.617Z</time>
      </trkpt>
      <trkpt lat="45.47811" lon="5.5861">
        <ele>596</ele>
        <time>2025-09-07T09:31:27.665Z</time>
      </trkpt>
      <trkpt lat="45.47805" lon="5.58604">
        <ele>596</ele>
        <time>2025-09-07T09:31:32.005Z</time>
      </trkpt>
      <trkpt lat="45.47801" lon="5.58597">
        <ele>595</ele>
        <time>2025-09-07T09:31:36.158Z</time>
      </trkpt>
      <trkpt lat="45.47796" lon="5.58589">
        <ele>595</ele>
        <time>2025-09-07T09:31:40.408Z</time>
      </trkpt>
      <trkpt lat="45.47791" lon="5.58583">
        <ele>597</ele>
        <time>2025-09-07T09:31:44.696Z</time>
      </trkpt>
      <trkpt lat="45.47786" lon="5.58577">
        <ele>597</ele>
        <time>2025-09-07T09:31:48.992Z</time>
      </trkpt>
      <trkpt lat="45.47782" lon="5.58569">
        <ele>596</ele>
        <time>2025-09-07T09:31:53.257Z</time>
      </trkpt>
      <trkpt lat="45.47777" lon="5.58563">
        <ele>596</ele>
        <time>2025-09-07T09:31:57.541Z</time>
      </trkpt>
      <trkpt lat="45.47771" lon="5.58557">
        <ele>596</ele>
        <time>2025-09-07T09:32:01.966Z</time>
      </trkpt>
      <trkpt lat="45.47767" lon="5.58552">
        <ele>596</ele>
        <time>2025-09-07T09:32:06.412Z</time>
      </trkpt>
      <trkpt lat="45.47762" lon="5.58545">
        <ele>598</ele>
        <time>2025-09-07T09:32:10.814Z</time>
      </trkpt>
      <trkpt lat="45.47758" lon="5.58539">
        <ele>594</ele>
        <time>2025-09-07T09:32:15.254Z</time>
      </trkpt>
      <trkpt lat="45.47753" lon="5.58533">
        <ele>594</ele>
        <time>2025-09-07T09:32:19.556Z</time>
      </trkpt>
      <trkpt lat="45.47749" lon="5.58526">
        <ele>594</ele>
        <time>2025-09-07T09:32:24.094Z</time>
      </trkpt>
      <trkpt lat="45.47745" lon="5.58519">
        <ele>594</ele>
        <time>2025-09-07T09:32:28.540Z</time>
      </trkpt>
      <trkpt lat="45.47741" lon="5.58512">
        <ele>590</ele>
        <time>2025-09-07T09:32:33.010Z</time>
      </trkpt>
      <trkpt lat="45.47738" lon="5.58503">
        <ele>590</ele>
        <time>2025-09-07T09:32:38Z</time>
      </trkpt>
      <trkpt lat="45.47735" lon="5.58496">
        <ele>593</ele>
        <time>2025-09-07T09:32:42.094Z</time>
      </trkpt>
      <trkpt lat="45.47731" lon="5.58489">
        <ele>593</ele>
        <time>2025-09-07T09:32:46.413Z</time>
      </trkpt>
      <trkpt lat="45.47727" lon="5.58483">
        <ele>590</ele>
        <time>2025-09-07T09:32:50.893Z</time>
      </trkpt>
      <trkpt lat="45.47725" lon="5.58477">
        <ele>590</ele>
        <time>2025-09-07T09:32:54.936Z</time>
      </trkpt>
      <trkpt lat="45.47723" lon="5.58471">
        <ele>590</ele>
        <time>2025-09-07T09:32:59.279Z</time>
      </trkpt>
      <trkpt lat="45.47719" lon="5.58465">
        <ele>590</ele>
        <time>2025-09-07T09:33:03.957Z</time>
      </trkpt>
      <trkpt lat="45.47715" lon="5.5846">
        <ele>590</ele>
        <time>2025-09-07T09:33:08.388Z</time>
      </trkpt>
      <trkpt lat="45.47713" lon="5.58452">
        <ele>589</ele>
        <time>2025-09-07T09:33:12.670Z</time>
      </trkpt>
      <trkpt lat="45.4771" lon="5.58446">
        <ele>589</ele>
        <time>2025-09-07T09:33:17.053Z</time>
      </trkpt>
      <trkpt lat="45.47706" lon="5.58441">
        <ele>592</ele>
        <time>2025-09-07T09:33:21.070Z</time>
      </trkpt>
      <trkpt lat="45.47703" lon="5.58436">
        <ele>592</ele>
        <time>2025-09-07T09:33:25.252Z</time>
      </trkpt>
      <trkpt lat="45.477" lon="5.58431">
        <ele>592</ele>
        <time>2025-09-07T09:33:29.474Z</time>
      </trkpt>
      <trkpt lat="45.47697" lon="5.58424">
        <ele>589</ele>
        <time>2025-09-07T09:33:34.029Z</time>
      </trkpt>
      <trkpt lat="45.47694" lon="5.58417">
        <ele>589</ele>
        <time>2025-09-07T09:33:38.545Z</time>
      </trkpt>
      <trkpt lat="45.4769" lon="5.5841">
        <ele>589</ele>
        <time>2025-09-07T09:33:42.993Z</time>
      </trkpt>
      <trkpt lat="45.47686" lon="5.58403">
        <ele>589</ele>
        <time>2025-09-07T09:33:47.045Z</time>
      </trkpt>
      <trkpt lat="45.47682" lon="5.58396">
        <ele>587</ele>
        <time>2025-09-07T09:33:51.393Z</time>
      </trkpt>
      <trkpt lat="45.47677" lon="5.5839">
        <ele>590</ele>
        <time>2025-09-07T09:33:55.977Z</time>
      </trkpt>
      <trkpt lat="45.47674" lon="5.58384">
        <ele>590</ele>
        <time>2025-09-07T09:34:00.407Z</time>
      </trkpt>
      <trkpt lat="45.4767" lon="5.58379">
        <ele>590</ele>
        <time>2025-09-07T09:34:04.812Z</time>
      </trkpt>
      <trkpt lat="45.47664" lon="5.58368">
        <ele>587</ele>
        <time>2025-09-07T09:34:09.426Z</time>
      </trkpt>
      <trkpt lat="45.47658" lon="5.58358">
        <ele>587</ele>
        <time>2025-09-07T09:34:13.637Z</time>
      </trkpt>
      <trkpt lat="45.47653" lon="5.58349">
        <ele>587</ele>
        <time>2025-09-07T09:34:17.761Z</time>
      </trkpt>
      <trkpt lat="45.47647" lon="5.58342">
        <ele>588</ele>
        <time>2025-09-07T09:34:22.129Z</time>
      </trkpt>
      <trkpt lat="45.47643" lon="5.58338">
        <ele>588</ele>
        <time>2025-09-07T09:34:26.098Z</time>
      </trkpt>
      <trkpt lat="45.47637" lon="5.58331">
        <ele>588</ele>
        <time>2025-09-07T09:34:30.877Z</time>
      </trkpt>
      <trkpt lat="45.47625" lon="5.58318">
        <ele>588</ele>
        <time>2025-09-07T09:34:35.077Z</time>
      </trkpt>
      <trkpt lat="45.47607" lon="5.58303">
        <ele>588</ele>
        <time>2025-09-07T09:34:39.046Z</time>
      </trkpt>
      <trkpt lat="45.47591" lon="5.58285">
        <ele>589</ele>
        <time>2025-09-07T09:34:43.718Z</time>
      </trkpt>
      <trkpt lat="45.47581" lon="5.58284">
        <ele>589</ele>
        <time>2025-09-07T09:34:47.799Z</time>
      </trkpt>
      <trkpt lat="45.47575" lon="5.58284">
        <ele>589</ele>
        <time>2025-09-07T09:34:52.074Z</time>
      </trkpt>
      <trkpt lat="45.4757" lon="5.58278">
        <ele>589</ele>
        <time>2025-09-07T09:34:56.416Z</time>
      </trkpt>
      <trkpt lat="45.47565" lon="5.58273">
        <ele>591</ele>
        <time>2025-09-07T09:35:00.612Z</time>
      </trkpt>
      <trkpt lat="45.4756" lon="5.58267">
        <ele>591</ele>
        <time>2025-09-07T09:35:04.969Z</time>
      </trkpt>
      <trkpt lat="45.47555" lon="5.58263">
        <ele>589</ele>
        <time>2025-09-07T09:35:09.327Z</time>
      </trkpt>
      <trkpt lat="45.4755" lon="5.5826">
        <ele>589</ele>
        <time>2025-09-07T09:35:13.773Z</time>
      </trkpt>
      <trkpt lat="45.47546" lon="5.58254">
        <ele>589</ele>
        <time>2025-09-07T09:35:18.250Z</time>
      </trkpt>
      <trkpt lat="45.47544" lon="5.58248">
        <ele>589</ele>
        <time>2025-09-07T09:35:22.733Z</time>
      </trkpt>
      <trkpt lat="45.47543" lon="5.58241">
        <ele>589</ele>
        <time>2025-09-07T09:35:27.040Z</time>
      </trkpt>
      <trkpt lat="45.47546" lon="5.58235">
        <ele>588</ele>
        <time>2025-09-07T09:35:31.672Z</time>
      </trkpt>
      <trkpt lat="45.4755" lon="5.58228">
        <ele>588</ele>
        <time>2025-09-07T09:35:36.211Z</time>
      </trkpt>
      <trkpt lat="45.47555" lon="5.58223">
        <ele>588</ele>
        <time>2025-09-07T09:35:40.746Z</time>
      </trkpt>
      <trkpt lat="45.4756" lon="5.58218">
        <ele>588</ele>
        <time>2025-09-07T09:35:45.024Z</time>
      </trkpt>
      <trkpt lat="45.47564" lon="5.58213">
        <ele>588</ele>
        <time>2025-09-07T09:35:49.691Z</time>
      </trkpt>
      <trkpt lat="45.47568" lon="5.58206">
        <ele>586</ele>
        <time>2025-09-07T09:35:54.068Z</time>
      </trkpt>
      <trkpt lat="45.47571" lon="5.582">
        <ele>584</ele>
        <time>2025-09-07T09:35:58.597Z</time>
      </trkpt>
      <trkpt lat="45.47572" lon="5.58194">
        <ele>584</ele>
        <time>2025-09-07T09:36:03.078Z</time>
      </trkpt>
      <trkpt lat="45.47573" lon="5.5819">
        <ele>584</ele>
        <time>2025-09-07T09:36:07.017Z</time>
      </trkpt>
      <trkpt lat="45.47575" lon="5.58188">
        <ele>584</ele>
        <time>2025-09-07T09:36:12.053Z</time>
      </trkpt>
      <trkpt lat="45.47575" lon="5.5819">
        <ele>584</ele>
        <time>2025-09-07T09:36:16.851Z</time>
      </trkpt>
      <trkpt lat="45.47576" lon="5.58189">
        <ele>584</ele>
        <time>2025-09-07T09:36:21.096Z</time>
      </trkpt>
      <trkpt lat="45.47579" lon="5.58185">
        <ele>584</ele>
        <time>2025-09-07T09:36:25.465Z</time>
      </trkpt>
      <trkpt lat="45.47582" lon="5.58177">
        <ele>581</ele>
        <time>2025-09-07T09:36:29.535Z</time>
      </trkpt>
      <trkpt lat="45.47586" lon="5.58171">
        <ele>581</ele>
        <time>2025-09-07T09:36:34.045Z</time>
      </trkpt>
      <trkpt lat="45.4759" lon="5.58163">
        <ele>581</ele>
        <time>2025-09-07T09:36:38.615Z</time>
      </trkpt>
      <trkpt lat="45.47592" lon="5.58157">
        <ele>581</ele>
        <time>2025-09-07T09:36:43.089Z</time>
      </trkpt>
      <trkpt lat="45.47596" lon="5.58149">
        <ele>579</ele>
        <time>2025-09-07T09:36:47.767Z</time>
      </trkpt>
      <trkpt lat="45.476" lon="5.58142">
        <ele>577</ele>
        <time>2025-09-07T09:36:51.826Z</time>
      </trkpt>
      <trkpt lat="45.47604" lon="5.58136">
        <ele>577</ele>
        <time>2025-09-07T09:36:56.292Z</time>
      </trkpt>
      <trkpt lat="45.47608" lon="5.5813">
        <ele>577</ele>
        <time>2025-09-07T09:37:00.811Z</time>
      </trkpt>
      <trkpt lat="45.47612" lon="5.58124">
        <ele>577</ele>
        <time>2025-09-07T09:37:04.831Z</time>
      </trkpt>
      <trkpt lat="45.47616" lon="5.58118">
        <ele>577</ele>
        <time>2025-09-07T09:37:09.296Z</time>
      </trkpt>
      <trkpt lat="45.4762" lon="5.5811">
        <ele>577</ele>
        <time>2025-09-07T09:37:13.792Z</time>
      </trkpt>
      <trkpt lat="45.47624" lon="5.58104">
        <ele>577</ele>
        <time>2025-09-07T09:37:18.317Z</time>
      </trkpt>
      <trkpt lat="45.47628" lon="5.58098">
        <ele>578</ele>
        <time>2025-09-07T09:37:23.001Z</time>
      </trkpt>
      <trkpt lat="45.47632" lon="5.58093">
        <ele>578</ele>
        <time>2025-09-07T09:37:27.212Z</time>
      </trkpt>
      <trkpt lat="45.47635" lon="5.58088">
        <ele>578</ele>
        <time>2025-09-07T09:37:31.412Z</time>
      </trkpt>
      <trkpt lat="45.47639" lon="5.58083">
        <ele>578</ele>
        <time>2025-09-07T09:37:35.779Z</time>
      </trkpt>
      <trkpt lat="45.4764" lon="5.58078">
        <ele>578</ele>
        <time>2025-09-07T09:37:40.203Z</time>
      </trkpt>
      <trkpt lat="45.4764" lon="5.5807">
        <ele>578</ele>
        <time>2025-09-07T09:37:44.706Z</time>
      </trkpt>
      <trkpt lat="45.47643" lon="5.58063">
        <ele>578</ele>
        <time>2025-09-07T09:37:49.068Z</time>
      </trkpt>
      <trkpt lat="45.47645" lon="5.58058">
        <ele>578</ele>
        <time>2025-09-07T09:37:53.405Z</time>
      </trkpt>
      <trkpt lat="45.47648" lon="5.58053">
        <ele>578</ele>
        <time>2025-09-07T09:37:57.616Z</time>
      </trkpt>
      <trkpt lat="45.47651" lon="5.58048">
        <ele>578</ele>
        <time>2025-09-07T09:38:01.875Z</time>
      </trkpt>
      <trkpt lat="45.47654" lon="5.5804">
        <ele>576</ele>
        <time>2025-09-07T09:38:06.135Z</time>
      </trkpt>
      <trkpt lat="45.47658" lon="5.58031">
        <ele>576</ele>
        <time>2025-09-07T09:38:11.044Z</time>
      </trkpt>
      <trkpt lat="45.47662" lon="5.58023">
        <ele>576</ele>
        <time>2025-09-07T09:38:15.596Z</time>
      </trkpt>
      <trkpt lat="45.47665" lon="5.58016">
        <ele>576</ele>
        <time>2025-09-07T09:38:19.617Z</time>
      </trkpt>
      <trkpt lat="45.47668" lon="5.58009">
        <ele>575</ele>
        <time>2025-09-07T09:38:23.629Z</time>
      </trkpt>
      <trkpt lat="45.47674" lon="5.58004">
        <ele>575</ele>
        <time>2025-09-07T09:38:28.230Z</time>
      </trkpt>
      <trkpt lat="45.47679" lon="5.58002">
        <ele>575</ele>
        <time>2025-09-07T09:38:32.896Z</time>
      </trkpt>
      <trkpt lat="45.47682" lon="5.58">
        <ele>574</ele>
        <time>2025-09-07T09:38:37.063Z</time>
      </trkpt>
      <trkpt lat="45.47685" lon="5.57997">
        <ele>574</ele>
        <time>2025-09-07T09:38:41.470Z</time>
      </trkpt>
      <trkpt lat="45.47689" lon="5.57994">
        <ele>574</ele>
        <time>2025-09-07T09:38:46.117Z</time>
      </trkpt>
      <trkpt lat="45.47693" lon="5.57988">
        <ele>574</ele>
        <time>2025-09-07T09:38:50.115Z</time>
      </trkpt>
      <trkpt lat="45.47698" lon="5.57981">
        <ele>572</ele>
        <time>2025-09-07T09:38:54.288Z</time>
      </trkpt>
      <trkpt lat="45.47703" lon="5.57974">
        <ele>572</ele>
        <time>2025-09-07T09:38:58.404Z</time>
      </trkpt>
      <trkpt lat="45.47708" lon="5.57968">
        <ele>572</ele>
        <time>2025-09-07T09:39:02.687Z</time>
      </trkpt>
      <trkpt lat="45.47712" lon="5.57962">
        <ele>570</ele>
        <time>2025-09-07T09:39:06.692Z</time>
      </trkpt>
      <trkpt lat="45.47717" lon="5.57958">
        <ele>567</ele>
        <time>2025-09-07T09:39:11.081Z</time>
      </trkpt>
      <trkpt lat="45.47722" lon="5.57954">
        <ele>567</ele>
        <time>2025-09-07T09:39:15.647Z</time>
      </trkpt>
      <trkpt lat="45.47726" lon="5.57948">
        <ele>567</ele>
        <time>2025-09-07T09:39:20.280Z</time>
      </trkpt>
      <trkpt lat="45.4773" lon="5.57941">
        <ele>567</ele>
        <time>2025-09-07T09:39:24.952Z</time>
      </trkpt>
      <trkpt lat="45.47734" lon="5.57937">
        <ele>567</ele>
        <time>2025-09-07T09:39:29.020Z</time>
      </trkpt>
      <trkpt lat="45.47739" lon="5.57934">
        <ele>567</ele>
        <time>2025-09-07T09:39:33.074Z</time>
      </trkpt>
      <trkpt lat="45.47743" lon="5.5793">
        <ele>566</ele>
        <time>2025-09-07T09:39:37.971Z</time>
      </trkpt>
      <trkpt lat="45.47747" lon="5.57926">
        <ele>566</ele>
        <time>2025-09-07T09:39:41.976Z</time>
      </trkpt>
      <trkpt lat="45.47751" lon="5.57922">
        <ele>566</ele>
        <time>2025-09-07T09:39:46.024Z</time>
      </trkpt>
      <trkpt lat="45.47755" lon="5.57917">
        <ele>566</ele>
        <time>2025-09-07T09:39:50.317Z</time>
      </trkpt>
      <trkpt lat="45.47759" lon="5.57913">
        <ele>566</ele>
        <time>2025-09-07T09:39:54.323Z</time>
      </trkpt>
      <trkpt lat="45.47764" lon="5.57909">
        <ele>566</ele>
        <time>2025-09-07T09:39:58.607Z</time>
      </trkpt>
      <trkpt lat="45.47769" lon="5.57905">
        <ele>566</ele>
        <time>2025-09-07T09:40:03.084Z</time>
      </trkpt>
      <trkpt lat="45.47774" lon="5.57902">
        <ele>564</ele>
        <time>2025-09-07T09:40:07.629Z</time>
      </trkpt>
      <trkpt lat="45.47778" lon="5.57899">
        <ele>564</ele>
        <time>2025-09-07T09:40:11.945Z</time>
      </trkpt>
      <trkpt lat="45.47783" lon="5.57894">
        <ele>564</ele>
        <time>2025-09-07T09:40:16.526Z</time>
      </trkpt>
      <trkpt lat="45.47785" lon="5.57886">
        <ele>564</ele>
        <time>2025-09-07T09:40:20.713Z</time>
      </trkpt>
      <trkpt lat="45.47787" lon="5.57881">
        <ele>564</ele>
        <time>2025-09-07T09:40:24.874Z</time>
      </trkpt>
      <trkpt lat="45.4779" lon="5.57874">
        <ele>562</ele>
        <time>2025-09-07T09:40:29.086Z</time>
      </trkpt>
      <trkpt lat="45.47792" lon="5.57866">
        <ele>561</ele>
        <time>2025-09-07T09:40:33.392Z</time>
      </trkpt>
      <trkpt lat="45.47793" lon="5.57859">
        <ele>561</ele>
        <time>2025-09-07T09:40:37.650Z</time>
      </trkpt>
      <trkpt lat="45.47795" lon="5.57853">
        <ele>561</ele>
        <time>2025-09-07T09:40:41.851Z</time>
      </trkpt>
      <trkpt lat="45.47798" lon="5.57846">
        <ele>559</ele>
        <time>2025-09-07T09:40:46.043Z</time>
      </trkpt>
      <trkpt lat="45.47799" lon="5.57838">
        <ele>559</ele>
        <time>2025-09-07T09:40:50.292Z</time>
      </trkpt>
      <trkpt lat="45.478" lon="5.5783">
        <ele>559</ele>
        <time>2025-09-07T09:40:54.604Z</time>
      </trkpt>
      <trkpt lat="45.47801" lon="5.57822">
        <ele>559</ele>
        <time>2025-09-07T09:40:58.636Z</time>
      </trkpt>
      <trkpt lat="45.47802" lon="5.57815">
        <ele>558</ele>
        <time>2025-09-07T09:41:02.976Z</time>
      </trkpt>
      <trkpt lat="45.47803" lon="5.57807">
        <ele>558</ele>
        <time>2025-09-07T09:41:07.932Z</time>
      </trkpt>
      <trkpt lat="45.47802" lon="5.578">
        <ele>558</ele>
        <time>2025-09-07T09:41:12.228Z</time>
      </trkpt>
      <trkpt lat="45.47803" lon="5.57793">
        <ele>558</ele>
        <time>2025-09-07T09:41:16.513Z</time>
      </trkpt>
      <trkpt lat="45.47803" lon="5.57786">
        <ele>557</ele>
        <time>2025-09-07T09:41:20.616Z</time>
      </trkpt>
      <trkpt lat="45.47802" lon="5.5778">
        <ele>557</ele>
        <time>2025-09-07T09:41:25.097Z</time>
      </trkpt>
      <trkpt lat="45.478" lon="5.5776">
        <ele>554</ele>
        <time>2025-09-07T09:42:05.079Z</time>
      </trkpt>
      <trkpt lat="45.47804" lon="5.57741">
        <ele>554</ele>
        <time>2025-09-07T09:42:09.483Z</time>
      </trkpt>
      <trkpt lat="45.47804" lon="5.57731">
        <ele>552</ele>
        <time>2025-09-07T09:42:14.033Z</time>
      </trkpt>
      <trkpt lat="45.47802" lon="5.57723">
        <ele>552</ele>
        <time>2025-09-07T09:42:18.055Z</time>
      </trkpt>
      <trkpt lat="45.47801" lon="5.57716">
        <ele>552</ele>
        <time>2025-09-07T09:42:22.129Z</time>
      </trkpt>
      <trkpt lat="45.47799" lon="5.57709">
        <ele>552</ele>
        <time>2025-09-07T09:42:26.576Z</time>
      </trkpt>
      <trkpt lat="45.47797" lon="5.57702">
        <ele>547</ele>
        <time>2025-09-07T09:42:31.169Z</time>
      </trkpt>
      <trkpt lat="45.47793" lon="5.57696">
        <ele>547</ele>
        <time>2025-09-07T09:42:36.020Z</time>
      </trkpt>
      <trkpt lat="45.47789" lon="5.57688">
        <ele>549</ele>
        <time>2025-09-07T09:42:41.056Z</time>
      </trkpt>
      <trkpt lat="45.47784" lon="5.57683">
        <ele>549</ele>
        <time>2025-09-07T09:42:45.990Z</time>
      </trkpt>
      <trkpt lat="45.47779" lon="5.57677">
        <ele>544</ele>
        <time>2025-09-07T09:42:50.945Z</time>
      </trkpt>
      <trkpt lat="45.47775" lon="5.57673">
        <ele>544</ele>
        <time>2025-09-07T09:42:55.036Z</time>
      </trkpt>
      <trkpt lat="45.47771" lon="5.57669">
        <ele>544</ele>
        <time>2025-09-07T09:42:59.662Z</time>
      </trkpt>
      <trkpt lat="45.47767" lon="5.57664">
        <ele>544</ele>
        <time>2025-09-07T09:43:04.493Z</time>
      </trkpt>
      <trkpt lat="45.47762" lon="5.57658">
        <ele>549</ele>
        <time>2025-09-07T09:43:08.686Z</time>
      </trkpt>
      <trkpt lat="45.47756" lon="5.57652">
        <ele>546</ele>
        <time>2025-09-07T09:43:13.025Z</time>
      </trkpt>
      <trkpt lat="45.4775" lon="5.57644">
        <ele>546</ele>
        <time>2025-09-07T09:43:17.776Z</time>
      </trkpt>
      <trkpt lat="45.47746" lon="5.57638">
        <ele>546</ele>
        <time>2025-09-07T09:43:21.886Z</time>
      </trkpt>
      <trkpt lat="45.47743" lon="5.57631">
        <ele>546</ele>
        <time>2025-09-07T09:43:26.080Z</time>
      </trkpt>
      <trkpt lat="45.4774" lon="5.57623">
        <ele>544</ele>
        <time>2025-09-07T09:43:31.014Z</time>
      </trkpt>
      <trkpt lat="45.4774" lon="5.57616">
        <ele>544</ele>
        <time>2025-09-07T09:43:35.024Z</time>
      </trkpt>
      <trkpt lat="45.47742" lon="5.57608">
        <ele>544</ele>
        <time>2025-09-07T09:43:39.557Z</time>
      </trkpt>
      <trkpt lat="45.47743" lon="5.57599">
        <ele>544</ele>
        <time>2025-09-07T09:43:44.070Z</time>
      </trkpt>
      <trkpt lat="45.47743" lon="5.5759">
        <ele>541</ele>
        <time>2025-09-07T09:43:49.089Z</time>
      </trkpt>
      <trkpt lat="45.47744" lon="5.5758">
        <ele>541</ele>
        <time>2025-09-07T09:43:54.143Z</time>
      </trkpt>
      <trkpt lat="45.47742" lon="5.57572">
        <ele>541</ele>
        <time>2025-09-07T09:43:59.087Z</time>
      </trkpt>
      <trkpt lat="45.4774" lon="5.57567">
        <ele>537</ele>
        <time>2025-09-07T09:44:03.095Z</time>
      </trkpt>
      <trkpt lat="45.47742" lon="5.57558">
        <ele>537</ele>
        <time>2025-09-07T09:44:08.030Z</time>
      </trkpt>
      <trkpt lat="45.47744" lon="5.5755">
        <ele>537</ele>
        <time>2025-09-07T09:44:12.347Z</time>
      </trkpt>
      <trkpt lat="45.47746" lon="5.57545">
        <ele>537</ele>
        <time>2025-09-07T09:44:16.984Z</time>
      </trkpt>
      <trkpt lat="45.47746" lon="5.57536">
        <ele>534</ele>
        <time>2025-09-07T09:44:21.951Z</time>
      </trkpt>
      <trkpt lat="45.47745" lon="5.57525">
        <ele>534</ele>
        <time>2025-09-07T09:44:26.416Z</time>
      </trkpt>
      <trkpt lat="45.47744" lon="5.57517">
        <ele>534</ele>
        <time>2025-09-07T09:44:30.716Z</time>
      </trkpt>
      <trkpt lat="45.47743" lon="5.57509">
        <ele>532</ele>
        <time>2025-09-07T09:44:34.984Z</time>
      </trkpt>
      <trkpt lat="45.47742" lon="5.57503">
        <ele>532</ele>
        <time>2025-09-07T09:44:39.174Z</time>
      </trkpt>
      <trkpt lat="45.47741" lon="5.57498">
        <ele>532</ele>
        <time>2025-09-07T09:44:43.597Z</time>
      </trkpt>
      <trkpt lat="45.47739" lon="5.57492">
        <ele>532</ele>
        <time>2025-09-07T09:44:47.775Z</time>
      </trkpt>
      <trkpt lat="45.47737" lon="5.57484">
        <ele>533</ele>
        <time>2025-09-07T09:44:52.288Z</time>
      </trkpt>
      <trkpt lat="45.47735" lon="5.57476">
        <ele>531</ele>
        <time>2025-09-07T09:44:56.708Z</time>
      </trkpt>
      <trkpt lat="45.47734" lon="5.57467">
        <ele>531</ele>
        <time>2025-09-07T09:45:01.071Z</time>
      </trkpt>
      <trkpt lat="45.47732" lon="5.57461">
        <ele>531</ele>
        <time>2025-09-07T09:45:04.984Z</time>
      </trkpt>
      <trkpt lat="45.47731" lon="5.57455">
        <ele>531</ele>
        <time>2025-09-07T09:45:09.210Z</time>
      </trkpt>
      <trkpt lat="45.47732" lon="5.57446">
        <ele>531</ele>
        <time>2025-09-07T09:45:13.344Z</time>
      </trkpt>
      <trkpt lat="45.47732" lon="5.57437">
        <ele>531</ele>
        <time>2025-09-07T09:45:17.871Z</time>
      </trkpt>
      <trkpt lat="45.47731" lon="5.5743">
        <ele>530</ele>
        <time>2025-09-07T09:45:22.335Z</time>
      </trkpt>
      <trkpt lat="45.4773" lon="5.57422">
        <ele>530</ele>
        <time>2025-09-07T09:45:26.351Z</time>
      </trkpt>
      <trkpt lat="45.4773" lon="5.57413">
        <ele>530</ele>
        <time>2025-09-07T09:45:30.771Z</time>
      </trkpt>
      <trkpt lat="45.47729" lon="5.57404">
        <ele>530</ele>
        <time>2025-09-07T09:45:35.727Z</time>
      </trkpt>
      <trkpt lat="45.47727" lon="5.57396">
        <ele>529</ele>
        <time>2025-09-07T09:45:40.245Z</time>
      </trkpt>
      <trkpt lat="45.47725" lon="5.57388">
        <ele>529</ele>
        <time>2025-09-07T09:45:44.725Z</time>
      </trkpt>
      <trkpt lat="45.47727" lon="5.5738">
        <ele>529</ele>
        <time>2025-09-07T09:45:49.068Z</time>
      </trkpt>
      <trkpt lat="45.47728" lon="5.57374">
        <ele>526</ele>
        <time>2025-09-07T09:45:53.385Z</time>
      </trkpt>
      <trkpt lat="45.4773" lon="5.57366">
        <ele>526</ele>
        <time>2025-09-07T09:45:58.010Z</time>
      </trkpt>
      <trkpt lat="45.47729" lon="5.5736">
        <ele>526</ele>
        <time>2025-09-07T09:46:02.473Z</time>
      </trkpt>
      <trkpt lat="45.47726" lon="5.57353">
        <ele>526</ele>
        <time>2025-09-07T09:46:06.659Z</time>
      </trkpt>
      <trkpt lat="45.47725" lon="5.57347">
        <ele>524</ele>
        <time>2025-09-07T09:46:11.186Z</time>
      </trkpt>
      <trkpt lat="45.47726" lon="5.5734">
        <ele>524</ele>
        <time>2025-09-07T09:46:15.577Z</time>
      </trkpt>
      <trkpt lat="45.47726" lon="5.57334">
        <ele>524</ele>
        <time>2025-09-07T09:46:19.624Z</time>
      </trkpt>
      <trkpt lat="45.47726" lon="5.57328">
        <ele>524</ele>
        <time>2025-09-07T09:46:24.094Z</time>
      </trkpt>
      <trkpt lat="45.47728" lon="5.5732">
        <ele>524</ele>
        <time>2025-09-07T09:46:28.394Z</time>
      </trkpt>
      <trkpt lat="45.47729" lon="5.57312">
        <ele>521</ele>
        <time>2025-09-07T09:46:32.849Z</time>
      </trkpt>
      <trkpt lat="45.47728" lon="5.57306">
        <ele>521</ele>
        <time>2025-09-07T09:46:37.066Z</time>
      </trkpt>
      <trkpt lat="45.4773" lon="5.57299">
        <ele>521</ele>
        <time>2025-09-07T09:46:41.388Z</time>
      </trkpt>
      <trkpt lat="45.47729" lon="5.57293">
        <ele>521</ele>
        <time>2025-09-07T09:46:45.713Z</time>
      </trkpt>
      <trkpt lat="45.47726" lon="5.57286">
        <ele>518</ele>
        <time>2025-09-07T09:46:49.852Z</time>
      </trkpt>
      <trkpt lat="45.4772" lon="5.5728">
        <ele>518</ele>
        <time>2025-09-07T09:46:53.933Z</time>
      </trkpt>
      <trkpt lat="45.47715" lon="5.57274">
        <ele>518</ele>
        <time>2025-09-07T09:46:58.033Z</time>
      </trkpt>
      <trkpt lat="45.4771" lon="5.57269">
        <ele>518</ele>
        <time>2025-09-07T09:47:02.352Z</time>
      </trkpt>
      <trkpt lat="45.47708" lon="5.57262">
        <ele>517</ele>
        <time>2025-09-07T09:47:06.699Z</time>
      </trkpt>
      <trkpt lat="45.47707" lon="5.57255">
        <ele>517</ele>
        <time>2025-09-07T09:47:11.353Z</time>
      </trkpt>
      <trkpt lat="45.47706" lon="5.57248">
        <ele>517</ele>
        <time>2025-09-07T09:47:15.315Z</time>
      </trkpt>
      <trkpt lat="45.47705" lon="5.57239">
        <ele>517</ele>
        <time>2025-09-07T09:47:19.725Z</time>
      </trkpt>
      <trkpt lat="45.47704" lon="5.5723">
        <ele>516</ele>
        <time>2025-09-07T09:47:23.776Z</time>
      </trkpt>
      <trkpt lat="45.47703" lon="5.57223">
        <ele>516</ele>
        <time>2025-09-07T09:47:28.043Z</time>
      </trkpt>
      <trkpt lat="45.47702" lon="5.57216">
        <ele>516</ele>
        <time>2025-09-07T09:47:32.624Z</time>
      </trkpt>
      <trkpt lat="45.47703" lon="5.57209">
        <ele>516</ele>
        <time>2025-09-07T09:47:37.011Z</time>
      </trkpt>
      <trkpt lat="45.47702" lon="5.57204">
        <ele>515</ele>
        <time>2025-09-07T09:47:41.096Z</time>
      </trkpt>
      <trkpt lat="45.47699" lon="5.57195">
        <ele>515</ele>
        <time>2025-09-07T09:47:45.330Z</time>
      </trkpt>
      <trkpt lat="45.477" lon="5.57187">
        <ele>515</ele>
        <time>2025-09-07T09:47:49.829Z</time>
      </trkpt>
      <trkpt lat="45.477" lon="5.57178">
        <ele>514</ele>
        <time>2025-09-07T09:47:54.936Z</time>
      </trkpt>
      <trkpt lat="45.47696" lon="5.57177">
        <ele>514</ele>
        <time>2025-09-07T09:47:59.082Z</time>
      </trkpt>
      <trkpt lat="45.47694" lon="5.57177">
        <ele>514</ele>
        <time>2025-09-07T09:48:09.051Z</time>
      </trkpt>
      <trkpt lat="45.47694" lon="5.57177">
        <ele>514</ele>
        <time>2025-09-07T09:48:16.040Z</time>
      </trkpt>
      <trkpt lat="45.47694" lon="5.57176">
        <ele>514</ele>
        <time>2025-09-07T09:48:22Z</time>
      </trkpt>
      <trkpt lat="45.47693" lon="5.57173">
        <ele>514</ele>
        <time>2025-09-07T09:48:26.416Z</time>
      </trkpt>
      <trkpt lat="45.47688" lon="5.57168">
        <ele>514</ele>
        <time>2025-09-07T09:48:30.847Z</time>
      </trkpt>
      <trkpt lat="45.47684" lon="5.57162">
        <ele>514</ele>
        <time>2025-09-07T09:48:35.053Z</time>
      </trkpt>
      <trkpt lat="45.47676" lon="5.57159">
        <ele>516</ele>
        <time>2025-09-07T09:48:40.073Z</time>
      </trkpt>
      <trkpt lat="45.47669" lon="5.57159">
        <ele>516</ele>
        <time>2025-09-07T09:48:44.529Z</time>
      </trkpt>
      <trkpt lat="45.47662" lon="5.57159">
        <ele>516</ele>
        <time>2025-09-07T09:48:48.906Z</time>
      </trkpt>
      <trkpt lat="45.47656" lon="5.57157">
        <ele>516</ele>
        <time>2025-09-07T09:48:53.333Z</time>
      </trkpt>
      <trkpt lat="45.47649" lon="5.57157">
        <ele>518</ele>
        <time>2025-09-07T09:48:57.752Z</time>
      </trkpt>
      <trkpt lat="45.47643" lon="5.57157">
        <ele>518</ele>
        <time>2025-09-07T09:49:02.169Z</time>
      </trkpt>
      <trkpt lat="45.47637" lon="5.57156">
        <ele>518</ele>
        <time>2025-09-07T09:49:06.554Z</time>
      </trkpt>
      <trkpt lat="45.47631" lon="5.57156">
        <ele>518</ele>
        <time>2025-09-07T09:49:10.931Z</time>
      </trkpt>
      <trkpt lat="45.47625" lon="5.57158">
        <ele>518</ele>
        <time>2025-09-07T09:49:15.475Z</time>
      </trkpt>
      <trkpt lat="45.47618" lon="5.5716">
        <ele>516</ele>
        <time>2025-09-07T09:49:19.924Z</time>
      </trkpt>
      <trkpt lat="45.47612" lon="5.57165">
        <ele>516</ele>
        <time>2025-09-07T09:49:24.338Z</time>
      </trkpt>
      <trkpt lat="45.47606" lon="5.5717">
        <ele>516</ele>
        <time>2025-09-07T09:49:28.877Z</time>
      </trkpt>
      <trkpt lat="45.47601" lon="5.57175">
        <ele>516</ele>
        <time>2025-09-07T09:49:33.388Z</time>
      </trkpt>
      <trkpt lat="45.47594" lon="5.5718">
        <ele>515</ele>
        <time>2025-09-07T09:49:37.789Z</time>
      </trkpt>
      <trkpt lat="45.47589" lon="5.57185">
        <ele>517</ele>
        <time>2025-09-07T09:49:42.283Z</time>
      </trkpt>
      <trkpt lat="45.47583" lon="5.5719">
        <ele>517</ele>
        <time>2025-09-07T09:49:46.772Z</time>
      </trkpt>
      <trkpt lat="45.47578" lon="5.57193">
        <ele>517</ele>
        <time>2025-09-07T09:49:51.106Z</time>
      </trkpt>
      <trkpt lat="45.47572" lon="5.57196">
        <ele>517</ele>
        <time>2025-09-07T09:49:55.555Z</time>
      </trkpt>
      <trkpt lat="45.47567" lon="5.572">
        <ele>518</ele>
        <time>2025-09-07T09:49:59.934Z</time>
      </trkpt>
      <trkpt lat="45.47562" lon="5.57204">
        <ele>518</ele>
        <time>2025-09-07T09:50:04.055Z</time>
      </trkpt>
      <trkpt lat="45.47558" lon="5.57208">
        <ele>518</ele>
        <time>2025-09-07T09:50:08.555Z</time>
      </trkpt>
      <trkpt lat="45.47553" lon="5.57211">
        <ele>521</ele>
        <time>2025-09-07T09:50:13.096Z</time>
      </trkpt>
      <trkpt lat="45.47548" lon="5.57214">
        <ele>521</ele>
        <time>2025-09-07T09:50:17.476Z</time>
      </trkpt>
      <trkpt lat="45.47543" lon="5.57217">
        <ele>521</ele>
        <time>2025-09-07T09:50:22.051Z</time>
      </trkpt>
      <trkpt lat="45.47537" lon="5.5722">
        <ele>523</ele>
        <time>2025-09-07T09:50:26.537Z</time>
      </trkpt>
      <trkpt lat="45.47531" lon="5.57223">
        <ele>523</ele>
        <time>2025-09-07T09:50:30.993Z</time>
      </trkpt>
      <trkpt lat="45.47527" lon="5.57225">
        <ele>523</ele>
        <time>2025-09-07T09:50:35.538Z</time>
      </trkpt>
      <trkpt lat="45.47522" lon="5.57226">
        <ele>523</ele>
        <time>2025-09-07T09:50:40.008Z</time>
      </trkpt>
      <trkpt lat="45.47517" lon="5.57228">
        <ele>523</ele>
        <time>2025-09-07T09:50:44.469Z</time>
      </trkpt>
      <trkpt lat="45.47511" lon="5.57231">
        <ele>527</ele>
        <time>2025-09-07T09:50:49.069Z</time>
      </trkpt>
      <trkpt lat="45.47504" lon="5.57234">
        <ele>527</ele>
        <time>2025-09-07T09:50:53.799Z</time>
      </trkpt>
      <trkpt lat="45.47498" lon="5.57237">
        <ele>527</ele>
        <time>2025-09-07T09:50:58.348Z</time>
      </trkpt>
      <trkpt lat="45.47491" lon="5.57238">
        <ele>527</ele>
        <time>2025-09-07T09:51:02.824Z</time>
      </trkpt>
      <trkpt lat="45.47484" lon="5.5724">
        <ele>529</ele>
        <time>2025-09-07T09:51:07.272Z</time>
      </trkpt>
      <trkpt lat="45.47478" lon="5.57242">
        <ele>529</ele>
        <time>2025-09-07T09:51:11.656Z</time>
      </trkpt>
      <trkpt lat="45.47472" lon="5.57242">
        <ele>529</ele>
        <time>2025-09-07T09:51:15.669Z</time>
      </trkpt>
      <trkpt lat="45.47467" lon="5.57241">
        <ele>529</ele>
        <time>2025-09-07T09:51:20.107Z</time>
      </trkpt>
      <trkpt lat="45.47463" lon="5.5724">
        <ele>529</ele>
        <time>2025-09-07T09:51:24.161Z</time>
      </trkpt>
      <trkpt lat="45.47458" lon="5.57237">
        <ele>529</ele>
        <time>2025-09-07T09:51:28.644Z</time>
      </trkpt>
      <trkpt lat="45.47454" lon="5.57235">
        <ele>529</ele>
        <time>2025-09-07T09:51:32.656Z</time>
      </trkpt>
      <trkpt lat="45.4745" lon="5.57233">
        <ele>529</ele>
        <time>2025-09-07T09:51:36.692Z</time>
      </trkpt>
      <trkpt lat="45.47445" lon="5.57231">
        <ele>529</ele>
        <time>2025-09-07T09:51:40.845Z</time>
      </trkpt>
      <trkpt lat="45.47439" lon="5.57228">
        <ele>529</ele>
        <time>2025-09-07T09:51:44.890Z</time>
      </trkpt>
      <trkpt lat="45.47432" lon="5.57225">
        <ele>529</ele>
        <time>2025-09-07T09:51:49.420Z</time>
      </trkpt>
      <trkpt lat="45.47426" lon="5.57223">
        <ele>530</ele>
        <time>2025-09-07T09:51:53.858Z</time>
      </trkpt>
      <trkpt lat="45.4742" lon="5.57222">
        <ele>530</ele>
        <time>2025-09-07T09:51:58.419Z</time>
      </trkpt>
      <trkpt lat="45.47415" lon="5.57219">
        <ele>530</ele>
        <time>2025-09-07T09:52:02.829Z</time>
      </trkpt>
      <trkpt lat="45.47408" lon="5.57218">
        <ele>530</ele>
        <time>2025-09-07T09:52:07.277Z</time>
      </trkpt>
      <trkpt lat="45.47403" lon="5.57214">
        <ele>530</ele>
        <time>2025-09-07T09:52:11.417Z</time>
      </trkpt>
      <trkpt lat="45.47399" lon="5.57208">
        <ele>530</ele>
        <time>2025-09-07T09:52:15.670Z</time>
      </trkpt>
      <trkpt lat="45.47394" lon="5.57203">
        <ele>530</ele>
        <time>2025-09-07T09:52:19.796Z</time>
      </trkpt>
      <trkpt lat="45.4739" lon="5.57198">
        <ele>530</ele>
        <time>2025-09-07T09:52:24.032Z</time>
      </trkpt>
      <trkpt lat="45.47385" lon="5.57191">
        <ele>530</ele>
        <time>2025-09-07T09:52:28.135Z</time>
      </trkpt>
      <trkpt lat="45.47379" lon="5.57186">
        <ele>530</ele>
        <time>2025-09-07T09:52:32.311Z</time>
      </trkpt>
      <trkpt lat="45.47372" lon="5.57184">
        <ele>530</ele>
        <time>2025-09-07T09:52:36.712Z</time>
      </trkpt>
      <trkpt lat="45.47366" lon="5.57179">
        <ele>529</ele>
        <time>2025-09-07T09:52:41.117Z</time>
      </trkpt>
      <trkpt lat="45.47362" lon="5.57174">
        <ele>529</ele>
        <time>2025-09-07T09:52:45.437Z</time>
      </trkpt>
      <trkpt lat="45.47358" lon="5.57169">
        <ele>529</ele>
        <time>2025-09-07T09:52:49.796Z</time>
      </trkpt>
      <trkpt lat="45.47355" lon="5.57165">
        <ele>529</ele>
        <time>2025-09-07T09:52:54.041Z</time>
      </trkpt>
      <trkpt lat="45.47356" lon="5.57164">
        <ele>529</ele>
        <time>2025-09-07T09:52:59.076Z</time>
      </trkpt>
      <trkpt lat="45.47356" lon="5.57165">
        <ele>529</ele>
        <time>2025-09-07T09:53:04.112Z</time>
      </trkpt>
      <trkpt lat="45.47355" lon="5.57159">
        <ele>529</ele>
        <time>2025-09-07T09:53:09.983Z</time>
      </trkpt>
      <trkpt lat="45.47351" lon="5.5715">
        <ele>528</ele>
        <time>2025-09-07T09:53:15.983Z</time>
      </trkpt>
      <trkpt lat="45.47353" lon="5.57142">
        <ele>528</ele>
        <time>2025-09-07T09:53:21.983Z</time>
      </trkpt>
      <trkpt lat="45.47354" lon="5.57132">
        <ele>528</ele>
        <time>2025-09-07T09:53:27.983Z</time>
      </trkpt>
      <trkpt lat="45.47354" lon="5.57126">
        <ele>528</ele>
        <time>2025-09-07T09:53:31.983Z</time>
      </trkpt>
      <trkpt lat="45.47352" lon="5.57116">
        <ele>528</ele>
        <time>2025-09-07T09:53:36.983Z</time>
      </trkpt>
      <trkpt lat="45.47351" lon="5.57107">
        <ele>528</ele>
        <time>2025-09-07T09:53:41.983Z</time>
      </trkpt>
      <trkpt lat="45.4735" lon="5.571">
        <ele>528</ele>
        <time>2025-09-07T09:53:46.983Z</time>
      </trkpt>
      <trkpt lat="45.47349" lon="5.57093">
        <ele>528</ele>
        <time>2025-09-07T09:53:50.983Z</time>
      </trkpt>
      <trkpt lat="45.47349" lon="5.57087">
        <ele>528</ele>
        <time>2025-09-07T09:53:54.983Z</time>
      </trkpt>
      <trkpt lat="45.47347" lon="5.57078">
        <ele>528</ele>
        <time>2025-09-07T09:53:59.674Z</time>
      </trkpt>
      <trkpt lat="45.47345" lon="5.57072">
        <ele>526</ele>
        <time>2025-09-07T09:54:04.119Z</time>
      </trkpt>
      <trkpt lat="45.47342" lon="5.57067">
        <ele>525</ele>
        <time>2025-09-07T09:54:08.037Z</time>
      </trkpt>
      <trkpt lat="45.47339" lon="5.57059">
        <ele>525</ele>
        <time>2025-09-07T09:54:12.559Z</time>
      </trkpt>
      <trkpt lat="45.47333" lon="5.57055">
        <ele>525</ele>
        <time>2025-09-07T09:54:16.768Z</time>
      </trkpt>
      <trkpt lat="45.47326" lon="5.57054">
        <ele>525</ele>
        <time>2025-09-07T09:54:21.089Z</time>
      </trkpt>
      <trkpt lat="45.47318" lon="5.57056">
        <ele>524</ele>
        <time>2025-09-07T09:54:25.725Z</time>
      </trkpt>
      <trkpt lat="45.4731" lon="5.57059">
        <ele>524</ele>
        <time>2025-09-07T09:54:30.983Z</time>
      </trkpt>
      <trkpt lat="45.47304" lon="5.57059">
        <ele>524</ele>
        <time>2025-09-07T09:54:34.983Z</time>
      </trkpt>
      <trkpt lat="45.47299" lon="5.57058">
        <ele>524</ele>
        <time>2025-09-07T09:54:38.983Z</time>
      </trkpt>
      <trkpt lat="45.47293" lon="5.57059">
        <ele>524</ele>
        <time>2025-09-07T09:54:43.983Z</time>
      </trkpt>
      <trkpt lat="45.47288" lon="5.57059">
        <ele>523</ele>
        <time>2025-09-07T09:54:49.043Z</time>
      </trkpt>
      <trkpt lat="45.47283" lon="5.57059">
        <ele>523</ele>
        <time>2025-09-07T09:54:53.717Z</time>
      </trkpt>
      <trkpt lat="45.47277" lon="5.57057">
        <ele>523</ele>
        <time>2025-09-07T09:54:58.311Z</time>
      </trkpt>
      <trkpt lat="45.47272" lon="5.57055">
        <ele>523</ele>
        <time>2025-09-07T09:55:02.326Z</time>
      </trkpt>
      <trkpt lat="45.47266" lon="5.57055">
        <ele>523</ele>
        <time>2025-09-07T09:55:06.801Z</time>
      </trkpt>
      <trkpt lat="45.47258" lon="5.57055">
        <ele>525</ele>
        <time>2025-09-07T09:55:11.326Z</time>
      </trkpt>
      <trkpt lat="45.4725" lon="5.57055">
        <ele>525</ele>
        <time>2025-09-07T09:55:16.072Z</time>
      </trkpt>
      <trkpt lat="45.47243" lon="5.57055">
        <ele>525</ele>
        <time>2025-09-07T09:55:20.296Z</time>
      </trkpt>
      <trkpt lat="45.47236" lon="5.57053">
        <ele>528</ele>
        <time>2025-09-07T09:55:24.763Z</time>
      </trkpt>
      <trkpt lat="45.4723" lon="5.57053">
        <ele>528</ele>
        <time>2025-09-07T09:55:28.888Z</time>
      </trkpt>
      <trkpt lat="45.47225" lon="5.57051">
        <ele>528</ele>
        <time>2025-09-07T09:55:32.942Z</time>
      </trkpt>
      <trkpt lat="45.4722" lon="5.57048">
        <ele>528</ele>
        <time>2025-09-07T09:55:37.016Z</time>
      </trkpt>
      <trkpt lat="45.47216" lon="5.57045">
        <ele>528</ele>
        <time>2025-09-07T09:55:41.631Z</time>
      </trkpt>
      <trkpt lat="45.47212" lon="5.57041">
        <ele>527</ele>
        <time>2025-09-07T09:55:45.724Z</time>
      </trkpt>
      <trkpt lat="45.47207" lon="5.57037">
        <ele>529</ele>
        <time>2025-09-07T09:55:49.739Z</time>
      </trkpt>
      <trkpt lat="45.47203" lon="5.57034">
        <ele>529</ele>
        <time>2025-09-07T09:55:53.843Z</time>
      </trkpt>
      <trkpt lat="45.47199" lon="5.57029">
        <ele>529</ele>
        <time>2025-09-07T09:55:58.003Z</time>
      </trkpt>
      <trkpt lat="45.4719" lon="5.57021">
        <ele>529</ele>
        <time>2025-09-07T09:56:02.557Z</time>
      </trkpt>
      <trkpt lat="45.47164" lon="5.5702">
        <ele>531</ele>
        <time>2025-09-07T09:56:06.646Z</time>
      </trkpt>
      <trkpt lat="45.47144" lon="5.57016">
        <ele>536</ele>
        <time>2025-09-07T09:56:10.831Z</time>
      </trkpt>
      <trkpt lat="45.47135" lon="5.57013">
        <ele>534</ele>
        <time>2025-09-07T09:56:15.063Z</time>
      </trkpt>
      <trkpt lat="45.47131" lon="5.57013">
        <ele>534</ele>
        <time>2025-09-07T09:56:19.956Z</time>
      </trkpt>
      <trkpt lat="45.47127" lon="5.5701">
        <ele>534</ele>
        <time>2025-09-07T09:56:24.456Z</time>
      </trkpt>
      <trkpt lat="45.47123" lon="5.57007">
        <ele>541</ele>
        <time>2025-09-07T09:56:28.804Z</time>
      </trkpt>
      <trkpt lat="45.47118" lon="5.57006">
        <ele>541</ele>
        <time>2025-09-07T09:56:32.971Z</time>
      </trkpt>
      <trkpt lat="45.47116" lon="5.57004">
        <ele>541</ele>
        <time>2025-09-07T09:56:37.057Z</time>
      </trkpt>
      <trkpt lat="45.47115" lon="5.57003">
        <ele>541</ele>
        <time>2025-09-07T09:56:41.637Z</time>
      </trkpt>
      <trkpt lat="45.47111" lon="5.56999">
        <ele>541</ele>
        <time>2025-09-07T09:56:45.716Z</time>
      </trkpt>
      <trkpt lat="45.47105" lon="5.56996">
        <ele>541</ele>
        <time>2025-09-07T09:56:50.176Z</time>
      </trkpt>
      <trkpt lat="45.47099" lon="5.56991">
        <ele>541</ele>
        <time>2025-09-07T09:56:55.042Z</time>
      </trkpt>
      <trkpt lat="45.47089" lon="5.56989">
        <ele>547</ele>
        <time>2025-09-07T09:56:59.050Z</time>
      </trkpt>
      <trkpt lat="45.47083" lon="5.56989">
        <ele>547</ele>
        <time>2025-09-07T09:57:03.058Z</time>
      </trkpt>
      <trkpt lat="45.47079" lon="5.56992">
        <ele>547</ele>
        <time>2025-09-07T09:57:07.580Z</time>
      </trkpt>
      <trkpt lat="45.47075" lon="5.56992">
        <ele>547</ele>
        <time>2025-09-07T09:57:11.982Z</time>
      </trkpt>
      <trkpt lat="45.47072" lon="5.5699">
        <ele>547</ele>
        <time>2025-09-07T09:57:15.982Z</time>
      </trkpt>
      <trkpt lat="45.47068" lon="5.56991">
        <ele>551</ele>
        <time>2025-09-07T09:57:20.982Z</time>
      </trkpt>
      <trkpt lat="45.47064" lon="5.56987">
        <ele>551</ele>
        <time>2025-09-07T09:57:25.982Z</time>
      </trkpt>
      <trkpt lat="45.4706" lon="5.56983">
        <ele>551</ele>
        <time>2025-09-07T09:57:30.982Z</time>
      </trkpt>
      <trkpt lat="45.47057" lon="5.5698">
        <ele>551</ele>
        <time>2025-09-07T09:57:35.982Z</time>
      </trkpt>
      <trkpt lat="45.47053" lon="5.56978">
        <ele>551</ele>
        <time>2025-09-07T09:57:40.982Z</time>
      </trkpt>
      <trkpt lat="45.47047" lon="5.56974">
        <ele>551</ele>
        <time>2025-09-07T09:57:45.982Z</time>
      </trkpt>
      <trkpt lat="45.47042" lon="5.5697">
        <ele>551</ele>
        <time>2025-09-07T09:57:50.982Z</time>
      </trkpt>
      <trkpt lat="45.47036" lon="5.56964">
        <ele>554</ele>
        <time>2025-09-07T09:57:55.982Z</time>
      </trkpt>
      <trkpt lat="45.47031" lon="5.5696">
        <ele>554</ele>
        <time>2025-09-07T09:57:59.982Z</time>
      </trkpt>
      <trkpt lat="45.47025" lon="5.56954">
        <ele>553</ele>
        <time>2025-09-07T09:58:04.982Z</time>
      </trkpt>
      <trkpt lat="45.47019" lon="5.56948">
        <ele>553</ele>
        <time>2025-09-07T09:58:08.982Z</time>
      </trkpt>
      <trkpt lat="45.47013" lon="5.56943">
        <ele>558</ele>
        <time>2025-09-07T09:58:12.982Z</time>
      </trkpt>
      <trkpt lat="45.47006" lon="5.56942">
        <ele>558</ele>
        <time>2025-09-07T09:58:17.982Z</time>
      </trkpt>
      <trkpt lat="45.47001" lon="5.56942">
        <ele>558</ele>
        <time>2025-09-07T09:58:22.982Z</time>
      </trkpt>
      <trkpt lat="45.46998" lon="5.56943">
        <ele>558</ele>
        <time>2025-09-07T09:58:26.982Z</time>
      </trkpt>
      <trkpt lat="45.46994" lon="5.5694">
        <ele>558</ele>
        <time>2025-09-07T09:58:30.982Z</time>
      </trkpt>
      <trkpt lat="45.46988" lon="5.56939">
        <ele>558</ele>
        <time>2025-09-07T09:58:34.982Z</time>
      </trkpt>
      <trkpt lat="45.46981" lon="5.56936">
        <ele>563</ele>
        <time>2025-09-07T09:58:39.982Z</time>
      </trkpt>
      <trkpt lat="45.46975" lon="5.56933">
        <ele>563</ele>
        <time>2025-09-07T09:58:44.982Z</time>
      </trkpt>
      <trkpt lat="45.46971" lon="5.56932">
        <ele>563</ele>
        <time>2025-09-07T09:58:49.982Z</time>
      </trkpt>
      <trkpt lat="45.46967" lon="5.56931">
        <ele>563</ele>
        <time>2025-09-07T09:58:54.982Z</time>
      </trkpt>
      <trkpt lat="45.46962" lon="5.5693">
        <ele>563</ele>
        <time>2025-09-07T09:58:59.982Z</time>
      </trkpt>
      <trkpt lat="45.46958" lon="5.56928">
        <ele>565</ele>
        <time>2025-09-07T09:59:03.982Z</time>
      </trkpt>
      <trkpt lat="45.46954" lon="5.56928">
        <ele>565</ele>
        <time>2025-09-07T09:59:08.982Z</time>
      </trkpt>
      <trkpt lat="45.46951" lon="5.56927">
        <ele>565</ele>
        <time>2025-09-07T09:59:13.982Z</time>
      </trkpt>
      <trkpt lat="45.46947" lon="5.5693">
        <ele>565</ele>
        <time>2025-09-07T09:59:18.982Z</time>
      </trkpt>
      <trkpt lat="45.4694" lon="5.56932">
        <ele>566</ele>
        <time>2025-09-07T09:59:23.982Z</time>
      </trkpt>
      <trkpt lat="45.46933" lon="5.56934">
        <ele>566</ele>
        <time>2025-09-07T09:59:27.982Z</time>
      </trkpt>
      <trkpt lat="45.46927" lon="5.56934">
        <ele>571</ele>
        <time>2025-09-07T09:59:32.982Z</time>
      </trkpt>
      <trkpt lat="45.46924" lon="5.56933">
        <ele>571</ele>
        <time>2025-09-07T09:59:36.982Z</time>
      </trkpt>
      <trkpt lat="45.46921" lon="5.56934">
        <ele>571</ele>
        <time>2025-09-07T09:59:41.982Z</time>
      </trkpt>
      <trkpt lat="45.46918" lon="5.56933">
        <ele>571</ele>
        <time>2025-09-07T09:59:46.982Z</time>
      </trkpt>
      <trkpt lat="45.46912" lon="5.56937">
        <ele>571</ele>
        <time>2025-09-07T09:59:51.982Z</time>
      </trkpt>
      <trkpt lat="45.46905" lon="5.56938">
        <ele>571</ele>
        <time>2025-09-07T09:59:56.982Z</time>
      </trkpt>
      <trkpt lat="45.46898" lon="5.56938">
        <ele>575</ele>
        <time>2025-09-07T10:00:01.982Z</time>
      </trkpt>
      <trkpt lat="45.46893" lon="5.56938">
        <ele>575</ele>
        <time>2025-09-07T10:00:05.982Z</time>
      </trkpt>
      <trkpt lat="45.46886" lon="5.56939">
        <ele>575</ele>
        <time>2025-09-07T10:00:10.982Z</time>
      </trkpt>
      <trkpt lat="45.4688" lon="5.56938">
        <ele>575</ele>
        <time>2025-09-07T10:00:15.982Z</time>
      </trkpt>
      <trkpt lat="45.46874" lon="5.56938">
        <ele>578</ele>
        <time>2025-09-07T10:00:20.982Z</time>
      </trkpt>
      <trkpt lat="45.46867" lon="5.56936">
        <ele>578</ele>
        <time>2025-09-07T10:00:26.982Z</time>
      </trkpt>
      <trkpt lat="45.46862" lon="5.56935">
        <ele>578</ele>
        <time>2025-09-07T10:00:31.982Z</time>
      </trkpt>
      <trkpt lat="45.46856" lon="5.56935">
        <ele>578</ele>
        <time>2025-09-07T10:00:36.982Z</time>
      </trkpt>
      <trkpt lat="45.46852" lon="5.56934">
        <ele>578</ele>
        <time>2025-09-07T10:00:40.982Z</time>
      </trkpt>
      <trkpt lat="45.46846" lon="5.56932">
        <ele>581</ele>
        <time>2025-09-07T10:00:44.982Z</time>
      </trkpt>
      <trkpt lat="45.4684" lon="5.56929">
        <ele>580</ele>
        <time>2025-09-07T10:00:48.982Z</time>
      </trkpt>
      <trkpt lat="45.46833" lon="5.56927">
        <ele>580</ele>
        <time>2025-09-07T10:00:53.982Z</time>
      </trkpt>
      <trkpt lat="45.46827" lon="5.56928">
        <ele>580</ele>
        <time>2025-09-07T10:00:57.982Z</time>
      </trkpt>
      <trkpt lat="45.46819" lon="5.56931">
        <ele>583</ele>
        <time>2025-09-07T10:01:02.982Z</time>
      </trkpt>
      <trkpt lat="45.46812" lon="5.56935">
        <ele>583</ele>
        <time>2025-09-07T10:01:07.982Z</time>
      </trkpt>
      <trkpt lat="45.46806" lon="5.56938">
        <ele>583</ele>
        <time>2025-09-07T10:01:12.982Z</time>
      </trkpt>
      <trkpt lat="45.46801" lon="5.56941">
        <ele>583</ele>
        <time>2025-09-07T10:01:17.477Z</time>
      </trkpt>
      <trkpt lat="45.46796" lon="5.56946">
        <ele>583</ele>
        <time>2025-09-07T10:01:21.803Z</time>
      </trkpt>
      <trkpt lat="45.46791" lon="5.56951">
        <ele>587</ele>
        <time>2025-09-07T10:01:26.091Z</time>
      </trkpt>
      <trkpt lat="45.46786" lon="5.56954">
        <ele>587</ele>
        <time>2025-09-07T10:01:30.473Z</time>
      </trkpt>
      <trkpt lat="45.46781" lon="5.56958">
        <ele>587</ele>
        <time>2025-09-07T10:01:34.777Z</time>
      </trkpt>
      <trkpt lat="45.46775" lon="5.56963">
        <ele>590</ele>
        <time>2025-09-07T10:01:39.350Z</time>
      </trkpt>
      <trkpt lat="45.4677" lon="5.56966">
        <ele>590</ele>
        <time>2025-09-07T10:01:44.038Z</time>
      </trkpt>
      <trkpt lat="45.46765" lon="5.56966">
        <ele>590</ele>
        <time>2025-09-07T10:01:48.118Z</time>
      </trkpt>
      <trkpt lat="45.46759" lon="5.56965">
        <ele>597</ele>
        <time>2025-09-07T10:01:52.677Z</time>
      </trkpt>
      <trkpt lat="45.46753" lon="5.56962">
        <ele>597</ele>
        <time>2025-09-07T10:01:57.127Z</time>
      </trkpt>
      <trkpt lat="45.46747" lon="5.5696">
        <ele>597</ele>
        <time>2025-09-07T10:02:01.673Z</time>
      </trkpt>
      <trkpt lat="45.46742" lon="5.56958">
        <ele>595</ele>
        <time>2025-09-07T10:02:06.218Z</time>
      </trkpt>
      <trkpt lat="45.46737" lon="5.56954">
        <ele>595</ele>
        <time>2025-09-07T10:02:10.251Z</time>
      </trkpt>
      <trkpt lat="45.46732" lon="5.5695">
        <ele>601</ele>
        <time>2025-09-07T10:02:14.303Z</time>
      </trkpt>
      <trkpt lat="45.46728" lon="5.56946">
        <ele>601</ele>
        <time>2025-09-07T10:02:18.315Z</time>
      </trkpt>
      <trkpt lat="45.46723" lon="5.56941">
        <ele>601</ele>
        <time>2025-09-07T10:02:22.757Z</time>
      </trkpt>
      <trkpt lat="45.4672" lon="5.56936">
        <ele>601</ele>
        <time>2025-09-07T10:02:26.773Z</time>
      </trkpt>
      <trkpt lat="45.46716" lon="5.56932">
        <ele>601</ele>
        <time>2025-09-07T10:02:30.816Z</time>
      </trkpt>
      <trkpt lat="45.46714" lon="5.56926">
        <ele>598</ele>
        <time>2025-09-07T10:02:35.014Z</time>
      </trkpt>
      <trkpt lat="45.46712" lon="5.56921">
        <ele>598</ele>
        <time>2025-09-07T10:02:39.501Z</time>
      </trkpt>
      <trkpt lat="45.46711" lon="5.56917">
        <ele>598</ele>
        <time>2025-09-07T10:02:43.749Z</time>
      </trkpt>
      <trkpt lat="45.46709" lon="5.56911">
        <ele>598</ele>
        <time>2025-09-07T10:02:47.811Z</time>
      </trkpt>
      <trkpt lat="45.46708" lon="5.56903">
        <ele>601</ele>
        <time>2025-09-07T10:02:51.857Z</time>
      </trkpt>
      <trkpt lat="45.46706" lon="5.56898">
        <ele>600</ele>
        <time>2025-09-07T10:02:55.877Z</time>
      </trkpt>
      <trkpt lat="45.46704" lon="5.56891">
        <ele>600</ele>
        <time>2025-09-07T10:02:59.961Z</time>
      </trkpt>
      <trkpt lat="45.46702" lon="5.56885">
        <ele>600</ele>
        <time>2025-09-07T10:03:04.493Z</time>
      </trkpt>
      <trkpt lat="45.46699" lon="5.56878">
        <ele>600</ele>
        <time>2025-09-07T10:03:08.531Z</time>
      </trkpt>
      <trkpt lat="45.46696" lon="5.56872">
        <ele>598</ele>
        <time>2025-09-07T10:03:12.557Z</time>
      </trkpt>
      <trkpt lat="45.46692" lon="5.56865">
        <ele>598</ele>
        <time>2025-09-07T10:03:17.018Z</time>
      </trkpt>
      <trkpt lat="45.46688" lon="5.56857">
        <ele>598</ele>
        <time>2025-09-07T10:03:21.452Z</time>
      </trkpt>
      <trkpt lat="45.46684" lon="5.56851">
        <ele>598</ele>
        <time>2025-09-07T10:03:26.037Z</time>
      </trkpt>
      <trkpt lat="45.4668" lon="5.56846">
        <ele>603</ele>
        <time>2025-09-07T10:03:30.390Z</time>
      </trkpt>
      <trkpt lat="45.46676" lon="5.5684">
        <ele>603</ele>
        <time>2025-09-07T10:03:34.687Z</time>
      </trkpt>
      <trkpt lat="45.46671" lon="5.56836">
        <ele>603</ele>
        <time>2025-09-07T10:03:38.838Z</time>
      </trkpt>
      <trkpt lat="45.46668" lon="5.56831">
        <ele>603</ele>
        <time>2025-09-07T10:03:42.958Z</time>
      </trkpt>
      <trkpt lat="45.46663" lon="5.56828">
        <ele>603</ele>
        <time>2025-09-07T10:03:47.045Z</time>
      </trkpt>
      <trkpt lat="45.46659" lon="5.56826">
        <ele>603</ele>
        <time>2025-09-07T10:03:51.076Z</time>
      </trkpt>
      <trkpt lat="45.46654" lon="5.56824">
        <ele>603</ele>
        <time>2025-09-07T10:03:55.102Z</time>
      </trkpt>
      <trkpt lat="45.46648" lon="5.56818">
        <ele>603</ele>
        <time>2025-09-07T10:03:59.648Z</time>
      </trkpt>
      <trkpt lat="45.46643" lon="5.56814">
        <ele>603</ele>
        <time>2025-09-07T10:04:04.025Z</time>
      </trkpt>
      <trkpt lat="45.46637" lon="5.56817">
        <ele>603</ele>
        <time>2025-09-07T10:04:08.490Z</time>
      </trkpt>
      <trkpt lat="45.46631" lon="5.56815">
        <ele>603</ele>
        <time>2025-09-07T10:04:12.609Z</time>
      </trkpt>
      <trkpt lat="45.46627" lon="5.56809">
        <ele>603</ele>
        <time>2025-09-07T10:04:17.079Z</time>
      </trkpt>
      <trkpt lat="45.4662" lon="5.5681">
        <ele>607</ele>
        <time>2025-09-07T10:04:21.471Z</time>
      </trkpt>
      <trkpt lat="45.46615" lon="5.56809">
        <ele>607</ele>
        <time>2025-09-07T10:04:25.508Z</time>
      </trkpt>
      <trkpt lat="45.46609" lon="5.56808">
        <ele>607</ele>
        <time>2025-09-07T10:04:30.030Z</time>
      </trkpt>
      <trkpt lat="45.46605" lon="5.568">
        <ele>607</ele>
        <time>2025-09-07T10:04:35.091Z</time>
      </trkpt>
      <trkpt lat="45.46599" lon="5.56801">
        <ele>607</ele>
        <time>2025-09-07T10:04:39.554Z</time>
      </trkpt>
      <trkpt lat="45.46592" lon="5.56801">
        <ele>618</ele>
        <time>2025-09-07T10:04:44.010Z</time>
      </trkpt>
      <trkpt lat="45.46587" lon="5.56799">
        <ele>618</ele>
        <time>2025-09-07T10:04:48.855Z</time>
      </trkpt>
      <trkpt lat="45.46584" lon="5.56797">
        <ele>618</ele>
        <time>2025-09-07T10:04:53.056Z</time>
      </trkpt>
      <trkpt lat="45.46581" lon="5.56792">
        <ele>618</ele>
        <time>2025-09-07T10:04:57.990Z</time>
      </trkpt>
      <trkpt lat="45.46577" lon="5.5679">
        <ele>617</ele>
        <time>2025-09-07T10:05:02.102Z</time>
      </trkpt>
      <trkpt lat="45.46573" lon="5.56786">
        <ele>617</ele>
        <time>2025-09-07T10:05:07.036Z</time>
      </trkpt>
      <trkpt lat="45.4657" lon="5.56783">
        <ele>617</ele>
        <time>2025-09-07T10:05:11.045Z</time>
      </trkpt>
      <trkpt lat="45.46565" lon="5.56776">
        <ele>621</ele>
        <time>2025-09-07T10:05:16.083Z</time>
      </trkpt>
      <trkpt lat="45.4656" lon="5.56769">
        <ele>621</ele>
        <time>2025-09-07T10:05:21.017Z</time>
      </trkpt>
      <trkpt lat="45.46555" lon="5.56764">
        <ele>621</ele>
        <time>2025-09-07T10:05:26.054Z</time>
      </trkpt>
      <trkpt lat="45.4655" lon="5.56761">
        <ele>619</ele>
        <time>2025-09-07T10:05:30.981Z</time>
      </trkpt>
      <trkpt lat="45.46546" lon="5.56759">
        <ele>619</ele>
        <time>2025-09-07T10:05:34.997Z</time>
      </trkpt>
      <trkpt lat="45.46542" lon="5.56754">
        <ele>619</ele>
        <time>2025-09-07T10:05:39.006Z</time>
      </trkpt>
      <trkpt lat="45.46536" lon="5.56749">
        <ele>619</ele>
        <time>2025-09-07T10:05:44.043Z</time>
      </trkpt>
      <trkpt lat="45.46532" lon="5.56745">
        <ele>619</ele>
        <time>2025-09-07T10:05:48.750Z</time>
      </trkpt>
      <trkpt lat="45.46524" lon="5.56747">
        <ele>619</ele>
        <time>2025-09-07T10:05:52.987Z</time>
      </trkpt>
      <trkpt lat="45.46515" lon="5.56741">
        <ele>619</ele>
        <time>2025-09-07T10:08:05.981Z</time>
      </trkpt>
      <trkpt lat="45.46512" lon="5.56745">
        <ele>620</ele>
        <time>2025-09-07T10:08:09.981Z</time>
      </trkpt>
      <trkpt lat="45.46508" lon="5.56748">
        <ele>620</ele>
        <time>2025-09-07T10:08:14.981Z</time>
      </trkpt>
      <trkpt lat="45.46503" lon="5.56749">
        <ele>620</ele>
        <time>2025-09-07T10:08:18.981Z</time>
      </trkpt>
      <trkpt lat="45.46499" lon="5.56752">
        <ele>620</ele>
        <time>2025-09-07T10:08:22.981Z</time>
      </trkpt>
      <trkpt lat="45.46493" lon="5.56756">
        <ele>620</ele>
        <time>2025-09-07T10:08:27.981Z</time>
      </trkpt>
      <trkpt lat="45.46489" lon="5.56756">
        <ele>620</ele>
        <time>2025-09-07T10:08:31.981Z</time>
      </trkpt>
      <trkpt lat="45.46484" lon="5.56755">
        <ele>623</ele>
        <time>2025-09-07T10:08:35.981Z</time>
      </trkpt>
      <trkpt lat="45.46479" lon="5.56758">
        <ele>623</ele>
        <time>2025-09-07T10:08:40.981Z</time>
      </trkpt>
      <trkpt lat="45.46475" lon="5.56762">
        <ele>623</ele>
        <time>2025-09-07T10:08:45.981Z</time>
      </trkpt>
      <trkpt lat="45.4647" lon="5.56768">
        <ele>624</ele>
        <time>2025-09-07T10:08:50.981Z</time>
      </trkpt>
      <trkpt lat="45.46463" lon="5.56772">
        <ele>624</ele>
        <time>2025-09-07T10:08:55.981Z</time>
      </trkpt>
      <trkpt lat="45.46459" lon="5.56776">
        <ele>624</ele>
        <time>2025-09-07T10:08:59.981Z</time>
      </trkpt>
      <trkpt lat="45.46453" lon="5.56783">
        <ele>628</ele>
        <time>2025-09-07T10:09:04.981Z</time>
      </trkpt>
      <trkpt lat="45.46448" lon="5.56785">
        <ele>628</ele>
        <time>2025-09-07T10:09:09.981Z</time>
      </trkpt>
      <trkpt lat="45.46442" lon="5.56788">
        <ele>628</ele>
        <time>2025-09-07T10:09:13.981Z</time>
      </trkpt>
      <trkpt lat="45.46437" lon="5.56792">
        <ele>631</ele>
        <time>2025-09-07T10:09:18.981Z</time>
      </trkpt>
      <trkpt lat="45.46433" lon="5.56796">
        <ele>631</ele>
        <time>2025-09-07T10:09:23.981Z</time>
      </trkpt>
      <trkpt lat="45.46427" lon="5.56798">
        <ele>636</ele>
        <time>2025-09-07T10:09:28.981Z</time>
      </trkpt>
      <trkpt lat="45.46422" lon="5.56802">
        <ele>636</ele>
        <time>2025-09-07T10:09:33.981Z</time>
      </trkpt>
      <trkpt lat="45.46414" lon="5.56805">
        <ele>636</ele>
        <time>2025-09-07T10:09:38.981Z</time>
      </trkpt>
      <trkpt lat="45.46409" lon="5.56807">
        <ele>636</ele>
        <time>2025-09-07T10:09:43.981Z</time>
      </trkpt>
      <trkpt lat="45.46404" lon="5.56808">
        <ele>636</ele>
        <time>2025-09-07T10:09:48.981Z</time>
      </trkpt>
      <trkpt lat="45.464" lon="5.56808">
        <ele>640</ele>
        <time>2025-09-07T10:09:52.981Z</time>
      </trkpt>
      <trkpt lat="45.46395" lon="5.56808">
        <ele>640</ele>
        <time>2025-09-07T10:09:57.981Z</time>
      </trkpt>
      <trkpt lat="45.4639" lon="5.56804">
        <ele>640</ele>
        <time>2025-09-07T10:10:02.981Z</time>
      </trkpt>
      <trkpt lat="45.46385" lon="5.56798">
        <ele>640</ele>
        <time>2025-09-07T10:10:07.981Z</time>
      </trkpt>
      <trkpt lat="45.46381" lon="5.56793">
        <ele>640</ele>
        <time>2025-09-07T10:10:12.981Z</time>
      </trkpt>
      <trkpt lat="45.46377" lon="5.56789">
        <ele>637</ele>
        <time>2025-09-07T10:10:17.981Z</time>
      </trkpt>
      <trkpt lat="45.46372" lon="5.56784">
        <ele>641</ele>
        <time>2025-09-07T10:10:22.981Z</time>
      </trkpt>
      <trkpt lat="45.46367" lon="5.5678">
        <ele>641</ele>
        <time>2025-09-07T10:10:27.981Z</time>
      </trkpt>
      <trkpt lat="45.46365" lon="5.56775">
        <ele>641</ele>
        <time>2025-09-07T10:10:31.981Z</time>
      </trkpt>
      <trkpt lat="45.46361" lon="5.56771">
        <ele>641</ele>
        <time>2025-09-07T10:10:36.981Z</time>
      </trkpt>
      <trkpt lat="45.46357" lon="5.56767">
        <ele>641</ele>
        <time>2025-09-07T10:10:40.981Z</time>
      </trkpt>
      <trkpt lat="45.46354" lon="5.5676">
        <ele>639</ele>
        <time>2025-09-07T10:10:45.981Z</time>
      </trkpt>
      <trkpt lat="45.46348" lon="5.56754">
        <ele>639</ele>
        <time>2025-09-07T10:10:50.981Z</time>
      </trkpt>
      <trkpt lat="45.46343" lon="5.56747">
        <ele>643</ele>
        <time>2025-09-07T10:10:55.981Z</time>
      </trkpt>
      <trkpt lat="45.46337" lon="5.5674">
        <ele>643</ele>
        <time>2025-09-07T10:11:00.981Z</time>
      </trkpt>
      <trkpt lat="45.46328" lon="5.56731">
        <ele>640</ele>
        <time>2025-09-07T10:11:05.483Z</time>
      </trkpt>
      <trkpt lat="45.46317" lon="5.56719">
        <ele>642</ele>
        <time>2025-09-07T10:11:09.929Z</time>
      </trkpt>
      <trkpt lat="45.46295" lon="5.56696">
        <ele>640</ele>
        <time>2025-09-07T10:11:14.070Z</time>
      </trkpt>
      <trkpt lat="45.46282" lon="5.56686">
        <ele>642</ele>
        <time>2025-09-07T10:11:18.400Z</time>
      </trkpt>
      <trkpt lat="45.46279" lon="5.56686">
        <ele>642</ele>
        <time>2025-09-07T10:11:22.714Z</time>
      </trkpt>
      <trkpt lat="45.46274" lon="5.56681">
        <ele>642</ele>
        <time>2025-09-07T10:11:27.092Z</time>
      </trkpt>
      <trkpt lat="45.46268" lon="5.56678">
        <ele>638</ele>
        <time>2025-09-07T10:11:31.319Z</time>
      </trkpt>
      <trkpt lat="45.46252" lon="5.56671">
        <ele>643</ele>
        <time>2025-09-07T10:11:35.909Z</time>
      </trkpt>
      <trkpt lat="45.46237" lon="5.56659">
        <ele>643</ele>
        <time>2025-09-07T10:11:40.394Z</time>
      </trkpt>
      <trkpt lat="45.46229" lon="5.56649">
        <ele>646</ele>
        <time>2025-09-07T10:11:44.965Z</time>
      </trkpt>
      <trkpt lat="45.46224" lon="5.56646">
        <ele>646</ele>
        <time>2025-09-07T10:11:49.067Z</time>
      </trkpt>
      <trkpt lat="45.4622" lon="5.56644">
        <ele>646</ele>
        <time>2025-09-07T10:11:53.559Z</time>
      </trkpt>
      <trkpt lat="45.46215" lon="5.56642">
        <ele>646</ele>
        <time>2025-09-07T10:11:57.646Z</time>
      </trkpt>
      <trkpt lat="45.46211" lon="5.5664">
        <ele>646</ele>
        <time>2025-09-07T10:12:01.677Z</time>
      </trkpt>
      <trkpt lat="45.46206" lon="5.56638">
        <ele>650</ele>
        <time>2025-09-07T10:12:05.740Z</time>
      </trkpt>
      <trkpt lat="45.46202" lon="5.56636">
        <ele>650</ele>
        <time>2025-09-07T10:12:10.032Z</time>
      </trkpt>
      <trkpt lat="45.46199" lon="5.56634">
        <ele>650</ele>
        <time>2025-09-07T10:12:14.411Z</time>
      </trkpt>
      <trkpt lat="45.46195" lon="5.56634">
        <ele>650</ele>
        <time>2025-09-07T10:12:18.636Z</time>
      </trkpt>
      <trkpt lat="45.46191" lon="5.56631">
        <ele>650</ele>
        <time>2025-09-07T10:12:22.858Z</time>
      </trkpt>
      <trkpt lat="45.46187" lon="5.56628">
        <ele>650</ele>
        <time>2025-09-07T10:12:26.897Z</time>
      </trkpt>
      <trkpt lat="45.46183" lon="5.56627">
        <ele>650</ele>
        <time>2025-09-07T10:12:31.269Z</time>
      </trkpt>
      <trkpt lat="45.4618" lon="5.56624">
        <ele>655</ele>
        <time>2025-09-07T10:12:35.716Z</time>
      </trkpt>
      <trkpt lat="45.46174" lon="5.56621">
        <ele>655</ele>
        <time>2025-09-07T10:12:40.299Z</time>
      </trkpt>
      <trkpt lat="45.46168" lon="5.56617">
        <ele>655</ele>
        <time>2025-09-07T10:12:44.980Z</time>
      </trkpt>
      <trkpt lat="45.46163" lon="5.56611">
        <ele>655</ele>
        <time>2025-09-07T10:12:49.980Z</time>
      </trkpt>
      <trkpt lat="45.46157" lon="5.56608">
        <ele>655</ele>
        <time>2025-09-07T10:12:54.980Z</time>
      </trkpt>
      <trkpt lat="45.46152" lon="5.56604">
        <ele>661</ele>
        <time>2025-09-07T10:12:59.980Z</time>
      </trkpt>
      <trkpt lat="45.46147" lon="5.56599">
        <ele>661</ele>
        <time>2025-09-07T10:13:03.980Z</time>
      </trkpt>
      <trkpt lat="45.46142" lon="5.56597">
        <ele>661</ele>
        <time>2025-09-07T10:13:08.980Z</time>
      </trkpt>
      <trkpt lat="45.46138" lon="5.56595">
        <ele>659</ele>
        <time>2025-09-07T10:13:13.980Z</time>
      </trkpt>
      <trkpt lat="45.46135" lon="5.56589">
        <ele>659</ele>
        <time>2025-09-07T10:13:17.980Z</time>
      </trkpt>
      <trkpt lat="45.46128" lon="5.56586">
        <ele>659</ele>
        <time>2025-09-07T10:13:22.980Z</time>
      </trkpt>
      <trkpt lat="45.46121" lon="5.56582">
        <ele>663</ele>
        <time>2025-09-07T10:13:27.980Z</time>
      </trkpt>
      <trkpt lat="45.46115" lon="5.56578">
        <ele>663</ele>
        <time>2025-09-07T10:13:32.980Z</time>
      </trkpt>
      <trkpt lat="45.4611" lon="5.56575">
        <ele>663</ele>
        <time>2025-09-07T10:13:37.980Z</time>
      </trkpt>
      <trkpt lat="45.46108" lon="5.56569">
        <ele>660</ele>
        <time>2025-09-07T10:13:41.980Z</time>
      </trkpt>
      <trkpt lat="45.46102" lon="5.56564">
        <ele>660</ele>
        <time>2025-09-07T10:13:45.980Z</time>
      </trkpt>
      <trkpt lat="45.46095" lon="5.56558">
        <ele>663</ele>
        <time>2025-09-07T10:13:50.980Z</time>
      </trkpt>
      <trkpt lat="45.46089" lon="5.56555">
        <ele>663</ele>
        <time>2025-09-07T10:13:55.980Z</time>
      </trkpt>
      <trkpt lat="45.46084" lon="5.56548">
        <ele>663</ele>
        <time>2025-09-07T10:14:00.980Z</time>
      </trkpt>
      <trkpt lat="45.4608" lon="5.56537">
        <ele>661</ele>
        <time>2025-09-07T10:14:05.980Z</time>
      </trkpt>
      <trkpt lat="45.46076" lon="5.56533">
        <ele>661</ele>
        <time>2025-09-07T10:14:09.980Z</time>
      </trkpt>
      <trkpt lat="45.4607" lon="5.56525">
        <ele>661</ele>
        <time>2025-09-07T10:14:14.980Z</time>
      </trkpt>
      <trkpt lat="45.46063" lon="5.56522">
        <ele>664</ele>
        <time>2025-09-07T10:14:19.980Z</time>
      </trkpt>
      <trkpt lat="45.46058" lon="5.56523">
        <ele>664</ele>
        <time>2025-09-07T10:14:23.980Z</time>
      </trkpt>
      <trkpt lat="45.46053" lon="5.56521">
        <ele>664</ele>
        <time>2025-09-07T10:14:27.980Z</time>
      </trkpt>
      <trkpt lat="45.46047" lon="5.56516">
        <ele>664</ele>
        <time>2025-09-07T10:14:32.980Z</time>
      </trkpt>
      <trkpt lat="45.4604" lon="5.56515">
        <ele>667</ele>
        <time>2025-09-07T10:14:37.980Z</time>
      </trkpt>
      <trkpt lat="45.46033" lon="5.56514">
        <ele>667</ele>
        <time>2025-09-07T10:14:42.980Z</time>
      </trkpt>
      <trkpt lat="45.46029" lon="5.56512">
        <ele>666</ele>
        <time>2025-09-07T10:14:46.980Z</time>
      </trkpt>
      <trkpt lat="45.46021" lon="5.56509">
        <ele>666</ele>
        <time>2025-09-07T10:14:51.980Z</time>
      </trkpt>
      <trkpt lat="45.46014" lon="5.56508">
        <ele>668</ele>
        <time>2025-09-07T10:14:55.980Z</time>
      </trkpt>
      <trkpt lat="45.46006" lon="5.56513">
        <ele>668</ele>
        <time>2025-09-07T10:15:00.980Z</time>
      </trkpt>
      <trkpt lat="45.46001" lon="5.56517">
        <ele>669</ele>
        <time>2025-09-07T10:15:04.980Z</time>
      </trkpt>
      <trkpt lat="45.45996" lon="5.5652">
        <ele>669</ele>
        <time>2025-09-07T10:15:09.980Z</time>
      </trkpt>
      <trkpt lat="45.45989" lon="5.56519">
        <ele>669</ele>
        <time>2025-09-07T10:15:14.980Z</time>
      </trkpt>
      <trkpt lat="45.45986" lon="5.56517">
        <ele>668</ele>
        <time>2025-09-07T10:15:19.467Z</time>
      </trkpt>
      <trkpt lat="45.45979" lon="5.56519">
        <ele>668</ele>
        <time>2025-09-07T10:15:23.980Z</time>
      </trkpt>
      <trkpt lat="45.45974" lon="5.56521">
        <ele>668</ele>
        <time>2025-09-07T10:15:27.980Z</time>
      </trkpt>
      <trkpt lat="45.45969" lon="5.56527">
        <ele>668</ele>
        <time>2025-09-07T10:15:32.980Z</time>
      </trkpt>
      <trkpt lat="45.45961" lon="5.56532">
        <ele>668</ele>
        <time>2025-09-07T10:15:37.980Z</time>
      </trkpt>
      <trkpt lat="45.45955" lon="5.56536">
        <ele>664</ele>
        <time>2025-09-07T10:15:42.980Z</time>
      </trkpt>
      <trkpt lat="45.45948" lon="5.56543">
        <ele>664</ele>
        <time>2025-09-07T10:15:47.980Z</time>
      </trkpt>
      <trkpt lat="45.45943" lon="5.56546">
        <ele>664</ele>
        <time>2025-09-07T10:15:52.980Z</time>
      </trkpt>
      <trkpt lat="45.45937" lon="5.56549">
        <ele>664</ele>
        <time>2025-09-07T10:15:57.980Z</time>
      </trkpt>
      <trkpt lat="45.45932" lon="5.56555">
        <ele>664</ele>
        <time>2025-09-07T10:16:02.980Z</time>
      </trkpt>
      <trkpt lat="45.45928" lon="5.56563">
        <ele>661</ele>
        <time>2025-09-07T10:16:06.980Z</time>
      </trkpt>
      <trkpt lat="45.45923" lon="5.5657">
        <ele>661</ele>
        <time>2025-09-07T10:16:11.980Z</time>
      </trkpt>
      <trkpt lat="45.4592" lon="5.56576">
        <ele>661</ele>
        <time>2025-09-07T10:16:16.980Z</time>
      </trkpt>
      <trkpt lat="45.45916" lon="5.56583">
        <ele>661</ele>
        <time>2025-09-07T10:16:21.980Z</time>
      </trkpt>
      <trkpt lat="45.45912" lon="5.5659">
        <ele>661</ele>
        <time>2025-09-07T10:16:26.980Z</time>
      </trkpt>
      <trkpt lat="45.45907" lon="5.56599">
        <ele>660</ele>
        <time>2025-09-07T10:16:32.980Z</time>
      </trkpt>
      <trkpt lat="45.45904" lon="5.56602">
        <ele>660</ele>
        <time>2025-09-07T10:16:36.980Z</time>
      </trkpt>
      <trkpt lat="45.45899" lon="5.56608">
        <ele>659</ele>
        <time>2025-09-07T10:16:41.980Z</time>
      </trkpt>
      <trkpt lat="45.45896" lon="5.56614">
        <ele>659</ele>
        <time>2025-09-07T10:16:45.980Z</time>
      </trkpt>
      <trkpt lat="45.45894" lon="5.5662">
        <ele>659</ele>
        <time>2025-09-07T10:16:49.980Z</time>
      </trkpt>
      <trkpt lat="45.45895" lon="5.56631">
        <ele>657</ele>
        <time>2025-09-07T10:16:54.980Z</time>
      </trkpt>
      <trkpt lat="45.45895" lon="5.56639">
        <ele>657</ele>
        <time>2025-09-07T10:16:58.980Z</time>
      </trkpt>
      <trkpt lat="45.45896" lon="5.5665">
        <ele>657</ele>
        <time>2025-09-07T10:17:03.980Z</time>
      </trkpt>
      <trkpt lat="45.45897" lon="5.5666">
        <ele>655</ele>
        <time>2025-09-07T10:17:08.980Z</time>
      </trkpt>
      <trkpt lat="45.45896" lon="5.56669">
        <ele>655</ele>
        <time>2025-09-07T10:17:13.980Z</time>
      </trkpt>
      <trkpt lat="45.45897" lon="5.56676">
        <ele>655</ele>
        <time>2025-09-07T10:17:17.980Z</time>
      </trkpt>
      <trkpt lat="45.45896" lon="5.56684">
        <ele>654</ele>
        <time>2025-09-07T10:17:21.980Z</time>
      </trkpt>
      <trkpt lat="45.45895" lon="5.56694">
        <ele>654</ele>
        <time>2025-09-07T10:17:27.980Z</time>
      </trkpt>
      <trkpt lat="45.45893" lon="5.56705">
        <ele>654</ele>
        <time>2025-09-07T10:17:33.980Z</time>
      </trkpt>
      <trkpt lat="45.45884" lon="5.56711">
        <ele>652</ele>
        <time>2025-09-07T10:17:39.980Z</time>
      </trkpt>
      <trkpt lat="45.45885" lon="5.56723">
        <ele>652</ele>
        <time>2025-09-07T10:17:45.980Z</time>
      </trkpt>
      <trkpt lat="45.45886" lon="5.56733">
        <ele>652</ele>
        <time>2025-09-07T10:17:50.980Z</time>
      </trkpt>
      <trkpt lat="45.45887" lon="5.56745">
        <ele>650</ele>
        <time>2025-09-07T10:17:56.980Z</time>
      </trkpt>
      <trkpt lat="45.45887" lon="5.56756">
        <ele>650</ele>
        <time>2025-09-07T10:18:02.980Z</time>
      </trkpt>
      <trkpt lat="45.45886" lon="5.56762">
        <ele>650</ele>
        <time>2025-09-07T10:18:06.980Z</time>
      </trkpt>
      <trkpt lat="45.45883" lon="5.56765">
        <ele>649</ele>
        <time>2025-09-07T10:18:11.980Z</time>
      </trkpt>
      <trkpt lat="45.4588" lon="5.5677">
        <ele>649</ele>
        <time>2025-09-07T10:18:16.980Z</time>
      </trkpt>
      <trkpt lat="45.45875" lon="5.56775">
        <ele>642</ele>
        <time>2025-09-07T10:18:20.980Z</time>
      </trkpt>
      <trkpt lat="45.45868" lon="5.56779">
        <ele>642</ele>
        <time>2025-09-07T10:18:25.980Z</time>
      </trkpt>
      <trkpt lat="45.45865" lon="5.56788">
        <ele>642</ele>
        <time>2025-09-07T10:18:40.980Z</time>
      </trkpt>
      <trkpt lat="45.45863" lon="5.56795">
        <ele>642</ele>
        <time>2025-09-07T10:19:08.980Z</time>
      </trkpt>
      <trkpt lat="45.45861" lon="5.56799">
        <ele>642</ele>
        <time>2025-09-07T10:19:12.980Z</time>
      </trkpt>
      <trkpt lat="45.45858" lon="5.56807">
        <ele>642</ele>
        <time>2025-09-07T10:19:17.980Z</time>
      </trkpt>
      <trkpt lat="45.45855" lon="5.56812">
        <ele>642</ele>
        <time>2025-09-07T10:19:21.980Z</time>
      </trkpt>
      <trkpt lat="45.45852" lon="5.56817">
        <ele>642</ele>
        <time>2025-09-07T10:19:25.980Z</time>
      </trkpt>
      <trkpt lat="45.45848" lon="5.56824">
        <ele>644</ele>
        <time>2025-09-07T10:19:30.980Z</time>
      </trkpt>
      <trkpt lat="45.45844" lon="5.56829">
        <ele>638</ele>
        <time>2025-09-07T10:19:34.980Z</time>
      </trkpt>
      <trkpt lat="45.4584" lon="5.56835">
        <ele>638</ele>
        <time>2025-09-07T10:19:39.980Z</time>
      </trkpt>
      <trkpt lat="45.45837" lon="5.56841">
        <ele>638</ele>
        <time>2025-09-07T10:19:43.980Z</time>
      </trkpt>
      <trkpt lat="45.45832" lon="5.56848">
        <ele>641</ele>
        <time>2025-09-07T10:19:48.980Z</time>
      </trkpt>
      <trkpt lat="45.45827" lon="5.56853">
        <ele>641</ele>
        <time>2025-09-07T10:19:53.979Z</time>
      </trkpt>
      <trkpt lat="45.45824" lon="5.56859">
        <ele>641</ele>
        <time>2025-09-07T10:19:57.979Z</time>
      </trkpt>
      <trkpt lat="45.45819" lon="5.56865">
        <ele>639</ele>
        <time>2025-09-07T10:20:02.979Z</time>
      </trkpt>
      <trkpt lat="45.45813" lon="5.56872">
        <ele>639</ele>
        <time>2025-09-07T10:20:07.979Z</time>
      </trkpt>
      <trkpt lat="45.4581" lon="5.56881">
        <ele>641</ele>
        <time>2025-09-07T10:20:12.979Z</time>
      </trkpt>
      <trkpt lat="45.45808" lon="5.56889">
        <ele>641</ele>
        <time>2025-09-07T10:20:17.979Z</time>
      </trkpt>
      <trkpt lat="45.45804" lon="5.56899">
        <ele>641</ele>
        <time>2025-09-07T10:20:22.979Z</time>
      </trkpt>
      <trkpt lat="45.45801" lon="5.56906">
        <ele>642</ele>
        <time>2025-09-07T10:20:27.979Z</time>
      </trkpt>
      <trkpt lat="45.45799" lon="5.56913">
        <ele>642</ele>
        <time>2025-09-07T10:20:32.979Z</time>
      </trkpt>
      <trkpt lat="45.45797" lon="5.56919">
        <ele>642</ele>
        <time>2025-09-07T10:20:36.979Z</time>
      </trkpt>
      <trkpt lat="45.45797" lon="5.5693">
        <ele>642</ele>
        <time>2025-09-07T10:20:41.979Z</time>
      </trkpt>
      <trkpt lat="45.45797" lon="5.56935">
        <ele>642</ele>
        <time>2025-09-07T10:20:45.979Z</time>
      </trkpt>
      <trkpt lat="45.45798" lon="5.56943">
        <ele>642</ele>
        <time>2025-09-07T10:20:49.979Z</time>
      </trkpt>
      <trkpt lat="45.45801" lon="5.56957">
        <ele>642</ele>
        <time>2025-09-07T10:20:54.979Z</time>
      </trkpt>
      <trkpt lat="45.45804" lon="5.56968">
        <ele>641</ele>
        <time>2025-09-07T10:20:58.979Z</time>
      </trkpt>
      <trkpt lat="45.45806" lon="5.56978">
        <ele>641</ele>
        <time>2025-09-07T10:21:03.979Z</time>
      </trkpt>
      <trkpt lat="45.45809" lon="5.56987">
        <ele>641</ele>
        <time>2025-09-07T10:21:08.979Z</time>
      </trkpt>
      <trkpt lat="45.45812" lon="5.56996">
        <ele>641</ele>
        <time>2025-09-07T10:21:13.979Z</time>
      </trkpt>
      <trkpt lat="45.45814" lon="5.57003">
        <ele>641</ele>
        <time>2025-09-07T10:21:17.979Z</time>
      </trkpt>
      <trkpt lat="45.45817" lon="5.57012">
        <ele>641</ele>
        <time>2025-09-07T10:21:22.979Z</time>
      </trkpt>
      <trkpt lat="45.45821" lon="5.57019">
        <ele>647</ele>
        <time>2025-09-07T10:21:27.979Z</time>
      </trkpt>
      <trkpt lat="45.45823" lon="5.57026">
        <ele>647</ele>
        <time>2025-09-07T10:21:31.979Z</time>
      </trkpt>
      <trkpt lat="45.45823" lon="5.57033">
        <ele>647</ele>
        <time>2025-09-07T10:21:36.979Z</time>
      </trkpt>
      <trkpt lat="45.45825" lon="5.5704">
        <ele>647</ele>
        <time>2025-09-07T10:21:41.979Z</time>
      </trkpt>
      <trkpt lat="45.45826" lon="5.57047">
        <ele>649</ele>
        <time>2025-09-07T10:21:46.979Z</time>
      </trkpt>
      <trkpt lat="45.45827" lon="5.57057">
        <ele>649</ele>
        <time>2025-09-07T10:21:51.979Z</time>
      </trkpt>
      <trkpt lat="45.45826" lon="5.57064">
        <ele>649</ele>
        <time>2025-09-07T10:21:56.979Z</time>
      </trkpt>
      <trkpt lat="45.45824" lon="5.5707">
        <ele>650</ele>
        <time>2025-09-07T10:22:01.979Z</time>
      </trkpt>
      <trkpt lat="45.45823" lon="5.57075">
        <ele>650</ele>
        <time>2025-09-07T10:22:05.979Z</time>
      </trkpt>
      <trkpt lat="45.45823" lon="5.57081">
        <ele>650</ele>
        <time>2025-09-07T10:22:10.979Z</time>
      </trkpt>
      <trkpt lat="45.45822" lon="5.57087">
        <ele>650</ele>
        <time>2025-09-07T10:22:14.979Z</time>
      </trkpt>
      <trkpt lat="45.4582" lon="5.57093">
        <ele>650</ele>
        <time>2025-09-07T10:22:19.979Z</time>
      </trkpt>
      <trkpt lat="45.45819" lon="5.571">
        <ele>647</ele>
        <time>2025-09-07T10:22:24.979Z</time>
      </trkpt>
      <trkpt lat="45.45819" lon="5.57106">
        <ele>647</ele>
        <time>2025-09-07T10:22:29.979Z</time>
      </trkpt>
      <trkpt lat="45.45818" lon="5.57114">
        <ele>647</ele>
        <time>2025-09-07T10:22:34.979Z</time>
      </trkpt>
      <trkpt lat="45.45816" lon="5.57119">
        <ele>647</ele>
        <time>2025-09-07T10:22:39.979Z</time>
      </trkpt>
      <trkpt lat="45.45817" lon="5.5712">
        <ele>647</ele>
        <time>2025-09-07T10:22:44.979Z</time>
      </trkpt>
      <trkpt lat="45.4582" lon="5.57125">
        <ele>652</ele>
        <time>2025-09-07T10:22:49.979Z</time>
      </trkpt>
      <trkpt lat="45.45823" lon="5.5713">
        <ele>653</ele>
        <time>2025-09-07T10:22:54.979Z</time>
      </trkpt>
      <trkpt lat="45.45818" lon="5.57137">
        <ele>649</ele>
        <time>2025-09-07T10:23:24.979Z</time>
      </trkpt>
      <trkpt lat="45.45818" lon="5.57139">
        <ele>649</ele>
        <time>2025-09-07T10:23:29.979Z</time>
      </trkpt>
      <trkpt lat="45.45821" lon="5.57145">
        <ele>653</ele>
        <time>2025-09-07T10:23:53.979Z</time>
      </trkpt>
      <trkpt lat="45.45822" lon="5.57147">
        <ele>653</ele>
        <time>2025-09-07T10:23:58.979Z</time>
      </trkpt>
      <trkpt lat="45.45819" lon="5.57147">
        <ele>649</ele>
        <time>2025-09-07T10:24:03.979Z</time>
      </trkpt>
      <trkpt lat="45.45818" lon="5.57143">
        <ele>649</ele>
        <time>2025-09-07T10:24:08.979Z</time>
      </trkpt>
      <trkpt lat="45.45812" lon="5.57142">
        <ele>649</ele>
        <time>2025-09-07T10:24:13.979Z</time>
      </trkpt>
      <trkpt lat="45.45811" lon="5.57142">
        <ele>649</ele>
        <time>2025-09-07T10:24:20.979Z</time>
      </trkpt>
      <trkpt lat="45.45811" lon="5.57147">
        <ele>649</ele>
        <time>2025-09-07T10:24:24.979Z</time>
      </trkpt>
      <trkpt lat="45.45808" lon="5.57149">
        <ele>649</ele>
        <time>2025-09-07T10:24:29.979Z</time>
      </trkpt>
      <trkpt lat="45.45818" lon="5.57152">
        <ele>649</ele>
        <time>2025-09-07T10:25:46.979Z</time>
      </trkpt>
      <trkpt lat="45.45816" lon="5.57156">
        <ele>649</ele>
        <time>2025-09-07T10:25:50.979Z</time>
      </trkpt>
      <trkpt lat="45.45814" lon="5.5716">
        <ele>649</ele>
        <time>2025-09-07T10:25:55.893Z</time>
      </trkpt>
      <trkpt lat="45.45814" lon="5.57164">
        <ele>649</ele>
        <time>2025-09-07T10:26:00.086Z</time>
      </trkpt>
      <trkpt lat="45.45814" lon="5.57168">
        <ele>649</ele>
        <time>2025-09-07T10:26:04.095Z</time>
      </trkpt>
      <trkpt lat="45.45814" lon="5.57175">
        <ele>649</ele>
        <time>2025-09-07T10:26:14.064Z</time>
      </trkpt>
      <trkpt lat="45.45813" lon="5.57179">
        <ele>649</ele>
        <time>2025-09-07T10:26:18.997Z</time>
      </trkpt>
      <trkpt lat="45.45813" lon="5.57183">
        <ele>648</ele>
        <time>2025-09-07T10:26:24.033Z</time>
      </trkpt>
      <trkpt lat="45.45814" lon="5.57185">
        <ele>648</ele>
        <time>2025-09-07T10:26:28.041Z</time>
      </trkpt>
      <trkpt lat="45.45817" lon="5.57186">
        <ele>648</ele>
        <time>2025-09-07T10:26:31.979Z</time>
      </trkpt>
      <trkpt lat="45.45818" lon="5.57186">
        <ele>648</ele>
        <time>2025-09-07T10:26:36.979Z</time>
      </trkpt>
      <trkpt lat="45.45817" lon="5.57192">
        <ele>648</ele>
        <time>2025-09-07T10:27:39.979Z</time>
      </trkpt>
      <trkpt lat="45.45816" lon="5.57198">
        <ele>648</ele>
        <time>2025-09-07T10:27:43.979Z</time>
      </trkpt>
      <trkpt lat="45.45816" lon="5.57199">
        <ele>648</ele>
        <time>2025-09-07T10:27:48.979Z</time>
      </trkpt>
      <trkpt lat="45.45817" lon="5.57191">
        <ele>648</ele>
        <time>2025-09-07T10:28:28.999Z</time>
      </trkpt>
      <trkpt lat="45.45817" lon="5.5719">
        <ele>648</ele>
        <time>2025-09-07T10:28:37.016Z</time>
      </trkpt>
      <trkpt lat="45.45817" lon="5.5719">
        <ele>648</ele>
        <time>2025-09-07T10:28:50.068Z</time>
      </trkpt>
      <trkpt lat="45.4582" lon="5.57184">
        <ele>650</ele>
        <time>2025-09-07T10:28:55.104Z</time>
      </trkpt>
      <trkpt lat="45.4582" lon="5.57182">
        <ele>650</ele>
        <time>2025-09-07T10:29:00.037Z</time>
      </trkpt>
      <trkpt lat="45.45824" lon="5.57179">
        <ele>652</ele>
        <time>2025-09-07T10:51:37.192Z</time>
      </trkpt>
      <trkpt lat="45.45824" lon="5.57178">
        <ele>652</ele>
        <time>2025-09-07T10:51:44.356Z</time>
      </trkpt>
      <trkpt lat="45.45826" lon="5.57171">
        <ele>652</ele>
        <time>2025-09-07T10:51:48.560Z</time>
      </trkpt>
      <trkpt lat="45.45827" lon="5.57165">
        <ele>652</ele>
        <time>2025-09-07T10:51:53.082Z</time>
      </trkpt>
      <trkpt lat="45.45828" lon="5.57159">
        <ele>652</ele>
        <time>2025-09-07T10:51:58.015Z</time>
      </trkpt>
      <trkpt lat="45.45829" lon="5.57155">
        <ele>652</ele>
        <time>2025-09-07T10:52:02.632Z</time>
      </trkpt>
      <trkpt lat="45.45828" lon="5.57152">
        <ele>653</ele>
        <time>2025-09-07T10:52:06.883Z</time>
      </trkpt>
      <trkpt lat="45.45825" lon="5.57148">
        <ele>653</ele>
        <time>2025-09-07T10:52:11.464Z</time>
      </trkpt>
      <trkpt lat="45.45822" lon="5.57146">
        <ele>653</ele>
        <time>2025-09-07T10:52:16.001Z</time>
      </trkpt>
      <trkpt lat="45.45817" lon="5.57137">
        <ele>649</ele>
        <time>2025-09-07T10:54:58.789Z</time>
      </trkpt>
      <trkpt lat="45.45816" lon="5.57137">
        <ele>649</ele>
        <time>2025-09-07T10:55:04.033Z</time>
      </trkpt>
      <trkpt lat="45.45816" lon="5.57137">
        <ele>649</ele>
        <time>2025-09-07T10:55:09.069Z</time>
      </trkpt>
      <trkpt lat="45.45814" lon="5.57139">
        <ele>649</ele>
        <time>2025-09-07T10:55:14.104Z</time>
      </trkpt>
      <trkpt lat="45.45812" lon="5.57139">
        <ele>649</ele>
        <time>2025-09-07T10:55:19.037Z</time>
      </trkpt>
      <trkpt lat="45.45813" lon="5.57138">
        <ele>649</ele>
        <time>2025-09-07T11:10:32.975Z</time>
      </trkpt>
      <trkpt lat="45.45819" lon="5.57137">
        <ele>649</ele>
        <time>2025-09-07T11:11:04.975Z</time>
      </trkpt>
      <trkpt lat="45.45816" lon="5.57148">
        <ele>649</ele>
        <time>2025-09-07T11:14:49.974Z</time>
      </trkpt>
      <trkpt lat="45.45817" lon="5.57148">
        <ele>649</ele>
        <time>2025-09-07T11:14:54.974Z</time>
      </trkpt>
      <trkpt lat="45.45818" lon="5.5715">
        <ele>649</ele>
        <time>2025-09-07T11:14:58.974Z</time>
      </trkpt>
      <trkpt lat="45.45817" lon="5.57153">
        <ele>649</ele>
        <time>2025-09-07T11:15:02.974Z</time>
      </trkpt>
      <trkpt lat="45.45816" lon="5.57162">
        <ele>649</ele>
        <time>2025-09-07T11:15:07.974Z</time>
      </trkpt>
      <trkpt lat="45.45817" lon="5.5717">
        <ele>649</ele>
        <time>2025-09-07T11:15:11.974Z</time>
      </trkpt>
      <trkpt lat="45.4582" lon="5.57176">
        <ele>652</ele>
        <time>2025-09-07T11:15:16.974Z</time>
      </trkpt>
      <trkpt lat="45.45822" lon="5.57179">
        <ele>652</ele>
        <time>2025-09-07T11:15:20.974Z</time>
      </trkpt>
      <trkpt lat="45.45826" lon="5.57188">
        <ele>650</ele>
        <time>2025-09-07T11:15:25.974Z</time>
      </trkpt>
      <trkpt lat="45.4583" lon="5.57193">
        <ele>650</ele>
        <time>2025-09-07T11:15:30.974Z</time>
      </trkpt>
      <trkpt lat="45.45834" lon="5.57198">
        <ele>650</ele>
        <time>2025-09-07T11:15:35.974Z</time>
      </trkpt>
      <trkpt lat="45.45838" lon="5.57199">
        <ele>650</ele>
        <time>2025-09-07T11:15:39.974Z</time>
      </trkpt>
      <trkpt lat="45.45843" lon="5.572">
        <ele>650</ele>
        <time>2025-09-07T11:15:44.974Z</time>
      </trkpt>
      <trkpt lat="45.45847" lon="5.57199">
        <ele>650</ele>
        <time>2025-09-07T11:15:48.974Z</time>
      </trkpt>
      <trkpt lat="45.45851" lon="5.57197">
        <ele>653</ele>
        <time>2025-09-07T11:15:53.974Z</time>
      </trkpt>
      <trkpt lat="45.45858" lon="5.57199">
        <ele>653</ele>
        <time>2025-09-07T11:15:58.974Z</time>
      </trkpt>
      <trkpt lat="45.45861" lon="5.57198">
        <ele>653</ele>
        <time>2025-09-07T11:16:02.974Z</time>
      </trkpt>
      <trkpt lat="45.45868" lon="5.57199">
        <ele>653</ele>
        <time>2025-09-07T11:16:07.974Z</time>
      </trkpt>
      <trkpt lat="45.45875" lon="5.57201">
        <ele>655</ele>
        <time>2025-09-07T11:16:12.974Z</time>
      </trkpt>
      <trkpt lat="45.45882" lon="5.57203">
        <ele>655</ele>
        <time>2025-09-07T11:16:17.974Z</time>
      </trkpt>
      <trkpt lat="45.45886" lon="5.57205">
        <ele>655</ele>
        <time>2025-09-07T11:16:22.974Z</time>
      </trkpt>
      <trkpt lat="45.45886" lon="5.57209">
        <ele>656</ele>
        <time>2025-09-07T11:16:27.974Z</time>
      </trkpt>
      <trkpt lat="45.45885" lon="5.57213">
        <ele>656</ele>
        <time>2025-09-07T11:16:31.974Z</time>
      </trkpt>
      <trkpt lat="45.45886" lon="5.57219">
        <ele>656</ele>
        <time>2025-09-07T11:16:36.974Z</time>
      </trkpt>
      <trkpt lat="45.45887" lon="5.57227">
        <ele>656</ele>
        <time>2025-09-07T11:16:41.974Z</time>
      </trkpt>
      <trkpt lat="45.45886" lon="5.57234">
        <ele>656</ele>
        <time>2025-09-07T11:16:46.974Z</time>
      </trkpt>
      <trkpt lat="45.45885" lon="5.57242">
        <ele>659</ele>
        <time>2025-09-07T11:16:50.974Z</time>
      </trkpt>
      <trkpt lat="45.45883" lon="5.57251">
        <ele>659</ele>
        <time>2025-09-07T11:16:55.974Z</time>
      </trkpt>
      <trkpt lat="45.4588" lon="5.5726">
        <ele>659</ele>
        <time>2025-09-07T11:17:00.974Z</time>
      </trkpt>
      <trkpt lat="45.45879" lon="5.57268">
        <ele>661</ele>
        <time>2025-09-07T11:17:04.974Z</time>
      </trkpt>
      <trkpt lat="45.45875" lon="5.57275">
        <ele>657</ele>
        <time>2025-09-07T11:17:09.974Z</time>
      </trkpt>
      <trkpt lat="45.4587" lon="5.57281">
        <ele>657</ele>
        <time>2025-09-07T11:17:14.974Z</time>
      </trkpt>
      <trkpt lat="45.45867" lon="5.57287">
        <ele>657</ele>
        <time>2025-09-07T11:17:18.974Z</time>
      </trkpt>
      <trkpt lat="45.45861" lon="5.57291">
        <ele>657</ele>
        <time>2025-09-07T11:17:23.974Z</time>
      </trkpt>
      <trkpt lat="45.45855" lon="5.57298">
        <ele>658</ele>
        <time>2025-09-07T11:17:28.974Z</time>
      </trkpt>
      <trkpt lat="45.4585" lon="5.57306">
        <ele>658</ele>
        <time>2025-09-07T11:17:33.974Z</time>
      </trkpt>
      <trkpt lat="45.45845" lon="5.57311">
        <ele>654</ele>
        <time>2025-09-07T11:17:38.974Z</time>
      </trkpt>
      <trkpt lat="45.4584" lon="5.57318">
        <ele>654</ele>
        <time>2025-09-07T11:17:43.974Z</time>
      </trkpt>
      <trkpt lat="45.45835" lon="5.57325">
        <ele>654</ele>
        <time>2025-09-07T11:17:48.974Z</time>
      </trkpt>
      <trkpt lat="45.4583" lon="5.57332">
        <ele>654</ele>
        <time>2025-09-07T11:17:53.974Z</time>
      </trkpt>
      <trkpt lat="45.45826" lon="5.57337">
        <ele>654</ele>
        <time>2025-09-07T11:17:58.974Z</time>
      </trkpt>
      <trkpt lat="45.45821" lon="5.57341">
        <ele>654</ele>
        <time>2025-09-07T11:18:02.974Z</time>
      </trkpt>
      <trkpt lat="45.45815" lon="5.57349">
        <ele>650</ele>
        <time>2025-09-07T11:18:07.974Z</time>
      </trkpt>
      <trkpt lat="45.45811" lon="5.57355">
        <ele>650</ele>
        <time>2025-09-07T11:18:11.974Z</time>
      </trkpt>
      <trkpt lat="45.45807" lon="5.57363">
        <ele>650</ele>
        <time>2025-09-07T11:18:16.974Z</time>
      </trkpt>
      <trkpt lat="45.45803" lon="5.57371">
        <ele>650</ele>
        <time>2025-09-07T11:18:21.974Z</time>
      </trkpt>
      <trkpt lat="45.45799" lon="5.57379">
        <ele>651</ele>
        <time>2025-09-07T11:18:26.974Z</time>
      </trkpt>
      <trkpt lat="45.45794" lon="5.57387">
        <ele>651</ele>
        <time>2025-09-07T11:18:31.974Z</time>
      </trkpt>
      <trkpt lat="45.4579" lon="5.57395">
        <ele>648</ele>
        <time>2025-09-07T11:18:36.974Z</time>
      </trkpt>
      <trkpt lat="45.45785" lon="5.57403">
        <ele>648</ele>
        <time>2025-09-07T11:18:41.974Z</time>
      </trkpt>
      <trkpt lat="45.4578" lon="5.5741">
        <ele>649</ele>
        <time>2025-09-07T11:18:46.974Z</time>
      </trkpt>
      <trkpt lat="45.45776" lon="5.57415">
        <ele>649</ele>
        <time>2025-09-07T11:18:50.974Z</time>
      </trkpt>
      <trkpt lat="45.45771" lon="5.57422">
        <ele>649</ele>
        <time>2025-09-07T11:18:55.974Z</time>
      </trkpt>
      <trkpt lat="45.45767" lon="5.57428">
        <ele>649</ele>
        <time>2025-09-07T11:18:59.974Z</time>
      </trkpt>
      <trkpt lat="45.45762" lon="5.57434">
        <ele>646</ele>
        <time>2025-09-07T11:19:04.974Z</time>
      </trkpt>
      <trkpt lat="45.45758" lon="5.57442">
        <ele>646</ele>
        <time>2025-09-07T11:19:09.974Z</time>
      </trkpt>
      <trkpt lat="45.45753" lon="5.57449">
        <ele>646</ele>
        <time>2025-09-07T11:19:13.974Z</time>
      </trkpt>
      <trkpt lat="45.45749" lon="5.57457">
        <ele>646</ele>
        <time>2025-09-07T11:19:18.974Z</time>
      </trkpt>
      <trkpt lat="45.45743" lon="5.57464">
        <ele>647</ele>
        <time>2025-09-07T11:19:23.974Z</time>
      </trkpt>
      <trkpt lat="45.45738" lon="5.5747">
        <ele>647</ele>
        <time>2025-09-07T11:19:28.974Z</time>
      </trkpt>
      <trkpt lat="45.45733" lon="5.57477">
        <ele>646</ele>
        <time>2025-09-07T11:19:33.974Z</time>
      </trkpt>
      <trkpt lat="45.45729" lon="5.57483">
        <ele>646</ele>
        <time>2025-09-07T11:19:38.974Z</time>
      </trkpt>
      <trkpt lat="45.45729" lon="5.57492">
        <ele>646</ele>
        <time>2025-09-07T11:19:43.974Z</time>
      </trkpt>
      <trkpt lat="45.45732" lon="5.57501">
        <ele>646</ele>
        <time>2025-09-07T11:19:47.974Z</time>
      </trkpt>
      <trkpt lat="45.45739" lon="5.57505">
        <ele>648</ele>
        <time>2025-09-07T11:19:52.974Z</time>
      </trkpt>
      <trkpt lat="45.45746" lon="5.5751">
        <ele>648</ele>
        <time>2025-09-07T11:19:57.974Z</time>
      </trkpt>
      <trkpt lat="45.45752" lon="5.57513">
        <ele>648</ele>
        <time>2025-09-07T11:20:02.974Z</time>
      </trkpt>
      <trkpt lat="45.45759" lon="5.57517">
        <ele>648</ele>
        <time>2025-09-07T11:20:07.974Z</time>
      </trkpt>
      <trkpt lat="45.45767" lon="5.57521">
        <ele>650</ele>
        <time>2025-09-07T11:20:13.974Z</time>
      </trkpt>
      <trkpt lat="45.45773" lon="5.57526">
        <ele>650</ele>
        <time>2025-09-07T11:20:19.974Z</time>
      </trkpt>
      <trkpt lat="45.45779" lon="5.5753">
        <ele>650</ele>
        <time>2025-09-07T11:20:24.974Z</time>
      </trkpt>
      <trkpt lat="45.45785" lon="5.57534">
        <ele>650</ele>
        <time>2025-09-07T11:20:29.974Z</time>
      </trkpt>
      <trkpt lat="45.45791" lon="5.57537">
        <ele>650</ele>
        <time>2025-09-07T11:20:33.974Z</time>
      </trkpt>
      <trkpt lat="45.45797" lon="5.57541">
        <ele>653</ele>
        <time>2025-09-07T11:20:38.974Z</time>
      </trkpt>
      <trkpt lat="45.45803" lon="5.57544">
        <ele>654</ele>
        <time>2025-09-07T11:20:43.974Z</time>
      </trkpt>
      <trkpt lat="45.4581" lon="5.57546">
        <ele>654</ele>
        <time>2025-09-07T11:20:48.974Z</time>
      </trkpt>
      <trkpt lat="45.45811" lon="5.57554">
        <ele>654</ele>
        <time>2025-09-07T11:20:53.974Z</time>
      </trkpt>
      <trkpt lat="45.45806" lon="5.5756">
        <ele>654</ele>
        <time>2025-09-07T11:20:57.974Z</time>
      </trkpt>
      <trkpt lat="45.45802" lon="5.57564">
        <ele>654</ele>
        <time>2025-09-07T11:21:02.974Z</time>
      </trkpt>
      <trkpt lat="45.45798" lon="5.5757">
        <ele>654</ele>
        <time>2025-09-07T11:21:07.934Z</time>
      </trkpt>
      <trkpt lat="45.45795" lon="5.57574">
        <ele>654</ele>
        <time>2025-09-07T11:21:12.034Z</time>
      </trkpt>
      <trkpt lat="45.45791" lon="5.57581">
        <ele>651</ele>
        <time>2025-09-07T11:21:16.659Z</time>
      </trkpt>
      <trkpt lat="45.45787" lon="5.57587">
        <ele>651</ele>
        <time>2025-09-07T11:21:21.089Z</time>
      </trkpt>
      <trkpt lat="45.45782" lon="5.57593">
        <ele>651</ele>
        <time>2025-09-07T11:21:26.011Z</time>
      </trkpt>
      <trkpt lat="45.45777" lon="5.57599">
        <ele>652</ele>
        <time>2025-09-07T11:21:30.644Z</time>
      </trkpt>
      <trkpt lat="45.45773" lon="5.57605">
        <ele>652</ele>
        <time>2025-09-07T11:21:35.017Z</time>
      </trkpt>
      <trkpt lat="45.45769" lon="5.57611">
        <ele>652</ele>
        <time>2025-09-07T11:21:39.327Z</time>
      </trkpt>
      <trkpt lat="45.45764" lon="5.57617">
        <ele>652</ele>
        <time>2025-09-07T11:21:43.716Z</time>
      </trkpt>
      <trkpt lat="45.4576" lon="5.57624">
        <ele>650</ele>
        <time>2025-09-07T11:21:48.117Z</time>
      </trkpt>
      <trkpt lat="45.45759" lon="5.57632">
        <ele>651</ele>
        <time>2025-09-07T11:21:52.012Z</time>
      </trkpt>
      <trkpt lat="45.45761" lon="5.57645">
        <ele>651</ele>
        <time>2025-09-07T11:21:56.846Z</time>
      </trkpt>
      <trkpt lat="45.45764" lon="5.57654">
        <ele>653</ele>
        <time>2025-09-07T11:22:01.207Z</time>
      </trkpt>
      <trkpt lat="45.45763" lon="5.57661">
        <ele>652</ele>
        <time>2025-09-07T11:22:05.226Z</time>
      </trkpt>
      <trkpt lat="45.45758" lon="5.57664">
        <ele>652</ele>
        <time>2025-09-07T11:22:09.718Z</time>
      </trkpt>
      <trkpt lat="45.45753" lon="5.57668">
        <ele>652</ele>
        <time>2025-09-07T11:22:13.899Z</time>
      </trkpt>
      <trkpt lat="45.45749" lon="5.57672">
        <ele>652</ele>
        <time>2025-09-07T11:22:18.013Z</time>
      </trkpt>
      <trkpt lat="45.45744" lon="5.57677">
        <ele>652</ele>
        <time>2025-09-07T11:22:22.436Z</time>
      </trkpt>
      <trkpt lat="45.45739" lon="5.5768">
        <ele>652</ele>
        <time>2025-09-07T11:22:26.661Z</time>
      </trkpt>
      <trkpt lat="45.45736" lon="5.57685">
        <ele>649</ele>
        <time>2025-09-07T11:22:30.974Z</time>
      </trkpt>
      <trkpt lat="45.45731" lon="5.5769">
        <ele>649</ele>
        <time>2025-09-07T11:22:34.974Z</time>
      </trkpt>
      <trkpt lat="45.45726" lon="5.57696">
        <ele>649</ele>
        <time>2025-09-07T11:22:39.974Z</time>
      </trkpt>
      <trkpt lat="45.45721" lon="5.57705">
        <ele>649</ele>
        <time>2025-09-07T11:22:44.974Z</time>
      </trkpt>
      <trkpt lat="45.45716" lon="5.5771">
        <ele>649</ele>
        <time>2025-09-07T11:22:49.974Z</time>
      </trkpt>
      <trkpt lat="45.45711" lon="5.57715">
        <ele>649</ele>
        <time>2025-09-07T11:22:54.974Z</time>
      </trkpt>
      <trkpt lat="45.45706" lon="5.57718">
        <ele>647</ele>
        <time>2025-09-07T11:22:58.974Z</time>
      </trkpt>
      <trkpt lat="45.457" lon="5.57724">
        <ele>647</ele>
        <time>2025-09-07T11:23:03.974Z</time>
      </trkpt>
      <trkpt lat="45.45694" lon="5.57729">
        <ele>647</ele>
        <time>2025-09-07T11:23:08.974Z</time>
      </trkpt>
      <trkpt lat="45.45689" lon="5.57734">
        <ele>647</ele>
        <time>2025-09-07T11:23:13.974Z</time>
      </trkpt>
      <trkpt lat="45.45684" lon="5.57738">
        <ele>647</ele>
        <time>2025-09-07T11:23:17.974Z</time>
      </trkpt>
      <trkpt lat="45.45677" lon="5.57743">
        <ele>646</ele>
        <time>2025-09-07T11:23:22.974Z</time>
      </trkpt>
      <trkpt lat="45.45672" lon="5.5775">
        <ele>646</ele>
        <time>2025-09-07T11:23:27.974Z</time>
      </trkpt>
      <trkpt lat="45.45672" lon="5.57757">
        <ele>646</ele>
        <time>2025-09-07T11:23:31.974Z</time>
      </trkpt>
      <trkpt lat="45.45673" lon="5.57768">
        <ele>647</ele>
        <time>2025-09-07T11:23:36.974Z</time>
      </trkpt>
      <trkpt lat="45.45674" lon="5.57776">
        <ele>647</ele>
        <time>2025-09-07T11:23:41.435Z</time>
      </trkpt>
      <trkpt lat="45.45676" lon="5.57786">
        <ele>647</ele>
        <time>2025-09-07T11:23:45.919Z</time>
      </trkpt>
      <trkpt lat="45.45678" lon="5.57794">
        <ele>647</ele>
        <time>2025-09-07T11:23:50.095Z</time>
      </trkpt>
      <trkpt lat="45.45681" lon="5.57803">
        <ele>647</ele>
        <time>2025-09-07T11:23:54.601Z</time>
      </trkpt>
      <trkpt lat="45.45683" lon="5.5781">
        <ele>647</ele>
        <time>2025-09-07T11:23:58.944Z</time>
      </trkpt>
      <trkpt lat="45.45685" lon="5.57818">
        <ele>647</ele>
        <time>2025-09-07T11:24:03.343Z</time>
      </trkpt>
      <trkpt lat="45.45686" lon="5.57825">
        <ele>647</ele>
        <time>2025-09-07T11:24:08.080Z</time>
      </trkpt>
      <trkpt lat="45.4569" lon="5.57827">
        <ele>647</ele>
        <time>2025-09-07T11:24:28.556Z</time>
      </trkpt>
      <trkpt lat="45.45688" lon="5.57835">
        <ele>647</ele>
        <time>2025-09-07T11:24:32.999Z</time>
      </trkpt>
      <trkpt lat="45.45688" lon="5.57843">
        <ele>647</ele>
        <time>2025-09-07T11:24:37.032Z</time>
      </trkpt>
      <trkpt lat="45.45688" lon="5.57852">
        <ele>647</ele>
        <time>2025-09-07T11:24:41.480Z</time>
      </trkpt>
      <trkpt lat="45.45685" lon="5.57858">
        <ele>647</ele>
        <time>2025-09-07T11:24:45.717Z</time>
      </trkpt>
      <trkpt lat="45.4568" lon="5.57857">
        <ele>645</ele>
        <time>2025-09-07T11:24:50.023Z</time>
      </trkpt>
      <trkpt lat="45.45675" lon="5.57855">
        <ele>645</ele>
        <time>2025-09-07T11:24:54.137Z</time>
      </trkpt>
      <trkpt lat="45.45672" lon="5.57849">
        <ele>645</ele>
        <time>2025-09-07T11:24:58.683Z</time>
      </trkpt>
      <trkpt lat="45.45671" lon="5.57845">
        <ele>646</ele>
        <time>2025-09-07T11:25:02.770Z</time>
      </trkpt>
      <trkpt lat="45.45668" lon="5.57842">
        <ele>646</ele>
        <time>2025-09-07T11:25:06.777Z</time>
      </trkpt>
      <trkpt lat="45.45665" lon="5.57839">
        <ele>646</ele>
        <time>2025-09-07T11:25:11.078Z</time>
      </trkpt>
      <trkpt lat="45.45661" lon="5.57833">
        <ele>646</ele>
        <time>2025-09-07T11:25:15.775Z</time>
      </trkpt>
      <trkpt lat="45.45658" lon="5.57829">
        <ele>646</ele>
        <time>2025-09-07T11:25:20.045Z</time>
      </trkpt>
      <trkpt lat="45.45652" lon="5.57827">
        <ele>646</ele>
        <time>2025-09-07T11:25:24.300Z</time>
      </trkpt>
      <trkpt lat="45.45646" lon="5.57824">
        <ele>646</ele>
        <time>2025-09-07T11:25:28.601Z</time>
      </trkpt>
      <trkpt lat="45.45641" lon="5.57821">
        <ele>646</ele>
        <time>2025-09-07T11:25:32.925Z</time>
      </trkpt>
      <trkpt lat="45.45636" lon="5.57818">
        <ele>647</ele>
        <time>2025-09-07T11:25:37.080Z</time>
      </trkpt>
      <trkpt lat="45.45631" lon="5.57815">
        <ele>647</ele>
        <time>2025-09-07T11:25:41.500Z</time>
      </trkpt>
      <trkpt lat="45.45627" lon="5.57812">
        <ele>647</ele>
        <time>2025-09-07T11:25:45.587Z</time>
      </trkpt>
      <trkpt lat="45.45622" lon="5.57809">
        <ele>646</ele>
        <time>2025-09-07T11:25:49.617Z</time>
      </trkpt>
      <trkpt lat="45.45616" lon="5.57805">
        <ele>646</ele>
        <time>2025-09-07T11:25:54.097Z</time>
      </trkpt>
      <trkpt lat="45.45611" lon="5.578">
        <ele>646</ele>
        <time>2025-09-07T11:25:58.509Z</time>
      </trkpt>
      <trkpt lat="45.45606" lon="5.57798">
        <ele>646</ele>
        <time>2025-09-07T11:26:02.638Z</time>
      </trkpt>
      <trkpt lat="45.45601" lon="5.57796">
        <ele>646</ele>
        <time>2025-09-07T11:26:06.721Z</time>
      </trkpt>
      <trkpt lat="45.45596" lon="5.57795">
        <ele>645</ele>
        <time>2025-09-07T11:26:11.052Z</time>
      </trkpt>
      <trkpt lat="45.45589" lon="5.57792">
        <ele>645</ele>
        <time>2025-09-07T11:26:15.360Z</time>
      </trkpt>
      <trkpt lat="45.45583" lon="5.5779">
        <ele>646</ele>
        <time>2025-09-07T11:26:19.658Z</time>
      </trkpt>
      <trkpt lat="45.45578" lon="5.57789">
        <ele>646</ele>
        <time>2025-09-07T11:26:23.959Z</time>
      </trkpt>
      <trkpt lat="45.45573" lon="5.57787">
        <ele>646</ele>
        <time>2025-09-07T11:26:28.408Z</time>
      </trkpt>
      <trkpt lat="45.45566" lon="5.57786">
        <ele>645</ele>
        <time>2025-09-07T11:26:32.944Z</time>
      </trkpt>
      <trkpt lat="45.45561" lon="5.57785">
        <ele>645</ele>
        <time>2025-09-07T11:26:36.960Z</time>
      </trkpt>
      <trkpt lat="45.45555" lon="5.57784">
        <ele>645</ele>
        <time>2025-09-07T11:26:40.998Z</time>
      </trkpt>
      <trkpt lat="45.4555" lon="5.57782">
        <ele>645</ele>
        <time>2025-09-07T11:26:45.084Z</time>
      </trkpt>
      <trkpt lat="45.45545" lon="5.57781">
        <ele>645</ele>
        <time>2025-09-07T11:26:49.020Z</time>
      </trkpt>
      <trkpt lat="45.45542" lon="5.57779">
        <ele>645</ele>
        <time>2025-09-07T11:26:53.228Z</time>
      </trkpt>
      <trkpt lat="45.45537" lon="5.57776">
        <ele>644</ele>
        <time>2025-09-07T11:26:57.792Z</time>
      </trkpt>
      <trkpt lat="45.45531" lon="5.57775">
        <ele>644</ele>
        <time>2025-09-07T11:27:01.894Z</time>
      </trkpt>
      <trkpt lat="45.45524" lon="5.57774">
        <ele>644</ele>
        <time>2025-09-07T11:27:06.371Z</time>
      </trkpt>
      <trkpt lat="45.45518" lon="5.57774">
        <ele>644</ele>
        <time>2025-09-07T11:27:11.013Z</time>
      </trkpt>
      <trkpt lat="45.45517" lon="5.57773">
        <ele>644</ele>
        <time>2025-09-07T11:27:16.048Z</time>
      </trkpt>
      <trkpt lat="45.45516" lon="5.57769">
        <ele>644</ele>
        <time>2025-09-07T11:27:20.636Z</time>
      </trkpt>
      <trkpt lat="45.45512" lon="5.57765">
        <ele>646</ele>
        <time>2025-09-07T11:27:24.890Z</time>
      </trkpt>
      <trkpt lat="45.45507" lon="5.57762">
        <ele>647</ele>
        <time>2025-09-07T11:27:28.973Z</time>
      </trkpt>
      <trkpt lat="45.45503" lon="5.57759">
        <ele>647</ele>
        <time>2025-09-07T11:27:32.973Z</time>
      </trkpt>
      <trkpt lat="45.45499" lon="5.57755">
        <ele>647</ele>
        <time>2025-09-07T11:27:37.973Z</time>
      </trkpt>
      <trkpt lat="45.45494" lon="5.57752">
        <ele>647</ele>
        <time>2025-09-07T11:27:42.973Z</time>
      </trkpt>
      <trkpt lat="45.45486" lon="5.57748">
        <ele>649</ele>
        <time>2025-09-07T11:27:47.973Z</time>
      </trkpt>
      <trkpt lat="45.45481" lon="5.57745">
        <ele>649</ele>
        <time>2025-09-07T11:27:52.973Z</time>
      </trkpt>
      <trkpt lat="45.45474" lon="5.57744">
        <ele>649</ele>
        <time>2025-09-07T11:27:57.973Z</time>
      </trkpt>
      <trkpt lat="45.45469" lon="5.57743">
        <ele>649</ele>
        <time>2025-09-07T11:28:02.973Z</time>
      </trkpt>
      <trkpt lat="45.45463" lon="5.57741">
        <ele>649</ele>
        <time>2025-09-07T11:28:07.973Z</time>
      </trkpt>
      <trkpt lat="45.45456" lon="5.57739">
        <ele>653</ele>
        <time>2025-09-07T11:28:12.973Z</time>
      </trkpt>
      <trkpt lat="45.45452" lon="5.57735">
        <ele>653</ele>
        <time>2025-09-07T11:28:17.973Z</time>
      </trkpt>
      <trkpt lat="45.45451" lon="5.57732">
        <ele>653</ele>
        <time>2025-09-07T11:28:22.973Z</time>
      </trkpt>
      <trkpt lat="45.45446" lon="5.57732">
        <ele>653</ele>
        <time>2025-09-07T11:28:27.973Z</time>
      </trkpt>
      <trkpt lat="45.45441" lon="5.57729">
        <ele>653</ele>
        <time>2025-09-07T11:28:32.973Z</time>
      </trkpt>
      <trkpt lat="45.45434" lon="5.57727">
        <ele>653</ele>
        <time>2025-09-07T11:28:37.973Z</time>
      </trkpt>
      <trkpt lat="45.45426" lon="5.57726">
        <ele>657</ele>
        <time>2025-09-07T11:28:42.973Z</time>
      </trkpt>
      <trkpt lat="45.4542" lon="5.57725">
        <ele>657</ele>
        <time>2025-09-07T11:28:46.973Z</time>
      </trkpt>
      <trkpt lat="45.45413" lon="5.57723">
        <ele>657</ele>
        <time>2025-09-07T11:28:51.973Z</time>
      </trkpt>
      <trkpt lat="45.45407" lon="5.57723">
        <ele>657</ele>
        <time>2025-09-07T11:28:56.224Z</time>
      </trkpt>
      <trkpt lat="45.454" lon="5.57723">
        <ele>659</ele>
        <time>2025-09-07T11:29:00.650Z</time>
      </trkpt>
      <trkpt lat="45.45393" lon="5.57722">
        <ele>659</ele>
        <time>2025-09-07T11:29:05.088Z</time>
      </trkpt>
      <trkpt lat="45.45387" lon="5.5772">
        <ele>659</ele>
        <time>2025-09-07T11:29:09.631Z</time>
      </trkpt>
      <trkpt lat="45.4538" lon="5.57721">
        <ele>659</ele>
        <time>2025-09-07T11:29:14.029Z</time>
      </trkpt>
      <trkpt lat="45.45373" lon="5.57719">
        <ele>661</ele>
        <time>2025-09-07T11:29:18.296Z</time>
      </trkpt>
      <trkpt lat="45.45367" lon="5.57718">
        <ele>661</ele>
        <time>2025-09-07T11:29:22.624Z</time>
      </trkpt>
      <trkpt lat="45.45362" lon="5.57718">
        <ele>661</ele>
        <time>2025-09-07T11:29:26.880Z</time>
      </trkpt>
      <trkpt lat="45.45356" lon="5.57718">
        <ele>661</ele>
        <time>2025-09-07T11:29:31.026Z</time>
      </trkpt>
      <trkpt lat="45.4535" lon="5.57717">
        <ele>661</ele>
        <time>2025-09-07T11:29:35.316Z</time>
      </trkpt>
      <trkpt lat="45.45345" lon="5.57717">
        <ele>662</ele>
        <time>2025-09-07T11:29:39.614Z</time>
      </trkpt>
      <trkpt lat="45.45339" lon="5.57716">
        <ele>662</ele>
        <time>2025-09-07T11:29:44.012Z</time>
      </trkpt>
      <trkpt lat="45.45335" lon="5.57714">
        <ele>662</ele>
        <time>2025-09-07T11:29:48.197Z</time>
      </trkpt>
      <trkpt lat="45.4533" lon="5.57711">
        <ele>662</ele>
        <time>2025-09-07T11:29:52.438Z</time>
      </trkpt>
      <trkpt lat="45.45324" lon="5.57708">
        <ele>661</ele>
        <time>2025-09-07T11:29:56.717Z</time>
      </trkpt>
      <trkpt lat="45.45319" lon="5.57704">
        <ele>663</ele>
        <time>2025-09-07T11:30:00.893Z</time>
      </trkpt>
      <trkpt lat="45.45313" lon="5.57702">
        <ele>663</ele>
        <time>2025-09-07T11:30:05.169Z</time>
      </trkpt>
      <trkpt lat="45.45307" lon="5.57698">
        <ele>663</ele>
        <time>2025-09-07T11:30:09.922Z</time>
      </trkpt>
      <trkpt lat="45.45301" lon="5.57695">
        <ele>663</ele>
        <time>2025-09-07T11:30:14.203Z</time>
      </trkpt>
      <trkpt lat="45.45295" lon="5.57692">
        <ele>663</ele>
        <time>2025-09-07T11:30:18.541Z</time>
      </trkpt>
      <trkpt lat="45.4529" lon="5.57688">
        <ele>665</ele>
        <time>2025-09-07T11:30:22.799Z</time>
      </trkpt>
      <trkpt lat="45.45285" lon="5.57684">
        <ele>665</ele>
        <time>2025-09-07T11:30:27.036Z</time>
      </trkpt>
      <trkpt lat="45.45279" lon="5.5768">
        <ele>665</ele>
        <time>2025-09-07T11:30:31.107Z</time>
      </trkpt>
      <trkpt lat="45.45272" lon="5.57677">
        <ele>665</ele>
        <time>2025-09-07T11:30:35.327Z</time>
      </trkpt>
      <trkpt lat="45.45267" lon="5.57674">
        <ele>665</ele>
        <time>2025-09-07T11:30:39.564Z</time>
      </trkpt>
      <trkpt lat="45.45261" lon="5.57671">
        <ele>666</ele>
        <time>2025-09-07T11:30:43.905Z</time>
      </trkpt>
      <trkpt lat="45.45256" lon="5.57668">
        <ele>666</ele>
        <time>2025-09-07T11:30:48.064Z</time>
      </trkpt>
      <trkpt lat="45.4525" lon="5.57665">
        <ele>666</ele>
        <time>2025-09-07T11:30:52.383Z</time>
      </trkpt>
      <trkpt lat="45.45245" lon="5.5766">
        <ele>666</ele>
        <time>2025-09-07T11:30:56.555Z</time>
      </trkpt>
      <trkpt lat="45.45239" lon="5.57655">
        <ele>666</ele>
        <time>2025-09-07T11:31:00.745Z</time>
      </trkpt>
      <trkpt lat="45.45233" lon="5.57651">
        <ele>668</ele>
        <time>2025-09-07T11:31:05.106Z</time>
      </trkpt>
      <trkpt lat="45.45229" lon="5.57647">
        <ele>668</ele>
        <time>2025-09-07T11:31:09.309Z</time>
      </trkpt>
      <trkpt lat="45.45223" lon="5.57644">
        <ele>668</ele>
        <time>2025-09-07T11:31:13.661Z</time>
      </trkpt>
      <trkpt lat="45.45216" lon="5.5764">
        <ele>668</ele>
        <time>2025-09-07T11:31:18.026Z</time>
      </trkpt>
      <trkpt lat="45.4521" lon="5.57635">
        <ele>668</ele>
        <time>2025-09-07T11:31:22.082Z</time>
      </trkpt>
      <trkpt lat="45.45205" lon="5.57632">
        <ele>669</ele>
        <time>2025-09-07T11:31:26.486Z</time>
      </trkpt>
      <trkpt lat="45.452" lon="5.57627">
        <ele>669</ele>
        <time>2025-09-07T11:31:30.985Z</time>
      </trkpt>
      <trkpt lat="45.45194" lon="5.57624">
        <ele>670</ele>
        <time>2025-09-07T11:31:35.358Z</time>
      </trkpt>
      <trkpt lat="45.45189" lon="5.5762">
        <ele>670</ele>
        <time>2025-09-07T11:31:39.593Z</time>
      </trkpt>
      <trkpt lat="45.45183" lon="5.57618">
        <ele>670</ele>
        <time>2025-09-07T11:31:43.937Z</time>
      </trkpt>
      <trkpt lat="45.45177" lon="5.57614">
        <ele>671</ele>
        <time>2025-09-07T11:31:48.421Z</time>
      </trkpt>
      <trkpt lat="45.45172" lon="5.57611">
        <ele>671</ele>
        <time>2025-09-07T11:31:52.437Z</time>
      </trkpt>
      <trkpt lat="45.45167" lon="5.57608">
        <ele>671</ele>
        <time>2025-09-07T11:31:56.940Z</time>
      </trkpt>
      <trkpt lat="45.45162" lon="5.57604">
        <ele>671</ele>
        <time>2025-09-07T11:32:00.978Z</time>
      </trkpt>
      <trkpt lat="45.45159" lon="5.57599">
        <ele>671</ele>
        <time>2025-09-07T11:32:05.068Z</time>
      </trkpt>
      <trkpt lat="45.45153" lon="5.57597">
        <ele>673</ele>
        <time>2025-09-07T11:32:09.422Z</time>
      </trkpt>
      <trkpt lat="45.45149" lon="5.57593">
        <ele>672</ele>
        <time>2025-09-07T11:32:13.459Z</time>
      </trkpt>
      <trkpt lat="45.45145" lon="5.5759">
        <ele>672</ele>
        <time>2025-09-07T11:32:17.636Z</time>
      </trkpt>
      <trkpt lat="45.45141" lon="5.57586">
        <ele>672</ele>
        <time>2025-09-07T11:32:21.864Z</time>
      </trkpt>
      <trkpt lat="45.45136" lon="5.57583">
        <ele>672</ele>
        <time>2025-09-07T11:32:26.045Z</time>
      </trkpt>
      <trkpt lat="45.45131" lon="5.5758">
        <ele>672</ele>
        <time>2025-09-07T11:32:30.216Z</time>
      </trkpt>
      <trkpt lat="45.45126" lon="5.57578">
        <ele>672</ele>
        <time>2025-09-07T11:32:34.435Z</time>
      </trkpt>
      <trkpt lat="45.4512" lon="5.57574">
        <ele>671</ele>
        <time>2025-09-07T11:32:39.057Z</time>
      </trkpt>
      <trkpt lat="45.45115" lon="5.5757">
        <ele>671</ele>
        <time>2025-09-07T11:32:43.536Z</time>
      </trkpt>
      <trkpt lat="45.45111" lon="5.57567">
        <ele>673</ele>
        <time>2025-09-07T11:32:47.617Z</time>
      </trkpt>
      <trkpt lat="45.45107" lon="5.57564">
        <ele>673</ele>
        <time>2025-09-07T11:32:51.662Z</time>
      </trkpt>
      <trkpt lat="45.45101" lon="5.5756">
        <ele>673</ele>
        <time>2025-09-07T11:32:56.293Z</time>
      </trkpt>
      <trkpt lat="45.45096" lon="5.57557">
        <ele>672</ele>
        <time>2025-09-07T11:33:00.428Z</time>
      </trkpt>
      <trkpt lat="45.45092" lon="5.57553">
        <ele>672</ele>
        <time>2025-09-07T11:33:04.517Z</time>
      </trkpt>
      <trkpt lat="45.45087" lon="5.57551">
        <ele>672</ele>
        <time>2025-09-07T11:33:08.689Z</time>
      </trkpt>
      <trkpt lat="45.45081" lon="5.57549">
        <ele>672</ele>
        <time>2025-09-07T11:33:12.815Z</time>
      </trkpt>
      <trkpt lat="45.45076" lon="5.57546">
        <ele>672</ele>
        <time>2025-09-07T11:33:17.247Z</time>
      </trkpt>
      <trkpt lat="45.45071" lon="5.57543">
        <ele>672</ele>
        <time>2025-09-07T11:33:21.362Z</time>
      </trkpt>
      <trkpt lat="45.45066" lon="5.5754">
        <ele>674</ele>
        <time>2025-09-07T11:33:25.506Z</time>
      </trkpt>
      <trkpt lat="45.45061" lon="5.57537">
        <ele>674</ele>
        <time>2025-09-07T11:33:29.642Z</time>
      </trkpt>
      <trkpt lat="45.45057" lon="5.57534">
        <ele>674</ele>
        <time>2025-09-07T11:33:33.696Z</time>
      </trkpt>
      <trkpt lat="45.45052" lon="5.5753">
        <ele>674</ele>
        <time>2025-09-07T11:33:38.002Z</time>
      </trkpt>
      <trkpt lat="45.45049" lon="5.57527">
        <ele>674</ele>
        <time>2025-09-07T11:33:42.055Z</time>
      </trkpt>
      <trkpt lat="45.45044" lon="5.57523">
        <ele>674</ele>
        <time>2025-09-07T11:33:46.355Z</time>
      </trkpt>
      <trkpt lat="45.45039" lon="5.57519">
        <ele>673</ele>
        <time>2025-09-07T11:33:50.582Z</time>
      </trkpt>
      <trkpt lat="45.45035" lon="5.57515">
        <ele>673</ele>
        <time>2025-09-07T11:33:54.818Z</time>
      </trkpt>
      <trkpt lat="45.45031" lon="5.57512">
        <ele>674</ele>
        <time>2025-09-07T11:33:59.065Z</time>
      </trkpt>
      <trkpt lat="45.45026" lon="5.57509">
        <ele>674</ele>
        <time>2025-09-07T11:34:03.243Z</time>
      </trkpt>
      <trkpt lat="45.45021" lon="5.57504">
        <ele>674</ele>
        <time>2025-09-07T11:34:07.629Z</time>
      </trkpt>
      <trkpt lat="45.45017" lon="5.57499">
        <ele>674</ele>
        <time>2025-09-07T11:34:11.776Z</time>
      </trkpt>
      <trkpt lat="45.45012" lon="5.57496">
        <ele>674</ele>
        <time>2025-09-07T11:34:16.267Z</time>
      </trkpt>
      <trkpt lat="45.45008" lon="5.57493">
        <ele>674</ele>
        <time>2025-09-07T11:34:20.329Z</time>
      </trkpt>
      <trkpt lat="45.45003" lon="5.5749">
        <ele>674</ele>
        <time>2025-09-07T11:34:24.451Z</time>
      </trkpt>
      <trkpt lat="45.44998" lon="5.57487">
        <ele>674</ele>
        <time>2025-09-07T11:34:28.815Z</time>
      </trkpt>
      <trkpt lat="45.44992" lon="5.57483">
        <ele>675</ele>
        <time>2025-09-07T11:34:33.260Z</time>
      </trkpt>
      <trkpt lat="45.44987" lon="5.57479">
        <ele>675</ele>
        <time>2025-09-07T11:34:37.319Z</time>
      </trkpt>
      <trkpt lat="45.44983" lon="5.57476">
        <ele>673</ele>
        <time>2025-09-07T11:34:41.436Z</time>
      </trkpt>
      <trkpt lat="45.44978" lon="5.57473">
        <ele>673</ele>
        <time>2025-09-07T11:34:45.480Z</time>
      </trkpt>
      <trkpt lat="45.44974" lon="5.5747">
        <ele>673</ele>
        <time>2025-09-07T11:34:49.495Z</time>
      </trkpt>
      <trkpt lat="45.44969" lon="5.57467">
        <ele>673</ele>
        <time>2025-09-07T11:34:53.549Z</time>
      </trkpt>
      <trkpt lat="45.44964" lon="5.57464">
        <ele>673</ele>
        <time>2025-09-07T11:34:57.597Z</time>
      </trkpt>
      <trkpt lat="45.44959" lon="5.5746">
        <ele>673</ele>
        <time>2025-09-07T11:35:02.078Z</time>
      </trkpt>
      <trkpt lat="45.44953" lon="5.57459">
        <ele>672</ele>
        <time>2025-09-07T11:35:06.310Z</time>
      </trkpt>
      <trkpt lat="45.44948" lon="5.57456">
        <ele>673</ele>
        <time>2025-09-07T11:35:10.417Z</time>
      </trkpt>
      <trkpt lat="45.44943" lon="5.57453">
        <ele>673</ele>
        <time>2025-09-07T11:35:14.573Z</time>
      </trkpt>
      <trkpt lat="45.44938" lon="5.5745">
        <ele>673</ele>
        <time>2025-09-07T11:35:18.590Z</time>
      </trkpt>
      <trkpt lat="45.44933" lon="5.57447">
        <ele>673</ele>
        <time>2025-09-07T11:35:22.678Z</time>
      </trkpt>
      <trkpt lat="45.44928" lon="5.57444">
        <ele>673</ele>
        <time>2025-09-07T11:35:26.889Z</time>
      </trkpt>
      <trkpt lat="45.44924" lon="5.57442">
        <ele>673</ele>
        <time>2025-09-07T11:35:31.021Z</time>
      </trkpt>
      <trkpt lat="45.44919" lon="5.57438">
        <ele>673</ele>
        <time>2025-09-07T11:35:35.043Z</time>
      </trkpt>
      <trkpt lat="45.44914" lon="5.57435">
        <ele>673</ele>
        <time>2025-09-07T11:35:39.301Z</time>
      </trkpt>
      <trkpt lat="45.4491" lon="5.57432">
        <ele>673</ele>
        <time>2025-09-07T11:35:43.514Z</time>
      </trkpt>
      <trkpt lat="45.44906" lon="5.5743">
        <ele>674</ele>
        <time>2025-09-07T11:35:47.841Z</time>
      </trkpt>
      <trkpt lat="45.44902" lon="5.57428">
        <ele>676</ele>
        <time>2025-09-07T11:35:52.123Z</time>
      </trkpt>
      <trkpt lat="45.44898" lon="5.57423">
        <ele>676</ele>
        <time>2025-09-07T11:35:56.576Z</time>
      </trkpt>
      <trkpt lat="45.44896" lon="5.5742">
        <ele>676</ele>
        <time>2025-09-07T11:36:00.608Z</time>
      </trkpt>
      <trkpt lat="45.44894" lon="5.57417">
        <ele>676</ele>
        <time>2025-09-07T11:36:04.834Z</time>
      </trkpt>
      <trkpt lat="45.44891" lon="5.57414">
        <ele>676</ele>
        <time>2025-09-07T11:36:08.892Z</time>
      </trkpt>
      <trkpt lat="45.44886" lon="5.5741">
        <ele>676</ele>
        <time>2025-09-07T11:36:13.302Z</time>
      </trkpt>
      <trkpt lat="45.44882" lon="5.57407">
        <ele>676</ele>
        <time>2025-09-07T11:36:17.643Z</time>
      </trkpt>
      <trkpt lat="45.44879" lon="5.57403">
        <ele>676</ele>
        <time>2025-09-07T11:36:21.814Z</time>
      </trkpt>
      <trkpt lat="45.44876" lon="5.57398">
        <ele>676</ele>
        <time>2025-09-07T11:36:26.057Z</time>
      </trkpt>
      <trkpt lat="45.44872" lon="5.57395">
        <ele>677</ele>
        <time>2025-09-07T11:36:30.256Z</time>
      </trkpt>
      <trkpt lat="45.44869" lon="5.5739">
        <ele>677</ele>
        <time>2025-09-07T11:36:34.428Z</time>
      </trkpt>
      <trkpt lat="45.44866" lon="5.57386">
        <ele>677</ele>
        <time>2025-09-07T11:36:38.508Z</time>
      </trkpt>
      <trkpt lat="45.44862" lon="5.57382">
        <ele>677</ele>
        <time>2025-09-07T11:36:42.584Z</time>
      </trkpt>
      <trkpt lat="45.44858" lon="5.57379">
        <ele>677</ele>
        <time>2025-09-07T11:36:46.606Z</time>
      </trkpt>
      <trkpt lat="45.44852" lon="5.57377">
        <ele>677</ele>
        <time>2025-09-07T11:36:50.645Z</time>
      </trkpt>
      <trkpt lat="45.44848" lon="5.57373">
        <ele>676</ele>
        <time>2025-09-07T11:36:54.816Z</time>
      </trkpt>
      <trkpt lat="45.44843" lon="5.5737">
        <ele>676</ele>
        <time>2025-09-07T11:36:59.011Z</time>
      </trkpt>
      <trkpt lat="45.44838" lon="5.57367">
        <ele>676</ele>
        <time>2025-09-07T11:37:03.298Z</time>
      </trkpt>
      <trkpt lat="45.44834" lon="5.57364">
        <ele>676</ele>
        <time>2025-09-07T11:37:07.485Z</time>
      </trkpt>
      <trkpt lat="45.4483" lon="5.57361">
        <ele>676</ele>
        <time>2025-09-07T11:37:11.785Z</time>
      </trkpt>
      <trkpt lat="45.44826" lon="5.57358">
        <ele>676</ele>
        <time>2025-09-07T11:37:15.880Z</time>
      </trkpt>
      <trkpt lat="45.44822" lon="5.57354">
        <ele>676</ele>
        <time>2025-09-07T11:37:19.916Z</time>
      </trkpt>
      <trkpt lat="45.44817" lon="5.57348">
        <ele>674</ele>
        <time>2025-09-07T11:37:23.937Z</time>
      </trkpt>
      <trkpt lat="45.44812" lon="5.57343">
        <ele>673</ele>
        <time>2025-09-07T11:37:28.047Z</time>
      </trkpt>
      <trkpt lat="45.44805" lon="5.57336">
        <ele>673</ele>
        <time>2025-09-07T11:37:32.559Z</time>
      </trkpt>
      <trkpt lat="45.44798" lon="5.5733">
        <ele>673</ele>
        <time>2025-09-07T11:37:36.816Z</time>
      </trkpt>
      <trkpt lat="45.44791" lon="5.57328">
        <ele>670</ele>
        <time>2025-09-07T11:37:41.414Z</time>
      </trkpt>
      <trkpt lat="45.44784" lon="5.57325">
        <ele>670</ele>
        <time>2025-09-07T11:37:45.916Z</time>
      </trkpt>
      <trkpt lat="45.44778" lon="5.57324">
        <ele>670</ele>
        <time>2025-09-07T11:37:50.037Z</time>
      </trkpt>
      <trkpt lat="45.44771" lon="5.57321">
        <ele>670</ele>
        <time>2025-09-07T11:37:55.075Z</time>
      </trkpt>
      <trkpt lat="45.44766" lon="5.57319">
        <ele>670</ele>
        <time>2025-09-07T11:37:59.083Z</time>
      </trkpt>
      <trkpt lat="45.44761" lon="5.57317">
        <ele>667</ele>
        <time>2025-09-07T11:38:03.423Z</time>
      </trkpt>
      <trkpt lat="45.44756" lon="5.57314">
        <ele>667</ele>
        <time>2025-09-07T11:38:07.446Z</time>
      </trkpt>
      <trkpt lat="45.44751" lon="5.57312">
        <ele>667</ele>
        <time>2025-09-07T11:38:11.512Z</time>
      </trkpt>
      <trkpt lat="45.44745" lon="5.5731">
        <ele>667</ele>
        <time>2025-09-07T11:38:15.621Z</time>
      </trkpt>
      <trkpt lat="45.44741" lon="5.57308">
        <ele>667</ele>
        <time>2025-09-07T11:38:19.797Z</time>
      </trkpt>
      <trkpt lat="45.44736" lon="5.57306">
        <ele>667</ele>
        <time>2025-09-07T11:38:23.852Z</time>
      </trkpt>
      <trkpt lat="45.44732" lon="5.57305">
        <ele>667</ele>
        <time>2025-09-07T11:38:27.851Z</time>
      </trkpt>
      <trkpt lat="45.44728" lon="5.57303">
        <ele>667</ele>
        <time>2025-09-07T11:38:31.885Z</time>
      </trkpt>
      <trkpt lat="45.44725" lon="5.573">
        <ele>667</ele>
        <time>2025-09-07T11:38:36.034Z</time>
      </trkpt>
      <trkpt lat="45.44721" lon="5.57298">
        <ele>667</ele>
        <time>2025-09-07T11:38:40.169Z</time>
      </trkpt>
      <trkpt lat="45.44716" lon="5.57297">
        <ele>667</ele>
        <time>2025-09-07T11:38:44.577Z</time>
      </trkpt>
      <trkpt lat="45.44713" lon="5.57296">
        <ele>667</ele>
        <time>2025-09-07T11:38:48.618Z</time>
      </trkpt>
      <trkpt lat="45.44711" lon="5.5729">
        <ele>667</ele>
        <time>2025-09-07T11:38:52.944Z</time>
      </trkpt>
      <trkpt lat="45.44712" lon="5.57284">
        <ele>667</ele>
        <time>2025-09-07T11:38:57.342Z</time>
      </trkpt>
      <trkpt lat="45.44713" lon="5.57279">
        <ele>667</ele>
        <time>2025-09-07T11:39:01.425Z</time>
      </trkpt>
      <trkpt lat="45.44714" lon="5.57274">
        <ele>667</ele>
        <time>2025-09-07T11:39:05.631Z</time>
      </trkpt>
      <trkpt lat="45.44715" lon="5.57267">
        <ele>667</ele>
        <time>2025-09-07T11:39:14.244Z</time>
      </trkpt>
      <trkpt lat="45.44717" lon="5.57266">
        <ele>667</ele>
        <time>2025-09-07T11:39:18.368Z</time>
      </trkpt>
      <trkpt lat="45.44718" lon="5.57265">
        <ele>667</ele>
        <time>2025-09-07T11:39:22.897Z</time>
      </trkpt>
      <trkpt lat="45.44719" lon="5.57264">
        <ele>667</ele>
        <time>2025-09-07T11:39:27.137Z</time>
      </trkpt>
      <trkpt lat="45.44725" lon="5.57259">
        <ele>667</ele>
        <time>2025-09-07T11:39:31.972Z</time>
      </trkpt>
      <trkpt lat="45.44727" lon="5.57259">
        <ele>667</ele>
        <time>2025-09-07T11:39:35.972Z</time>
      </trkpt>
      <trkpt lat="45.4473" lon="5.57258">
        <ele>667</ele>
        <time>2025-09-07T11:39:39.972Z</time>
      </trkpt>
      <trkpt lat="45.44733" lon="5.57256">
        <ele>667</ele>
        <time>2025-09-07T11:39:44.972Z</time>
      </trkpt>
      <trkpt lat="45.44735" lon="5.57257">
        <ele>667</ele>
        <time>2025-09-07T11:39:49.972Z</time>
      </trkpt>
      <trkpt lat="45.44739" lon="5.57257">
        <ele>664</ele>
        <time>2025-09-07T11:39:54.972Z</time>
      </trkpt>
      <trkpt lat="45.44744" lon="5.57256">
        <ele>664</ele>
        <time>2025-09-07T11:39:59.972Z</time>
      </trkpt>
      <trkpt lat="45.44749" lon="5.57254">
        <ele>664</ele>
        <time>2025-09-07T11:40:04.972Z</time>
      </trkpt>
      <trkpt lat="45.44753" lon="5.57252">
        <ele>664</ele>
        <time>2025-09-07T11:40:08.972Z</time>
      </trkpt>
      <trkpt lat="45.44757" lon="5.57251">
        <ele>664</ele>
        <time>2025-09-07T11:40:13.972Z</time>
      </trkpt>
      <trkpt lat="45.4476" lon="5.5725">
        <ele>664</ele>
        <time>2025-09-07T11:40:17.972Z</time>
      </trkpt>
      <trkpt lat="45.44766" lon="5.57248">
        <ele>666</ele>
        <time>2025-09-07T11:40:21.972Z</time>
      </trkpt>
      <trkpt lat="45.44774" lon="5.57249">
        <ele>666</ele>
        <time>2025-09-07T11:40:26.972Z</time>
      </trkpt>
      <trkpt lat="45.4478" lon="5.5725">
        <ele>666</ele>
        <time>2025-09-07T11:40:30.972Z</time>
      </trkpt>
      <trkpt lat="45.44787" lon="5.5725">
        <ele>666</ele>
        <time>2025-09-07T11:40:35.972Z</time>
      </trkpt>
      <trkpt lat="45.44794" lon="5.57251">
        <ele>668</ele>
        <time>2025-09-07T11:40:40.972Z</time>
      </trkpt>
      <trkpt lat="45.448" lon="5.5725">
        <ele>668</ele>
        <time>2025-09-07T11:40:45.972Z</time>
      </trkpt>
      <trkpt lat="45.44806" lon="5.5725">
        <ele>668</ele>
        <time>2025-09-07T11:40:49.972Z</time>
      </trkpt>
      <trkpt lat="45.44812" lon="5.5725">
        <ele>668</ele>
        <time>2025-09-07T11:40:53.972Z</time>
      </trkpt>
      <trkpt lat="45.44819" lon="5.57247">
        <ele>668</ele>
        <time>2025-09-07T11:40:58.972Z</time>
      </trkpt>
      <trkpt lat="45.44824" lon="5.57245">
        <ele>668</ele>
        <time>2025-09-07T11:41:02.972Z</time>
      </trkpt>
      <trkpt lat="45.44832" lon="5.57238">
        <ele>668</ele>
        <time>2025-09-07T11:41:07.972Z</time>
      </trkpt>
      <trkpt lat="45.44838" lon="5.57227">
        <ele>665</ele>
        <time>2025-09-07T11:41:12.972Z</time>
      </trkpt>
      <trkpt lat="45.44842" lon="5.57216">
        <ele>665</ele>
        <time>2025-09-07T11:41:17.972Z</time>
      </trkpt>
      <trkpt lat="45.44847" lon="5.57205">
        <ele>663</ele>
        <time>2025-09-07T11:41:22.972Z</time>
      </trkpt>
      <trkpt lat="45.4485" lon="5.57199">
        <ele>667</ele>
        <time>2025-09-07T11:41:26.972Z</time>
      </trkpt>
      <trkpt lat="45.44854" lon="5.57192">
        <ele>667</ele>
        <time>2025-09-07T11:41:31.972Z</time>
      </trkpt>
      <trkpt lat="45.44858" lon="5.57187">
        <ele>667</ele>
        <time>2025-09-07T11:41:35.972Z</time>
      </trkpt>
      <trkpt lat="45.44861" lon="5.57184">
        <ele>667</ele>
        <time>2025-09-07T11:41:40.972Z</time>
      </trkpt>
      <trkpt lat="45.44864" lon="5.57181">
        <ele>667</ele>
        <time>2025-09-07T11:41:45.972Z</time>
      </trkpt>
      <trkpt lat="45.44866" lon="5.57179">
        <ele>665</ele>
        <time>2025-09-07T11:41:50.972Z</time>
      </trkpt>
      <trkpt lat="45.44869" lon="5.57177">
        <ele>665</ele>
        <time>2025-09-07T11:41:55.972Z</time>
      </trkpt>
      <trkpt lat="45.44872" lon="5.57176">
        <ele>665</ele>
        <time>2025-09-07T11:41:59.972Z</time>
      </trkpt>
      <trkpt lat="45.44877" lon="5.57173">
        <ele>667</ele>
        <time>2025-09-07T11:42:04.972Z</time>
      </trkpt>
      <trkpt lat="45.44882" lon="5.5717">
        <ele>667</ele>
        <time>2025-09-07T11:42:09.500Z</time>
      </trkpt>
      <trkpt lat="45.44886" lon="5.57167">
        <ele>667</ele>
        <time>2025-09-07T11:42:13.613Z</time>
      </trkpt>
      <trkpt lat="45.44889" lon="5.57164">
        <ele>667</ele>
        <time>2025-09-07T11:42:18.063Z</time>
      </trkpt>
      <trkpt lat="45.44899" lon="5.57153">
        <ele>667</ele>
        <time>2025-09-07T11:42:22.600Z</time>
      </trkpt>
      <trkpt lat="45.44903" lon="5.57145">
        <ele>666</ele>
        <time>2025-09-07T11:42:26.707Z</time>
      </trkpt>
      <trkpt lat="45.44909" lon="5.57135">
        <ele>665</ele>
        <time>2025-09-07T11:42:30.794Z</time>
      </trkpt>
      <trkpt lat="45.44915" lon="5.57124">
        <ele>665</ele>
        <time>2025-09-07T11:42:35.054Z</time>
      </trkpt>
      <trkpt lat="45.44918" lon="5.57111">
        <ele>665</ele>
        <time>2025-09-07T11:42:39.712Z</time>
      </trkpt>
      <trkpt lat="45.44918" lon="5.57101">
        <ele>665</ele>
        <time>2025-09-07T11:42:44.425Z</time>
      </trkpt>
      <trkpt lat="45.44915" lon="5.57092">
        <ele>664</ele>
        <time>2025-09-07T11:42:49.037Z</time>
      </trkpt>
      <trkpt lat="45.44911" lon="5.57084">
        <ele>664</ele>
        <time>2025-09-07T11:42:53.861Z</time>
      </trkpt>
      <trkpt lat="45.44908" lon="5.57077">
        <ele>664</ele>
        <time>2025-09-07T11:42:58.210Z</time>
      </trkpt>
      <trkpt lat="45.44904" lon="5.57071">
        <ele>664</ele>
        <time>2025-09-07T11:43:02.601Z</time>
      </trkpt>
      <trkpt lat="45.44901" lon="5.57067">
        <ele>661</ele>
        <time>2025-09-07T11:43:06.637Z</time>
      </trkpt>
      <trkpt lat="45.44896" lon="5.57062">
        <ele>661</ele>
        <time>2025-09-07T11:43:10.856Z</time>
      </trkpt>
      <trkpt lat="45.4489" lon="5.57059">
        <ele>661</ele>
        <time>2025-09-07T11:43:15.494Z</time>
      </trkpt>
      <trkpt lat="45.44885" lon="5.57056">
        <ele>661</ele>
        <time>2025-09-07T11:43:19.828Z</time>
      </trkpt>
      <trkpt lat="45.44878" lon="5.57052">
        <ele>661</ele>
        <time>2025-09-07T11:43:24.839Z</time>
      </trkpt>
      <trkpt lat="45.44874" lon="5.5705">
        <ele>659</ele>
        <time>2025-09-07T11:43:29.077Z</time>
      </trkpt>
      <trkpt lat="45.44868" lon="5.57049">
        <ele>659</ele>
        <time>2025-09-07T11:43:34.049Z</time>
      </trkpt>
      <trkpt lat="45.44865" lon="5.57048">
        <ele>659</ele>
        <time>2025-09-07T11:43:38.019Z</time>
      </trkpt>
      <trkpt lat="45.44859" lon="5.57045">
        <ele>659</ele>
        <time>2025-09-07T11:43:42.576Z</time>
      </trkpt>
      <trkpt lat="45.44855" lon="5.57043">
        <ele>659</ele>
        <time>2025-09-07T11:43:46.658Z</time>
      </trkpt>
      <trkpt lat="45.44851" lon="5.57043">
        <ele>659</ele>
        <time>2025-09-07T11:43:50.936Z</time>
      </trkpt>
      <trkpt lat="45.44848" lon="5.57041">
        <ele>656</ele>
        <time>2025-09-07T11:43:55.015Z</time>
      </trkpt>
      <trkpt lat="45.44843" lon="5.57039">
        <ele>652</ele>
        <time>2025-09-07T11:43:59.588Z</time>
      </trkpt>
      <trkpt lat="45.44837" lon="5.57037">
        <ele>652</ele>
        <time>2025-09-07T11:44:04.020Z</time>
      </trkpt>
      <trkpt lat="45.44831" lon="5.57035">
        <ele>652</ele>
        <time>2025-09-07T11:44:08.028Z</time>
      </trkpt>
      <trkpt lat="45.44824" lon="5.57034">
        <ele>652</ele>
        <time>2025-09-07T11:44:12.420Z</time>
      </trkpt>
      <trkpt lat="45.44818" lon="5.57031">
        <ele>650</ele>
        <time>2025-09-07T11:44:16.742Z</time>
      </trkpt>
      <trkpt lat="45.44811" lon="5.57032">
        <ele>650</ele>
        <time>2025-09-07T11:44:20.974Z</time>
      </trkpt>
      <trkpt lat="45.44806" lon="5.57034">
        <ele>650</ele>
        <time>2025-09-07T11:44:25.117Z</time>
      </trkpt>
      <trkpt lat="45.44801" lon="5.57033">
        <ele>650</ele>
        <time>2025-09-07T11:44:29.428Z</time>
      </trkpt>
      <trkpt lat="45.44794" lon="5.57034">
        <ele>650</ele>
        <time>2025-09-07T11:44:33.708Z</time>
      </trkpt>
      <trkpt lat="45.44788" lon="5.57037">
        <ele>651</ele>
        <time>2025-09-07T11:44:37.712Z</time>
      </trkpt>
      <trkpt lat="45.44782" lon="5.57037">
        <ele>651</ele>
        <time>2025-09-07T11:44:41.771Z</time>
      </trkpt>
      <trkpt lat="45.44773" lon="5.57034">
        <ele>651</ele>
        <time>2025-09-07T11:45:15.972Z</time>
      </trkpt>
      <trkpt lat="45.44772" lon="5.57025">
        <ele>651</ele>
        <time>2025-09-07T11:45:20.759Z</time>
      </trkpt>
      <trkpt lat="45.44771" lon="5.57015">
        <ele>651</ele>
        <time>2025-09-07T11:45:25.004Z</time>
      </trkpt>
      <trkpt lat="45.44771" lon="5.5701">
        <ele>651</ele>
        <time>2025-09-07T11:45:29.317Z</time>
      </trkpt>
      <trkpt lat="45.44769" lon="5.57003">
        <ele>651</ele>
        <time>2025-09-07T11:45:33.882Z</time>
      </trkpt>
      <trkpt lat="45.44767" lon="5.56996">
        <ele>651</ele>
        <time>2025-09-07T11:45:37.938Z</time>
      </trkpt>
      <trkpt lat="45.44764" lon="5.56989">
        <ele>651</ele>
        <time>2025-09-07T11:45:42.383Z</time>
      </trkpt>
      <trkpt lat="45.44762" lon="5.56983">
        <ele>652</ele>
        <time>2025-09-07T11:45:46.476Z</time>
      </trkpt>
      <trkpt lat="45.44757" lon="5.56977">
        <ele>652</ele>
        <time>2025-09-07T11:45:51Z</time>
      </trkpt>
      <trkpt lat="45.44747" lon="5.56971">
        <ele>652</ele>
        <time>2025-09-07T11:45:55.608Z</time>
      </trkpt>
      <trkpt lat="45.44736" lon="5.56966">
        <ele>654</ele>
        <time>2025-09-07T11:46:00.049Z</time>
      </trkpt>
      <trkpt lat="45.44721" lon="5.56964">
        <ele>654</ele>
        <time>2025-09-07T11:46:04.792Z</time>
      </trkpt>
      <trkpt lat="45.4471" lon="5.56967">
        <ele>654</ele>
        <time>2025-09-07T11:46:08.937Z</time>
      </trkpt>
      <trkpt lat="45.44689" lon="5.56974">
        <ele>658</ele>
        <time>2025-09-07T11:46:13.425Z</time>
      </trkpt>
      <trkpt lat="45.44675" lon="5.56978">
        <ele>661</ele>
        <time>2025-09-07T11:46:17.807Z</time>
      </trkpt>
      <trkpt lat="45.4466" lon="5.56987">
        <ele>661</ele>
        <time>2025-09-07T11:46:22.193Z</time>
      </trkpt>
      <trkpt lat="45.44654" lon="5.56988">
        <ele>661</ele>
        <time>2025-09-07T11:46:26.336Z</time>
      </trkpt>
      <trkpt lat="45.4465" lon="5.56987">
        <ele>664</ele>
        <time>2025-09-07T11:46:30.736Z</time>
      </trkpt>
      <trkpt lat="45.44645" lon="5.56984">
        <ele>666</ele>
        <time>2025-09-07T11:46:35.134Z</time>
      </trkpt>
      <trkpt lat="45.44642" lon="5.56975">
        <ele>666</ele>
        <time>2025-09-07T11:46:39.102Z</time>
      </trkpt>
      <trkpt lat="45.44635" lon="5.56966">
        <ele>666</ele>
        <time>2025-09-07T11:46:43.527Z</time>
      </trkpt>
      <trkpt lat="45.44631" lon="5.56944">
        <ele>665</ele>
        <time>2025-09-07T11:46:47.916Z</time>
      </trkpt>
      <trkpt lat="45.44617" lon="5.56939">
        <ele>671</ele>
        <time>2025-09-07T11:46:51.937Z</time>
      </trkpt>
      <trkpt lat="45.44602" lon="5.56934">
        <ele>671</ele>
        <time>2025-09-07T11:46:56.365Z</time>
      </trkpt>
      <trkpt lat="45.4459" lon="5.56929">
        <ele>673</ele>
        <time>2025-09-07T11:47:00.612Z</time>
      </trkpt>
      <trkpt lat="45.44573" lon="5.56924">
        <ele>673</ele>
        <time>2025-09-07T11:47:04.839Z</time>
      </trkpt>
      <trkpt lat="45.44563" lon="5.56921">
        <ele>678</ele>
        <time>2025-09-07T11:47:09.009Z</time>
      </trkpt>
      <trkpt lat="45.44557" lon="5.56914">
        <ele>678</ele>
        <time>2025-09-07T11:47:13.565Z</time>
      </trkpt>
      <trkpt lat="45.44553" lon="5.56913">
        <ele>678</ele>
        <time>2025-09-07T11:47:18.106Z</time>
      </trkpt>
      <trkpt lat="45.44551" lon="5.56912">
        <ele>678</ele>
        <time>2025-09-07T11:47:22.139Z</time>
      </trkpt>
      <trkpt lat="45.44536" lon="5.56908">
        <ele>682</ele>
        <time>2025-09-07T11:47:26.972Z</time>
      </trkpt>
      <trkpt lat="45.44529" lon="5.56912">
        <ele>682</ele>
        <time>2025-09-07T11:47:30.972Z</time>
      </trkpt>
      <trkpt lat="45.44524" lon="5.56915">
        <ele>682</ele>
        <time>2025-09-07T11:47:35.972Z</time>
      </trkpt>
      <trkpt lat="45.44521" lon="5.56921">
        <ele>682</ele>
        <time>2025-09-07T11:47:40.972Z</time>
      </trkpt>
      <trkpt lat="45.44517" lon="5.56928">
        <ele>682</ele>
        <time>2025-09-07T11:47:45.972Z</time>
      </trkpt>
      <trkpt lat="45.44514" lon="5.56933">
        <ele>683</ele>
        <time>2025-09-07T11:47:49.972Z</time>
      </trkpt>
      <trkpt lat="45.44511" lon="5.56939">
        <ele>683</ele>
        <time>2025-09-07T11:47:53.972Z</time>
      </trkpt>
      <trkpt lat="45.44505" lon="5.56946">
        <ele>683</ele>
        <time>2025-09-07T11:47:58.972Z</time>
      </trkpt>
      <trkpt lat="45.44505" lon="5.56949">
        <ele>683</ele>
        <time>2025-09-07T11:48:03.972Z</time>
      </trkpt>
      <trkpt lat="45.44503" lon="5.56952">
        <ele>683</ele>
        <time>2025-09-07T11:48:08.972Z</time>
      </trkpt>
      <trkpt lat="45.44502" lon="5.56955">
        <ele>683</ele>
        <time>2025-09-07T11:48:12.972Z</time>
      </trkpt>
      <trkpt lat="45.44499" lon="5.5696">
        <ele>684</ele>
        <time>2025-09-07T11:48:17.972Z</time>
      </trkpt>
      <trkpt lat="45.44493" lon="5.56965">
        <ele>684</ele>
        <time>2025-09-07T11:48:21.972Z</time>
      </trkpt>
      <trkpt lat="45.44482" lon="5.56979">
        <ele>683</ele>
        <time>2025-09-07T11:48:26.375Z</time>
      </trkpt>
      <trkpt lat="45.44468" lon="5.57005">
        <ele>685</ele>
        <time>2025-09-07T11:48:31.021Z</time>
      </trkpt>
      <trkpt lat="45.44456" lon="5.57029">
        <ele>688</ele>
        <time>2025-09-07T11:48:35.734Z</time>
      </trkpt>
      <trkpt lat="45.44451" lon="5.57045">
        <ele>689</ele>
        <time>2025-09-07T11:48:39.783Z</time>
      </trkpt>
      <trkpt lat="45.4445" lon="5.57055">
        <ele>689</ele>
        <time>2025-09-07T11:48:44.051Z</time>
      </trkpt>
      <trkpt lat="45.44452" lon="5.57064">
        <ele>689</ele>
        <time>2025-09-07T11:48:48.476Z</time>
      </trkpt>
      <trkpt lat="45.44456" lon="5.5707">
        <ele>688</ele>
        <time>2025-09-07T11:48:52.778Z</time>
      </trkpt>
      <trkpt lat="45.4446" lon="5.57078">
        <ele>687</ele>
        <time>2025-09-07T11:48:57.065Z</time>
      </trkpt>
      <trkpt lat="45.44461" lon="5.57087">
        <ele>687</ele>
        <time>2025-09-07T11:49:01.356Z</time>
      </trkpt>
      <trkpt lat="45.44462" lon="5.57094">
        <ele>687</ele>
        <time>2025-09-07T11:49:05.507Z</time>
      </trkpt>
      <trkpt lat="45.44462" lon="5.571">
        <ele>686</ele>
        <time>2025-09-07T11:49:09.719Z</time>
      </trkpt>
      <trkpt lat="45.44456" lon="5.57108">
        <ele>687</ele>
        <time>2025-09-07T11:49:13.790Z</time>
      </trkpt>
      <trkpt lat="45.44445" lon="5.57125">
        <ele>687</ele>
        <time>2025-09-07T11:49:18.223Z</time>
      </trkpt>
      <trkpt lat="45.44427" lon="5.57132">
        <ele>691</ele>
        <time>2025-09-07T11:49:22.984Z</time>
      </trkpt>
      <trkpt lat="45.4439" lon="5.57158">
        <ele>693</ele>
        <time>2025-09-07T11:49:27.972Z</time>
      </trkpt>
      <trkpt lat="45.44361" lon="5.57163">
        <ele>693</ele>
        <time>2025-09-07T11:49:32.972Z</time>
      </trkpt>
      <trkpt lat="45.44339" lon="5.57163">
        <ele>694</ele>
        <time>2025-09-07T11:49:36.972Z</time>
      </trkpt>
      <trkpt lat="45.44319" lon="5.57162">
        <ele>697</ele>
        <time>2025-09-07T11:49:41.972Z</time>
      </trkpt>
      <trkpt lat="45.44312" lon="5.57161">
        <ele>697</ele>
        <time>2025-09-07T11:49:46.972Z</time>
      </trkpt>
      <trkpt lat="45.44308" lon="5.57161">
        <ele>697</ele>
        <time>2025-09-07T11:49:52.085Z</time>
      </trkpt>
      <trkpt lat="45.44301" lon="5.57164">
        <ele>697</ele>
        <time>2025-09-07T11:49:56.454Z</time>
      </trkpt>
      <trkpt lat="45.44296" lon="5.57167">
        <ele>697</ele>
        <time>2025-09-07T11:50:00.766Z</time>
      </trkpt>
      <trkpt lat="45.44293" lon="5.57167">
        <ele>697</ele>
        <time>2025-09-07T11:50:05.248Z</time>
      </trkpt>
      <trkpt lat="45.4429" lon="5.57169">
        <ele>698</ele>
        <time>2025-09-07T11:50:11.256Z</time>
      </trkpt>
      <trkpt lat="45.44287" lon="5.5717">
        <ele>698</ele>
        <time>2025-09-07T11:50:15.822Z</time>
      </trkpt>
      <trkpt lat="45.44281" lon="5.57173">
        <ele>698</ele>
        <time>2025-09-07T11:50:20.293Z</time>
      </trkpt>
      <trkpt lat="45.44275" lon="5.57179">
        <ele>698</ele>
        <time>2025-09-07T11:50:24.754Z</time>
      </trkpt>
      <trkpt lat="45.44269" lon="5.57179">
        <ele>698</ele>
        <time>2025-09-07T11:50:29.076Z</time>
      </trkpt>
      <trkpt lat="45.44265" lon="5.57177">
        <ele>698</ele>
        <time>2025-09-07T11:50:33.091Z</time>
      </trkpt>
      <trkpt lat="45.44259" lon="5.57178">
        <ele>692</ele>
        <time>2025-09-07T11:50:37.408Z</time>
      </trkpt>
      <trkpt lat="45.44257" lon="5.57178">
        <ele>692</ele>
        <time>2025-09-07T11:50:41.637Z</time>
      </trkpt>
      <trkpt lat="45.44248" lon="5.57187">
        <ele>691</ele>
        <time>2025-09-07T11:50:45.743Z</time>
      </trkpt>
      <trkpt lat="45.44245" lon="5.57191">
        <ele>691</ele>
        <time>2025-09-07T11:50:50.048Z</time>
      </trkpt>
      <trkpt lat="45.44243" lon="5.57195">
        <ele>691</ele>
        <time>2025-09-07T11:50:54.467Z</time>
      </trkpt>
      <trkpt lat="45.4424" lon="5.572">
        <ele>691</ele>
        <time>2025-09-07T11:50:58.795Z</time>
      </trkpt>
      <trkpt lat="45.44237" lon="5.57204">
        <ele>691</ele>
        <time>2025-09-07T11:51:02.957Z</time>
      </trkpt>
      <trkpt lat="45.44235" lon="5.57209">
        <ele>684</ele>
        <time>2025-09-07T11:51:07.432Z</time>
      </trkpt>
      <trkpt lat="45.44232" lon="5.57214">
        <ele>684</ele>
        <time>2025-09-07T11:51:11.930Z</time>
      </trkpt>
      <trkpt lat="45.44231" lon="5.57218">
        <ele>684</ele>
        <time>2025-09-07T11:51:16.023Z</time>
      </trkpt>
      <trkpt lat="45.44228" lon="5.57225">
        <ele>684</ele>
        <time>2025-09-07T11:51:20.058Z</time>
      </trkpt>
      <trkpt lat="45.44226" lon="5.57231">
        <ele>684</ele>
        <time>2025-09-07T11:51:24.594Z</time>
      </trkpt>
      <trkpt lat="45.44227" lon="5.57238">
        <ele>682</ele>
        <time>2025-09-07T11:51:29.013Z</time>
      </trkpt>
      <trkpt lat="45.44229" lon="5.57245">
        <ele>682</ele>
        <time>2025-09-07T11:51:33.021Z</time>
      </trkpt>
      <trkpt lat="45.44229" lon="5.57247">
        <ele>682</ele>
        <time>2025-09-07T11:51:47.101Z</time>
      </trkpt>
      <trkpt lat="45.44229" lon="5.57252">
        <ele>682</ele>
        <time>2025-09-07T11:51:52.034Z</time>
      </trkpt>
      <trkpt lat="45.44227" lon="5.57255">
        <ele>682</ele>
        <time>2025-09-07T11:51:57.053Z</time>
      </trkpt>
      <trkpt lat="45.44226" lon="5.57257">
        <ele>682</ele>
        <time>2025-09-07T11:52:01.057Z</time>
      </trkpt>
      <trkpt lat="45.44225" lon="5.57259">
        <ele>682</ele>
        <time>2025-09-07T11:52:05.414Z</time>
      </trkpt>
      <trkpt lat="45.44223" lon="5.5726">
        <ele>682</ele>
        <time>2025-09-07T11:52:10.019Z</time>
      </trkpt>
      <trkpt lat="45.44221" lon="5.57261">
        <ele>682</ele>
        <time>2025-09-07T11:52:16.994Z</time>
      </trkpt>
      <trkpt lat="45.44218" lon="5.57267">
        <ele>680</ele>
        <time>2025-09-07T11:52:21.119Z</time>
      </trkpt>
      <trkpt lat="45.44216" lon="5.57271">
        <ele>680</ele>
        <time>2025-09-07T11:52:25.483Z</time>
      </trkpt>
      <trkpt lat="45.44215" lon="5.57274">
        <ele>680</ele>
        <time>2025-09-07T11:52:29.772Z</time>
      </trkpt>
      <trkpt lat="45.44213" lon="5.57277">
        <ele>680</ele>
        <time>2025-09-07T11:52:33.924Z</time>
      </trkpt>
      <trkpt lat="45.44212" lon="5.5728">
        <ele>680</ele>
        <time>2025-09-07T11:52:38.690Z</time>
      </trkpt>
      <trkpt lat="45.44211" lon="5.57284">
        <ele>680</ele>
        <time>2025-09-07T11:52:43.149Z</time>
      </trkpt>
      <trkpt lat="45.44209" lon="5.57287">
        <ele>680</ele>
        <time>2025-09-07T11:52:47.332Z</time>
      </trkpt>
      <trkpt lat="45.44207" lon="5.57292">
        <ele>674</ele>
        <time>2025-09-07T11:52:51.749Z</time>
      </trkpt>
      <trkpt lat="45.44205" lon="5.57296">
        <ele>674</ele>
        <time>2025-09-07T11:52:56.061Z</time>
      </trkpt>
      <trkpt lat="45.44204" lon="5.57301">
        <ele>674</ele>
        <time>2025-09-07T11:53:00.296Z</time>
      </trkpt>
      <trkpt lat="45.44203" lon="5.57304">
        <ele>674</ele>
        <time>2025-09-07T11:53:04.681Z</time>
      </trkpt>
      <trkpt lat="45.44203" lon="5.57304">
        <ele>674</ele>
        <time>2025-09-07T11:53:46.015Z</time>
      </trkpt>
      <trkpt lat="45.44203" lon="5.57304">
        <ele>674</ele>
        <time>2025-09-07T11:53:51.607Z</time>
      </trkpt>
      <trkpt lat="45.44199" lon="5.57319">
        <ele>674</ele>
        <time>2025-09-07T11:53:55.774Z</time>
      </trkpt>
      <trkpt lat="45.44198" lon="5.57322">
        <ele>671</ele>
        <time>2025-09-07T11:53:59.896Z</time>
      </trkpt>
      <trkpt lat="45.44197" lon="5.57328">
        <ele>671</ele>
        <time>2025-09-07T11:54:04.087Z</time>
      </trkpt>
      <trkpt lat="45.44196" lon="5.57335">
        <ele>671</ele>
        <time>2025-09-07T11:54:08.936Z</time>
      </trkpt>
      <trkpt lat="45.44196" lon="5.57336">
        <ele>671</ele>
        <time>2025-09-07T11:54:13.502Z</time>
      </trkpt>
      <trkpt lat="45.44193" lon="5.57343">
        <ele>671</ele>
        <time>2025-09-07T11:54:18.064Z</time>
      </trkpt>
      <trkpt lat="45.44191" lon="5.5735">
        <ele>668</ele>
        <time>2025-09-07T11:54:22.997Z</time>
      </trkpt>
      <trkpt lat="45.44186" lon="5.57352">
        <ele>668</ele>
        <time>2025-09-07T11:55:31.032Z</time>
      </trkpt>
      <trkpt lat="45.44183" lon="5.57353">
        <ele>668</ele>
        <time>2025-09-07T11:55:35.041Z</time>
      </trkpt>
      <trkpt lat="45.44181" lon="5.57354">
        <ele>668</ele>
        <time>2025-09-07T11:55:39.197Z</time>
      </trkpt>
      <trkpt lat="45.4418" lon="5.57354">
        <ele>668</ele>
        <time>2025-09-07T11:55:44.844Z</time>
      </trkpt>
      <trkpt lat="45.44178" lon="5.57353">
        <ele>668</ele>
        <time>2025-09-07T11:55:49.410Z</time>
      </trkpt>
      <trkpt lat="45.44178" lon="5.57349">
        <ele>668</ele>
        <time>2025-09-07T11:55:53.588Z</time>
      </trkpt>
      <trkpt lat="45.44164" lon="5.57349">
        <ele>668</ele>
        <time>2025-09-07T11:55:58.062Z</time>
      </trkpt>
      <trkpt lat="45.44161" lon="5.57342">
        <ele>670</ele>
        <time>2025-09-07T11:56:02.644Z</time>
      </trkpt>
      <trkpt lat="45.44159" lon="5.57342">
        <ele>670</ele>
        <time>2025-09-07T11:56:06.971Z</time>
      </trkpt>
      <trkpt lat="45.44157" lon="5.57344">
        <ele>670</ele>
        <time>2025-09-07T11:56:10.971Z</time>
      </trkpt>
      <trkpt lat="45.44156" lon="5.5735">
        <ele>668</ele>
        <time>2025-09-07T11:56:15.971Z</time>
      </trkpt>
      <trkpt lat="45.44156" lon="5.57354">
        <ele>668</ele>
        <time>2025-09-07T11:56:19.971Z</time>
      </trkpt>
      <trkpt lat="45.44156" lon="5.57362">
        <ele>668</ele>
        <time>2025-09-07T11:56:24.971Z</time>
      </trkpt>
      <trkpt lat="45.44154" lon="5.57371">
        <ele>668</ele>
        <time>2025-09-07T11:56:29.971Z</time>
      </trkpt>
      <trkpt lat="45.44153" lon="5.57375">
        <ele>668</ele>
        <time>2025-09-07T11:56:33.971Z</time>
      </trkpt>
      <trkpt lat="45.4415" lon="5.57386">
        <ele>667</ele>
        <time>2025-09-07T11:56:38.971Z</time>
      </trkpt>
      <trkpt lat="45.44148" lon="5.57393">
        <ele>667</ele>
        <time>2025-09-07T11:56:42.971Z</time>
      </trkpt>
      <trkpt lat="45.44144" lon="5.57401">
        <ele>667</ele>
        <time>2025-09-07T11:56:47.971Z</time>
      </trkpt>
      <trkpt lat="45.44141" lon="5.57407">
        <ele>664</ele>
        <time>2025-09-07T11:56:51.971Z</time>
      </trkpt>
      <trkpt lat="45.44139" lon="5.57413">
        <ele>664</ele>
        <time>2025-09-07T11:56:55.971Z</time>
      </trkpt>
      <trkpt lat="45.44137" lon="5.57419">
        <ele>664</ele>
        <time>2025-09-07T11:57:00.971Z</time>
      </trkpt>
      <trkpt lat="45.44134" lon="5.57423">
        <ele>664</ele>
        <time>2025-09-07T11:57:05.971Z</time>
      </trkpt>
      <trkpt lat="45.44133" lon="5.5743">
        <ele>664</ele>
        <time>2025-09-07T11:57:10.971Z</time>
      </trkpt>
      <trkpt lat="45.44132" lon="5.57435">
        <ele>662</ele>
        <time>2025-09-07T11:57:14.971Z</time>
      </trkpt>
      <trkpt lat="45.4413" lon="5.57443">
        <ele>662</ele>
        <time>2025-09-07T11:57:18.971Z</time>
      </trkpt>
      <trkpt lat="45.44128" lon="5.5745">
        <ele>662</ele>
        <time>2025-09-07T11:57:23.971Z</time>
      </trkpt>
      <trkpt lat="45.44125" lon="5.57458">
        <ele>662</ele>
        <time>2025-09-07T11:57:28.971Z</time>
      </trkpt>
      <trkpt lat="45.44123" lon="5.57462">
        <ele>657</ele>
        <time>2025-09-07T11:57:32.971Z</time>
      </trkpt>
      <trkpt lat="45.44119" lon="5.57467">
        <ele>657</ele>
        <time>2025-09-07T11:57:37.971Z</time>
      </trkpt>
      <trkpt lat="45.44118" lon="5.57471">
        <ele>657</ele>
        <time>2025-09-07T11:57:42.971Z</time>
      </trkpt>
      <trkpt lat="45.44121" lon="5.57475">
        <ele>657</ele>
        <time>2025-09-07T11:57:46.971Z</time>
      </trkpt>
      <trkpt lat="45.44126" lon="5.57479">
        <ele>658</ele>
        <time>2025-09-07T11:57:51.971Z</time>
      </trkpt>
      <trkpt lat="45.44128" lon="5.57485">
        <ele>658</ele>
        <time>2025-09-07T11:57:59.971Z</time>
      </trkpt>
      <trkpt lat="45.44126" lon="5.57491">
        <ele>653</ele>
        <time>2025-09-07T11:58:04.971Z</time>
      </trkpt>
      <trkpt lat="45.4412" lon="5.57498">
        <ele>652</ele>
        <time>2025-09-07T11:58:09.971Z</time>
      </trkpt>
      <trkpt lat="45.44116" lon="5.57504">
        <ele>652</ele>
        <time>2025-09-07T11:58:13.971Z</time>
      </trkpt>
      <trkpt lat="45.44112" lon="5.57511">
        <ele>652</ele>
        <time>2025-09-07T11:58:18.558Z</time>
      </trkpt>
      <trkpt lat="45.44109" lon="5.57516">
        <ele>647</ele>
        <time>2025-09-07T11:58:22.773Z</time>
      </trkpt>
      <trkpt lat="45.44109" lon="5.57524">
        <ele>647</ele>
        <time>2025-09-07T11:58:27.107Z</time>
      </trkpt>
      <trkpt lat="45.4411" lon="5.5753">
        <ele>647</ele>
        <time>2025-09-07T11:58:31.909Z</time>
      </trkpt>
      <trkpt lat="45.44111" lon="5.57532">
        <ele>647</ele>
        <time>2025-09-07T11:58:36.782Z</time>
      </trkpt>
      <trkpt lat="45.4411" lon="5.57536">
        <ele>647</ele>
        <time>2025-09-07T11:58:40.930Z</time>
      </trkpt>
      <trkpt lat="45.44107" lon="5.57543">
        <ele>640</ele>
        <time>2025-09-07T11:58:45.057Z</time>
      </trkpt>
      <trkpt lat="45.44105" lon="5.57548">
        <ele>640</ele>
        <time>2025-09-07T11:58:49.075Z</time>
      </trkpt>
      <trkpt lat="45.44106" lon="5.57549">
        <ele>640</ele>
        <time>2025-09-07T11:58:53.597Z</time>
      </trkpt>
      <trkpt lat="45.44104" lon="5.57553">
        <ele>640</ele>
        <time>2025-09-07T11:58:57.897Z</time>
      </trkpt>
      <trkpt lat="45.44101" lon="5.57557">
        <ele>640</ele>
        <time>2025-09-07T11:59:02.740Z</time>
      </trkpt>
      <trkpt lat="45.441" lon="5.57562">
        <ele>640</ele>
        <time>2025-09-07T11:59:07.060Z</time>
      </trkpt>
      <trkpt lat="45.44097" lon="5.57569">
        <ele>642</ele>
        <time>2025-09-07T11:59:11.888Z</time>
      </trkpt>
      <trkpt lat="45.44096" lon="5.57581">
        <ele>637</ele>
        <time>2025-09-07T11:59:20.422Z</time>
      </trkpt>
      <trkpt lat="45.44094" lon="5.57586">
        <ele>637</ele>
        <time>2025-09-07T11:59:24.963Z</time>
      </trkpt>
      <trkpt lat="45.44093" lon="5.57585">
        <ele>637</ele>
        <time>2025-09-07T11:59:29.053Z</time>
      </trkpt>
      <trkpt lat="45.44091" lon="5.57584">
        <ele>637</ele>
        <time>2025-09-07T11:59:33.815Z</time>
      </trkpt>
      <trkpt lat="45.4409" lon="5.57585">
        <ele>637</ele>
        <time>2025-09-07T11:59:38.654Z</time>
      </trkpt>
      <trkpt lat="45.44086" lon="5.57601">
        <ele>635</ele>
        <time>2025-09-07T12:00:52.971Z</time>
      </trkpt>
      <trkpt lat="45.44082" lon="5.57602">
        <ele>635</ele>
        <time>2025-09-07T12:00:57.971Z</time>
      </trkpt>
      <trkpt lat="45.44077" lon="5.57603">
        <ele>635</ele>
        <time>2025-09-07T12:01:02.971Z</time>
      </trkpt>
      <trkpt lat="45.4408" lon="5.57611">
        <ele>635</ele>
        <time>2025-09-07T12:01:06.971Z</time>
      </trkpt>
      <trkpt lat="45.44088" lon="5.57622">
        <ele>635</ele>
        <time>2025-09-07T12:01:11.971Z</time>
      </trkpt>
      <trkpt lat="45.44097" lon="5.57633">
        <ele>633</ele>
        <time>2025-09-07T12:01:16.971Z</time>
      </trkpt>
      <trkpt lat="45.44107" lon="5.57639">
        <ele>632</ele>
        <time>2025-09-07T12:01:21.628Z</time>
      </trkpt>
      <trkpt lat="45.44118" lon="5.57641">
        <ele>632</ele>
        <time>2025-09-07T12:01:25.939Z</time>
      </trkpt>
      <trkpt lat="45.44126" lon="5.5764">
        <ele>630</ele>
        <time>2025-09-07T12:01:30.072Z</time>
      </trkpt>
      <trkpt lat="45.44136" lon="5.57641">
        <ele>630</ele>
        <time>2025-09-07T12:01:35.108Z</time>
      </trkpt>
      <trkpt lat="45.44149" lon="5.57641">
        <ele>630</ele>
        <time>2025-09-07T12:01:39.356Z</time>
      </trkpt>
      <trkpt lat="45.44165" lon="5.57635">
        <ele>630</ele>
        <time>2025-09-07T12:01:43.935Z</time>
      </trkpt>
      <trkpt lat="45.44178" lon="5.57631">
        <ele>630</ele>
        <time>2025-09-07T12:01:48.451Z</time>
      </trkpt>
      <trkpt lat="45.44192" lon="5.57622">
        <ele>633</ele>
        <time>2025-09-07T12:01:53.093Z</time>
      </trkpt>
      <trkpt lat="45.44204" lon="5.57616">
        <ele>633</ele>
        <time>2025-09-07T12:01:57.534Z</time>
      </trkpt>
      <trkpt lat="45.44226" lon="5.57605">
        <ele>632</ele>
        <time>2025-09-07T12:02:01.755Z</time>
      </trkpt>
      <trkpt lat="45.44237" lon="5.57601">
        <ele>632</ele>
        <time>2025-09-07T12:02:06.268Z</time>
      </trkpt>
      <trkpt lat="45.44246" lon="5.57599">
        <ele>632</ele>
        <time>2025-09-07T12:02:11.015Z</time>
      </trkpt>
      <trkpt lat="45.44252" lon="5.57597">
        <ele>632</ele>
        <time>2025-09-07T12:02:15.476Z</time>
      </trkpt>
      <trkpt lat="45.44259" lon="5.57595">
        <ele>636</ele>
        <time>2025-09-07T12:02:19.916Z</time>
      </trkpt>
      <trkpt lat="45.44266" lon="5.57592">
        <ele>635</ele>
        <time>2025-09-07T12:02:24.497Z</time>
      </trkpt>
      <trkpt lat="45.44271" lon="5.57592">
        <ele>635</ele>
        <time>2025-09-07T12:02:28.970Z</time>
      </trkpt>
      <trkpt lat="45.44279" lon="5.57592">
        <ele>635</ele>
        <time>2025-09-07T12:02:33.970Z</time>
      </trkpt>
      <trkpt lat="45.44286" lon="5.57591">
        <ele>635</ele>
        <time>2025-09-07T12:02:38.970Z</time>
      </trkpt>
      <trkpt lat="45.44296" lon="5.57592">
        <ele>635</ele>
        <time>2025-09-07T12:02:43.970Z</time>
      </trkpt>
      <trkpt lat="45.44304" lon="5.57594">
        <ele>635</ele>
        <time>2025-09-07T12:02:47.970Z</time>
      </trkpt>
      <trkpt lat="45.44311" lon="5.57597">
        <ele>635</ele>
        <time>2025-09-07T12:02:52.970Z</time>
      </trkpt>
      <trkpt lat="45.44316" lon="5.57598">
        <ele>631</ele>
        <time>2025-09-07T12:02:56.970Z</time>
      </trkpt>
      <trkpt lat="45.44325" lon="5.576">
        <ele>628</ele>
        <time>2025-09-07T12:03:01.970Z</time>
      </trkpt>
      <trkpt lat="45.44333" lon="5.57602">
        <ele>628</ele>
        <time>2025-09-07T12:03:06.423Z</time>
      </trkpt>
      <trkpt lat="45.44341" lon="5.57604">
        <ele>628</ele>
        <time>2025-09-07T12:03:10.626Z</time>
      </trkpt>
      <trkpt lat="45.44349" lon="5.57608">
        <ele>623</ele>
        <time>2025-09-07T12:03:14.837Z</time>
      </trkpt>
      <trkpt lat="45.44353" lon="5.57611">
        <ele>623</ele>
        <time>2025-09-07T12:03:19.114Z</time>
      </trkpt>
      <trkpt lat="45.4436" lon="5.57615">
        <ele>623</ele>
        <time>2025-09-07T12:03:23.970Z</time>
      </trkpt>
      <trkpt lat="45.44366" lon="5.57616">
        <ele>623</ele>
        <time>2025-09-07T12:03:27.970Z</time>
      </trkpt>
      <trkpt lat="45.44374" lon="5.57618">
        <ele>623</ele>
        <time>2025-09-07T12:03:32.970Z</time>
      </trkpt>
      <trkpt lat="45.44379" lon="5.5762">
        <ele>622</ele>
        <time>2025-09-07T12:03:36.970Z</time>
      </trkpt>
      <trkpt lat="45.44387" lon="5.57608">
        <ele>622</ele>
        <time>2025-09-07T12:04:05.970Z</time>
      </trkpt>
      <trkpt lat="45.44393" lon="5.5761">
        <ele>622</ele>
        <time>2025-09-07T12:04:18.970Z</time>
      </trkpt>
      <trkpt lat="45.44395" lon="5.57611">
        <ele>622</ele>
        <time>2025-09-07T12:04:24.970Z</time>
      </trkpt>
      <trkpt lat="45.44398" lon="5.57612">
        <ele>622</ele>
        <time>2025-09-07T12:04:28.970Z</time>
      </trkpt>
      <trkpt lat="45.44398" lon="5.57613">
        <ele>622</ele>
        <time>2025-09-07T12:04:33.970Z</time>
      </trkpt>
      <trkpt lat="45.44399" lon="5.57615">
        <ele>622</ele>
        <time>2025-09-07T12:04:37.970Z</time>
      </trkpt>
      <trkpt lat="45.44402" lon="5.57618">
        <ele>622</ele>
        <time>2025-09-07T12:04:42.970Z</time>
      </trkpt>
      <trkpt lat="45.44405" lon="5.57623">
        <ele>623</ele>
        <time>2025-09-07T12:04:47.970Z</time>
      </trkpt>
      <trkpt lat="45.4441" lon="5.57623">
        <ele>623</ele>
        <time>2025-09-07T12:04:52.970Z</time>
      </trkpt>
      <trkpt lat="45.44416" lon="5.57624">
        <ele>623</ele>
        <time>2025-09-07T12:04:56.970Z</time>
      </trkpt>
      <trkpt lat="45.44427" lon="5.57627">
        <ele>619</ele>
        <time>2025-09-07T12:05:01.970Z</time>
      </trkpt>
      <trkpt lat="45.44434" lon="5.5763">
        <ele>618</ele>
        <time>2025-09-07T12:05:06.970Z</time>
      </trkpt>
      <trkpt lat="45.44439" lon="5.57633">
        <ele>618</ele>
        <time>2025-09-07T12:05:10.970Z</time>
      </trkpt>
      <trkpt lat="45.44441" lon="5.57641">
        <ele>618</ele>
        <time>2025-09-07T12:05:14.970Z</time>
      </trkpt>
      <trkpt lat="45.44446" lon="5.57647">
        <ele>618</ele>
        <time>2025-09-07T12:05:19.970Z</time>
      </trkpt>
      <trkpt lat="45.44453" lon="5.57655">
        <ele>614</ele>
        <time>2025-09-07T12:05:24.970Z</time>
      </trkpt>
      <trkpt lat="45.4446" lon="5.57659">
        <ele>616</ele>
        <time>2025-09-07T12:05:29.970Z</time>
      </trkpt>
      <trkpt lat="45.44466" lon="5.57663">
        <ele>616</ele>
        <time>2025-09-07T12:05:34.443Z</time>
      </trkpt>
      <trkpt lat="45.44473" lon="5.57666">
        <ele>616</ele>
        <time>2025-09-07T12:05:38.657Z</time>
      </trkpt>
      <trkpt lat="45.4448" lon="5.57669">
        <ele>616</ele>
        <time>2025-09-07T12:05:43.015Z</time>
      </trkpt>
      <trkpt lat="45.44486" lon="5.57672">
        <ele>616</ele>
        <time>2025-09-07T12:05:47.076Z</time>
      </trkpt>
      <trkpt lat="45.44491" lon="5.57678">
        <ele>618</ele>
        <time>2025-09-07T12:05:52.058Z</time>
      </trkpt>
      <trkpt lat="45.44495" lon="5.57685">
        <ele>614</ele>
        <time>2025-09-07T12:05:56.783Z</time>
      </trkpt>
      <trkpt lat="45.44499" lon="5.57694">
        <ele>614</ele>
        <time>2025-09-07T12:06:00.999Z</time>
      </trkpt>
      <trkpt lat="45.44503" lon="5.577">
        <ele>614</ele>
        <time>2025-09-07T12:06:05.433Z</time>
      </trkpt>
      <trkpt lat="45.44509" lon="5.57704">
        <ele>614</ele>
        <time>2025-09-07T12:06:10.043Z</time>
      </trkpt>
      <trkpt lat="45.44516" lon="5.57711">
        <ele>613</ele>
        <time>2025-09-07T12:06:14.670Z</time>
      </trkpt>
      <trkpt lat="45.44521" lon="5.5772">
        <ele>613</ele>
        <time>2025-09-07T12:06:19.087Z</time>
      </trkpt>
      <trkpt lat="45.44525" lon="5.57724">
        <ele>613</ele>
        <time>2025-09-07T12:06:23.311Z</time>
      </trkpt>
      <trkpt lat="45.44532" lon="5.57726">
        <ele>613</ele>
        <time>2025-09-07T12:06:27.970Z</time>
      </trkpt>
      <trkpt lat="45.44539" lon="5.57728">
        <ele>613</ele>
        <time>2025-09-07T12:06:32.970Z</time>
      </trkpt>
      <trkpt lat="45.44548" lon="5.57734">
        <ele>615</ele>
        <time>2025-09-07T12:06:36.970Z</time>
      </trkpt>
      <trkpt lat="45.44553" lon="5.57739">
        <ele>610</ele>
        <time>2025-09-07T12:06:40.970Z</time>
      </trkpt>
      <trkpt lat="45.44559" lon="5.57747">
        <ele>610</ele>
        <time>2025-09-07T12:06:45.970Z</time>
      </trkpt>
      <trkpt lat="45.44565" lon="5.57753">
        <ele>610</ele>
        <time>2025-09-07T12:06:49.970Z</time>
      </trkpt>
      <trkpt lat="45.44569" lon="5.57762">
        <ele>610</ele>
        <time>2025-09-07T12:06:54.970Z</time>
      </trkpt>
      <trkpt lat="45.44574" lon="5.57767">
        <ele>607</ele>
        <time>2025-09-07T12:06:59.066Z</time>
      </trkpt>
      <trkpt lat="45.44578" lon="5.57773">
        <ele>607</ele>
        <time>2025-09-07T12:07:03.588Z</time>
      </trkpt>
      <trkpt lat="45.44584" lon="5.57779">
        <ele>607</ele>
        <time>2025-09-07T12:07:07.970Z</time>
      </trkpt>
      <trkpt lat="45.44592" lon="5.57787">
        <ele>607</ele>
        <time>2025-09-07T12:07:12.970Z</time>
      </trkpt>
      <trkpt lat="45.44598" lon="5.5779">
        <ele>608</ele>
        <time>2025-09-07T12:07:17.970Z</time>
      </trkpt>
      <trkpt lat="45.44604" lon="5.57792">
        <ele>601</ele>
        <time>2025-09-07T12:07:23.115Z</time>
      </trkpt>
      <trkpt lat="45.44607" lon="5.57794">
        <ele>601</ele>
        <time>2025-09-07T12:07:27.677Z</time>
      </trkpt>
      <trkpt lat="45.44611" lon="5.57798">
        <ele>601</ele>
        <time>2025-09-07T12:07:32.456Z</time>
      </trkpt>
      <trkpt lat="45.44617" lon="5.57802">
        <ele>601</ele>
        <time>2025-09-07T12:07:36.970Z</time>
      </trkpt>
      <trkpt lat="45.44617" lon="5.57807">
        <ele>601</ele>
        <time>2025-09-07T12:07:41.970Z</time>
      </trkpt>
      <trkpt lat="45.44619" lon="5.57812">
        <ele>601</ele>
        <time>2025-09-07T12:07:46.970Z</time>
      </trkpt>
      <trkpt lat="45.44624" lon="5.57817">
        <ele>601</ele>
        <time>2025-09-07T12:07:51.970Z</time>
      </trkpt>
      <trkpt lat="45.44628" lon="5.57822">
        <ele>595</ele>
        <time>2025-09-07T12:07:55.970Z</time>
      </trkpt>
      <trkpt lat="45.44632" lon="5.57827">
        <ele>595</ele>
        <time>2025-09-07T12:07:59.970Z</time>
      </trkpt>
      <trkpt lat="45.44636" lon="5.57837">
        <ele>595</ele>
        <time>2025-09-07T12:08:04.970Z</time>
      </trkpt>
      <trkpt lat="45.4464" lon="5.57843">
        <ele>595</ele>
        <time>2025-09-07T12:08:08.970Z</time>
      </trkpt>
      <trkpt lat="45.44646" lon="5.57849">
        <ele>586</ele>
        <time>2025-09-07T12:08:13.970Z</time>
      </trkpt>
      <trkpt lat="45.44654" lon="5.57851">
        <ele>584</ele>
        <time>2025-09-07T12:08:17.970Z</time>
      </trkpt>
      <trkpt lat="45.44663" lon="5.57853">
        <ele>584</ele>
        <time>2025-09-07T12:08:22.970Z</time>
      </trkpt>
      <trkpt lat="45.44668" lon="5.57857">
        <ele>584</ele>
        <time>2025-09-07T12:08:27.039Z</time>
      </trkpt>
      <trkpt lat="45.44674" lon="5.5786">
        <ele>584</ele>
        <time>2025-09-07T12:08:31.416Z</time>
      </trkpt>
      <trkpt lat="45.44678" lon="5.57865">
        <ele>584</ele>
        <time>2025-09-07T12:08:35.618Z</time>
      </trkpt>
      <trkpt lat="45.4468" lon="5.57874">
        <ele>584</ele>
        <time>2025-09-07T12:08:39.956Z</time>
      </trkpt>
      <trkpt lat="45.44682" lon="5.57882">
        <ele>572</ele>
        <time>2025-09-07T12:08:44.099Z</time>
      </trkpt>
      <trkpt lat="45.44687" lon="5.5789">
        <ele>572</ele>
        <time>2025-09-07T12:08:48.699Z</time>
      </trkpt>
      <trkpt lat="45.44692" lon="5.57896">
        <ele>572</ele>
        <time>2025-09-07T12:08:54.098Z</time>
      </trkpt>
      <trkpt lat="45.44698" lon="5.57898">
        <ele>572</ele>
        <time>2025-09-07T12:08:58.076Z</time>
      </trkpt>
      <trkpt lat="45.44707" lon="5.57904">
        <ele>567</ele>
        <time>2025-09-07T12:09:03.009Z</time>
      </trkpt>
      <trkpt lat="45.44715" lon="5.57914">
        <ele>570</ele>
        <time>2025-09-07T12:09:07.654Z</time>
      </trkpt>
      <trkpt lat="45.44723" lon="5.57925">
        <ele>570</ele>
        <time>2025-09-07T12:09:12.053Z</time>
      </trkpt>
      <trkpt lat="45.4473" lon="5.57936">
        <ele>567</ele>
        <time>2025-09-07T12:09:16.554Z</time>
      </trkpt>
      <trkpt lat="45.4473" lon="5.57947">
        <ele>567</ele>
        <time>2025-09-07T12:09:20.650Z</time>
      </trkpt>
      <trkpt lat="45.44729" lon="5.57959">
        <ele>565</ele>
        <time>2025-09-07T12:09:24.917Z</time>
      </trkpt>
      <trkpt lat="45.44729" lon="5.5797">
        <ele>565</ele>
        <time>2025-09-07T12:09:29.273Z</time>
      </trkpt>
      <trkpt lat="45.4473" lon="5.57979">
        <ele>565</ele>
        <time>2025-09-07T12:09:33.324Z</time>
      </trkpt>
      <trkpt lat="45.44731" lon="5.57989">
        <ele>564</ele>
        <time>2025-09-07T12:09:37.970Z</time>
      </trkpt>
      <trkpt lat="45.44734" lon="5.57998">
        <ele>564</ele>
        <time>2025-09-07T12:09:42.970Z</time>
      </trkpt>
      <trkpt lat="45.44739" lon="5.58008">
        <ele>563</ele>
        <time>2025-09-07T12:09:47.970Z</time>
      </trkpt>
      <trkpt lat="45.44746" lon="5.58015">
        <ele>562</ele>
        <time>2025-09-07T12:09:52.970Z</time>
      </trkpt>
      <trkpt lat="45.44752" lon="5.5802">
        <ele>562</ele>
        <time>2025-09-07T12:09:57.970Z</time>
      </trkpt>
      <trkpt lat="45.44756" lon="5.58024">
        <ele>562</ele>
        <time>2025-09-07T12:10:02.970Z</time>
      </trkpt>
      <trkpt lat="45.44758" lon="5.58027">
        <ele>562</ele>
        <time>2025-09-07T12:10:17.970Z</time>
      </trkpt>
      <trkpt lat="45.44759" lon="5.5803">
        <ele>562</ele>
        <time>2025-09-07T12:10:22.970Z</time>
      </trkpt>
      <trkpt lat="45.4476" lon="5.58032">
        <ele>562</ele>
        <time>2025-09-07T12:10:28.970Z</time>
      </trkpt>
      <trkpt lat="45.44762" lon="5.58033">
        <ele>562</ele>
        <time>2025-09-07T12:10:47.970Z</time>
      </trkpt>
      <trkpt lat="45.44767" lon="5.58037">
        <ele>563</ele>
        <time>2025-09-07T12:10:52.970Z</time>
      </trkpt>
      <trkpt lat="45.44769" lon="5.58037">
        <ele>563</ele>
        <time>2025-09-07T12:12:10.970Z</time>
      </trkpt>
      <trkpt lat="45.44771" lon="5.58039">
        <ele>563</ele>
        <time>2025-09-07T12:12:14.970Z</time>
      </trkpt>
      <trkpt lat="45.44773" lon="5.58042">
        <ele>561</ele>
        <time>2025-09-07T12:12:19.970Z</time>
      </trkpt>
      <trkpt lat="45.44774" lon="5.58045">
        <ele>561</ele>
        <time>2025-09-07T12:12:23.970Z</time>
      </trkpt>
      <trkpt lat="45.44775" lon="5.58048">
        <ele>561</ele>
        <time>2025-09-07T12:12:27.970Z</time>
      </trkpt>
      <trkpt lat="45.44779" lon="5.58051">
        <ele>561</ele>
        <time>2025-09-07T12:12:32.970Z</time>
      </trkpt>
      <trkpt lat="45.44783" lon="5.58055">
        <ele>561</ele>
        <time>2025-09-07T12:12:37.970Z</time>
      </trkpt>
      <trkpt lat="45.44788" lon="5.58059">
        <ele>561</ele>
        <time>2025-09-07T12:12:42.970Z</time>
      </trkpt>
      <trkpt lat="45.44794" lon="5.58063">
        <ele>560</ele>
        <time>2025-09-07T12:12:46.970Z</time>
      </trkpt>
      <trkpt lat="45.44798" lon="5.58067">
        <ele>560</ele>
        <time>2025-09-07T12:12:51.970Z</time>
      </trkpt>
      <trkpt lat="45.44804" lon="5.58072">
        <ele>556</ele>
        <time>2025-09-07T12:12:56.970Z</time>
      </trkpt>
      <trkpt lat="45.4481" lon="5.58078">
        <ele>556</ele>
        <time>2025-09-07T12:13:01.970Z</time>
      </trkpt>
      <trkpt lat="45.44814" lon="5.58084">
        <ele>556</ele>
        <time>2025-09-07T12:13:05.970Z</time>
      </trkpt>
      <trkpt lat="45.44819" lon="5.58091">
        <ele>556</ele>
        <time>2025-09-07T12:13:10.970Z</time>
      </trkpt>
      <trkpt lat="45.44825" lon="5.58097">
        <ele>553</ele>
        <time>2025-09-07T12:13:15.970Z</time>
      </trkpt>
      <trkpt lat="45.4483" lon="5.58102">
        <ele>552</ele>
        <time>2025-09-07T12:13:19.970Z</time>
      </trkpt>
      <trkpt lat="45.44836" lon="5.58109">
        <ele>552</ele>
        <time>2025-09-07T12:13:24.970Z</time>
      </trkpt>
      <trkpt lat="45.4484" lon="5.58115">
        <ele>552</ele>
        <time>2025-09-07T12:13:28.970Z</time>
      </trkpt>
      <trkpt lat="45.44846" lon="5.58121">
        <ele>552</ele>
        <time>2025-09-07T12:13:33.970Z</time>
      </trkpt>
      <trkpt lat="45.44852" lon="5.58128">
        <ele>549</ele>
        <time>2025-09-07T12:13:38.970Z</time>
      </trkpt>
      <trkpt lat="45.44858" lon="5.58131">
        <ele>549</ele>
        <time>2025-09-07T12:13:43.970Z</time>
      </trkpt>
      <trkpt lat="45.44865" lon="5.58135">
        <ele>549</ele>
        <time>2025-09-07T12:13:48.970Z</time>
      </trkpt>
      <trkpt lat="45.44871" lon="5.58136">
        <ele>549</ele>
        <time>2025-09-07T12:13:53.970Z</time>
      </trkpt>
      <trkpt lat="45.44876" lon="5.58137">
        <ele>546</ele>
        <time>2025-09-07T12:13:57.970Z</time>
      </trkpt>
      <trkpt lat="45.44882" lon="5.58136">
        <ele>546</ele>
        <time>2025-09-07T12:14:02.970Z</time>
      </trkpt>
      <trkpt lat="45.44888" lon="5.58138">
        <ele>546</ele>
        <time>2025-09-07T12:14:07.970Z</time>
      </trkpt>
      <trkpt lat="45.44895" lon="5.58139">
        <ele>546</ele>
        <time>2025-09-07T12:14:12.970Z</time>
      </trkpt>
      <trkpt lat="45.44901" lon="5.58143">
        <ele>546</ele>
        <time>2025-09-07T12:14:17.970Z</time>
      </trkpt>
      <trkpt lat="45.44908" lon="5.58144">
        <ele>545</ele>
        <time>2025-09-07T12:14:22.970Z</time>
      </trkpt>
      <trkpt lat="45.44914" lon="5.58146">
        <ele>545</ele>
        <time>2025-09-07T12:14:26.970Z</time>
      </trkpt>
      <trkpt lat="45.44923" lon="5.58149">
        <ele>545</ele>
        <time>2025-09-07T12:14:31.969Z</time>
      </trkpt>
      <trkpt lat="45.44929" lon="5.58151">
        <ele>545</ele>
        <time>2025-09-07T12:14:35.969Z</time>
      </trkpt>
      <trkpt lat="45.44936" lon="5.58157">
        <ele>544</ele>
        <time>2025-09-07T12:14:40.969Z</time>
      </trkpt>
      <trkpt lat="45.44941" lon="5.58159">
        <ele>544</ele>
        <time>2025-09-07T12:15:14.969Z</time>
      </trkpt>
      <trkpt lat="45.4494" lon="5.58163">
        <ele>544</ele>
        <time>2025-09-07T12:15:19.969Z</time>
      </trkpt>
      <trkpt lat="45.44941" lon="5.58163">
        <ele>544</ele>
        <time>2025-09-07T12:15:24.969Z</time>
      </trkpt>
      <trkpt lat="45.44944" lon="5.58169">
        <ele>544</ele>
        <time>2025-09-07T12:15:56.969Z</time>
      </trkpt>
      <trkpt lat="45.44948" lon="5.58174">
        <ele>544</ele>
        <time>2025-09-07T12:16:00.969Z</time>
      </trkpt>
      <trkpt lat="45.44954" lon="5.5818">
        <ele>544</ele>
        <time>2025-09-07T12:16:05.969Z</time>
      </trkpt>
      <trkpt lat="45.44961" lon="5.58184">
        <ele>543</ele>
        <time>2025-09-07T12:16:10.969Z</time>
      </trkpt>
      <trkpt lat="45.44968" lon="5.58187">
        <ele>543</ele>
        <time>2025-09-07T12:16:15.969Z</time>
      </trkpt>
      <trkpt lat="45.44973" lon="5.58191">
        <ele>543</ele>
        <time>2025-09-07T12:16:19.969Z</time>
      </trkpt>
      <trkpt lat="45.44981" lon="5.58196">
        <ele>543</ele>
        <time>2025-09-07T12:16:24.969Z</time>
      </trkpt>
      <trkpt lat="45.44989" lon="5.582">
        <ele>545</ele>
        <time>2025-09-07T12:16:29.969Z</time>
      </trkpt>
      <trkpt lat="45.44995" lon="5.58202">
        <ele>545</ele>
        <time>2025-09-07T12:16:34.969Z</time>
      </trkpt>
      <trkpt lat="45.45002" lon="5.58204">
        <ele>545</ele>
        <time>2025-09-07T12:16:38.969Z</time>
      </trkpt>
      <trkpt lat="45.45009" lon="5.58207">
        <ele>545</ele>
        <time>2025-09-07T12:16:43.969Z</time>
      </trkpt>
      <trkpt lat="45.45015" lon="5.58207">
        <ele>546</ele>
        <time>2025-09-07T12:16:47.969Z</time>
      </trkpt>
      <trkpt lat="45.45021" lon="5.58208">
        <ele>546</ele>
        <time>2025-09-07T12:16:52.969Z</time>
      </trkpt>
      <trkpt lat="45.45027" lon="5.58211">
        <ele>544</ele>
        <time>2025-09-07T12:16:56.969Z</time>
      </trkpt>
      <trkpt lat="45.45033" lon="5.58209">
        <ele>544</ele>
        <time>2025-09-07T12:17:00.969Z</time>
      </trkpt>
      <trkpt lat="45.4504" lon="5.58211">
        <ele>544</ele>
        <time>2025-09-07T12:17:05.969Z</time>
      </trkpt>
      <trkpt lat="45.45047" lon="5.58213">
        <ele>542</ele>
        <time>2025-09-07T12:17:10.969Z</time>
      </trkpt>
      <trkpt lat="45.45055" lon="5.58215">
        <ele>542</ele>
        <time>2025-09-07T12:17:15.969Z</time>
      </trkpt>
      <trkpt lat="45.4506" lon="5.58216">
        <ele>542</ele>
        <time>2025-09-07T12:17:19.969Z</time>
      </trkpt>
      <trkpt lat="45.45067" lon="5.58219">
        <ele>542</ele>
        <time>2025-09-07T12:17:23.969Z</time>
      </trkpt>
      <trkpt lat="45.45074" lon="5.58219">
        <ele>539</ele>
        <time>2025-09-07T12:17:28.969Z</time>
      </trkpt>
      <trkpt lat="45.45081" lon="5.58219">
        <ele>539</ele>
        <time>2025-09-07T12:17:33.969Z</time>
      </trkpt>
      <trkpt lat="45.45088" lon="5.58219">
        <ele>539</ele>
        <time>2025-09-07T12:17:38.969Z</time>
      </trkpt>
      <trkpt lat="45.45094" lon="5.58221">
        <ele>539</ele>
        <time>2025-09-07T12:17:43.969Z</time>
      </trkpt>
      <trkpt lat="45.45099" lon="5.58223">
        <ele>538</ele>
        <time>2025-09-07T12:17:47.969Z</time>
      </trkpt>
      <trkpt lat="45.45104" lon="5.58226">
        <ele>538</ele>
        <time>2025-09-07T12:17:52.969Z</time>
      </trkpt>
      <trkpt lat="45.4511" lon="5.58231">
        <ele>538</ele>
        <time>2025-09-07T12:17:56.969Z</time>
      </trkpt>
      <trkpt lat="45.45116" lon="5.58237">
        <ele>535</ele>
        <time>2025-09-07T12:18:01.969Z</time>
      </trkpt>
      <trkpt lat="45.4512" lon="5.58242">
        <ele>535</ele>
        <time>2025-09-07T12:18:05.969Z</time>
      </trkpt>
      <trkpt lat="45.45126" lon="5.58247">
        <ele>537</ele>
        <time>2025-09-07T12:18:10.969Z</time>
      </trkpt>
      <trkpt lat="45.45133" lon="5.58253">
        <ele>537</ele>
        <time>2025-09-07T12:18:15.969Z</time>
      </trkpt>
      <trkpt lat="45.45138" lon="5.58257">
        <ele>537</ele>
        <time>2025-09-07T12:18:19.969Z</time>
      </trkpt>
      <trkpt lat="45.45143" lon="5.58263">
        <ele>537</ele>
        <time>2025-09-07T12:18:24.969Z</time>
      </trkpt>
      <trkpt lat="45.45149" lon="5.58269">
        <ele>533</ele>
        <time>2025-09-07T12:18:28.969Z</time>
      </trkpt>
      <trkpt lat="45.45154" lon="5.58272">
        <ele>533</ele>
        <time>2025-09-07T12:18:32.969Z</time>
      </trkpt>
      <trkpt lat="45.4516" lon="5.58276">
        <ele>533</ele>
        <time>2025-09-07T12:18:37.969Z</time>
      </trkpt>
      <trkpt lat="45.45167" lon="5.58279">
        <ele>533</ele>
        <time>2025-09-07T12:18:42.969Z</time>
      </trkpt>
      <trkpt lat="45.45173" lon="5.58279">
        <ele>533</ele>
        <time>2025-09-07T12:18:46.969Z</time>
      </trkpt>
      <trkpt lat="45.4518" lon="5.58281">
        <ele>533</ele>
        <time>2025-09-07T12:18:50.969Z</time>
      </trkpt>
      <trkpt lat="45.45187" lon="5.5828">
        <ele>532</ele>
        <time>2025-09-07T12:18:55.969Z</time>
      </trkpt>
      <trkpt lat="45.45191" lon="5.58283">
        <ele>532</ele>
        <time>2025-09-07T12:18:59.969Z</time>
      </trkpt>
      <trkpt lat="45.45197" lon="5.58286">
        <ele>532</ele>
        <time>2025-09-07T12:19:04.969Z</time>
      </trkpt>
      <trkpt lat="45.45202" lon="5.58289">
        <ele>532</ele>
        <time>2025-09-07T12:19:08.969Z</time>
      </trkpt>
      <trkpt lat="45.45208" lon="5.58293">
        <ele>528</ele>
        <time>2025-09-07T12:19:13.969Z</time>
      </trkpt>
      <trkpt lat="45.45208" lon="5.58293">
        <ele>528</ele>
        <time>2025-09-07T12:19:18.969Z</time>
      </trkpt>
      <trkpt lat="45.4521" lon="5.58294">
        <ele>528</ele>
        <time>2025-09-07T12:19:23.969Z</time>
      </trkpt>
      <trkpt lat="45.45219" lon="5.58296">
        <ele>528</ele>
        <time>2025-09-07T12:19:28.969Z</time>
      </trkpt>
      <trkpt lat="45.45227" lon="5.58298">
        <ele>528</ele>
        <time>2025-09-07T12:19:32.969Z</time>
      </trkpt>
      <trkpt lat="45.45233" lon="5.58298">
        <ele>528</ele>
        <time>2025-09-07T12:19:37.969Z</time>
      </trkpt>
      <trkpt lat="45.45238" lon="5.58299">
        <ele>527</ele>
        <time>2025-09-07T12:19:41.969Z</time>
      </trkpt>
      <trkpt lat="45.45246" lon="5.58302">
        <ele>527</ele>
        <time>2025-09-07T12:19:46.969Z</time>
      </trkpt>
      <trkpt lat="45.45252" lon="5.58303">
        <ele>527</ele>
        <time>2025-09-07T12:19:51.969Z</time>
      </trkpt>
      <trkpt lat="45.4526" lon="5.58306">
        <ele>527</ele>
        <time>2025-09-07T12:19:56.969Z</time>
      </trkpt>
      <trkpt lat="45.45268" lon="5.58311">
        <ele>527</ele>
        <time>2025-09-07T12:20:01.969Z</time>
      </trkpt>
      <trkpt lat="45.45275" lon="5.58316">
        <ele>527</ele>
        <time>2025-09-07T12:20:06.969Z</time>
      </trkpt>
      <trkpt lat="45.45281" lon="5.58318">
        <ele>527</ele>
        <time>2025-09-07T12:20:11.969Z</time>
      </trkpt>
      <trkpt lat="45.45287" lon="5.58322">
        <ele>527</ele>
        <time>2025-09-07T12:20:15.969Z</time>
      </trkpt>
      <trkpt lat="45.45292" lon="5.58326">
        <ele>526</ele>
        <time>2025-09-07T12:20:20.104Z</time>
      </trkpt>
      <trkpt lat="45.45299" lon="5.58328">
        <ele>526</ele>
        <time>2025-09-07T12:20:24.409Z</time>
      </trkpt>
      <trkpt lat="45.45305" lon="5.58332">
        <ele>526</ele>
        <time>2025-09-07T12:20:28.557Z</time>
      </trkpt>
      <trkpt lat="45.45311" lon="5.58336">
        <ele>526</ele>
        <time>2025-09-07T12:20:32.691Z</time>
      </trkpt>
      <trkpt lat="45.45316" lon="5.58339">
        <ele>526</ele>
        <time>2025-09-07T12:20:36.838Z</time>
      </trkpt>
      <trkpt lat="45.45322" lon="5.58344">
        <ele>529</ele>
        <time>2025-09-07T12:20:41.286Z</time>
      </trkpt>
      <trkpt lat="45.45326" lon="5.58349">
        <ele>525</ele>
        <time>2025-09-07T12:20:45.464Z</time>
      </trkpt>
      <trkpt lat="45.45333" lon="5.58354">
        <ele>525</ele>
        <time>2025-09-07T12:20:49.722Z</time>
      </trkpt>
      <trkpt lat="45.45338" lon="5.58357">
        <ele>525</ele>
        <time>2025-09-07T12:20:53.944Z</time>
      </trkpt>
      <trkpt lat="45.45345" lon="5.5836">
        <ele>525</ele>
        <time>2025-09-07T12:20:58.156Z</time>
      </trkpt>
      <trkpt lat="45.45351" lon="5.58364">
        <ele>529</ele>
        <time>2025-09-07T12:21:02.410Z</time>
      </trkpt>
      <trkpt lat="45.45357" lon="5.58368">
        <ele>529</ele>
        <time>2025-09-07T12:21:06.549Z</time>
      </trkpt>
      <trkpt lat="45.45361" lon="5.58371">
        <ele>529</ele>
        <time>2025-09-07T12:21:10.604Z</time>
      </trkpt>
      <trkpt lat="45.45366" lon="5.58376">
        <ele>525</ele>
        <time>2025-09-07T12:21:14.616Z</time>
      </trkpt>
      <trkpt lat="45.45372" lon="5.58381">
        <ele>525</ele>
        <time>2025-09-07T12:21:18.689Z</time>
      </trkpt>
      <trkpt lat="45.45379" lon="5.58384">
        <ele>530</ele>
        <time>2025-09-07T12:21:22.874Z</time>
      </trkpt>
      <trkpt lat="45.45385" lon="5.58386">
        <ele>530</ele>
        <time>2025-09-07T12:21:27.037Z</time>
      </trkpt>
      <trkpt lat="45.45391" lon="5.58389">
        <ele>530</ele>
        <time>2025-09-07T12:21:31.188Z</time>
      </trkpt>
      <trkpt lat="45.45397" lon="5.58393">
        <ele>530</ele>
        <time>2025-09-07T12:21:35.302Z</time>
      </trkpt>
      <trkpt lat="45.45403" lon="5.58397">
        <ele>530</ele>
        <time>2025-09-07T12:21:39.660Z</time>
      </trkpt>
      <trkpt lat="45.45406" lon="5.58402">
        <ele>533</ele>
        <time>2025-09-07T12:21:43.819Z</time>
      </trkpt>
      <trkpt lat="45.45408" lon="5.58407">
        <ele>527</ele>
        <time>2025-09-07T12:21:48.722Z</time>
      </trkpt>
      <trkpt lat="45.45411" lon="5.58412">
        <ele>527</ele>
        <time>2025-09-07T12:21:53.143Z</time>
      </trkpt>
      <trkpt lat="45.45416" lon="5.58415">
        <ele>527</ele>
        <time>2025-09-07T12:21:57.478Z</time>
      </trkpt>
      <trkpt lat="45.45422" lon="5.58419">
        <ele>527</ele>
        <time>2025-09-07T12:22:01.969Z</time>
      </trkpt>
      <trkpt lat="45.45428" lon="5.58422">
        <ele>527</ele>
        <time>2025-09-07T12:22:06.969Z</time>
      </trkpt>
      <trkpt lat="45.45435" lon="5.58425">
        <ele>525</ele>
        <time>2025-09-07T12:22:11.969Z</time>
      </trkpt>
      <trkpt lat="45.4544" lon="5.58431">
        <ele>521</ele>
        <time>2025-09-07T12:22:16.969Z</time>
      </trkpt>
      <trkpt lat="45.45447" lon="5.58434">
        <ele>521</ele>
        <time>2025-09-07T12:22:21.969Z</time>
      </trkpt>
      <trkpt lat="45.45454" lon="5.58438">
        <ele>521</ele>
        <time>2025-09-07T12:22:26.969Z</time>
      </trkpt>
      <trkpt lat="45.4546" lon="5.58441">
        <ele>522</ele>
        <time>2025-09-07T12:22:30.969Z</time>
      </trkpt>
      <trkpt lat="45.45466" lon="5.58445">
        <ele>522</ele>
        <time>2025-09-07T12:22:35.969Z</time>
      </trkpt>
      <trkpt lat="45.45471" lon="5.58447">
        <ele>522</ele>
        <time>2025-09-07T12:22:39.969Z</time>
      </trkpt>
      <trkpt lat="45.45478" lon="5.58447">
        <ele>522</ele>
        <time>2025-09-07T12:22:44.969Z</time>
      </trkpt>
      <trkpt lat="45.45483" lon="5.5845">
        <ele>522</ele>
        <time>2025-09-07T12:22:48.969Z</time>
      </trkpt>
      <trkpt lat="45.45489" lon="5.58453">
        <ele>523</ele>
        <time>2025-09-07T12:22:53.969Z</time>
      </trkpt>
      <trkpt lat="45.45493" lon="5.58454">
        <ele>523</ele>
        <time>2025-09-07T12:22:57.969Z</time>
      </trkpt>
      <trkpt lat="45.45501" lon="5.58458">
        <ele>523</ele>
        <time>2025-09-07T12:23:02.969Z</time>
      </trkpt>
      <trkpt lat="45.45507" lon="5.58462">
        <ele>520</ele>
        <time>2025-09-07T12:23:06.969Z</time>
      </trkpt>
      <trkpt lat="45.45512" lon="5.58468">
        <ele>520</ele>
        <time>2025-09-07T12:23:11.969Z</time>
      </trkpt>
      <trkpt lat="45.45519" lon="5.58471">
        <ele>521</ele>
        <time>2025-09-07T12:23:16.969Z</time>
      </trkpt>
      <trkpt lat="45.45526" lon="5.58474">
        <ele>521</ele>
        <time>2025-09-07T12:23:21.969Z</time>
      </trkpt>
      <trkpt lat="45.45533" lon="5.58478">
        <ele>521</ele>
        <time>2025-09-07T12:23:26.969Z</time>
      </trkpt>
      <trkpt lat="45.45539" lon="5.58484">
        <ele>521</ele>
        <time>2025-09-07T12:23:31.969Z</time>
      </trkpt>
      <trkpt lat="45.45546" lon="5.58489">
        <ele>522</ele>
        <time>2025-09-07T12:23:36.969Z</time>
      </trkpt>
      <trkpt lat="45.45553" lon="5.58494">
        <ele>522</ele>
        <time>2025-09-07T12:23:41.969Z</time>
      </trkpt>
      <trkpt lat="45.4556" lon="5.585">
        <ele>522</ele>
        <time>2025-09-07T12:23:46.977Z</time>
      </trkpt>
      <trkpt lat="45.45565" lon="5.58506">
        <ele>522</ele>
        <time>2025-09-07T12:23:51.087Z</time>
      </trkpt>
      <trkpt lat="45.4557" lon="5.58512">
        <ele>524</ele>
        <time>2025-09-07T12:23:55.137Z</time>
      </trkpt>
      <trkpt lat="45.45576" lon="5.58517">
        <ele>522</ele>
        <time>2025-09-07T12:23:59.236Z</time>
      </trkpt>
      <trkpt lat="45.45581" lon="5.5852">
        <ele>522</ele>
        <time>2025-09-07T12:24:03.337Z</time>
      </trkpt>
      <trkpt lat="45.45586" lon="5.58524">
        <ele>522</ele>
        <time>2025-09-07T12:24:07.397Z</time>
      </trkpt>
      <trkpt lat="45.45591" lon="5.58529">
        <ele>522</ele>
        <time>2025-09-07T12:24:11.497Z</time>
      </trkpt>
      <trkpt lat="45.45596" lon="5.58535">
        <ele>522</ele>
        <time>2025-09-07T12:24:15.936Z</time>
      </trkpt>
      <trkpt lat="45.45602" lon="5.5854">
        <ele>524</ele>
        <time>2025-09-07T12:24:19.987Z</time>
      </trkpt>
      <trkpt lat="45.45607" lon="5.58544">
        <ele>522</ele>
        <time>2025-09-07T12:24:24.510Z</time>
      </trkpt>
      <trkpt lat="45.45612" lon="5.58548">
        <ele>522</ele>
        <time>2025-09-07T12:24:28.587Z</time>
      </trkpt>
      <trkpt lat="45.45616" lon="5.58553">
        <ele>522</ele>
        <time>2025-09-07T12:24:32.692Z</time>
      </trkpt>
      <trkpt lat="45.45621" lon="5.58559">
        <ele>522</ele>
        <time>2025-09-07T12:24:36.918Z</time>
      </trkpt>
      <trkpt lat="45.45626" lon="5.58564">
        <ele>523</ele>
        <time>2025-09-07T12:24:41.116Z</time>
      </trkpt>
      <trkpt lat="45.4563" lon="5.58571">
        <ele>521</ele>
        <time>2025-09-07T12:24:45.218Z</time>
      </trkpt>
      <trkpt lat="45.45635" lon="5.58577">
        <ele>521</ele>
        <time>2025-09-07T12:24:49.392Z</time>
      </trkpt>
      <trkpt lat="45.45641" lon="5.58584">
        <ele>521</ele>
        <time>2025-09-07T12:24:53.991Z</time>
      </trkpt>
      <trkpt lat="45.45646" lon="5.58591">
        <ele>521</ele>
        <time>2025-09-07T12:24:58.969Z</time>
      </trkpt>
      <trkpt lat="45.45652" lon="5.58597">
        <ele>521</ele>
        <time>2025-09-07T12:25:03.969Z</time>
      </trkpt>
      <trkpt lat="45.45658" lon="5.58604">
        <ele>525</ele>
        <time>2025-09-07T12:25:08.969Z</time>
      </trkpt>
      <trkpt lat="45.45664" lon="5.5861">
        <ele>525</ele>
        <time>2025-09-07T12:25:13.969Z</time>
      </trkpt>
      <trkpt lat="45.45669" lon="5.58617">
        <ele>525</ele>
        <time>2025-09-07T12:25:18.969Z</time>
      </trkpt>
      <trkpt lat="45.45674" lon="5.58623">
        <ele>525</ele>
        <time>2025-09-07T12:25:23.969Z</time>
      </trkpt>
      <trkpt lat="45.4568" lon="5.58632">
        <ele>525</ele>
        <time>2025-09-07T12:25:28.969Z</time>
      </trkpt>
      <trkpt lat="45.45686" lon="5.5864">
        <ele>528</ele>
        <time>2025-09-07T12:25:33.969Z</time>
      </trkpt>
      <trkpt lat="45.45691" lon="5.5865">
        <ele>528</ele>
        <time>2025-09-07T12:25:38.969Z</time>
      </trkpt>
      <trkpt lat="45.45696" lon="5.58657">
        <ele>527</ele>
        <time>2025-09-07T12:25:43.192Z</time>
      </trkpt>
      <trkpt lat="45.457" lon="5.58664">
        <ele>527</ele>
        <time>2025-09-07T12:25:47.237Z</time>
      </trkpt>
      <trkpt lat="45.45705" lon="5.58671">
        <ele>527</ele>
        <time>2025-09-07T12:25:51.836Z</time>
      </trkpt>
      <trkpt lat="45.45709" lon="5.58676">
        <ele>528</ele>
        <time>2025-09-07T12:25:55.921Z</time>
      </trkpt>
      <trkpt lat="45.45714" lon="5.58677">
        <ele>528</ele>
        <time>2025-09-07T12:26:00.075Z</time>
      </trkpt>
      <trkpt lat="45.45715" lon="5.58677">
        <ele>528</ele>
        <time>2025-09-07T12:26:04.083Z</time>
      </trkpt>
      <trkpt lat="45.45713" lon="5.58676">
        <ele>528</ele>
        <time>2025-09-07T12:26:09.016Z</time>
      </trkpt>
      <trkpt lat="45.45712" lon="5.58677">
        <ele>528</ele>
        <time>2025-09-07T12:26:16.674Z</time>
      </trkpt>
      <trkpt lat="45.45715" lon="5.58682">
        <ele>527</ele>
        <time>2025-09-07T12:26:20.693Z</time>
      </trkpt>
      <trkpt lat="45.4572" lon="5.58689">
        <ele>527</ele>
        <time>2025-09-07T12:26:24.743Z</time>
      </trkpt>
      <trkpt lat="45.45725" lon="5.58693">
        <ele>527</ele>
        <time>2025-09-07T12:26:29.057Z</time>
      </trkpt>
      <trkpt lat="45.45731" lon="5.58698">
        <ele>527</ele>
        <time>2025-09-07T12:26:33.472Z</time>
      </trkpt>
      <trkpt lat="45.45735" lon="5.58704">
        <ele>527</ele>
        <time>2025-09-07T12:26:37.626Z</time>
      </trkpt>
      <trkpt lat="45.45739" lon="5.58709">
        <ele>529</ele>
        <time>2025-09-07T12:26:41.752Z</time>
      </trkpt>
      <trkpt lat="45.45744" lon="5.58714">
        <ele>529</ele>
        <time>2025-09-07T12:26:45.896Z</time>
      </trkpt>
      <trkpt lat="45.45748" lon="5.5872">
        <ele>529</ele>
        <time>2025-09-07T12:26:50.017Z</time>
      </trkpt>
      <trkpt lat="45.45753" lon="5.58727">
        <ele>529</ele>
        <time>2025-09-07T12:26:54.166Z</time>
      </trkpt>
      <trkpt lat="45.45757" lon="5.58733">
        <ele>529</ele>
        <time>2025-09-07T12:26:58.204Z</time>
      </trkpt>
      <trkpt lat="45.45761" lon="5.5874">
        <ele>529</ele>
        <time>2025-09-07T12:27:02.256Z</time>
      </trkpt>
      <trkpt lat="45.45766" lon="5.58748">
        <ele>532</ele>
        <time>2025-09-07T12:27:06.702Z</time>
      </trkpt>
      <trkpt lat="45.4577" lon="5.58754">
        <ele>532</ele>
        <time>2025-09-07T12:27:10.717Z</time>
      </trkpt>
      <trkpt lat="45.45774" lon="5.5876">
        <ele>532</ele>
        <time>2025-09-07T12:27:14.736Z</time>
      </trkpt>
      <trkpt lat="45.45777" lon="5.58768">
        <ele>532</ele>
        <time>2025-09-07T12:27:19.196Z</time>
      </trkpt>
      <trkpt lat="45.4578" lon="5.58775">
        <ele>532</ele>
        <time>2025-09-07T12:27:23.246Z</time>
      </trkpt>
      <trkpt lat="45.45783" lon="5.58782">
        <ele>532</ele>
        <time>2025-09-07T12:27:27.294Z</time>
      </trkpt>
      <trkpt lat="45.45786" lon="5.5879">
        <ele>532</ele>
        <time>2025-09-07T12:27:31.430Z</time>
      </trkpt>
      <trkpt lat="45.45789" lon="5.58799">
        <ele>531</ele>
        <time>2025-09-07T12:27:35.538Z</time>
      </trkpt>
      <trkpt lat="45.45794" lon="5.58807">
        <ele>533</ele>
        <time>2025-09-07T12:27:39.556Z</time>
      </trkpt>
      <trkpt lat="45.458" lon="5.58817">
        <ele>533</ele>
        <time>2025-09-07T12:27:44.968Z</time>
      </trkpt>
      <trkpt lat="45.45807" lon="5.58826">
        <ele>533</ele>
        <time>2025-09-07T12:27:50.968Z</time>
      </trkpt>
      <trkpt lat="45.45815" lon="5.58834">
        <ele>533</ele>
        <time>2025-09-07T12:27:57.016Z</time>
      </trkpt>
      <trkpt lat="45.4582" lon="5.5884">
        <ele>533</ele>
        <time>2025-09-07T12:28:01.043Z</time>
      </trkpt>
      <trkpt lat="45.45825" lon="5.58846">
        <ele>533</ele>
        <time>2025-09-07T12:28:04.968Z</time>
      </trkpt>
      <trkpt lat="45.45829" lon="5.58852">
        <ele>532</ele>
        <time>2025-09-07T12:28:08.968Z</time>
      </trkpt>
      <trkpt lat="45.45833" lon="5.58858">
        <ele>532</ele>
        <time>2025-09-07T12:28:12.968Z</time>
      </trkpt>
      <trkpt lat="45.45839" lon="5.58865">
        <ele>532</ele>
        <time>2025-09-07T12:28:17.968Z</time>
      </trkpt>
      <trkpt lat="45.45843" lon="5.58872">
        <ele>532</ele>
        <time>2025-09-07T12:28:21.968Z</time>
      </trkpt>
      <trkpt lat="45.4585" lon="5.58877">
        <ele>531</ele>
        <time>2025-09-07T12:28:26.968Z</time>
      </trkpt>
      <trkpt lat="45.45854" lon="5.58881">
        <ele>531</ele>
        <time>2025-09-07T12:28:30.968Z</time>
      </trkpt>
      <trkpt lat="45.4586" lon="5.58887">
        <ele>531</ele>
        <time>2025-09-07T12:28:35.579Z</time>
      </trkpt>
      <trkpt lat="45.45865" lon="5.58892">
        <ele>531</ele>
        <time>2025-09-07T12:28:39.677Z</time>
      </trkpt>
      <trkpt lat="45.4587" lon="5.58897">
        <ele>531</ele>
        <time>2025-09-07T12:28:43.737Z</time>
      </trkpt>
      <trkpt lat="45.45875" lon="5.58903">
        <ele>531</ele>
        <time>2025-09-07T12:28:47.834Z</time>
      </trkpt>
      <trkpt lat="45.45879" lon="5.58907">
        <ele>532</ele>
        <time>2025-09-07T12:28:51.968Z</time>
      </trkpt>
      <trkpt lat="45.45885" lon="5.58915">
        <ele>532</ele>
        <time>2025-09-07T12:28:56.968Z</time>
      </trkpt>
      <trkpt lat="45.45891" lon="5.58922">
        <ele>532</ele>
        <time>2025-09-07T12:29:01.686Z</time>
      </trkpt>
      <trkpt lat="45.45896" lon="5.58929">
        <ele>532</ele>
        <time>2025-09-07T12:29:05.715Z</time>
      </trkpt>
      <trkpt lat="45.45899" lon="5.58937">
        <ele>530</ele>
        <time>2025-09-07T12:29:09.803Z</time>
      </trkpt>
      <trkpt lat="45.45903" lon="5.58943">
        <ele>530</ele>
        <time>2025-09-07T12:29:13.844Z</time>
      </trkpt>
      <trkpt lat="45.45906" lon="5.58949">
        <ele>532</ele>
        <time>2025-09-07T12:29:17.862Z</time>
      </trkpt>
      <trkpt lat="45.45911" lon="5.58955">
        <ele>532</ele>
        <time>2025-09-07T12:29:22.318Z</time>
      </trkpt>
      <trkpt lat="45.45916" lon="5.5896">
        <ele>531</ele>
        <time>2025-09-07T12:29:26.394Z</time>
      </trkpt>
      <trkpt lat="45.45921" lon="5.58965">
        <ele>531</ele>
        <time>2025-09-07T12:29:30.412Z</time>
      </trkpt>
      <trkpt lat="45.45926" lon="5.5897">
        <ele>531</ele>
        <time>2025-09-07T12:29:34.535Z</time>
      </trkpt>
      <trkpt lat="45.45932" lon="5.58973">
        <ele>532</ele>
        <time>2025-09-07T12:29:38.634Z</time>
      </trkpt>
      <trkpt lat="45.45936" lon="5.58978">
        <ele>532</ele>
        <time>2025-09-07T12:29:42.717Z</time>
      </trkpt>
      <trkpt lat="45.4594" lon="5.58983">
        <ele>532</ele>
        <time>2025-09-07T12:29:46.837Z</time>
      </trkpt>
      <trkpt lat="45.45945" lon="5.58991">
        <ele>531</ele>
        <time>2025-09-07T12:29:50.919Z</time>
      </trkpt>
      <trkpt lat="45.45951" lon="5.58998">
        <ele>531</ele>
        <time>2025-09-07T12:29:54.936Z</time>
      </trkpt>
      <trkpt lat="45.45957" lon="5.59004">
        <ele>531</ele>
        <time>2025-09-07T12:29:59.026Z</time>
      </trkpt>
      <trkpt lat="45.45963" lon="5.59009">
        <ele>533</ele>
        <time>2025-09-07T12:30:03.597Z</time>
      </trkpt>
      <trkpt lat="45.45968" lon="5.59014">
        <ele>532</ele>
        <time>2025-09-07T12:30:07.677Z</time>
      </trkpt>
      <trkpt lat="45.45973" lon="5.5902">
        <ele>532</ele>
        <time>2025-09-07T12:30:11.776Z</time>
      </trkpt>
      <trkpt lat="45.45977" lon="5.59024">
        <ele>532</ele>
        <time>2025-09-07T12:30:15.887Z</time>
      </trkpt>
      <trkpt lat="45.45983" lon="5.5903">
        <ele>532</ele>
        <time>2025-09-07T12:30:20.036Z</time>
      </trkpt>
      <trkpt lat="45.45988" lon="5.59036">
        <ele>534</ele>
        <time>2025-09-07T12:30:25.028Z</time>
      </trkpt>
      <trkpt lat="45.4599" lon="5.59039">
        <ele>534</ele>
        <time>2025-09-07T12:30:39.467Z</time>
      </trkpt>
      <trkpt lat="45.45995" lon="5.59046">
        <ele>534</ele>
        <time>2025-09-07T12:30:43.733Z</time>
      </trkpt>
      <trkpt lat="45.46001" lon="5.59052">
        <ele>534</ele>
        <time>2025-09-07T12:30:48.304Z</time>
      </trkpt>
      <trkpt lat="45.46005" lon="5.59059">
        <ele>534</ele>
        <time>2025-09-07T12:30:52.411Z</time>
      </trkpt>
      <trkpt lat="45.46009" lon="5.59065">
        <ele>534</ele>
        <time>2025-09-07T12:30:56.529Z</time>
      </trkpt>
      <trkpt lat="45.46014" lon="5.59071">
        <ele>536</ele>
        <time>2025-09-07T12:31:00.609Z</time>
      </trkpt>
      <trkpt lat="45.46019" lon="5.59077">
        <ele>536</ele>
        <time>2025-09-07T12:31:05.137Z</time>
      </trkpt>
      <trkpt lat="45.46024" lon="5.59085">
        <ele>536</ele>
        <time>2025-09-07T12:31:10.044Z</time>
      </trkpt>
      <trkpt lat="45.4603" lon="5.59092">
        <ele>536</ele>
        <time>2025-09-07T12:31:14.168Z</time>
      </trkpt>
      <trkpt lat="45.46034" lon="5.59097">
        <ele>536</ele>
        <time>2025-09-07T12:31:18.228Z</time>
      </trkpt>
      <trkpt lat="45.46038" lon="5.59104">
        <ele>536</ele>
        <time>2025-09-07T12:31:22.231Z</time>
      </trkpt>
      <trkpt lat="45.46043" lon="5.5911">
        <ele>539</ele>
        <time>2025-09-07T12:31:26.849Z</time>
      </trkpt>
      <trkpt lat="45.46047" lon="5.59116">
        <ele>539</ele>
        <time>2025-09-07T12:31:31.011Z</time>
      </trkpt>
      <trkpt lat="45.46053" lon="5.59122">
        <ele>539</ele>
        <time>2025-09-07T12:31:35.520Z</time>
      </trkpt>
      <trkpt lat="45.46057" lon="5.59128">
        <ele>538</ele>
        <time>2025-09-07T12:31:39.753Z</time>
      </trkpt>
      <trkpt lat="45.46062" lon="5.59132">
        <ele>538</ele>
        <time>2025-09-07T12:31:43.968Z</time>
      </trkpt>
      <trkpt lat="45.46069" lon="5.59138">
        <ele>538</ele>
        <time>2025-09-07T12:31:48.968Z</time>
      </trkpt>
      <trkpt lat="45.46074" lon="5.59142">
        <ele>541</ele>
        <time>2025-09-07T12:31:52.968Z</time>
      </trkpt>
      <trkpt lat="45.46081" lon="5.59148">
        <ele>541</ele>
        <time>2025-09-07T12:31:57.968Z</time>
      </trkpt>
      <trkpt lat="45.46088" lon="5.59151">
        <ele>541</ele>
        <time>2025-09-07T12:32:02.968Z</time>
      </trkpt>
      <trkpt lat="45.46094" lon="5.59156">
        <ele>540</ele>
        <time>2025-09-07T12:32:07.877Z</time>
      </trkpt>
      <trkpt lat="45.46099" lon="5.5916">
        <ele>542</ele>
        <time>2025-09-07T12:32:11.897Z</time>
      </trkpt>
      <trkpt lat="45.46106" lon="5.59165">
        <ele>542</ele>
        <time>2025-09-07T12:32:16.290Z</time>
      </trkpt>
      <trkpt lat="45.46112" lon="5.5917">
        <ele>542</ele>
        <time>2025-09-07T12:32:20.867Z</time>
      </trkpt>
      <trkpt lat="45.46115" lon="5.59178">
        <ele>542</ele>
        <time>2025-09-07T12:32:25.064Z</time>
      </trkpt>
      <trkpt lat="45.46119" lon="5.59184">
        <ele>540</ele>
        <time>2025-09-07T12:32:29.080Z</time>
      </trkpt>
      <trkpt lat="45.46124" lon="5.59191">
        <ele>540</ele>
        <time>2025-09-07T12:32:33.712Z</time>
      </trkpt>
      <trkpt lat="45.46128" lon="5.59198">
        <ele>545</ele>
        <time>2025-09-07T12:32:38.037Z</time>
      </trkpt>
      <trkpt lat="45.46133" lon="5.59204">
        <ele>545</ele>
        <time>2025-09-07T12:32:42.057Z</time>
      </trkpt>
      <trkpt lat="45.46137" lon="5.59212">
        <ele>543</ele>
        <time>2025-09-07T12:32:46.666Z</time>
      </trkpt>
      <trkpt lat="45.46141" lon="5.59221">
        <ele>543</ele>
        <time>2025-09-07T12:32:51.074Z</time>
      </trkpt>
      <trkpt lat="45.46145" lon="5.59228">
        <ele>543</ele>
        <time>2025-09-07T12:32:55.277Z</time>
      </trkpt>
      <trkpt lat="45.46149" lon="5.59235">
        <ele>543</ele>
        <time>2025-09-07T12:32:59.364Z</time>
      </trkpt>
      <trkpt lat="45.46154" lon="5.59243">
        <ele>547</ele>
        <time>2025-09-07T12:33:03.994Z</time>
      </trkpt>
      <trkpt lat="45.46159" lon="5.5925">
        <ele>547</ele>
        <time>2025-09-07T12:33:08.016Z</time>
      </trkpt>
      <trkpt lat="45.46163" lon="5.59258">
        <ele>547</ele>
        <time>2025-09-07T12:33:13.005Z</time>
      </trkpt>
      <trkpt lat="45.46167" lon="5.59265">
        <ele>543</ele>
        <time>2025-09-07T12:33:17.052Z</time>
      </trkpt>
      <trkpt lat="45.4617" lon="5.59274">
        <ele>543</ele>
        <time>2025-09-07T12:33:21.074Z</time>
      </trkpt>
      <trkpt lat="45.46174" lon="5.59281">
        <ele>543</ele>
        <time>2025-09-07T12:33:25.104Z</time>
      </trkpt>
      <trkpt lat="45.46178" lon="5.59287">
        <ele>543</ele>
        <time>2025-09-07T12:33:29.102Z</time>
      </trkpt>
      <trkpt lat="45.46183" lon="5.59294">
        <ele>547</ele>
        <time>2025-09-07T12:33:33.169Z</time>
      </trkpt>
      <trkpt lat="45.46188" lon="5.59301">
        <ele>547</ele>
        <time>2025-09-07T12:33:38.126Z</time>
      </trkpt>
      <trkpt lat="45.46193" lon="5.59308">
        <ele>547</ele>
        <time>2025-09-07T12:33:42.208Z</time>
      </trkpt>
      <trkpt lat="45.46196" lon="5.59316">
        <ele>547</ele>
        <time>2025-09-07T12:33:46.674Z</time>
      </trkpt>
      <trkpt lat="45.462" lon="5.59323">
        <ele>545</ele>
        <time>2025-09-07T12:33:50.714Z</time>
      </trkpt>
      <trkpt lat="45.46204" lon="5.59329">
        <ele>545</ele>
        <time>2025-09-07T12:33:55.209Z</time>
      </trkpt>
      <trkpt lat="45.46209" lon="5.59336">
        <ele>550</ele>
        <time>2025-09-07T12:33:59.264Z</time>
      </trkpt>
      <trkpt lat="45.46213" lon="5.59343">
        <ele>550</ele>
        <time>2025-09-07T12:34:03.672Z</time>
      </trkpt>
      <trkpt lat="45.46218" lon="5.5935">
        <ele>546</ele>
        <time>2025-09-07T12:34:08.055Z</time>
      </trkpt>
      <trkpt lat="45.46223" lon="5.59358">
        <ele>546</ele>
        <time>2025-09-07T12:34:12.676Z</time>
      </trkpt>
      <trkpt lat="45.46228" lon="5.59366">
        <ele>546</ele>
        <time>2025-09-07T12:34:16.968Z</time>
      </trkpt>
      <trkpt lat="45.46231" lon="5.59375">
        <ele>542</ele>
        <time>2025-09-07T12:34:21.968Z</time>
      </trkpt>
      <trkpt lat="45.46234" lon="5.5938">
        <ele>542</ele>
        <time>2025-09-07T12:34:25.968Z</time>
      </trkpt>
      <trkpt lat="45.46238" lon="5.59387">
        <ele>546</ele>
        <time>2025-09-07T12:34:30.968Z</time>
      </trkpt>
      <trkpt lat="45.46242" lon="5.59394">
        <ele>546</ele>
        <time>2025-09-07T12:34:34.968Z</time>
      </trkpt>
      <trkpt lat="45.46247" lon="5.59402">
        <ele>546</ele>
        <time>2025-09-07T12:34:39.968Z</time>
      </trkpt>
      <trkpt lat="45.46251" lon="5.5941">
        <ele>544</ele>
        <time>2025-09-07T12:34:43.968Z</time>
      </trkpt>
      <trkpt lat="45.46256" lon="5.59418">
        <ele>544</ele>
        <time>2025-09-07T12:34:48.968Z</time>
      </trkpt>
      <trkpt lat="45.4626" lon="5.59424">
        <ele>544</ele>
        <time>2025-09-07T12:34:52.968Z</time>
      </trkpt>
      <trkpt lat="45.46265" lon="5.59433">
        <ele>547</ele>
        <time>2025-09-07T12:34:57.968Z</time>
      </trkpt>
      <trkpt lat="45.46271" lon="5.59442">
        <ele>547</ele>
        <time>2025-09-07T12:35:02.968Z</time>
      </trkpt>
      <trkpt lat="45.46276" lon="5.59449">
        <ele>547</ele>
        <time>2025-09-07T12:35:07.968Z</time>
      </trkpt>
      <trkpt lat="45.4628" lon="5.59455">
        <ele>547</ele>
        <time>2025-09-07T12:35:11.968Z</time>
      </trkpt>
      <trkpt lat="45.46286" lon="5.59462">
        <ele>543</ele>
        <time>2025-09-07T12:35:16.968Z</time>
      </trkpt>
      <trkpt lat="45.4629" lon="5.59471">
        <ele>543</ele>
        <time>2025-09-07T12:35:20.968Z</time>
      </trkpt>
      <trkpt lat="45.46296" lon="5.59477">
        <ele>547</ele>
        <time>2025-09-07T12:35:25.968Z</time>
      </trkpt>
      <trkpt lat="45.46301" lon="5.59485">
        <ele>547</ele>
        <time>2025-09-07T12:35:30.968Z</time>
      </trkpt>
      <trkpt lat="45.46305" lon="5.59491">
        <ele>543</ele>
        <time>2025-09-07T12:35:34.968Z</time>
      </trkpt>
      <trkpt lat="45.46309" lon="5.59496">
        <ele>543</ele>
        <time>2025-09-07T12:35:38.968Z</time>
      </trkpt>
      <trkpt lat="45.46314" lon="5.59502">
        <ele>543</ele>
        <time>2025-09-07T12:35:43.968Z</time>
      </trkpt>
      <trkpt lat="45.4632" lon="5.5951">
        <ele>547</ele>
        <time>2025-09-07T12:35:48.968Z</time>
      </trkpt>
      <trkpt lat="45.46325" lon="5.5952">
        <ele>545</ele>
        <time>2025-09-07T12:35:53.967Z</time>
      </trkpt>
      <trkpt lat="45.46329" lon="5.59529">
        <ele>545</ele>
        <time>2025-09-07T12:35:57.967Z</time>
      </trkpt>
      <trkpt lat="45.46334" lon="5.59536">
        <ele>545</ele>
        <time>2025-09-07T12:36:02.803Z</time>
      </trkpt>
      <trkpt lat="45.46337" lon="5.59542">
        <ele>543</ele>
        <time>2025-09-07T12:36:07.072Z</time>
      </trkpt>
      <trkpt lat="45.46342" lon="5.59549">
        <ele>543</ele>
        <time>2025-09-07T12:36:11.597Z</time>
      </trkpt>
      <trkpt lat="45.46347" lon="5.59556">
        <ele>543</ele>
        <time>2025-09-07T12:36:15.716Z</time>
      </trkpt>
      <trkpt lat="45.46352" lon="5.59561">
        <ele>549</ele>
        <time>2025-09-07T12:36:19.776Z</time>
      </trkpt>
      <trkpt lat="45.46356" lon="5.59568">
        <ele>549</ele>
        <time>2025-09-07T12:36:23.803Z</time>
      </trkpt>
      <trkpt lat="45.46361" lon="5.59575">
        <ele>547</ele>
        <time>2025-09-07T12:36:28.211Z</time>
      </trkpt>
      <trkpt lat="45.46366" lon="5.5958">
        <ele>547</ele>
        <time>2025-09-07T12:36:32.248Z</time>
      </trkpt>
      <trkpt lat="45.46371" lon="5.59587">
        <ele>547</ele>
        <time>2025-09-07T12:36:36.836Z</time>
      </trkpt>
      <trkpt lat="45.46375" lon="5.59593">
        <ele>550</ele>
        <time>2025-09-07T12:36:40.850Z</time>
      </trkpt>
      <trkpt lat="45.4638" lon="5.59601">
        <ele>549</ele>
        <time>2025-09-07T12:36:45.809Z</time>
      </trkpt>
      <trkpt lat="45.46384" lon="5.59605">
        <ele>549</ele>
        <time>2025-09-07T12:36:50.239Z</time>
      </trkpt>
      <trkpt lat="45.46387" lon="5.59613">
        <ele>549</ele>
        <time>2025-09-07T12:36:54.967Z</time>
      </trkpt>
      <trkpt lat="45.4639" lon="5.5962">
        <ele>549</ele>
        <time>2025-09-07T12:36:58.967Z</time>
      </trkpt>
      <trkpt lat="45.46393" lon="5.5963">
        <ele>546</ele>
        <time>2025-09-07T12:37:03.967Z</time>
      </trkpt>
      <trkpt lat="45.46397" lon="5.5964">
        <ele>546</ele>
        <time>2025-09-07T12:37:08.967Z</time>
      </trkpt>
      <trkpt lat="45.46399" lon="5.59649">
        <ele>546</ele>
        <time>2025-09-07T12:37:12.967Z</time>
      </trkpt>
      <trkpt lat="45.46402" lon="5.59658">
        <ele>543</ele>
        <time>2025-09-07T12:37:17.967Z</time>
      </trkpt>
      <trkpt lat="45.46407" lon="5.59665">
        <ele>546</ele>
        <time>2025-09-07T12:37:21.967Z</time>
      </trkpt>
      <trkpt lat="45.46412" lon="5.59674">
        <ele>546</ele>
        <time>2025-09-07T12:37:26.967Z</time>
      </trkpt>
      <trkpt lat="45.46416" lon="5.5968">
        <ele>546</ele>
        <time>2025-09-07T12:37:31.967Z</time>
      </trkpt>
      <trkpt lat="45.46419" lon="5.59686">
        <ele>543</ele>
        <time>2025-09-07T12:37:35.967Z</time>
      </trkpt>
      <trkpt lat="45.46423" lon="5.59693">
        <ele>543</ele>
        <time>2025-09-07T12:37:40.967Z</time>
      </trkpt>
      <trkpt lat="45.46427" lon="5.59704">
        <ele>543</ele>
        <time>2025-09-07T12:37:45.967Z</time>
      </trkpt>
      <trkpt lat="45.46429" lon="5.59712">
        <ele>542</ele>
        <time>2025-09-07T12:37:49.967Z</time>
      </trkpt>
      <trkpt lat="45.46433" lon="5.59721">
        <ele>545</ele>
        <time>2025-09-07T12:37:54.967Z</time>
      </trkpt>
      <trkpt lat="45.46436" lon="5.59729">
        <ele>545</ele>
        <time>2025-09-07T12:37:58.967Z</time>
      </trkpt>
      <trkpt lat="45.46439" lon="5.59739">
        <ele>543</ele>
        <time>2025-09-07T12:38:03.967Z</time>
      </trkpt>
      <trkpt lat="45.46441" lon="5.59746">
        <ele>543</ele>
        <time>2025-09-07T12:38:07.967Z</time>
      </trkpt>
      <trkpt lat="45.46446" lon="5.59755">
        <ele>543</ele>
        <time>2025-09-07T12:38:12.967Z</time>
      </trkpt>
      <trkpt lat="45.46449" lon="5.59766">
        <ele>540</ele>
        <time>2025-09-07T12:38:17.967Z</time>
      </trkpt>
      <trkpt lat="45.46454" lon="5.59775">
        <ele>540</ele>
        <time>2025-09-07T12:38:22.967Z</time>
      </trkpt>
      <trkpt lat="45.46457" lon="5.59784">
        <ele>540</ele>
        <time>2025-09-07T12:38:27.967Z</time>
      </trkpt>
      <trkpt lat="45.4646" lon="5.59794">
        <ele>539</ele>
        <time>2025-09-07T12:38:32.967Z</time>
      </trkpt>
      <trkpt lat="45.46464" lon="5.59804">
        <ele>539</ele>
        <time>2025-09-07T12:38:37.967Z</time>
      </trkpt>
      <trkpt lat="45.46468" lon="5.59814">
        <ele>539</ele>
        <time>2025-09-07T12:38:42.967Z</time>
      </trkpt>
      <trkpt lat="45.46472" lon="5.59824">
        <ele>536</ele>
        <time>2025-09-07T12:38:47.967Z</time>
      </trkpt>
      <trkpt lat="45.46477" lon="5.59833">
        <ele>536</ele>
        <time>2025-09-07T12:38:52.967Z</time>
      </trkpt>
      <trkpt lat="45.46482" lon="5.59841">
        <ele>536</ele>
        <time>2025-09-07T12:38:57.967Z</time>
      </trkpt>
      <trkpt lat="45.46487" lon="5.5985">
        <ele>539</ele>
        <time>2025-09-07T12:39:02.967Z</time>
      </trkpt>
      <trkpt lat="45.4649" lon="5.59858">
        <ele>539</ele>
        <time>2025-09-07T12:39:06.967Z</time>
      </trkpt>
      <trkpt lat="45.46495" lon="5.59867">
        <ele>539</ele>
        <time>2025-09-07T12:39:11.967Z</time>
      </trkpt>
      <trkpt lat="45.46498" lon="5.59877">
        <ele>538</ele>
        <time>2025-09-07T12:39:16.967Z</time>
      </trkpt>
      <trkpt lat="45.46501" lon="5.59885">
        <ele>538</ele>
        <time>2025-09-07T12:39:20.967Z</time>
      </trkpt>
      <trkpt lat="45.46506" lon="5.59895">
        <ele>538</ele>
        <time>2025-09-07T12:39:25.967Z</time>
      </trkpt>
      <trkpt lat="45.46509" lon="5.59903">
        <ele>537</ele>
        <time>2025-09-07T12:39:30.967Z</time>
      </trkpt>
      <trkpt lat="45.46512" lon="5.59912">
        <ele>537</ele>
        <time>2025-09-07T12:39:34.967Z</time>
      </trkpt>
      <trkpt lat="45.46515" lon="5.59922">
        <ele>540</ele>
        <time>2025-09-07T12:39:39.967Z</time>
      </trkpt>
      <trkpt lat="45.46518" lon="5.59931">
        <ele>540</ele>
        <time>2025-09-07T12:39:44.967Z</time>
      </trkpt>
      <trkpt lat="45.46522" lon="5.59941">
        <ele>540</ele>
        <time>2025-09-07T12:39:49.967Z</time>
      </trkpt>
      <trkpt lat="45.46526" lon="5.59951">
        <ele>540</ele>
        <time>2025-09-07T12:39:54.967Z</time>
      </trkpt>
      <trkpt lat="45.46528" lon="5.5996">
        <ele>540</ele>
        <time>2025-09-07T12:39:59.967Z</time>
      </trkpt>
      <trkpt lat="45.46531" lon="5.59968">
        <ele>540</ele>
        <time>2025-09-07T12:40:03.967Z</time>
      </trkpt>
      <trkpt lat="45.46535" lon="5.59979">
        <ele>540</ele>
        <time>2025-09-07T12:40:08.967Z</time>
      </trkpt>
      <trkpt lat="45.46538" lon="5.5999">
        <ele>540</ele>
        <time>2025-09-07T12:40:13.967Z</time>
      </trkpt>
      <trkpt lat="45.46541" lon="5.60001">
        <ele>540</ele>
        <time>2025-09-07T12:40:18.967Z</time>
      </trkpt>
      <trkpt lat="45.46543" lon="5.60011">
        <ele>543</ele>
        <time>2025-09-07T12:40:23.967Z</time>
      </trkpt>
      <trkpt lat="45.46546" lon="5.60019">
        <ele>543</ele>
        <time>2025-09-07T12:40:27.967Z</time>
      </trkpt>
      <trkpt lat="45.46549" lon="5.60028">
        <ele>543</ele>
        <time>2025-09-07T12:40:32.967Z</time>
      </trkpt>
      <trkpt lat="45.46551" lon="5.60036">
        <ele>543</ele>
        <time>2025-09-07T12:40:36.967Z</time>
      </trkpt>
      <trkpt lat="45.46554" lon="5.60044">
        <ele>543</ele>
        <time>2025-09-07T12:40:40.967Z</time>
      </trkpt>
      <trkpt lat="45.46557" lon="5.60054">
        <ele>543</ele>
        <time>2025-09-07T12:40:45.967Z</time>
      </trkpt>
      <trkpt lat="45.4656" lon="5.60062">
        <ele>543</ele>
        <time>2025-09-07T12:40:49.967Z</time>
      </trkpt>
      <trkpt lat="45.46564" lon="5.60073">
        <ele>543</ele>
        <time>2025-09-07T12:40:54.967Z</time>
      </trkpt>
      <trkpt lat="45.46567" lon="5.60082">
        <ele>543</ele>
        <time>2025-09-07T12:40:59.967Z</time>
      </trkpt>
      <trkpt lat="45.46569" lon="5.60093">
        <ele>543</ele>
        <time>2025-09-07T12:41:04.967Z</time>
      </trkpt>
      <trkpt lat="45.4657" lon="5.60103">
        <ele>545</ele>
        <time>2025-09-07T12:41:09.967Z</time>
      </trkpt>
      <trkpt lat="45.46573" lon="5.60113">
        <ele>545</ele>
        <time>2025-09-07T12:41:14.967Z</time>
      </trkpt>
      <trkpt lat="45.46575" lon="5.60122">
        <ele>545</ele>
        <time>2025-09-07T12:41:19.967Z</time>
      </trkpt>
      <trkpt lat="45.46578" lon="5.60128">
        <ele>545</ele>
        <time>2025-09-07T12:41:23.967Z</time>
      </trkpt>
      <trkpt lat="45.4658" lon="5.60139">
        <ele>545</ele>
        <time>2025-09-07T12:41:28.967Z</time>
      </trkpt>
      <trkpt lat="45.46582" lon="5.60149">
        <ele>545</ele>
        <time>2025-09-07T12:41:32.967Z</time>
      </trkpt>
      <trkpt lat="45.46584" lon="5.60161">
        <ele>545</ele>
        <time>2025-09-07T12:41:37.967Z</time>
      </trkpt>
      <trkpt lat="45.46586" lon="5.60169">
        <ele>545</ele>
        <time>2025-09-07T12:41:41.967Z</time>
      </trkpt>
      <trkpt lat="45.46589" lon="5.60179">
        <ele>545</ele>
        <time>2025-09-07T12:41:46.967Z</time>
      </trkpt>
      <trkpt lat="45.46592" lon="5.60188">
        <ele>544</ele>
        <time>2025-09-07T12:41:51.967Z</time>
      </trkpt>
      <trkpt lat="45.46595" lon="5.60197">
        <ele>544</ele>
        <time>2025-09-07T12:41:56.967Z</time>
      </trkpt>
      <trkpt lat="45.46597" lon="5.60205">
        <ele>544</ele>
        <time>2025-09-07T12:42:00.967Z</time>
      </trkpt>
      <trkpt lat="45.466" lon="5.60215">
        <ele>545</ele>
        <time>2025-09-07T12:42:05.967Z</time>
      </trkpt>
      <trkpt lat="45.46601" lon="5.60223">
        <ele>545</ele>
        <time>2025-09-07T12:42:09.967Z</time>
      </trkpt>
      <trkpt lat="45.46603" lon="5.60231">
        <ele>545</ele>
        <time>2025-09-07T12:42:13.967Z</time>
      </trkpt>
      <trkpt lat="45.46604" lon="5.60241">
        <ele>546</ele>
        <time>2025-09-07T12:42:18.967Z</time>
      </trkpt>
      <trkpt lat="45.46607" lon="5.60251">
        <ele>546</ele>
        <time>2025-09-07T12:42:23.967Z</time>
      </trkpt>
      <trkpt lat="45.4661" lon="5.60259">
        <ele>546</ele>
        <time>2025-09-07T12:42:27.967Z</time>
      </trkpt>
      <trkpt lat="45.46614" lon="5.6027">
        <ele>546</ele>
        <time>2025-09-07T12:42:32.967Z</time>
      </trkpt>
      <trkpt lat="45.46616" lon="5.60278">
        <ele>546</ele>
        <time>2025-09-07T12:42:36.967Z</time>
      </trkpt>
      <trkpt lat="45.46619" lon="5.60288">
        <ele>546</ele>
        <time>2025-09-07T12:42:41.967Z</time>
      </trkpt>
      <trkpt lat="45.46623" lon="5.60298">
        <ele>545</ele>
        <time>2025-09-07T12:42:46.967Z</time>
      </trkpt>
      <trkpt lat="45.46627" lon="5.60307">
        <ele>547</ele>
        <time>2025-09-07T12:42:51.967Z</time>
      </trkpt>
      <trkpt lat="45.46631" lon="5.60315">
        <ele>547</ele>
        <time>2025-09-07T12:42:56.316Z</time>
      </trkpt>
      <trkpt lat="45.46634" lon="5.60323">
        <ele>547</ele>
        <time>2025-09-07T12:43:00.617Z</time>
      </trkpt>
      <trkpt lat="45.46636" lon="5.60331">
        <ele>547</ele>
        <time>2025-09-07T12:43:04.820Z</time>
      </trkpt>
      <trkpt lat="45.4664" lon="5.60338">
        <ele>547</ele>
        <time>2025-09-07T12:43:09.010Z</time>
      </trkpt>
      <trkpt lat="45.46642" lon="5.60346">
        <ele>547</ele>
        <time>2025-09-07T12:43:13.150Z</time>
      </trkpt>
      <trkpt lat="45.46644" lon="5.60355">
        <ele>547</ele>
        <time>2025-09-07T12:43:17.457Z</time>
      </trkpt>
      <trkpt lat="45.46644" lon="5.60363">
        <ele>547</ele>
        <time>2025-09-07T12:43:21.873Z</time>
      </trkpt>
      <trkpt lat="45.46646" lon="5.60371">
        <ele>547</ele>
        <time>2025-09-07T12:43:26.048Z</time>
      </trkpt>
      <trkpt lat="45.46649" lon="5.6038">
        <ele>546</ele>
        <time>2025-09-07T12:43:30.455Z</time>
      </trkpt>
      <trkpt lat="45.46649" lon="5.60388">
        <ele>546</ele>
        <time>2025-09-07T12:43:34.650Z</time>
      </trkpt>
      <trkpt lat="45.46649" lon="5.60398">
        <ele>546</ele>
        <time>2025-09-07T12:43:38.827Z</time>
      </trkpt>
      <trkpt lat="45.46649" lon="5.60407">
        <ele>547</ele>
        <time>2025-09-07T12:43:43.016Z</time>
      </trkpt>
      <trkpt lat="45.4665" lon="5.60416">
        <ele>547</ele>
        <time>2025-09-07T12:43:47.017Z</time>
      </trkpt>
      <trkpt lat="45.46651" lon="5.60424">
        <ele>547</ele>
        <time>2025-09-07T12:43:51.813Z</time>
      </trkpt>
      <trkpt lat="45.46651" lon="5.60433">
        <ele>548</ele>
        <time>2025-09-07T12:43:56.063Z</time>
      </trkpt>
      <trkpt lat="45.46656" lon="5.60442">
        <ele>549</ele>
        <time>2025-09-07T12:44:00.672Z</time>
      </trkpt>
      <trkpt lat="45.4666" lon="5.60448">
        <ele>549</ele>
        <time>2025-09-07T12:44:04.867Z</time>
      </trkpt>
      <trkpt lat="45.46662" lon="5.60455">
        <ele>549</ele>
        <time>2025-09-07T12:44:09.427Z</time>
      </trkpt>
      <trkpt lat="45.46664" lon="5.60463">
        <ele>550</ele>
        <time>2025-09-07T12:44:14.091Z</time>
      </trkpt>
      <trkpt lat="45.46668" lon="5.60467">
        <ele>550</ele>
        <time>2025-09-07T12:44:18.128Z</time>
      </trkpt>
      <trkpt lat="45.46671" lon="5.60471">
        <ele>550</ele>
        <time>2025-09-07T12:44:22.068Z</time>
      </trkpt>
      <trkpt lat="45.46678" lon="5.60474">
        <ele>550</ele>
        <time>2025-09-07T12:44:26.340Z</time>
      </trkpt>
      <trkpt lat="45.46685" lon="5.60477">
        <ele>550</ele>
        <time>2025-09-07T12:44:30.682Z</time>
      </trkpt>
      <trkpt lat="45.4669" lon="5.6048">
        <ele>550</ele>
        <time>2025-09-07T12:44:34.896Z</time>
      </trkpt>
      <trkpt lat="45.46696" lon="5.60483">
        <ele>550</ele>
        <time>2025-09-07T12:44:39.145Z</time>
      </trkpt>
      <trkpt lat="45.46702" lon="5.60485">
        <ele>550</ele>
        <time>2025-09-07T12:44:43.287Z</time>
      </trkpt>
      <trkpt lat="45.46708" lon="5.60486">
        <ele>550</ele>
        <time>2025-09-07T12:44:47.516Z</time>
      </trkpt>
      <trkpt lat="45.46715" lon="5.60485">
        <ele>550</ele>
        <time>2025-09-07T12:44:52.083Z</time>
      </trkpt>
      <trkpt lat="45.46721" lon="5.60487">
        <ele>551</ele>
        <time>2025-09-07T12:44:56.664Z</time>
      </trkpt>
      <trkpt lat="45.46727" lon="5.60489">
        <ele>551</ele>
        <time>2025-09-07T12:45:01.211Z</time>
      </trkpt>
      <trkpt lat="45.46734" lon="5.60492">
        <ele>551</ele>
        <time>2025-09-07T12:45:06.062Z</time>
      </trkpt>
      <trkpt lat="45.4674" lon="5.60494">
        <ele>550</ele>
        <time>2025-09-07T12:45:10.497Z</time>
      </trkpt>
      <trkpt lat="45.46746" lon="5.60496">
        <ele>550</ele>
        <time>2025-09-07T12:45:15.108Z</time>
      </trkpt>
      <trkpt lat="45.46753" lon="5.60499">
        <ele>550</ele>
        <time>2025-09-07T12:45:20.149Z</time>
      </trkpt>
      <trkpt lat="45.4676" lon="5.605">
        <ele>550</ele>
        <time>2025-09-07T12:45:24.517Z</time>
      </trkpt>
      <trkpt lat="45.46766" lon="5.60501">
        <ele>551</ele>
        <time>2025-09-07T12:45:28.700Z</time>
      </trkpt>
      <trkpt lat="45.46772" lon="5.60502">
        <ele>551</ele>
        <time>2025-09-07T12:45:32.993Z</time>
      </trkpt>
      <trkpt lat="45.46779" lon="5.60504">
        <ele>551</ele>
        <time>2025-09-07T12:45:37.644Z</time>
      </trkpt>
      <trkpt lat="45.46784" lon="5.60507">
        <ele>551</ele>
        <time>2025-09-07T12:45:41.939Z</time>
      </trkpt>
      <trkpt lat="45.46791" lon="5.60508">
        <ele>551</ele>
        <time>2025-09-07T12:45:46.222Z</time>
      </trkpt>
      <trkpt lat="45.46797" lon="5.6051">
        <ele>553</ele>
        <time>2025-09-07T12:45:50.678Z</time>
      </trkpt>
      <trkpt lat="45.46804" lon="5.60511">
        <ele>553</ele>
        <time>2025-09-07T12:45:55.028Z</time>
      </trkpt>
      <trkpt lat="45.4681" lon="5.60512">
        <ele>553</ele>
        <time>2025-09-07T12:45:59.336Z</time>
      </trkpt>
      <trkpt lat="45.46816" lon="5.60515">
        <ele>553</ele>
        <time>2025-09-07T12:46:03.745Z</time>
      </trkpt>
      <trkpt lat="45.46821" lon="5.60517">
        <ele>555</ele>
        <time>2025-09-07T12:46:08.004Z</time>
      </trkpt>
      <trkpt lat="45.46827" lon="5.60517">
        <ele>555</ele>
        <time>2025-09-07T12:46:12.407Z</time>
      </trkpt>
      <trkpt lat="45.46833" lon="5.60519">
        <ele>555</ele>
        <time>2025-09-07T12:46:16.891Z</time>
      </trkpt>
      <trkpt lat="45.46838" lon="5.60522">
        <ele>555</ele>
        <time>2025-09-07T12:46:21.031Z</time>
      </trkpt>
      <trkpt lat="45.46844" lon="5.60525">
        <ele>555</ele>
        <time>2025-09-07T12:46:25.594Z</time>
      </trkpt>
      <trkpt lat="45.4685" lon="5.60526">
        <ele>556</ele>
        <time>2025-09-07T12:46:29.878Z</time>
      </trkpt>
      <trkpt lat="45.46856" lon="5.60528">
        <ele>556</ele>
        <time>2025-09-07T12:46:34.128Z</time>
      </trkpt>
      <trkpt lat="45.46862" lon="5.60529">
        <ele>556</ele>
        <time>2025-09-07T12:46:38.058Z</time>
      </trkpt>
      <trkpt lat="45.4687" lon="5.60531">
        <ele>556</ele>
        <time>2025-09-07T12:46:42.476Z</time>
      </trkpt>
      <trkpt lat="45.46876" lon="5.60534">
        <ele>556</ele>
        <time>2025-09-07T12:46:46.698Z</time>
      </trkpt>
      <trkpt lat="45.46882" lon="5.60536">
        <ele>556</ele>
        <time>2025-09-07T12:46:50.957Z</time>
      </trkpt>
      <trkpt lat="45.46887" lon="5.60537">
        <ele>556</ele>
        <time>2025-09-07T12:46:55.254Z</time>
      </trkpt>
      <trkpt lat="45.46893" lon="5.60538">
        <ele>556</ele>
        <time>2025-09-07T12:46:59.404Z</time>
      </trkpt>
      <trkpt lat="45.46899" lon="5.60541">
        <ele>556</ele>
        <time>2025-09-07T12:47:03.617Z</time>
      </trkpt>
      <trkpt lat="45.46905" lon="5.60544">
        <ele>558</ele>
        <time>2025-09-07T12:47:07.864Z</time>
      </trkpt>
      <trkpt lat="45.46911" lon="5.60546">
        <ele>558</ele>
        <time>2025-09-07T12:47:12.175Z</time>
      </trkpt>
      <trkpt lat="45.46916" lon="5.60548">
        <ele>558</ele>
        <time>2025-09-07T12:47:16.436Z</time>
      </trkpt>
      <trkpt lat="45.46923" lon="5.60552">
        <ele>558</ele>
        <time>2025-09-07T12:47:20.736Z</time>
      </trkpt>
      <trkpt lat="45.46928" lon="5.60555">
        <ele>558</ele>
        <time>2025-09-07T12:47:24.981Z</time>
      </trkpt>
      <trkpt lat="45.46934" lon="5.60556">
        <ele>560</ele>
        <time>2025-09-07T12:47:29.179Z</time>
      </trkpt>
      <trkpt lat="45.46939" lon="5.6056">
        <ele>560</ele>
        <time>2025-09-07T12:47:33.446Z</time>
      </trkpt>
      <trkpt lat="45.46945" lon="5.60563">
        <ele>560</ele>
        <time>2025-09-07T12:47:37.795Z</time>
      </trkpt>
      <trkpt lat="45.46951" lon="5.60566">
        <ele>560</ele>
        <time>2025-09-07T12:47:42.112Z</time>
      </trkpt>
      <trkpt lat="45.46957" lon="5.60569">
        <ele>560</ele>
        <time>2025-09-07T12:47:46.441Z</time>
      </trkpt>
      <trkpt lat="45.46963" lon="5.60574">
        <ele>563</ele>
        <time>2025-09-07T12:47:50.752Z</time>
      </trkpt>
      <trkpt lat="45.46967" lon="5.60579">
        <ele>563</ele>
        <time>2025-09-07T12:47:55.033Z</time>
      </trkpt>
      <trkpt lat="45.46972" lon="5.60584">
        <ele>563</ele>
        <time>2025-09-07T12:47:59.296Z</time>
      </trkpt>
      <trkpt lat="45.46977" lon="5.60589">
        <ele>563</ele>
        <time>2025-09-07T12:48:03.617Z</time>
      </trkpt>
      <trkpt lat="45.46983" lon="5.60594">
        <ele>563</ele>
        <time>2025-09-07T12:48:07.868Z</time>
      </trkpt>
      <trkpt lat="45.46987" lon="5.60598">
        <ele>567</ele>
        <time>2025-09-07T12:48:12.006Z</time>
      </trkpt>
      <trkpt lat="45.46994" lon="5.60603">
        <ele>567</ele>
        <time>2025-09-07T12:48:16.706Z</time>
      </trkpt>
      <trkpt lat="45.46999" lon="5.60609">
        <ele>567</ele>
        <time>2025-09-07T12:48:20.868Z</time>
      </trkpt>
      <trkpt lat="45.47002" lon="5.60616">
        <ele>567</ele>
        <time>2025-09-07T12:48:25.116Z</time>
      </trkpt>
      <trkpt lat="45.47005" lon="5.60625">
        <ele>567</ele>
        <time>2025-09-07T12:48:29.413Z</time>
      </trkpt>
      <trkpt lat="45.47008" lon="5.60632">
        <ele>568</ele>
        <time>2025-09-07T12:48:33.599Z</time>
      </trkpt>
      <trkpt lat="45.47011" lon="5.6064">
        <ele>568</ele>
        <time>2025-09-07T12:48:37.817Z</time>
      </trkpt>
      <trkpt lat="45.47014" lon="5.60647">
        <ele>568</ele>
        <time>2025-09-07T12:48:41.996Z</time>
      </trkpt>
      <trkpt lat="45.47017" lon="5.60656">
        <ele>571</ele>
        <time>2025-09-07T12:48:46.190Z</time>
      </trkpt>
      <trkpt lat="45.47019" lon="5.60663">
        <ele>571</ele>
        <time>2025-09-07T12:48:50.297Z</time>
      </trkpt>
      <trkpt lat="45.47021" lon="5.6067">
        <ele>571</ele>
        <time>2025-09-07T12:48:54.566Z</time>
      </trkpt>
      <trkpt lat="45.47024" lon="5.60678">
        <ele>571</ele>
        <time>2025-09-07T12:48:58.664Z</time>
      </trkpt>
      <trkpt lat="45.47026" lon="5.60685">
        <ele>571</ele>
        <time>2025-09-07T12:49:02.853Z</time>
      </trkpt>
      <trkpt lat="45.47029" lon="5.60693">
        <ele>571</ele>
        <time>2025-09-07T12:49:07.022Z</time>
      </trkpt>
      <trkpt lat="45.47033" lon="5.607">
        <ele>571</ele>
        <time>2025-09-07T12:49:11.022Z</time>
      </trkpt>
      <trkpt lat="45.47036" lon="5.60708">
        <ele>571</ele>
        <time>2025-09-07T12:49:15.014Z</time>
      </trkpt>
      <trkpt lat="45.47039" lon="5.60716">
        <ele>572</ele>
        <time>2025-09-07T12:49:19.236Z</time>
      </trkpt>
      <trkpt lat="45.47043" lon="5.60724">
        <ele>577</ele>
        <time>2025-09-07T12:49:23.318Z</time>
      </trkpt>
      <trkpt lat="45.47046" lon="5.60731">
        <ele>577</ele>
        <time>2025-09-07T12:49:27.397Z</time>
      </trkpt>
      <trkpt lat="45.47048" lon="5.60739">
        <ele>578</ele>
        <time>2025-09-07T12:49:31.429Z</time>
      </trkpt>
      <trkpt lat="45.4705" lon="5.60747">
        <ele>578</ele>
        <time>2025-09-07T12:49:35.504Z</time>
      </trkpt>
      <trkpt lat="45.47053" lon="5.60755">
        <ele>578</ele>
        <time>2025-09-07T12:49:39.565Z</time>
      </trkpt>
      <trkpt lat="45.47055" lon="5.60763">
        <ele>578</ele>
        <time>2025-09-07T12:49:43.708Z</time>
      </trkpt>
      <trkpt lat="45.47057" lon="5.6077">
        <ele>578</ele>
        <time>2025-09-07T12:49:47.863Z</time>
      </trkpt>
      <trkpt lat="45.47059" lon="5.60778">
        <ele>578</ele>
        <time>2025-09-07T12:49:51.947Z</time>
      </trkpt>
      <trkpt lat="45.47061" lon="5.60785">
        <ele>578</ele>
        <time>2025-09-07T12:49:56.077Z</time>
      </trkpt>
      <trkpt lat="45.47063" lon="5.60793">
        <ele>578</ele>
        <time>2025-09-07T12:50:34.965Z</time>
      </trkpt>
      <trkpt lat="45.47063" lon="5.60793">
        <ele>578</ele>
        <time>2025-09-07T12:50:40.534Z</time>
      </trkpt>
      <trkpt lat="45.47066" lon="5.60795">
        <ele>578</ele>
        <time>2025-09-07T12:50:45.017Z</time>
      </trkpt>
      <trkpt lat="45.47068" lon="5.60804">
        <ele>578</ele>
        <time>2025-09-07T12:50:49.072Z</time>
      </trkpt>
      <trkpt lat="45.4707" lon="5.60812">
        <ele>584</ele>
        <time>2025-09-07T12:50:53.074Z</time>
      </trkpt>
      <trkpt lat="45.47073" lon="5.60821">
        <ele>585</ele>
        <time>2025-09-07T12:50:57.654Z</time>
      </trkpt>
      <trkpt lat="45.47074" lon="5.60829">
        <ele>585</ele>
        <time>2025-09-07T12:51:01.776Z</time>
      </trkpt>
      <trkpt lat="45.47076" lon="5.60837">
        <ele>585</ele>
        <time>2025-09-07T12:51:05.957Z</time>
      </trkpt>
      <trkpt lat="45.47077" lon="5.60844">
        <ele>585</ele>
        <time>2025-09-07T12:51:10.077Z</time>
      </trkpt>
      <trkpt lat="45.47078" lon="5.60852">
        <ele>585</ele>
        <time>2025-09-07T12:51:14.457Z</time>
      </trkpt>
      <trkpt lat="45.4708" lon="5.6086">
        <ele>585</ele>
        <time>2025-09-07T12:51:18.646Z</time>
      </trkpt>
      <trkpt lat="45.47082" lon="5.60868">
        <ele>585</ele>
        <time>2025-09-07T12:51:23.025Z</time>
      </trkpt>
      <trkpt lat="45.47084" lon="5.60876">
        <ele>586</ele>
        <time>2025-09-07T12:51:27.096Z</time>
      </trkpt>
      <trkpt lat="45.47087" lon="5.60884">
        <ele>586</ele>
        <time>2025-09-07T12:51:31.105Z</time>
      </trkpt>
      <trkpt lat="45.47087" lon="5.60893">
        <ele>586</ele>
        <time>2025-09-07T12:51:35.283Z</time>
      </trkpt>
      <trkpt lat="45.47087" lon="5.60901">
        <ele>586</ele>
        <time>2025-09-07T12:51:39.526Z</time>
      </trkpt>
      <trkpt lat="45.47086" lon="5.60909">
        <ele>587</ele>
        <time>2025-09-07T12:51:43.756Z</time>
      </trkpt>
      <trkpt lat="45.47083" lon="5.60916">
        <ele>587</ele>
        <time>2025-09-07T12:51:47.977Z</time>
      </trkpt>
      <trkpt lat="45.4708" lon="5.60923">
        <ele>587</ele>
        <time>2025-09-07T12:51:52.227Z</time>
      </trkpt>
      <trkpt lat="45.47077" lon="5.60929">
        <ele>587</ele>
        <time>2025-09-07T12:51:56.430Z</time>
      </trkpt>
      <trkpt lat="45.47073" lon="5.60934">
        <ele>589</ele>
        <time>2025-09-07T12:52:00.594Z</time>
      </trkpt>
      <trkpt lat="45.47067" lon="5.6094">
        <ele>587</ele>
        <time>2025-09-07T12:52:04.771Z</time>
      </trkpt>
      <trkpt lat="45.47061" lon="5.60944">
        <ele>587</ele>
        <time>2025-09-07T12:52:08.896Z</time>
      </trkpt>
      <trkpt lat="45.47057" lon="5.60949">
        <ele>587</ele>
        <time>2025-09-07T12:52:13.769Z</time>
      </trkpt>
      <trkpt lat="45.47054" lon="5.60956">
        <ele>587</ele>
        <time>2025-09-07T12:52:17.836Z</time>
      </trkpt>
      <trkpt lat="45.4705" lon="5.60962">
        <ele>590</ele>
        <time>2025-09-07T12:52:22.108Z</time>
      </trkpt>
      <trkpt lat="45.47046" lon="5.60969">
        <ele>590</ele>
        <time>2025-09-07T12:52:26.097Z</time>
      </trkpt>
      <trkpt lat="45.47044" lon="5.60976">
        <ele>590</ele>
        <time>2025-09-07T12:52:30.003Z</time>
      </trkpt>
      <trkpt lat="45.47048" lon="5.60981">
        <ele>590</ele>
        <time>2025-09-07T12:52:34.545Z</time>
      </trkpt>
      <trkpt lat="45.47053" lon="5.60986">
        <ele>590</ele>
        <time>2025-09-07T12:52:38.906Z</time>
      </trkpt>
      <trkpt lat="45.47058" lon="5.60988">
        <ele>594</ele>
        <time>2025-09-07T12:52:43.105Z</time>
      </trkpt>
      <trkpt lat="45.47064" lon="5.60988">
        <ele>594</ele>
        <time>2025-09-07T12:52:47.374Z</time>
      </trkpt>
      <trkpt lat="45.47068" lon="5.6099">
        <ele>594</ele>
        <time>2025-09-07T12:52:51.644Z</time>
      </trkpt>
      <trkpt lat="45.47073" lon="5.60993">
        <ele>596</ele>
        <time>2025-09-07T12:52:55.846Z</time>
      </trkpt>
      <trkpt lat="45.47079" lon="5.60993">
        <ele>596</ele>
        <time>2025-09-07T12:53:00.017Z</time>
      </trkpt>
      <trkpt lat="45.47084" lon="5.60993">
        <ele>596</ele>
        <time>2025-09-07T12:53:04.279Z</time>
      </trkpt>
      <trkpt lat="45.47089" lon="5.60994">
        <ele>596</ele>
        <time>2025-09-07T12:53:08.617Z</time>
      </trkpt>
      <trkpt lat="45.47095" lon="5.60997">
        <ele>596</ele>
        <time>2025-09-07T12:53:13.123Z</time>
      </trkpt>
      <trkpt lat="45.47101" lon="5.60999">
        <ele>598</ele>
        <time>2025-09-07T12:53:17.337Z</time>
      </trkpt>
      <trkpt lat="45.47107" lon="5.61">
        <ele>598</ele>
        <time>2025-09-07T12:53:21.616Z</time>
      </trkpt>
      <trkpt lat="45.47112" lon="5.61002">
        <ele>598</ele>
        <time>2025-09-07T12:53:26.023Z</time>
      </trkpt>
      <trkpt lat="45.47118" lon="5.61005">
        <ele>598</ele>
        <time>2025-09-07T12:53:30.031Z</time>
      </trkpt>
      <trkpt lat="45.47124" lon="5.61008">
        <ele>598</ele>
        <time>2025-09-07T12:53:34.176Z</time>
      </trkpt>
      <trkpt lat="45.4713" lon="5.6101">
        <ele>597</ele>
        <time>2025-09-07T12:53:38.400Z</time>
      </trkpt>
      <trkpt lat="45.47137" lon="5.6101">
        <ele>597</ele>
        <time>2025-09-07T12:53:43.135Z</time>
      </trkpt>
      <trkpt lat="45.47144" lon="5.61008">
        <ele>597</ele>
        <time>2025-09-07T12:53:47.179Z</time>
      </trkpt>
      <trkpt lat="45.4715" lon="5.61006">
        <ele>597</ele>
        <time>2025-09-07T12:53:51.406Z</time>
      </trkpt>
      <trkpt lat="45.47157" lon="5.61004">
        <ele>600</ele>
        <time>2025-09-07T12:53:55.466Z</time>
      </trkpt>
      <trkpt lat="45.47164" lon="5.61002">
        <ele>600</ele>
        <time>2025-09-07T12:53:59.557Z</time>
      </trkpt>
      <trkpt lat="45.4717" lon="5.61">
        <ele>600</ele>
        <time>2025-09-07T12:54:04.074Z</time>
      </trkpt>
      <trkpt lat="45.47176" lon="5.60998">
        <ele>600</ele>
        <time>2025-09-07T12:54:08.121Z</time>
      </trkpt>
      <trkpt lat="45.47183" lon="5.60997">
        <ele>601</ele>
        <time>2025-09-07T12:54:12.901Z</time>
      </trkpt>
      <trkpt lat="45.47189" lon="5.60996">
        <ele>601</ele>
        <time>2025-09-07T12:54:16.980Z</time>
      </trkpt>
      <trkpt lat="45.47196" lon="5.60996">
        <ele>601</ele>
        <time>2025-09-07T12:54:21.591Z</time>
      </trkpt>
      <trkpt lat="45.47202" lon="5.60998">
        <ele>601</ele>
        <time>2025-09-07T12:54:26.051Z</time>
      </trkpt>
      <trkpt lat="45.47209" lon="5.61004">
        <ele>602</ele>
        <time>2025-09-07T12:54:30.908Z</time>
      </trkpt>
      <trkpt lat="45.47214" lon="5.6101">
        <ele>602</ele>
        <time>2025-09-07T12:54:35.094Z</time>
      </trkpt>
      <trkpt lat="45.47216" lon="5.61017">
        <ele>604</ele>
        <time>2025-09-07T12:54:58.414Z</time>
      </trkpt>
      <trkpt lat="45.47219" lon="5.61025">
        <ele>604</ele>
        <time>2025-09-07T12:55:02.773Z</time>
      </trkpt>
      <trkpt lat="45.47222" lon="5.61033">
        <ele>604</ele>
        <time>2025-09-07T12:55:06.968Z</time>
      </trkpt>
      <trkpt lat="45.47227" lon="5.61041">
        <ele>604</ele>
        <time>2025-09-07T12:55:11.065Z</time>
      </trkpt>
      <trkpt lat="45.4723" lon="5.6105">
        <ele>606</ele>
        <time>2025-09-07T12:55:15.224Z</time>
      </trkpt>
      <trkpt lat="45.47233" lon="5.61057">
        <ele>606</ele>
        <time>2025-09-07T12:55:19.696Z</time>
      </trkpt>
      <trkpt lat="45.47235" lon="5.61065">
        <ele>606</ele>
        <time>2025-09-07T12:55:23.985Z</time>
      </trkpt>
      <trkpt lat="45.47237" lon="5.61073">
        <ele>606</ele>
        <time>2025-09-07T12:55:28.034Z</time>
      </trkpt>
      <trkpt lat="45.47238" lon="5.6108">
        <ele>606</ele>
        <time>2025-09-07T12:55:32.042Z</time>
      </trkpt>
      <trkpt lat="45.47241" lon="5.61081">
        <ele>606</ele>
        <time>2025-09-07T12:55:37.099Z</time>
      </trkpt>
      <trkpt lat="45.47247" lon="5.61081">
        <ele>606</ele>
        <time>2025-09-07T12:55:41.476Z</time>
      </trkpt>
      <trkpt lat="45.47253" lon="5.6108">
        <ele>606</ele>
        <time>2025-09-07T12:55:45.534Z</time>
      </trkpt>
      <trkpt lat="45.47258" lon="5.61082">
        <ele>606</ele>
        <time>2025-09-07T12:55:49.744Z</time>
      </trkpt>
      <trkpt lat="45.47262" lon="5.61085">
        <ele>606</ele>
        <time>2025-09-07T12:55:53.766Z</time>
      </trkpt>
      <trkpt lat="45.47267" lon="5.61088">
        <ele>603</ele>
        <time>2025-09-07T12:55:57.740Z</time>
      </trkpt>
      <trkpt lat="45.47272" lon="5.61093">
        <ele>603</ele>
        <time>2025-09-07T12:56:02.594Z</time>
      </trkpt>
      <trkpt lat="45.47274" lon="5.61097">
        <ele>603</ele>
        <time>2025-09-07T12:56:07.094Z</time>
      </trkpt>
      <trkpt lat="45.47277" lon="5.61095">
        <ele>603</ele>
        <time>2025-09-07T12:56:12.028Z</time>
      </trkpt>
      <trkpt lat="45.47279" lon="5.611">
        <ele>605</ele>
        <time>2025-09-07T12:56:16.603Z</time>
      </trkpt>
      <trkpt lat="45.47284" lon="5.61105">
        <ele>605</ele>
        <time>2025-09-07T12:56:20.816Z</time>
      </trkpt>
      <trkpt lat="45.4729" lon="5.61112">
        <ele>605</ele>
        <time>2025-09-07T12:56:25.769Z</time>
      </trkpt>
    </trkseg>
  </trk>
</gpx>